<?xml version="1.0" encoding="UTF-8" standalone="no" ?>
<gpx xmlns="http://www.topografix.com/GPX/1/1" xmlns:xsi="http://www.w3.org/2001/XMLSchema-instance" xsi:schemaLocation="http://www.topografix.com/GPX/1/1 http://www.topografix.com/GPX/1/1/gpx.xsd" version="1.1" creator="VisuGPX - https://www.visugpx.com">
  <metadata>
    <name>Pornichet 17/12/2020</name>
    <desc><![CDATA[Sortie VTT du jeudi 17 décembre 2020]]></desc>
  </metadata>
  <trk>
    <name><![CDATA[Pornichet Cyclisme]]></name>
    <trkseg>
      <trkpt lat="47.26414" lon="-2.31565">
        <ele>3.4000000953674</ele>
        <time>2020-12-17T08:11:59.000Z</time>
      </trkpt>
      <trkpt lat="47.26416" lon="-2.31585">
        <ele>3.4000000953674</ele>
        <time>2020-12-17T08:12:03.000Z</time>
      </trkpt>
      <trkpt lat="47.26416" lon="-2.3159">
        <ele>3.7999999523163</ele>
        <time>2020-12-17T08:12:04.000Z</time>
      </trkpt>
      <trkpt lat="47.26415" lon="-2.31595">
        <ele>4.5999999046326</ele>
        <time>2020-12-17T08:12:05.000Z</time>
      </trkpt>
      <trkpt lat="47.26413" lon="-2.31625">
        <ele>4.5999999046326</ele>
        <time>2020-12-17T08:12:11.000Z</time>
      </trkpt>
      <trkpt lat="47.26411" lon="-2.31653">
        <ele>4.5999999046326</ele>
        <time>2020-12-17T08:12:17.000Z</time>
      </trkpt>
      <trkpt lat="47.26405" lon="-2.31657">
        <ele>4.5999999046326</ele>
        <time>2020-12-17T08:12:20.000Z</time>
      </trkpt>
      <trkpt lat="47.26403" lon="-2.31658">
        <ele>4.5999999046326</ele>
        <time>2020-12-17T08:12:21.000Z</time>
      </trkpt>
      <trkpt lat="47.2639" lon="-2.31664">
        <ele>4.5999999046326</ele>
        <time>2020-12-17T08:12:26.000Z</time>
      </trkpt>
      <trkpt lat="47.26371" lon="-2.31673">
        <ele>4.5999999046326</ele>
        <time>2020-12-17T08:12:32.000Z</time>
      </trkpt>
      <trkpt lat="47.26346" lon="-2.31682">
        <ele>4.5999999046326</ele>
        <time>2020-12-17T08:12:40.000Z</time>
      </trkpt>
      <trkpt lat="47.26343" lon="-2.31683">
        <ele>3.7999999523163</ele>
        <time>2020-12-17T08:12:41.000Z</time>
      </trkpt>
      <trkpt lat="47.2634" lon="-2.31684">
        <ele>3.2000000476837</ele>
        <time>2020-12-17T08:12:42.000Z</time>
      </trkpt>
      <trkpt lat="47.26338" lon="-2.31686">
        <ele>2.5999999046326</ele>
        <time>2020-12-17T08:12:43.000Z</time>
      </trkpt>
      <trkpt lat="47.26335" lon="-2.31689">
        <ele>1.7999999523163</ele>
        <time>2020-12-17T08:12:44.000Z</time>
      </trkpt>
      <trkpt lat="47.26334" lon="-2.31694">
        <ele>1.2000000476837</ele>
        <time>2020-12-17T08:12:45.000Z</time>
      </trkpt>
      <trkpt lat="47.26323" lon="-2.31705">
        <ele>1.2000000476837</ele>
        <time>2020-12-17T08:12:49.000Z</time>
      </trkpt>
      <trkpt lat="47.2632" lon="-2.31707">
        <ele>1.2000000476837</ele>
        <time>2020-12-17T08:12:50.000Z</time>
      </trkpt>
      <trkpt lat="47.26312" lon="-2.31711">
        <ele>0.80000001192093</ele>
        <time>2020-12-17T08:12:52.000Z</time>
      </trkpt>
      <trkpt lat="47.26308" lon="-2.31713">
        <ele>0.40000000596046</ele>
        <time>2020-12-17T08:12:53.000Z</time>
      </trkpt>
      <trkpt lat="47.26305" lon="-2.31715">
        <ele>4</ele>
        <time>2020-12-17T08:12:54.000Z</time>
      </trkpt>
      <trkpt lat="47.26302" lon="-2.31718">
        <ele>-0.40000000596046</ele>
        <time>2020-12-17T08:12:55.000Z</time>
      </trkpt>
      <trkpt lat="47.26301" lon="-2.31723">
        <ele>-0.80000001192093</ele>
        <time>2020-12-17T08:12:56.000Z</time>
      </trkpt>
      <trkpt lat="47.26302" lon="-2.31731">
        <ele>-0.80000001192093</ele>
        <time>2020-12-17T08:12:58.000Z</time>
      </trkpt>
      <trkpt lat="47.26306" lon="-2.3175">
        <ele>-0.80000001192093</ele>
        <time>2020-12-17T08:13:02.000Z</time>
      </trkpt>
      <trkpt lat="47.26308" lon="-2.31754">
        <ele>-0.80000001192093</ele>
        <time>2020-12-17T08:13:03.000Z</time>
      </trkpt>
      <trkpt lat="47.26312" lon="-2.31782">
        <ele>-0.80000001192093</ele>
        <time>2020-12-17T08:13:08.000Z</time>
      </trkpt>
      <trkpt lat="47.26313" lon="-2.31809">
        <ele>-0.80000001192093</ele>
        <time>2020-12-17T08:13:13.000Z</time>
      </trkpt>
      <trkpt lat="47.26311" lon="-2.31837">
        <ele>-0.80000001192093</ele>
        <time>2020-12-17T08:13:19.000Z</time>
      </trkpt>
      <trkpt lat="47.2631" lon="-2.31856">
        <ele>-0.80000001192093</ele>
        <time>2020-12-17T08:13:23.000Z</time>
      </trkpt>
      <trkpt lat="47.2631" lon="-2.3186">
        <ele>-0.80000001192093</ele>
        <time>2020-12-17T08:13:24.000Z</time>
      </trkpt>
      <trkpt lat="47.26307" lon="-2.31878">
        <ele>-0.80000001192093</ele>
        <time>2020-12-17T08:13:28.000Z</time>
      </trkpt>
      <trkpt lat="47.26304" lon="-2.31881">
        <ele>-0.80000001192093</ele>
        <time>2020-12-17T08:13:29.000Z</time>
      </trkpt>
      <trkpt lat="47.26296" lon="-2.31888">
        <ele>-1.2000000476837</ele>
        <time>2020-12-17T08:13:32.000Z</time>
      </trkpt>
      <trkpt lat="47.26294" lon="-2.3189">
        <ele>-1.6000000238419</ele>
        <time>2020-12-17T08:13:33.000Z</time>
      </trkpt>
      <trkpt lat="47.26292" lon="-2.31893">
        <ele>-2.2000000476837</ele>
        <time>2020-12-17T08:13:34.000Z</time>
      </trkpt>
      <trkpt lat="47.26288" lon="-2.31897">
        <ele>-2.5999999046326</ele>
        <time>2020-12-17T08:13:35.000Z</time>
      </trkpt>
      <trkpt lat="47.26285" lon="-2.319">
        <ele>-3</ele>
        <time>2020-12-17T08:13:36.000Z</time>
      </trkpt>
      <trkpt lat="47.26276" lon="-2.31918">
        <ele>-3</ele>
        <time>2020-12-17T08:13:40.000Z</time>
      </trkpt>
      <trkpt lat="47.26266" lon="-2.31931">
        <ele>-3</ele>
        <time>2020-12-17T08:13:44.000Z</time>
      </trkpt>
      <trkpt lat="47.26254" lon="-2.31952">
        <ele>-3</ele>
        <time>2020-12-17T08:13:50.000Z</time>
      </trkpt>
      <trkpt lat="47.26244" lon="-2.31968">
        <ele>-3</ele>
        <time>2020-12-17T08:13:55.000Z</time>
      </trkpt>
      <trkpt lat="47.26236" lon="-2.31969">
        <ele>-3</ele>
        <time>2020-12-17T08:13:59.000Z</time>
      </trkpt>
      <trkpt lat="47.26224" lon="-2.31982">
        <ele>-3</ele>
        <time>2020-12-17T08:14:04.000Z</time>
      </trkpt>
      <trkpt lat="47.26211" lon="-2.31994">
        <ele>-3</ele>
        <time>2020-12-17T08:14:09.000Z</time>
      </trkpt>
      <trkpt lat="47.26207" lon="-2.32003">
        <ele>-3</ele>
        <time>2020-12-17T08:14:13.000Z</time>
      </trkpt>
      <trkpt lat="47.26206" lon="-2.3201">
        <ele>-3</ele>
        <time>2020-12-17T08:14:16.000Z</time>
      </trkpt>
      <trkpt lat="47.26205" lon="-2.32013">
        <ele>-3</ele>
        <time>2020-12-17T08:14:18.000Z</time>
      </trkpt>
      <trkpt lat="47.26203" lon="-2.32015">
        <ele>-3</ele>
        <time>2020-12-17T08:14:19.000Z</time>
      </trkpt>
      <trkpt lat="47.26201" lon="-2.32018">
        <ele>-3</ele>
        <time>2020-12-17T08:14:23.000Z</time>
      </trkpt>
      <trkpt lat="47.26195" lon="-2.32018">
        <ele>-3</ele>
        <time>2020-12-17T08:14:26.000Z</time>
      </trkpt>
      <trkpt lat="47.26188" lon="-2.3202">
        <ele>-3</ele>
        <time>2020-12-17T08:14:28.000Z</time>
      </trkpt>
      <trkpt lat="47.26168" lon="-2.32031">
        <ele>-3</ele>
        <time>2020-12-17T08:14:34.000Z</time>
      </trkpt>
      <trkpt lat="47.26162" lon="-2.3204">
        <ele>-3</ele>
        <time>2020-12-17T08:14:36.000Z</time>
      </trkpt>
      <trkpt lat="47.26159" lon="-2.32049">
        <ele>-3</ele>
        <time>2020-12-17T08:14:38.000Z</time>
      </trkpt>
      <trkpt lat="47.26146" lon="-2.32078">
        <ele>-3</ele>
        <time>2020-12-17T08:14:44.000Z</time>
      </trkpt>
      <trkpt lat="47.26144" lon="-2.32084">
        <ele>-3</ele>
        <time>2020-12-17T08:14:45.000Z</time>
      </trkpt>
      <trkpt lat="47.26135" lon="-2.32111">
        <ele>-3</ele>
        <time>2020-12-17T08:14:50.000Z</time>
      </trkpt>
      <trkpt lat="47.26119" lon="-2.32155">
        <ele>-3</ele>
        <time>2020-12-17T08:14:58.000Z</time>
      </trkpt>
      <trkpt lat="47.26114" lon="-2.32172">
        <ele>-3</ele>
        <time>2020-12-17T08:15:01.000Z</time>
      </trkpt>
      <trkpt lat="47.26109" lon="-2.32181">
        <ele>-3</ele>
        <time>2020-12-17T08:15:03.000Z</time>
      </trkpt>
      <trkpt lat="47.26101" lon="-2.32197">
        <ele>-3</ele>
        <time>2020-12-17T08:15:06.000Z</time>
      </trkpt>
      <trkpt lat="47.26078" lon="-2.32236">
        <ele>-3</ele>
        <time>2020-12-17T08:15:14.000Z</time>
      </trkpt>
      <trkpt lat="47.26075" lon="-2.3224">
        <ele>-3</ele>
        <time>2020-12-17T08:15:15.000Z</time>
      </trkpt>
      <trkpt lat="47.26062" lon="-2.32256">
        <ele>-3</ele>
        <time>2020-12-17T08:15:19.000Z</time>
      </trkpt>
      <trkpt lat="47.26038" lon="-2.32285">
        <ele>-3</ele>
        <time>2020-12-17T08:15:26.000Z</time>
      </trkpt>
      <trkpt lat="47.26017" lon="-2.32308">
        <ele>-3</ele>
        <time>2020-12-17T08:15:32.000Z</time>
      </trkpt>
      <trkpt lat="47.26014" lon="-2.32312">
        <ele>-3</ele>
        <time>2020-12-17T08:15:33.000Z</time>
      </trkpt>
      <trkpt lat="47.25993" lon="-2.32337">
        <ele>-3</ele>
        <time>2020-12-17T08:15:39.000Z</time>
      </trkpt>
      <trkpt lat="47.25971" lon="-2.32367">
        <ele>-3</ele>
        <time>2020-12-17T08:15:46.000Z</time>
      </trkpt>
      <trkpt lat="47.25941" lon="-2.32408">
        <ele>-3</ele>
        <time>2020-12-17T08:15:56.000Z</time>
      </trkpt>
      <trkpt lat="47.25918" lon="-2.32439">
        <ele>-3</ele>
        <time>2020-12-17T08:16:04.000Z</time>
      </trkpt>
      <trkpt lat="47.25903" lon="-2.32464">
        <ele>-3</ele>
        <time>2020-12-17T08:16:11.000Z</time>
      </trkpt>
      <trkpt lat="47.25907" lon="-2.32472">
        <ele>-3</ele>
        <time>2020-12-17T08:16:14.000Z</time>
      </trkpt>
      <trkpt lat="47.2591" lon="-2.32475">
        <ele>-3</ele>
        <time>2020-12-17T08:16:15.000Z</time>
      </trkpt>
      <trkpt lat="47.25921" lon="-2.32485">
        <ele>-3</ele>
        <time>2020-12-17T08:16:18.000Z</time>
      </trkpt>
      <trkpt lat="47.25927" lon="-2.32494">
        <ele>-3</ele>
        <time>2020-12-17T08:16:20.000Z</time>
      </trkpt>
      <trkpt lat="47.25929" lon="-2.32499">
        <ele>-3</ele>
        <time>2020-12-17T08:16:21.000Z</time>
      </trkpt>
      <trkpt lat="47.25937" lon="-2.32524">
        <ele>-3</ele>
        <time>2020-12-17T08:16:25.000Z</time>
      </trkpt>
      <trkpt lat="47.25952" lon="-2.32572">
        <ele>-3</ele>
        <time>2020-12-17T08:16:33.000Z</time>
      </trkpt>
      <trkpt lat="47.25964" lon="-2.3262">
        <ele>-3</ele>
        <time>2020-12-17T08:16:41.000Z</time>
      </trkpt>
      <trkpt lat="47.25965" lon="-2.32631">
        <ele>-3</ele>
        <time>2020-12-17T08:16:43.000Z</time>
      </trkpt>
      <trkpt lat="47.25969" lon="-2.32657">
        <ele>-3</ele>
        <time>2020-12-17T08:16:48.000Z</time>
      </trkpt>
      <trkpt lat="47.25976" lon="-2.32656">
        <ele>-3</ele>
        <time>2020-12-17T08:16:50.000Z</time>
      </trkpt>
      <trkpt lat="47.25983" lon="-2.32657">
        <ele>-3</ele>
        <time>2020-12-17T08:16:52.000Z</time>
      </trkpt>
      <trkpt lat="47.25998" lon="-2.32657">
        <ele>-3</ele>
        <time>2020-12-17T08:16:56.000Z</time>
      </trkpt>
      <trkpt lat="47.26035" lon="-2.32652">
        <ele>-3</ele>
        <time>2020-12-17T08:17:05.000Z</time>
      </trkpt>
      <trkpt lat="47.26062" lon="-2.32647">
        <ele>-3</ele>
        <time>2020-12-17T08:17:12.000Z</time>
      </trkpt>
      <trkpt lat="47.26104" lon="-2.3264">
        <ele>-3</ele>
        <time>2020-12-17T08:17:22.000Z</time>
      </trkpt>
      <trkpt lat="47.26138" lon="-2.32641">
        <ele>-3</ele>
        <time>2020-12-17T08:17:30.000Z</time>
      </trkpt>
      <trkpt lat="47.26151" lon="-2.32644">
        <ele>-3</ele>
        <time>2020-12-17T08:17:33.000Z</time>
      </trkpt>
      <trkpt lat="47.26163" lon="-2.32651">
        <ele>-3</ele>
        <time>2020-12-17T08:17:36.000Z</time>
      </trkpt>
      <trkpt lat="47.26196" lon="-2.32674">
        <ele>-3</ele>
        <time>2020-12-17T08:17:44.000Z</time>
      </trkpt>
      <trkpt lat="47.2623" lon="-2.32712">
        <ele>-3</ele>
        <time>2020-12-17T08:17:53.000Z</time>
      </trkpt>
      <trkpt lat="47.2626" lon="-2.32761">
        <ele>-3</ele>
        <time>2020-12-17T08:18:02.000Z</time>
      </trkpt>
      <trkpt lat="47.2628" lon="-2.32805">
        <ele>-3</ele>
        <time>2020-12-17T08:18:09.000Z</time>
      </trkpt>
      <trkpt lat="47.26286" lon="-2.32826">
        <ele>-3</ele>
        <time>2020-12-17T08:18:12.000Z</time>
      </trkpt>
      <trkpt lat="47.26288" lon="-2.32841">
        <ele>-3</ele>
        <time>2020-12-17T08:18:14.000Z</time>
      </trkpt>
      <trkpt lat="47.26293" lon="-2.32854">
        <ele>-3.4000000953674</ele>
        <time>2020-12-17T08:18:16.000Z</time>
      </trkpt>
      <trkpt lat="47.26296" lon="-2.32859">
        <ele>-3.7999999523163</ele>
        <time>2020-12-17T08:18:17.000Z</time>
      </trkpt>
      <trkpt lat="47.26301" lon="-2.32862">
        <ele>-4.5999999046326</ele>
        <time>2020-12-17T08:18:18.000Z</time>
      </trkpt>
      <trkpt lat="47.26306" lon="-2.32864">
        <ele>-5</ele>
        <time>2020-12-17T08:18:19.000Z</time>
      </trkpt>
      <trkpt lat="47.26311" lon="-2.32867">
        <ele>-5</ele>
        <time>2020-12-17T08:18:20.000Z</time>
      </trkpt>
      <trkpt lat="47.26321" lon="-2.32882">
        <ele>-5</ele>
        <time>2020-12-17T08:18:23.000Z</time>
      </trkpt>
      <trkpt lat="47.26324" lon="-2.32889">
        <ele>-5</ele>
        <time>2020-12-17T08:18:24.000Z</time>
      </trkpt>
      <trkpt lat="47.26339" lon="-2.32934">
        <ele>-5</ele>
        <time>2020-12-17T08:18:31.000Z</time>
      </trkpt>
      <trkpt lat="47.2635" lon="-2.32966">
        <ele>-5</ele>
        <time>2020-12-17T08:18:36.000Z</time>
      </trkpt>
      <trkpt lat="47.26356" lon="-2.32977">
        <ele>-5</ele>
        <time>2020-12-17T08:18:38.000Z</time>
      </trkpt>
      <trkpt lat="47.26362" lon="-2.32986">
        <ele>-5</ele>
        <time>2020-12-17T08:18:40.000Z</time>
      </trkpt>
      <trkpt lat="47.26366" lon="-2.32999">
        <ele>-5</ele>
        <time>2020-12-17T08:18:42.000Z</time>
      </trkpt>
      <trkpt lat="47.26367" lon="-2.33012">
        <ele>-5</ele>
        <time>2020-12-17T08:18:44.000Z</time>
      </trkpt>
      <trkpt lat="47.26368" lon="-2.3304">
        <ele>-5</ele>
        <time>2020-12-17T08:18:48.000Z</time>
      </trkpt>
      <trkpt lat="47.26371" lon="-2.33101">
        <ele>-5</ele>
        <time>2020-12-17T08:18:57.000Z</time>
      </trkpt>
      <trkpt lat="47.26371" lon="-2.33108">
        <ele>-5</ele>
        <time>2020-12-17T08:18:58.000Z</time>
      </trkpt>
      <trkpt lat="47.26373" lon="-2.33141">
        <ele>-5</ele>
        <time>2020-12-17T08:19:03.000Z</time>
      </trkpt>
      <trkpt lat="47.26377" lon="-2.332">
        <ele>-5</ele>
        <time>2020-12-17T08:19:12.000Z</time>
      </trkpt>
      <trkpt lat="47.26381" lon="-2.33244">
        <ele>-5</ele>
        <time>2020-12-17T08:19:19.000Z</time>
      </trkpt>
      <trkpt lat="47.26385" lon="-2.33256">
        <ele>-5</ele>
        <time>2020-12-17T08:19:21.000Z</time>
      </trkpt>
      <trkpt lat="47.26399" lon="-2.33267">
        <ele>-5</ele>
        <time>2020-12-17T08:19:25.000Z</time>
      </trkpt>
      <trkpt lat="47.26409" lon="-2.33268">
        <ele>-5</ele>
        <time>2020-12-17T08:19:27.000Z</time>
      </trkpt>
      <trkpt lat="47.26432" lon="-2.3327">
        <ele>-5</ele>
        <time>2020-12-17T08:19:32.000Z</time>
      </trkpt>
      <trkpt lat="47.26461" lon="-2.33277">
        <ele>-5</ele>
        <time>2020-12-17T08:19:39.000Z</time>
      </trkpt>
      <trkpt lat="47.26465" lon="-2.33278">
        <ele>-5</ele>
        <time>2020-12-17T08:19:40.000Z</time>
      </trkpt>
      <trkpt lat="47.26486" lon="-2.3328">
        <ele>-5</ele>
        <time>2020-12-17T08:19:45.000Z</time>
      </trkpt>
      <trkpt lat="47.26498" lon="-2.33281">
        <ele>-5</ele>
        <time>2020-12-17T08:19:48.000Z</time>
      </trkpt>
      <trkpt lat="47.26502" lon="-2.33283">
        <ele>-5</ele>
        <time>2020-12-17T08:19:49.000Z</time>
      </trkpt>
      <trkpt lat="47.26506" lon="-2.33285">
        <ele>-5</ele>
        <time>2020-12-17T08:19:50.000Z</time>
      </trkpt>
      <trkpt lat="47.26525" lon="-2.3329">
        <ele>-5</ele>
        <time>2020-12-17T08:19:54.000Z</time>
      </trkpt>
      <trkpt lat="47.26529" lon="-2.33291">
        <ele>-5</ele>
        <time>2020-12-17T08:19:55.000Z</time>
      </trkpt>
      <trkpt lat="47.26536" lon="-2.33296">
        <ele>-5</ele>
        <time>2020-12-17T08:19:57.000Z</time>
      </trkpt>
      <trkpt lat="47.2655" lon="-2.33288">
        <ele>-5</ele>
        <time>2020-12-17T08:20:00.000Z</time>
      </trkpt>
      <trkpt lat="47.2655" lon="-2.33288">
        <ele>-5</ele>
        <time>2020-12-17T08:20:02.000Z</time>
      </trkpt>
      <trkpt lat="47.26571" lon="-2.33265">
        <ele>-5</ele>
        <time>2020-12-17T08:20:08.000Z</time>
      </trkpt>
      <trkpt lat="47.26603" lon="-2.33236">
        <ele>-5</ele>
        <time>2020-12-17T08:20:16.000Z</time>
      </trkpt>
      <trkpt lat="47.26637" lon="-2.332">
        <ele>-5</ele>
        <time>2020-12-17T08:20:25.000Z</time>
      </trkpt>
      <trkpt lat="47.26657" lon="-2.33179">
        <ele>-5</ele>
        <time>2020-12-17T08:20:31.000Z</time>
      </trkpt>
      <trkpt lat="47.26682" lon="-2.33154">
        <ele>-5</ele>
        <time>2020-12-17T08:20:38.000Z</time>
      </trkpt>
      <trkpt lat="47.26696" lon="-2.3314">
        <ele>-5</ele>
        <time>2020-12-17T08:20:42.000Z</time>
      </trkpt>
      <trkpt lat="47.26703" lon="-2.33132">
        <ele>-5</ele>
        <time>2020-12-17T08:20:44.000Z</time>
      </trkpt>
      <trkpt lat="47.26707" lon="-2.33128">
        <ele>-5</ele>
        <time>2020-12-17T08:20:45.000Z</time>
      </trkpt>
      <trkpt lat="47.26725" lon="-2.33111">
        <ele>-5</ele>
        <time>2020-12-17T08:20:50.000Z</time>
      </trkpt>
      <trkpt lat="47.26747" lon="-2.33087">
        <ele>-5</ele>
        <time>2020-12-17T08:20:57.000Z</time>
      </trkpt>
      <trkpt lat="47.26755" lon="-2.33088">
        <ele>-5</ele>
        <time>2020-12-17T08:20:59.000Z</time>
      </trkpt>
      <trkpt lat="47.26759" lon="-2.33092">
        <ele>-5</ele>
        <time>2020-12-17T08:21:00.000Z</time>
      </trkpt>
      <trkpt lat="47.26768" lon="-2.33115">
        <ele>-5</ele>
        <time>2020-12-17T08:21:04.000Z</time>
      </trkpt>
      <trkpt lat="47.26764" lon="-2.33151">
        <ele>-5</ele>
        <time>2020-12-17T08:21:09.000Z</time>
      </trkpt>
      <trkpt lat="47.26763" lon="-2.33157">
        <ele>-5</ele>
        <time>2020-12-17T08:21:10.000Z</time>
      </trkpt>
      <trkpt lat="47.26759" lon="-2.3317">
        <ele>-5</ele>
        <time>2020-12-17T08:21:12.000Z</time>
      </trkpt>
      <trkpt lat="47.26755" lon="-2.3319">
        <ele>-5</ele>
        <time>2020-12-17T08:21:15.000Z</time>
      </trkpt>
      <trkpt lat="47.26751" lon="-2.33208">
        <ele>-5</ele>
        <time>2020-12-17T08:21:18.000Z</time>
      </trkpt>
      <trkpt lat="47.26745" lon="-2.33227">
        <ele>-5</ele>
        <time>2020-12-17T08:21:21.000Z</time>
      </trkpt>
      <trkpt lat="47.26735" lon="-2.33263">
        <ele>-5</ele>
        <time>2020-12-17T08:21:27.000Z</time>
      </trkpt>
      <trkpt lat="47.26734" lon="-2.3327">
        <ele>-5</ele>
        <time>2020-12-17T08:21:28.000Z</time>
      </trkpt>
      <trkpt lat="47.26736" lon="-2.33295">
        <ele>-5</ele>
        <time>2020-12-17T08:21:32.000Z</time>
      </trkpt>
      <trkpt lat="47.26738" lon="-2.33302">
        <ele>-5</ele>
        <time>2020-12-17T08:21:33.000Z</time>
      </trkpt>
      <trkpt lat="47.26752" lon="-2.33353">
        <ele>-5</ele>
        <time>2020-12-17T08:21:41.000Z</time>
      </trkpt>
      <trkpt lat="47.26754" lon="-2.33374">
        <ele>-5</ele>
        <time>2020-12-17T08:21:44.000Z</time>
      </trkpt>
      <trkpt lat="47.26755" lon="-2.33396">
        <ele>-5</ele>
        <time>2020-12-17T08:21:47.000Z</time>
      </trkpt>
      <trkpt lat="47.26764" lon="-2.33461">
        <ele>-5</ele>
        <time>2020-12-17T08:21:56.000Z</time>
      </trkpt>
      <trkpt lat="47.26772" lon="-2.33518">
        <ele>-5</ele>
        <time>2020-12-17T08:22:04.000Z</time>
      </trkpt>
      <trkpt lat="47.26779" lon="-2.33565">
        <ele>-5</ele>
        <time>2020-12-17T08:22:11.000Z</time>
      </trkpt>
      <trkpt lat="47.26783" lon="-2.33568">
        <ele>-5</ele>
        <time>2020-12-17T08:22:12.000Z</time>
      </trkpt>
      <trkpt lat="47.26793" lon="-2.33567">
        <ele>-5</ele>
        <time>2020-12-17T08:22:15.000Z</time>
      </trkpt>
      <trkpt lat="47.26812" lon="-2.33559">
        <ele>-5</ele>
        <time>2020-12-17T08:22:20.000Z</time>
      </trkpt>
      <trkpt lat="47.26835" lon="-2.33549">
        <ele>-5</ele>
        <time>2020-12-17T08:22:26.000Z</time>
      </trkpt>
      <trkpt lat="47.26861" lon="-2.3354">
        <ele>-5</ele>
        <time>2020-12-17T08:22:32.000Z</time>
      </trkpt>
      <trkpt lat="47.26886" lon="-2.33544">
        <ele>-5</ele>
        <time>2020-12-17T08:22:38.000Z</time>
      </trkpt>
      <trkpt lat="47.26902" lon="-2.3357">
        <ele>-5</ele>
        <time>2020-12-17T08:22:44.000Z</time>
      </trkpt>
      <trkpt lat="47.26915" lon="-2.33599">
        <ele>-4.5999999046326</ele>
        <time>2020-12-17T08:22:50.000Z</time>
      </trkpt>
      <trkpt lat="47.26917" lon="-2.33604">
        <ele>-4.1999998092651</ele>
        <time>2020-12-17T08:22:51.000Z</time>
      </trkpt>
      <trkpt lat="47.26919" lon="-2.33609">
        <ele>-3.5999999046326</ele>
        <time>2020-12-17T08:22:52.000Z</time>
      </trkpt>
      <trkpt lat="47.26921" lon="-2.33614">
        <ele>-3.2000000476837</ele>
        <time>2020-12-17T08:22:53.000Z</time>
      </trkpt>
      <trkpt lat="47.26922" lon="-2.33619">
        <ele>-2.7999999523163</ele>
        <time>2020-12-17T08:22:54.000Z</time>
      </trkpt>
      <trkpt lat="47.26927" lon="-2.33641">
        <ele>-2.7999999523163</ele>
        <time>2020-12-17T08:22:58.000Z</time>
      </trkpt>
      <trkpt lat="47.26939" lon="-2.33705">
        <ele>-2.7999999523163</ele>
        <time>2020-12-17T08:23:09.000Z</time>
      </trkpt>
      <trkpt lat="47.2694" lon="-2.33711">
        <ele>-2.4000000953674</ele>
        <time>2020-12-17T08:23:10.000Z</time>
      </trkpt>
      <trkpt lat="47.2694" lon="-2.33716">
        <ele>-2</ele>
        <time>2020-12-17T08:23:11.000Z</time>
      </trkpt>
      <trkpt lat="47.2694" lon="-2.33722">
        <ele>-1.2000000476837</ele>
        <time>2020-12-17T08:23:12.000Z</time>
      </trkpt>
      <trkpt lat="47.2694" lon="-2.33729">
        <ele>-0.80000001192093</ele>
        <time>2020-12-17T08:23:13.000Z</time>
      </trkpt>
      <trkpt lat="47.26938" lon="-2.33741">
        <ele>-0.80000001192093</ele>
        <time>2020-12-17T08:23:15.000Z</time>
      </trkpt>
      <trkpt lat="47.26937" lon="-2.33747">
        <ele>-0.80000001192093</ele>
        <time>2020-12-17T08:23:16.000Z</time>
      </trkpt>
      <trkpt lat="47.26932" lon="-2.33774">
        <ele>-0.80000001192093</ele>
        <time>2020-12-17T08:23:20.000Z</time>
      </trkpt>
      <trkpt lat="47.26931" lon="-2.33781">
        <ele>-0.80000001192093</ele>
        <time>2020-12-17T08:23:21.000Z</time>
      </trkpt>
      <trkpt lat="47.26933" lon="-2.33801">
        <ele>-0.80000001192093</ele>
        <time>2020-12-17T08:23:24.000Z</time>
      </trkpt>
      <trkpt lat="47.26943" lon="-2.33811">
        <ele>-0.80000001192093</ele>
        <time>2020-12-17T08:23:27.000Z</time>
      </trkpt>
      <trkpt lat="47.26951" lon="-2.33811">
        <ele>-0.80000001192093</ele>
        <time>2020-12-17T08:23:29.000Z</time>
      </trkpt>
      <trkpt lat="47.26967" lon="-2.33811">
        <ele>-0.80000001192093</ele>
        <time>2020-12-17T08:23:33.000Z</time>
      </trkpt>
      <trkpt lat="47.26993" lon="-2.33809">
        <ele>-0.40000000596046</ele>
        <time>2020-12-17T08:23:40.000Z</time>
      </trkpt>
      <trkpt lat="47.26998" lon="-2.33809">
        <ele>13.7</ele>
        <time>2020-12-17T08:23:41.000Z</time>
      </trkpt>
      <trkpt lat="47.27001" lon="-2.3381">
        <ele>0.60000002384186</ele>
        <time>2020-12-17T08:23:42.000Z</time>
      </trkpt>
      <trkpt lat="47.27005" lon="-2.3381">
        <ele>1</ele>
        <time>2020-12-17T08:23:43.000Z</time>
      </trkpt>
      <trkpt lat="47.27008" lon="-2.33811">
        <ele>1.3999999761581</ele>
        <time>2020-12-17T08:23:44.000Z</time>
      </trkpt>
      <trkpt lat="47.27019" lon="-2.33812">
        <ele>1.7999999523163</ele>
        <time>2020-12-17T08:23:47.000Z</time>
      </trkpt>
      <trkpt lat="47.27022" lon="-2.33812">
        <ele>2.2000000476837</ele>
        <time>2020-12-17T08:23:48.000Z</time>
      </trkpt>
      <trkpt lat="47.27026" lon="-2.33812">
        <ele>2.5999999046326</ele>
        <time>2020-12-17T08:23:49.000Z</time>
      </trkpt>
      <trkpt lat="47.27029" lon="-2.33812">
        <ele>3</ele>
        <time>2020-12-17T08:23:50.000Z</time>
      </trkpt>
      <trkpt lat="47.27032" lon="-2.33812">
        <ele>3.4000000953674</ele>
        <time>2020-12-17T08:23:51.000Z</time>
      </trkpt>
      <trkpt lat="47.27041" lon="-2.33812">
        <ele>3.7999999523163</ele>
        <time>2020-12-17T08:23:54.000Z</time>
      </trkpt>
      <trkpt lat="47.27043" lon="-2.33812">
        <ele>4.1999998092651</ele>
        <time>2020-12-17T08:23:55.000Z</time>
      </trkpt>
      <trkpt lat="47.27046" lon="-2.33812">
        <ele>4.8000001907349</ele>
        <time>2020-12-17T08:23:56.000Z</time>
      </trkpt>
      <trkpt lat="47.27049" lon="-2.33813">
        <ele>5.1999998092651</ele>
        <time>2020-12-17T08:23:57.000Z</time>
      </trkpt>
      <trkpt lat="47.27052" lon="-2.33813">
        <ele>5.5999999046326</ele>
        <time>2020-12-17T08:23:58.000Z</time>
      </trkpt>
      <trkpt lat="47.2706" lon="-2.33816">
        <ele>6</ele>
        <time>2020-12-17T08:24:01.000Z</time>
      </trkpt>
      <trkpt lat="47.27063" lon="-2.33817">
        <ele>6.4000000953674</ele>
        <time>2020-12-17T08:24:02.000Z</time>
      </trkpt>
      <trkpt lat="47.27067" lon="-2.33818">
        <ele>6.8000001907349</ele>
        <time>2020-12-17T08:24:03.000Z</time>
      </trkpt>
      <trkpt lat="47.2707" lon="-2.33819">
        <ele>7.1999998092651</ele>
        <time>2020-12-17T08:24:04.000Z</time>
      </trkpt>
      <trkpt lat="47.27073" lon="-2.3382">
        <ele>7.5999999046326</ele>
        <time>2020-12-17T08:24:05.000Z</time>
      </trkpt>
      <trkpt lat="47.27085" lon="-2.33828">
        <ele>7.5999999046326</ele>
        <time>2020-12-17T08:24:09.000Z</time>
      </trkpt>
      <trkpt lat="47.27088" lon="-2.3383">
        <ele>8</ele>
        <time>2020-12-17T08:24:10.000Z</time>
      </trkpt>
      <trkpt lat="47.27091" lon="-2.33833">
        <ele>8.3999996185303</ele>
        <time>2020-12-17T08:24:11.000Z</time>
      </trkpt>
      <trkpt lat="47.27094" lon="-2.33836">
        <ele>8.8000001907349</ele>
        <time>2020-12-17T08:24:12.000Z</time>
      </trkpt>
      <trkpt lat="47.27097" lon="-2.33838">
        <ele>9.1999998092651</ele>
        <time>2020-12-17T08:24:13.000Z</time>
      </trkpt>
      <trkpt lat="47.271" lon="-2.33841">
        <ele>9.6000003814697</ele>
        <time>2020-12-17T08:24:14.000Z</time>
      </trkpt>
      <trkpt lat="47.27106" lon="-2.33846">
        <ele>9.6000003814697</ele>
        <time>2020-12-17T08:24:16.000Z</time>
      </trkpt>
      <trkpt lat="47.27126" lon="-2.33851">
        <ele>9.6000003814697</ele>
        <time>2020-12-17T08:24:22.000Z</time>
      </trkpt>
      <trkpt lat="47.27139" lon="-2.33852">
        <ele>10.39999961853</ele>
        <time>2020-12-17T08:24:26.000Z</time>
      </trkpt>
      <trkpt lat="47.27142" lon="-2.33851">
        <ele>11</ele>
        <time>2020-12-17T08:24:27.000Z</time>
      </trkpt>
      <trkpt lat="47.27146" lon="-2.3385">
        <ele>11.39999961853</ele>
        <time>2020-12-17T08:24:28.000Z</time>
      </trkpt>
      <trkpt lat="47.2715" lon="-2.3385">
        <ele>11.800000190735</ele>
        <time>2020-12-17T08:24:29.000Z</time>
      </trkpt>
      <trkpt lat="47.27176" lon="-2.33843">
        <ele>11.800000190735</ele>
        <time>2020-12-17T08:24:37.000Z</time>
      </trkpt>
      <trkpt lat="47.2719" lon="-2.33845">
        <ele>11.800000190735</ele>
        <time>2020-12-17T08:24:42.000Z</time>
      </trkpt>
      <trkpt lat="47.27192" lon="-2.33847">
        <ele>11.800000190735</ele>
        <time>2020-12-17T08:24:43.000Z</time>
      </trkpt>
      <trkpt lat="47.27195" lon="-2.33846">
        <ele>12.199999809265</ele>
        <time>2020-12-17T08:24:44.000Z</time>
      </trkpt>
      <trkpt lat="47.27198" lon="-2.33845">
        <ele>12.60000038147</ele>
        <time>2020-12-17T08:24:45.000Z</time>
      </trkpt>
      <trkpt lat="47.27201" lon="-2.33845">
        <ele>13</ele>
        <time>2020-12-17T08:24:46.000Z</time>
      </trkpt>
      <trkpt lat="47.27204" lon="-2.33844">
        <ele>13.39999961853</ele>
        <time>2020-12-17T08:24:47.000Z</time>
      </trkpt>
      <trkpt lat="47.27207" lon="-2.33845">
        <ele>14</ele>
        <time>2020-12-17T08:24:48.000Z</time>
      </trkpt>
      <trkpt lat="47.27217" lon="-2.33849">
        <ele>14</ele>
        <time>2020-12-17T08:24:52.000Z</time>
      </trkpt>
      <trkpt lat="47.27227" lon="-2.33853">
        <ele>14.39999961853</ele>
        <time>2020-12-17T08:24:55.000Z</time>
      </trkpt>
      <trkpt lat="47.2723" lon="-2.33855">
        <ele>14.800000190735</ele>
        <time>2020-12-17T08:24:56.000Z</time>
      </trkpt>
      <trkpt lat="47.27233" lon="-2.33856">
        <ele>15.199999809265</ele>
        <time>2020-12-17T08:24:57.000Z</time>
      </trkpt>
      <trkpt lat="47.27237" lon="-2.33857">
        <ele>15.60000038147</ele>
        <time>2020-12-17T08:24:58.000Z</time>
      </trkpt>
      <trkpt lat="47.2724" lon="-2.33858">
        <ele>16</ele>
        <time>2020-12-17T08:24:59.000Z</time>
      </trkpt>
      <trkpt lat="47.27256" lon="-2.33869">
        <ele>16</ele>
        <time>2020-12-17T08:25:04.000Z</time>
      </trkpt>
      <trkpt lat="47.27274" lon="-2.3389">
        <ele>16</ele>
        <time>2020-12-17T08:25:10.000Z</time>
      </trkpt>
      <trkpt lat="47.2729" lon="-2.33908">
        <ele>16</ele>
        <time>2020-12-17T08:25:16.000Z</time>
      </trkpt>
      <trkpt lat="47.27305" lon="-2.33924">
        <ele>16</ele>
        <time>2020-12-17T08:25:21.000Z</time>
      </trkpt>
      <trkpt lat="47.27328" lon="-2.3395">
        <ele>16</ele>
        <time>2020-12-17T08:25:28.000Z</time>
      </trkpt>
      <trkpt lat="47.27345" lon="-2.33962">
        <ele>16</ele>
        <time>2020-12-17T08:25:33.000Z</time>
      </trkpt>
      <trkpt lat="47.27368" lon="-2.33962">
        <ele>16</ele>
        <time>2020-12-17T08:25:39.000Z</time>
      </trkpt>
      <trkpt lat="47.2739" lon="-2.33967">
        <ele>16</ele>
        <time>2020-12-17T08:25:45.000Z</time>
      </trkpt>
      <trkpt lat="47.27392" lon="-2.33971">
        <ele>16</ele>
        <time>2020-12-17T08:25:46.000Z</time>
      </trkpt>
      <trkpt lat="47.27394" lon="-2.3398">
        <ele>16</ele>
        <time>2020-12-17T08:25:48.000Z</time>
      </trkpt>
      <trkpt lat="47.27397" lon="-2.34016">
        <ele>16</ele>
        <time>2020-12-17T08:25:54.000Z</time>
      </trkpt>
      <trkpt lat="47.27397" lon="-2.34062">
        <ele>16</ele>
        <time>2020-12-17T08:26:00.000Z</time>
      </trkpt>
      <trkpt lat="47.27399" lon="-2.34114">
        <ele>16</ele>
        <time>2020-12-17T08:26:06.000Z</time>
      </trkpt>
      <trkpt lat="47.274" lon="-2.34133">
        <ele>15.60000038147</ele>
        <time>2020-12-17T08:26:08.000Z</time>
      </trkpt>
      <trkpt lat="47.274" lon="-2.34142">
        <ele>15.199999809265</ele>
        <time>2020-12-17T08:26:09.000Z</time>
      </trkpt>
      <trkpt lat="47.27401" lon="-2.34151">
        <ele>14.800000190735</ele>
        <time>2020-12-17T08:26:10.000Z</time>
      </trkpt>
      <trkpt lat="47.27401" lon="-2.34159">
        <ele>14.39999961853</ele>
        <time>2020-12-17T08:26:11.000Z</time>
      </trkpt>
      <trkpt lat="47.27401" lon="-2.34168">
        <ele>14</ele>
        <time>2020-12-17T08:26:12.000Z</time>
      </trkpt>
      <trkpt lat="47.27401" lon="-2.34186">
        <ele>14</ele>
        <time>2020-12-17T08:26:14.000Z</time>
      </trkpt>
      <trkpt lat="47.27403" lon="-2.34232">
        <ele>13.39999961853</ele>
        <time>2020-12-17T08:26:20.000Z</time>
      </trkpt>
      <trkpt lat="47.27405" lon="-2.34237">
        <ele>13</ele>
        <time>2020-12-17T08:26:21.000Z</time>
      </trkpt>
      <trkpt lat="47.27407" lon="-2.3424">
        <ele>12.60000038147</ele>
        <time>2020-12-17T08:26:22.000Z</time>
      </trkpt>
      <trkpt lat="47.27409" lon="-2.34244">
        <ele>12.199999809265</ele>
        <time>2020-12-17T08:26:23.000Z</time>
      </trkpt>
      <trkpt lat="47.27411" lon="-2.34248">
        <ele>11.60000038147</ele>
        <time>2020-12-17T08:26:24.000Z</time>
      </trkpt>
      <trkpt lat="47.27415" lon="-2.34269">
        <ele>11.60000038147</ele>
        <time>2020-12-17T08:26:28.000Z</time>
      </trkpt>
      <trkpt lat="47.27418" lon="-2.34299">
        <ele>11.60000038147</ele>
        <time>2020-12-17T08:26:33.000Z</time>
      </trkpt>
      <trkpt lat="47.27419" lon="-2.34305">
        <ele>11.60000038147</ele>
        <time>2020-12-17T08:26:34.000Z</time>
      </trkpt>
      <trkpt lat="47.2742" lon="-2.34347">
        <ele>11.60000038147</ele>
        <time>2020-12-17T08:26:41.000Z</time>
      </trkpt>
      <trkpt lat="47.27424" lon="-2.34392">
        <ele>11.60000038147</ele>
        <time>2020-12-17T08:26:48.000Z</time>
      </trkpt>
      <trkpt lat="47.27427" lon="-2.34434">
        <ele>11.60000038147</ele>
        <time>2020-12-17T08:26:55.000Z</time>
      </trkpt>
      <trkpt lat="47.27427" lon="-2.34441">
        <ele>12.199999809265</ele>
        <time>2020-12-17T08:26:56.000Z</time>
      </trkpt>
      <trkpt lat="47.27427" lon="-2.34447">
        <ele>12.60000038147</ele>
        <time>2020-12-17T08:26:57.000Z</time>
      </trkpt>
      <trkpt lat="47.27427" lon="-2.34453">
        <ele>13</ele>
        <time>2020-12-17T08:26:58.000Z</time>
      </trkpt>
      <trkpt lat="47.27427" lon="-2.34459">
        <ele>13.39999961853</ele>
        <time>2020-12-17T08:26:59.000Z</time>
      </trkpt>
      <trkpt lat="47.27428" lon="-2.34465">
        <ele>13.800000190735</ele>
        <time>2020-12-17T08:27:00.000Z</time>
      </trkpt>
      <trkpt lat="47.2743" lon="-2.34482">
        <ele>13.800000190735</ele>
        <time>2020-12-17T08:27:03.000Z</time>
      </trkpt>
      <trkpt lat="47.27439" lon="-2.34522">
        <ele>13.800000190735</ele>
        <time>2020-12-17T08:27:10.000Z</time>
      </trkpt>
      <trkpt lat="47.27446" lon="-2.34557">
        <ele>13.800000190735</ele>
        <time>2020-12-17T08:27:16.000Z</time>
      </trkpt>
      <trkpt lat="47.27454" lon="-2.34604">
        <ele>13.800000190735</ele>
        <time>2020-12-17T08:27:23.000Z</time>
      </trkpt>
      <trkpt lat="47.27459" lon="-2.34666">
        <ele>13.800000190735</ele>
        <time>2020-12-17T08:27:31.000Z</time>
      </trkpt>
      <trkpt lat="47.2746" lon="-2.34674">
        <ele>13.800000190735</ele>
        <time>2020-12-17T08:27:32.000Z</time>
      </trkpt>
      <trkpt lat="47.27464" lon="-2.3469">
        <ele>13.800000190735</ele>
        <time>2020-12-17T08:27:35.000Z</time>
      </trkpt>
      <trkpt lat="47.27475" lon="-2.34688">
        <ele>13.800000190735</ele>
        <time>2020-12-17T08:27:38.000Z</time>
      </trkpt>
      <trkpt lat="47.27505" lon="-2.34677">
        <ele>13.800000190735</ele>
        <time>2020-12-17T08:27:44.000Z</time>
      </trkpt>
      <trkpt lat="47.27519" lon="-2.34675">
        <ele>13.800000190735</ele>
        <time>2020-12-17T08:27:47.000Z</time>
      </trkpt>
      <trkpt lat="47.2753" lon="-2.34675">
        <ele>13.800000190735</ele>
        <time>2020-12-17T08:27:49.000Z</time>
      </trkpt>
      <trkpt lat="47.27535" lon="-2.34675">
        <ele>13.800000190735</ele>
        <time>2020-12-17T08:27:50.000Z</time>
      </trkpt>
      <trkpt lat="47.27565" lon="-2.34662">
        <ele>13.800000190735</ele>
        <time>2020-12-17T08:27:56.000Z</time>
      </trkpt>
      <trkpt lat="47.2757" lon="-2.34658">
        <ele>13.800000190735</ele>
        <time>2020-12-17T08:27:57.000Z</time>
      </trkpt>
      <trkpt lat="47.27602" lon="-2.34631">
        <ele>13.800000190735</ele>
        <time>2020-12-17T08:28:04.000Z</time>
      </trkpt>
      <trkpt lat="47.27641" lon="-2.3459">
        <ele>13.800000190735</ele>
        <time>2020-12-17T08:28:13.000Z</time>
      </trkpt>
      <trkpt lat="47.2767" lon="-2.34563">
        <ele>13.800000190735</ele>
        <time>2020-12-17T08:28:20.000Z</time>
      </trkpt>
      <trkpt lat="47.27672" lon="-2.34564">
        <ele>13.800000190735</ele>
        <time>2020-12-17T08:28:21.000Z</time>
      </trkpt>
      <trkpt lat="47.27679" lon="-2.3457">
        <ele>13.800000190735</ele>
        <time>2020-12-17T08:28:25.000Z</time>
      </trkpt>
      <trkpt lat="47.27686" lon="-2.3459">
        <ele>13.800000190735</ele>
        <time>2020-12-17T08:28:31.000Z</time>
      </trkpt>
      <trkpt lat="47.27692" lon="-2.34621">
        <ele>13.800000190735</ele>
        <time>2020-12-17T08:28:36.000Z</time>
      </trkpt>
      <trkpt lat="47.27693" lon="-2.34634">
        <ele>13.800000190735</ele>
        <time>2020-12-17T08:28:38.000Z</time>
      </trkpt>
      <trkpt lat="47.27697" lon="-2.34662">
        <ele>13.800000190735</ele>
        <time>2020-12-17T08:28:43.000Z</time>
      </trkpt>
      <trkpt lat="47.277" lon="-2.34677">
        <ele>13.39999961853</ele>
        <time>2020-12-17T08:28:47.000Z</time>
      </trkpt>
      <trkpt lat="47.27701" lon="-2.34682">
        <ele>13</ele>
        <time>2020-12-17T08:28:48.000Z</time>
      </trkpt>
      <trkpt lat="47.27703" lon="-2.34687">
        <ele>12.60000038147</ele>
        <time>2020-12-17T08:28:49.000Z</time>
      </trkpt>
      <trkpt lat="47.27705" lon="-2.34693">
        <ele>12.199999809265</ele>
        <time>2020-12-17T08:28:50.000Z</time>
      </trkpt>
      <trkpt lat="47.27707" lon="-2.34698">
        <ele>11.800000190735</ele>
        <time>2020-12-17T08:28:51.000Z</time>
      </trkpt>
      <trkpt lat="47.27709" lon="-2.34705">
        <ele>11.800000190735</ele>
        <time>2020-12-17T08:28:52.000Z</time>
      </trkpt>
      <trkpt lat="47.27711" lon="-2.34712">
        <ele>11.800000190735</ele>
        <time>2020-12-17T08:28:53.000Z</time>
      </trkpt>
      <trkpt lat="47.27731" lon="-2.34759">
        <ele>11.800000190735</ele>
        <time>2020-12-17T08:29:00.000Z</time>
      </trkpt>
      <trkpt lat="47.27754" lon="-2.34807">
        <ele>11.800000190735</ele>
        <time>2020-12-17T08:29:07.000Z</time>
      </trkpt>
      <trkpt lat="47.27775" lon="-2.34846">
        <ele>11.800000190735</ele>
        <time>2020-12-17T08:29:13.000Z</time>
      </trkpt>
      <trkpt lat="47.27787" lon="-2.34868">
        <ele>11.39999961853</ele>
        <time>2020-12-17T08:29:17.000Z</time>
      </trkpt>
      <trkpt lat="47.27789" lon="-2.34872">
        <ele>11</ele>
        <time>2020-12-17T08:29:18.000Z</time>
      </trkpt>
      <trkpt lat="47.2779" lon="-2.34878">
        <ele>10.39999961853</ele>
        <time>2020-12-17T08:29:19.000Z</time>
      </trkpt>
      <trkpt lat="47.27791" lon="-2.34885">
        <ele>10</ele>
        <time>2020-12-17T08:29:20.000Z</time>
      </trkpt>
      <trkpt lat="47.27792" lon="-2.34892">
        <ele>9.6000003814697</ele>
        <time>2020-12-17T08:29:21.000Z</time>
      </trkpt>
      <trkpt lat="47.27791" lon="-2.34899">
        <ele>9.6000003814697</ele>
        <time>2020-12-17T08:29:22.000Z</time>
      </trkpt>
      <trkpt lat="47.27787" lon="-2.34922">
        <ele>9.6000003814697</ele>
        <time>2020-12-17T08:29:25.000Z</time>
      </trkpt>
      <trkpt lat="47.27786" lon="-2.34929">
        <ele>9.6000003814697</ele>
        <time>2020-12-17T08:29:26.000Z</time>
      </trkpt>
      <trkpt lat="47.27773" lon="-2.34993">
        <ele>9.1999998092651</ele>
        <time>2020-12-17T08:29:34.000Z</time>
      </trkpt>
      <trkpt lat="47.27772" lon="-2.35">
        <ele>8.8000001907349</ele>
        <time>2020-12-17T08:29:35.000Z</time>
      </trkpt>
      <trkpt lat="47.2777" lon="-2.35007">
        <ele>8.1999998092651</ele>
        <time>2020-12-17T08:29:36.000Z</time>
      </trkpt>
      <trkpt lat="47.27769" lon="-2.35015">
        <ele>7.8000001907349</ele>
        <time>2020-12-17T08:29:37.000Z</time>
      </trkpt>
      <trkpt lat="47.27767" lon="-2.35024">
        <ele>7.4000000953674</ele>
        <time>2020-12-17T08:29:38.000Z</time>
      </trkpt>
      <trkpt lat="47.27766" lon="-2.35058">
        <ele>7.4000000953674</ele>
        <time>2020-12-17T08:29:42.000Z</time>
      </trkpt>
      <trkpt lat="47.2777" lon="-2.35122">
        <ele>7</ele>
        <time>2020-12-17T08:29:49.000Z</time>
      </trkpt>
      <trkpt lat="47.27771" lon="-2.35132">
        <ele>6.5999999046326</ele>
        <time>2020-12-17T08:29:50.000Z</time>
      </trkpt>
      <trkpt lat="47.27771" lon="-2.35141">
        <ele>6.1999998092651</ele>
        <time>2020-12-17T08:29:51.000Z</time>
      </trkpt>
      <trkpt lat="47.27772" lon="-2.3515">
        <ele>5.8000001907349</ele>
        <time>2020-12-17T08:29:52.000Z</time>
      </trkpt>
      <trkpt lat="47.27772" lon="-2.35159">
        <ele>5.4000000953674</ele>
        <time>2020-12-17T08:29:53.000Z</time>
      </trkpt>
      <trkpt lat="47.27777" lon="-2.35218">
        <ele>5.4000000953674</ele>
        <time>2020-12-17T08:30:00.000Z</time>
      </trkpt>
      <trkpt lat="47.2779" lon="-2.35293">
        <ele>5.4000000953674</ele>
        <time>2020-12-17T08:30:09.000Z</time>
      </trkpt>
      <trkpt lat="47.27797" lon="-2.35323">
        <ele>5</ele>
        <time>2020-12-17T08:30:13.000Z</time>
      </trkpt>
      <trkpt lat="47.27799" lon="-2.35331">
        <ele>4.4000000953674</ele>
        <time>2020-12-17T08:30:14.000Z</time>
      </trkpt>
      <trkpt lat="47.278" lon="-2.35339">
        <ele>4</ele>
        <time>2020-12-17T08:30:15.000Z</time>
      </trkpt>
      <trkpt lat="47.27802" lon="-2.35346">
        <ele>3.5999999046326</ele>
        <time>2020-12-17T08:30:16.000Z</time>
      </trkpt>
      <trkpt lat="47.27805" lon="-2.35354">
        <ele>3.2000000476837</ele>
        <time>2020-12-17T08:30:17.000Z</time>
      </trkpt>
      <trkpt lat="47.27818" lon="-2.35365">
        <ele>3.2000000476837</ele>
        <time>2020-12-17T08:30:20.000Z</time>
      </trkpt>
      <trkpt lat="47.27833" lon="-2.35364">
        <ele>3.2000000476837</ele>
        <time>2020-12-17T08:30:23.000Z</time>
      </trkpt>
      <trkpt lat="47.27838" lon="-2.35363">
        <ele>3.2000000476837</ele>
        <time>2020-12-17T08:30:24.000Z</time>
      </trkpt>
      <trkpt lat="47.2787" lon="-2.35362">
        <ele>3.2000000476837</ele>
        <time>2020-12-17T08:30:31.000Z</time>
      </trkpt>
      <trkpt lat="47.27874" lon="-2.35364">
        <ele>3.2000000476837</ele>
        <time>2020-12-17T08:30:32.000Z</time>
      </trkpt>
      <trkpt lat="47.27884" lon="-2.35375">
        <ele>3.2000000476837</ele>
        <time>2020-12-17T08:30:35.000Z</time>
      </trkpt>
      <trkpt lat="47.27887" lon="-2.3538">
        <ele>3.2000000476837</ele>
        <time>2020-12-17T08:30:36.000Z</time>
      </trkpt>
      <trkpt lat="47.27911" lon="-2.3541">
        <ele>3.2000000476837</ele>
        <time>2020-12-17T08:30:43.000Z</time>
      </trkpt>
      <trkpt lat="47.27918" lon="-2.35419">
        <ele>3.5999999046326</ele>
        <time>2020-12-17T08:30:45.000Z</time>
      </trkpt>
      <trkpt lat="47.27922" lon="-2.35423">
        <ele>4</ele>
        <time>2020-12-17T08:30:46.000Z</time>
      </trkpt>
      <trkpt lat="47.27925" lon="-2.35427">
        <ele>4.4000000953674</ele>
        <time>2020-12-17T08:30:47.000Z</time>
      </trkpt>
      <trkpt lat="47.27928" lon="-2.35432">
        <ele>4.8000001907349</ele>
        <time>2020-12-17T08:30:48.000Z</time>
      </trkpt>
      <trkpt lat="47.27932" lon="-2.35437">
        <ele>5.4000000953674</ele>
        <time>2020-12-17T08:30:49.000Z</time>
      </trkpt>
      <trkpt lat="47.27938" lon="-2.35446">
        <ele>5.4000000953674</ele>
        <time>2020-12-17T08:30:51.000Z</time>
      </trkpt>
      <trkpt lat="47.27942" lon="-2.3545">
        <ele>5.4000000953674</ele>
        <time>2020-12-17T08:30:52.000Z</time>
      </trkpt>
      <trkpt lat="47.27954" lon="-2.35459">
        <ele>5.4000000953674</ele>
        <time>2020-12-17T08:30:55.000Z</time>
      </trkpt>
      <trkpt lat="47.27962" lon="-2.35462">
        <ele>5.4000000953674</ele>
        <time>2020-12-17T08:30:57.000Z</time>
      </trkpt>
      <trkpt lat="47.27966" lon="-2.35465">
        <ele>5.4000000953674</ele>
        <time>2020-12-17T08:30:58.000Z</time>
      </trkpt>
      <trkpt lat="47.27981" lon="-2.35481">
        <ele>5.4000000953674</ele>
        <time>2020-12-17T08:31:02.000Z</time>
      </trkpt>
      <trkpt lat="47.27984" lon="-2.35486">
        <ele>5.4000000953674</ele>
        <time>2020-12-17T08:31:03.000Z</time>
      </trkpt>
      <trkpt lat="47.27992" lon="-2.35501">
        <ele>5.4000000953674</ele>
        <time>2020-12-17T08:31:06.000Z</time>
      </trkpt>
      <trkpt lat="47.27994" lon="-2.35506">
        <ele>5.4000000953674</ele>
        <time>2020-12-17T08:31:07.000Z</time>
      </trkpt>
      <trkpt lat="47.28003" lon="-2.35529">
        <ele>5.4000000953674</ele>
        <time>2020-12-17T08:31:12.000Z</time>
      </trkpt>
      <trkpt lat="47.28006" lon="-2.35541">
        <ele>5.4000000953674</ele>
        <time>2020-12-17T08:31:15.000Z</time>
      </trkpt>
      <trkpt lat="47.28008" lon="-2.35542">
        <ele>5.4000000953674</ele>
        <time>2020-12-17T08:31:16.000Z</time>
      </trkpt>
      <trkpt lat="47.28011" lon="-2.35547">
        <ele>5.4000000953674</ele>
        <time>2020-12-17T08:31:18.000Z</time>
      </trkpt>
      <trkpt lat="47.28012" lon="-2.35554">
        <ele>5.4000000953674</ele>
        <time>2020-12-17T08:31:20.000Z</time>
      </trkpt>
      <trkpt lat="47.28019" lon="-2.35561">
        <ele>5.4000000953674</ele>
        <time>2020-12-17T08:31:24.000Z</time>
      </trkpt>
      <trkpt lat="47.28021" lon="-2.35561">
        <ele>5.4000000953674</ele>
        <time>2020-12-17T08:31:25.000Z</time>
      </trkpt>
      <trkpt lat="47.28034" lon="-2.35567">
        <ele>5.4000000953674</ele>
        <time>2020-12-17T08:31:29.000Z</time>
      </trkpt>
      <trkpt lat="47.28044" lon="-2.35576">
        <ele>5.8000001907349</ele>
        <time>2020-12-17T08:31:33.000Z</time>
      </trkpt>
      <trkpt lat="47.28047" lon="-2.35578">
        <ele>6.1999998092651</ele>
        <time>2020-12-17T08:31:34.000Z</time>
      </trkpt>
      <trkpt lat="47.2805" lon="-2.35579">
        <ele>6.5999999046326</ele>
        <time>2020-12-17T08:31:35.000Z</time>
      </trkpt>
      <trkpt lat="47.28053" lon="-2.35579">
        <ele>7</ele>
        <time>2020-12-17T08:31:36.000Z</time>
      </trkpt>
      <trkpt lat="47.28056" lon="-2.3558">
        <ele>7.4000000953674</ele>
        <time>2020-12-17T08:31:37.000Z</time>
      </trkpt>
      <trkpt lat="47.2807" lon="-2.35582">
        <ele>7.4000000953674</ele>
        <time>2020-12-17T08:31:42.000Z</time>
      </trkpt>
      <trkpt lat="47.28072" lon="-2.35584">
        <ele>7.4000000953674</ele>
        <time>2020-12-17T08:31:43.000Z</time>
      </trkpt>
      <trkpt lat="47.28076" lon="-2.35593">
        <ele>7.4000000953674</ele>
        <time>2020-12-17T08:31:46.000Z</time>
      </trkpt>
      <trkpt lat="47.28077" lon="-2.35596">
        <ele>7.4000000953674</ele>
        <time>2020-12-17T08:31:47.000Z</time>
      </trkpt>
      <trkpt lat="47.28077" lon="-2.35599">
        <ele>7.4000000953674</ele>
        <time>2020-12-17T08:31:51.000Z</time>
      </trkpt>
      <trkpt lat="47.2808" lon="-2.35604">
        <ele>7.4000000953674</ele>
        <time>2020-12-17T08:35:31.000Z</time>
      </trkpt>
      <trkpt lat="47.2808" lon="-2.35601">
        <ele>7.4000000953674</ele>
        <time>2020-12-17T08:35:33.000Z</time>
      </trkpt>
      <trkpt lat="47.28077" lon="-2.35607">
        <ele>7.4000000953674</ele>
        <time>2020-12-17T08:35:36.000Z</time>
      </trkpt>
      <trkpt lat="47.28076" lon="-2.35611">
        <ele>7.4000000953674</ele>
        <time>2020-12-17T08:35:37.000Z</time>
      </trkpt>
      <trkpt lat="47.28077" lon="-2.35614">
        <ele>7.4000000953674</ele>
        <time>2020-12-17T08:35:38.000Z</time>
      </trkpt>
      <trkpt lat="47.28078" lon="-2.35623">
        <ele>7.4000000953674</ele>
        <time>2020-12-17T08:35:41.000Z</time>
      </trkpt>
      <trkpt lat="47.28079" lon="-2.35626">
        <ele>7.4000000953674</ele>
        <time>2020-12-17T08:35:42.000Z</time>
      </trkpt>
      <trkpt lat="47.28081" lon="-2.35637">
        <ele>7.8000001907349</ele>
        <time>2020-12-17T08:35:45.000Z</time>
      </trkpt>
      <trkpt lat="47.28081" lon="-2.3564">
        <ele>8.3999996185303</ele>
        <time>2020-12-17T08:35:46.000Z</time>
      </trkpt>
      <trkpt lat="47.28082" lon="-2.35645">
        <ele>8.8000001907349</ele>
        <time>2020-12-17T08:35:47.000Z</time>
      </trkpt>
      <trkpt lat="47.28084" lon="-2.35651">
        <ele>9.1999998092651</ele>
        <time>2020-12-17T08:35:48.000Z</time>
      </trkpt>
      <trkpt lat="47.28085" lon="-2.35654">
        <ele>9.8000001907349</ele>
        <time>2020-12-17T08:35:49.000Z</time>
      </trkpt>
      <trkpt lat="47.28086" lon="-2.35663">
        <ele>10.199999809265</ele>
        <time>2020-12-17T08:35:51.000Z</time>
      </trkpt>
      <trkpt lat="47.28087" lon="-2.35668">
        <ele>10.60000038147</ele>
        <time>2020-12-17T08:35:52.000Z</time>
      </trkpt>
      <trkpt lat="47.28087" lon="-2.35672">
        <ele>11</ele>
        <time>2020-12-17T08:35:53.000Z</time>
      </trkpt>
      <trkpt lat="47.28088" lon="-2.35676">
        <ele>11.39999961853</ele>
        <time>2020-12-17T08:35:54.000Z</time>
      </trkpt>
      <trkpt lat="47.28089" lon="-2.3568">
        <ele>12</ele>
        <time>2020-12-17T08:35:55.000Z</time>
      </trkpt>
      <trkpt lat="47.28092" lon="-2.35693">
        <ele>12</ele>
        <time>2020-12-17T08:35:59.000Z</time>
      </trkpt>
      <trkpt lat="47.28093" lon="-2.35696">
        <ele>12.39999961853</ele>
        <time>2020-12-17T08:36:00.000Z</time>
      </trkpt>
      <trkpt lat="47.28095" lon="-2.35699">
        <ele>12.800000190735</ele>
        <time>2020-12-17T08:36:01.000Z</time>
      </trkpt>
      <trkpt lat="47.28096" lon="-2.35704">
        <ele>13.199999809265</ele>
        <time>2020-12-17T08:36:02.000Z</time>
      </trkpt>
      <trkpt lat="47.28096" lon="-2.35709">
        <ele>13.800000190735</ele>
        <time>2020-12-17T08:36:03.000Z</time>
      </trkpt>
      <trkpt lat="47.28095" lon="-2.35714">
        <ele>14.199999809265</ele>
        <time>2020-12-17T08:36:04.000Z</time>
      </trkpt>
      <trkpt lat="47.2809" lon="-2.35741">
        <ele>14.199999809265</ele>
        <time>2020-12-17T08:36:09.000Z</time>
      </trkpt>
      <trkpt lat="47.28085" lon="-2.35778">
        <ele>14.199999809265</ele>
        <time>2020-12-17T08:36:14.000Z</time>
      </trkpt>
      <trkpt lat="47.28081" lon="-2.35789">
        <ele>13.60000038147</ele>
        <time>2020-12-17T08:36:16.000Z</time>
      </trkpt>
      <trkpt lat="47.28081" lon="-2.35794">
        <ele>13.199999809265</ele>
        <time>2020-12-17T08:36:17.000Z</time>
      </trkpt>
      <trkpt lat="47.28082" lon="-2.35799">
        <ele>12.800000190735</ele>
        <time>2020-12-17T08:36:18.000Z</time>
      </trkpt>
      <trkpt lat="47.28084" lon="-2.35804">
        <ele>12.199999809265</ele>
        <time>2020-12-17T08:36:19.000Z</time>
      </trkpt>
      <trkpt lat="47.28087" lon="-2.35809">
        <ele>11.800000190735</ele>
        <time>2020-12-17T08:36:20.000Z</time>
      </trkpt>
      <trkpt lat="47.2809" lon="-2.35814">
        <ele>11.39999961853</ele>
        <time>2020-12-17T08:36:21.000Z</time>
      </trkpt>
      <trkpt lat="47.28093" lon="-2.35819">
        <ele>11</ele>
        <time>2020-12-17T08:36:22.000Z</time>
      </trkpt>
      <trkpt lat="47.28097" lon="-2.35823">
        <ele>10.60000038147</ele>
        <time>2020-12-17T08:36:23.000Z</time>
      </trkpt>
      <trkpt lat="47.28099" lon="-2.35827">
        <ele>10.199999809265</ele>
        <time>2020-12-17T08:36:24.000Z</time>
      </trkpt>
      <trkpt lat="47.28102" lon="-2.3583">
        <ele>9.8000001907349</ele>
        <time>2020-12-17T08:36:25.000Z</time>
      </trkpt>
      <trkpt lat="47.28106" lon="-2.35837">
        <ele>9.8000001907349</ele>
        <time>2020-12-17T08:36:27.000Z</time>
      </trkpt>
      <trkpt lat="47.28117" lon="-2.35858">
        <ele>9.8000001907349</ele>
        <time>2020-12-17T08:36:33.000Z</time>
      </trkpt>
      <trkpt lat="47.28124" lon="-2.35875">
        <ele>9.8000001907349</ele>
        <time>2020-12-17T08:36:38.000Z</time>
      </trkpt>
      <trkpt lat="47.28128" lon="-2.35882">
        <ele>9.8000001907349</ele>
        <time>2020-12-17T08:36:42.000Z</time>
      </trkpt>
      <trkpt lat="47.28131" lon="-2.35887">
        <ele>9.8000001907349</ele>
        <time>2020-12-17T08:36:45.000Z</time>
      </trkpt>
      <trkpt lat="47.28135" lon="-2.35892">
        <ele>9.8000001907349</ele>
        <time>2020-12-17T08:36:47.000Z</time>
      </trkpt>
      <trkpt lat="47.2814" lon="-2.35898">
        <ele>9.8000001907349</ele>
        <time>2020-12-17T08:36:50.000Z</time>
      </trkpt>
      <trkpt lat="47.28146" lon="-2.35908">
        <ele>9.8000001907349</ele>
        <time>2020-12-17T08:36:53.000Z</time>
      </trkpt>
      <trkpt lat="47.28148" lon="-2.35913">
        <ele>9.8000001907349</ele>
        <time>2020-12-17T08:36:54.000Z</time>
      </trkpt>
      <trkpt lat="47.28152" lon="-2.35925">
        <ele>9.8000001907349</ele>
        <time>2020-12-17T08:36:57.000Z</time>
      </trkpt>
      <trkpt lat="47.28155" lon="-2.35932">
        <ele>9.8000001907349</ele>
        <time>2020-12-17T08:36:59.000Z</time>
      </trkpt>
      <trkpt lat="47.28158" lon="-2.35937">
        <ele>9.8000001907349</ele>
        <time>2020-12-17T08:37:02.000Z</time>
      </trkpt>
      <trkpt lat="47.28165" lon="-2.3594">
        <ele>9.8000001907349</ele>
        <time>2020-12-17T08:37:08.000Z</time>
      </trkpt>
      <trkpt lat="47.28171" lon="-2.35946">
        <ele>9.8000001907349</ele>
        <time>2020-12-17T08:37:12.000Z</time>
      </trkpt>
      <trkpt lat="47.28176" lon="-2.35954">
        <ele>9.1999998092651</ele>
        <time>2020-12-17T08:37:14.000Z</time>
      </trkpt>
      <trkpt lat="47.28179" lon="-2.35962">
        <ele>8.8000001907349</ele>
        <time>2020-12-17T08:37:15.000Z</time>
      </trkpt>
      <trkpt lat="47.28182" lon="-2.3597">
        <ele>8.3999996185303</ele>
        <time>2020-12-17T08:37:16.000Z</time>
      </trkpt>
      <trkpt lat="47.28185" lon="-2.35975">
        <ele>8</ele>
        <time>2020-12-17T08:37:17.000Z</time>
      </trkpt>
      <trkpt lat="47.28187" lon="-2.35981">
        <ele>7.5999999046326</ele>
        <time>2020-12-17T08:37:18.000Z</time>
      </trkpt>
      <trkpt lat="47.28192" lon="-2.35991">
        <ele>7.5999999046326</ele>
        <time>2020-12-17T08:37:20.000Z</time>
      </trkpt>
      <trkpt lat="47.28197" lon="-2.36002">
        <ele>7.5999999046326</ele>
        <time>2020-12-17T08:37:22.000Z</time>
      </trkpt>
      <trkpt lat="47.28201" lon="-2.36009">
        <ele>7.5999999046326</ele>
        <time>2020-12-17T08:37:24.000Z</time>
      </trkpt>
      <trkpt lat="47.28206" lon="-2.36015">
        <ele>7.5999999046326</ele>
        <time>2020-12-17T08:37:26.000Z</time>
      </trkpt>
      <trkpt lat="47.28215" lon="-2.36019">
        <ele>7.5999999046326</ele>
        <time>2020-12-17T08:37:29.000Z</time>
      </trkpt>
      <trkpt lat="47.2822" lon="-2.36017">
        <ele>7.5999999046326</ele>
        <time>2020-12-17T08:37:31.000Z</time>
      </trkpt>
      <trkpt lat="47.28229" lon="-2.36013">
        <ele>7.5999999046326</ele>
        <time>2020-12-17T08:37:34.000Z</time>
      </trkpt>
      <trkpt lat="47.28243" lon="-2.36011">
        <ele>7.5999999046326</ele>
        <time>2020-12-17T08:37:38.000Z</time>
      </trkpt>
      <trkpt lat="47.28247" lon="-2.36015">
        <ele>7.5999999046326</ele>
        <time>2020-12-17T08:37:39.000Z</time>
      </trkpt>
      <trkpt lat="47.28249" lon="-2.36026">
        <ele>7.5999999046326</ele>
        <time>2020-12-17T08:37:42.000Z</time>
      </trkpt>
      <trkpt lat="47.28247" lon="-2.36042">
        <ele>8</ele>
        <time>2020-12-17T08:37:45.000Z</time>
      </trkpt>
      <trkpt lat="47.28248" lon="-2.36047">
        <ele>8.3999996185303</ele>
        <time>2020-12-17T08:37:46.000Z</time>
      </trkpt>
      <trkpt lat="47.28248" lon="-2.36052">
        <ele>8.8000001907349</ele>
        <time>2020-12-17T08:37:47.000Z</time>
      </trkpt>
      <trkpt lat="47.28247" lon="-2.36057">
        <ele>9.1999998092651</ele>
        <time>2020-12-17T08:37:48.000Z</time>
      </trkpt>
      <trkpt lat="47.28247" lon="-2.36063">
        <ele>9.6000003814697</ele>
        <time>2020-12-17T08:37:49.000Z</time>
      </trkpt>
      <trkpt lat="47.28244" lon="-2.36081">
        <ele>9.6000003814697</ele>
        <time>2020-12-17T08:37:54.000Z</time>
      </trkpt>
      <trkpt lat="47.28242" lon="-2.36104">
        <ele>9.6000003814697</ele>
        <time>2020-12-17T08:37:59.000Z</time>
      </trkpt>
      <trkpt lat="47.28254" lon="-2.36125">
        <ele>9.6000003814697</ele>
        <time>2020-12-17T08:38:03.000Z</time>
      </trkpt>
      <trkpt lat="47.28263" lon="-2.36146">
        <ele>9.6000003814697</ele>
        <time>2020-12-17T08:38:08.000Z</time>
      </trkpt>
      <trkpt lat="47.28269" lon="-2.36171">
        <ele>9.6000003814697</ele>
        <time>2020-12-17T08:38:14.000Z</time>
      </trkpt>
      <trkpt lat="47.28273" lon="-2.36189">
        <ele>9.6000003814697</ele>
        <time>2020-12-17T08:38:18.000Z</time>
      </trkpt>
      <trkpt lat="47.2828" lon="-2.36219">
        <ele>9.6000003814697</ele>
        <time>2020-12-17T08:38:25.000Z</time>
      </trkpt>
      <trkpt lat="47.28286" lon="-2.36223">
        <ele>9.6000003814697</ele>
        <time>2020-12-17T08:38:30.000Z</time>
      </trkpt>
      <trkpt lat="47.28289" lon="-2.36222">
        <ele>9.6000003814697</ele>
        <time>2020-12-17T08:38:31.000Z</time>
      </trkpt>
      <trkpt lat="47.28294" lon="-2.36217">
        <ele>9.6000003814697</ele>
        <time>2020-12-17T08:38:34.000Z</time>
      </trkpt>
      <trkpt lat="47.28305" lon="-2.36212">
        <ele>9.6000003814697</ele>
        <time>2020-12-17T08:38:40.000Z</time>
      </trkpt>
      <trkpt lat="47.28315" lon="-2.36205">
        <ele>9.6000003814697</ele>
        <time>2020-12-17T08:38:46.000Z</time>
      </trkpt>
      <trkpt lat="47.28327" lon="-2.36192">
        <ele>9.6000003814697</ele>
        <time>2020-12-17T08:38:52.000Z</time>
      </trkpt>
      <trkpt lat="47.28332" lon="-2.36187">
        <ele>10</ele>
        <time>2020-12-17T08:38:55.000Z</time>
      </trkpt>
      <trkpt lat="47.28334" lon="-2.36186">
        <ele>10.39999961853</ele>
        <time>2020-12-17T08:38:56.000Z</time>
      </trkpt>
      <trkpt lat="47.28336" lon="-2.36185">
        <ele>10.800000190735</ele>
        <time>2020-12-17T08:38:57.000Z</time>
      </trkpt>
      <trkpt lat="47.28337" lon="-2.36184">
        <ele>11.199999809265</ele>
        <time>2020-12-17T08:38:58.000Z</time>
      </trkpt>
      <trkpt lat="47.28338" lon="-2.36182">
        <ele>11.800000190735</ele>
        <time>2020-12-17T08:38:59.000Z</time>
      </trkpt>
      <trkpt lat="47.28342" lon="-2.36175">
        <ele>11.800000190735</ele>
        <time>2020-12-17T08:39:04.000Z</time>
      </trkpt>
      <trkpt lat="47.28343" lon="-2.36172">
        <ele>12.199999809265</ele>
        <time>2020-12-17T08:39:06.000Z</time>
      </trkpt>
      <trkpt lat="47.28344" lon="-2.36171">
        <ele>12.60000038147</ele>
        <time>2020-12-17T08:39:07.000Z</time>
      </trkpt>
      <trkpt lat="47.28345" lon="-2.3617">
        <ele>13</ele>
        <time>2020-12-17T08:39:08.000Z</time>
      </trkpt>
      <trkpt lat="47.28346" lon="-2.36169">
        <ele>13.39999961853</ele>
        <time>2020-12-17T08:39:09.000Z</time>
      </trkpt>
      <trkpt lat="47.28346" lon="-2.36168">
        <ele>13.800000190735</ele>
        <time>2020-12-17T08:39:10.000Z</time>
      </trkpt>
      <trkpt lat="47.28349" lon="-2.36162">
        <ele>14.800000190735</ele>
        <time>2020-12-17T08:39:14.000Z</time>
      </trkpt>
      <trkpt lat="47.2835" lon="-2.36162">
        <ele>15.199999809265</ele>
        <time>2020-12-17T08:39:15.000Z</time>
      </trkpt>
      <trkpt lat="47.28351" lon="-2.3616">
        <ele>15.60000038147</ele>
        <time>2020-12-17T08:39:16.000Z</time>
      </trkpt>
      <trkpt lat="47.28352" lon="-2.36159">
        <ele>16</ele>
        <time>2020-12-17T08:39:17.000Z</time>
      </trkpt>
      <trkpt lat="47.28355" lon="-2.36154">
        <ele>16.60000038147</ele>
        <time>2020-12-17T08:39:21.000Z</time>
      </trkpt>
      <trkpt lat="47.28356" lon="-2.36154">
        <ele>17</ele>
        <time>2020-12-17T08:39:22.000Z</time>
      </trkpt>
      <trkpt lat="47.28357" lon="-2.36154">
        <ele>17.39999961853</ele>
        <time>2020-12-17T08:39:23.000Z</time>
      </trkpt>
      <trkpt lat="47.28358" lon="-2.36153">
        <ele>17.799999237061</ele>
        <time>2020-12-17T08:39:24.000Z</time>
      </trkpt>
      <trkpt lat="47.28359" lon="-2.36152">
        <ele>18.200000762939</ele>
        <time>2020-12-17T08:39:25.000Z</time>
      </trkpt>
      <trkpt lat="47.28363" lon="-2.36149">
        <ele>18.60000038147</ele>
        <time>2020-12-17T08:39:30.000Z</time>
      </trkpt>
      <trkpt lat="47.28364" lon="-2.36147">
        <ele>19</ele>
        <time>2020-12-17T08:39:31.000Z</time>
      </trkpt>
      <trkpt lat="47.28366" lon="-2.36145">
        <ele>19.39999961853</ele>
        <time>2020-12-17T08:39:32.000Z</time>
      </trkpt>
      <trkpt lat="47.28366" lon="-2.36144">
        <ele>19.799999237061</ele>
        <time>2020-12-17T08:39:33.000Z</time>
      </trkpt>
      <trkpt lat="47.28367" lon="-2.36144">
        <ele>20.200000762939</ele>
        <time>2020-12-17T08:39:34.000Z</time>
      </trkpt>
      <trkpt lat="47.28371" lon="-2.36139">
        <ele>20.200000762939</ele>
        <time>2020-12-17T08:39:43.000Z</time>
      </trkpt>
      <trkpt lat="47.28375" lon="-2.36135">
        <ele>20.200000762939</ele>
        <time>2020-12-17T08:39:45.000Z</time>
      </trkpt>
      <trkpt lat="47.28378" lon="-2.36129">
        <ele>20.60000038147</ele>
        <time>2020-12-17T08:39:49.000Z</time>
      </trkpt>
      <trkpt lat="47.28379" lon="-2.36128">
        <ele>21.200000762939</ele>
        <time>2020-12-17T08:39:50.000Z</time>
      </trkpt>
      <trkpt lat="47.28379" lon="-2.36126">
        <ele>21.60000038147</ele>
        <time>2020-12-17T08:39:51.000Z</time>
      </trkpt>
      <trkpt lat="47.2838" lon="-2.36124">
        <ele>22</ele>
        <time>2020-12-17T08:39:52.000Z</time>
      </trkpt>
      <trkpt lat="47.28382" lon="-2.36122">
        <ele>22.39999961853</ele>
        <time>2020-12-17T08:39:53.000Z</time>
      </trkpt>
      <trkpt lat="47.28384" lon="-2.3612">
        <ele>22.39999961853</ele>
        <time>2020-12-17T08:39:55.000Z</time>
      </trkpt>
      <trkpt lat="47.28387" lon="-2.36119">
        <ele>22.39999961853</ele>
        <time>2020-12-17T08:39:57.000Z</time>
      </trkpt>
      <trkpt lat="47.28389" lon="-2.36119">
        <ele>22.39999961853</ele>
        <time>2020-12-17T08:39:58.000Z</time>
      </trkpt>
      <trkpt lat="47.28394" lon="-2.36119">
        <ele>22.39999961853</ele>
        <time>2020-12-17T08:40:01.000Z</time>
      </trkpt>
      <trkpt lat="47.28398" lon="-2.36118">
        <ele>22.39999961853</ele>
        <time>2020-12-17T08:40:03.000Z</time>
      </trkpt>
      <trkpt lat="47.28406" lon="-2.36118">
        <ele>22.39999961853</ele>
        <time>2020-12-17T08:40:09.000Z</time>
      </trkpt>
      <trkpt lat="47.28411" lon="-2.36116">
        <ele>22.39999961853</ele>
        <time>2020-12-17T08:40:13.000Z</time>
      </trkpt>
      <trkpt lat="47.28412" lon="-2.36115">
        <ele>22.39999961853</ele>
        <time>2020-12-17T08:40:14.000Z</time>
      </trkpt>
      <trkpt lat="47.28414" lon="-2.36106">
        <ele>22.39999961853</ele>
        <time>2020-12-17T08:40:18.000Z</time>
      </trkpt>
      <trkpt lat="47.28415" lon="-2.36102">
        <ele>22.39999961853</ele>
        <time>2020-12-17T08:40:20.000Z</time>
      </trkpt>
      <trkpt lat="47.28419" lon="-2.36097">
        <ele>22.39999961853</ele>
        <time>2020-12-17T08:40:23.000Z</time>
      </trkpt>
      <trkpt lat="47.28431" lon="-2.36086">
        <ele>22.39999961853</ele>
        <time>2020-12-17T08:40:29.000Z</time>
      </trkpt>
      <trkpt lat="47.28432" lon="-2.36084">
        <ele>22.39999961853</ele>
        <time>2020-12-17T08:40:30.000Z</time>
      </trkpt>
      <trkpt lat="47.28433" lon="-2.36076">
        <ele>22.39999961853</ele>
        <time>2020-12-17T08:40:33.000Z</time>
      </trkpt>
      <trkpt lat="47.28433" lon="-2.36073">
        <ele>22.799999237061</ele>
        <time>2020-12-17T08:40:34.000Z</time>
      </trkpt>
      <trkpt lat="47.28433" lon="-2.36069">
        <ele>23.200000762939</ele>
        <time>2020-12-17T08:40:35.000Z</time>
      </trkpt>
      <trkpt lat="47.28433" lon="-2.36065">
        <ele>23.60000038147</ele>
        <time>2020-12-17T08:40:36.000Z</time>
      </trkpt>
      <trkpt lat="47.28433" lon="-2.36062">
        <ele>24</ele>
        <time>2020-12-17T08:40:37.000Z</time>
      </trkpt>
      <trkpt lat="47.28433" lon="-2.36057">
        <ele>24.39999961853</ele>
        <time>2020-12-17T08:40:38.000Z</time>
      </trkpt>
      <trkpt lat="47.28433" lon="-2.3605">
        <ele>24.39999961853</ele>
        <time>2020-12-17T08:40:40.000Z</time>
      </trkpt>
      <trkpt lat="47.28435" lon="-2.36031">
        <ele>24.39999961853</ele>
        <time>2020-12-17T08:40:47.000Z</time>
      </trkpt>
      <trkpt lat="47.28438" lon="-2.36024">
        <ele>24.799999237061</ele>
        <time>2020-12-17T08:40:51.000Z</time>
      </trkpt>
      <trkpt lat="47.28439" lon="-2.36022">
        <ele>25.200000762939</ele>
        <time>2020-12-17T08:40:52.000Z</time>
      </trkpt>
      <trkpt lat="47.28439" lon="-2.36022">
        <ele>26</ele>
        <time>2020-12-17T08:40:53.000Z</time>
      </trkpt>
      <trkpt lat="47.2844" lon="-2.36021">
        <ele>26.39999961853</ele>
        <time>2020-12-17T08:40:54.000Z</time>
      </trkpt>
      <trkpt lat="47.28445" lon="-2.36009">
        <ele>26.39999961853</ele>
        <time>2020-12-17T08:41:00.000Z</time>
      </trkpt>
      <trkpt lat="47.28449" lon="-2.3599">
        <ele>26.39999961853</ele>
        <time>2020-12-17T08:41:04.000Z</time>
      </trkpt>
      <trkpt lat="47.28456" lon="-2.35963">
        <ele>26</ele>
        <time>2020-12-17T08:41:09.000Z</time>
      </trkpt>
      <trkpt lat="47.28458" lon="-2.35957">
        <ele>25.60000038147</ele>
        <time>2020-12-17T08:41:10.000Z</time>
      </trkpt>
      <trkpt lat="47.28461" lon="-2.35951">
        <ele>25.200000762939</ele>
        <time>2020-12-17T08:41:11.000Z</time>
      </trkpt>
      <trkpt lat="47.28463" lon="-2.35945">
        <ele>24.60000038147</ele>
        <time>2020-12-17T08:41:12.000Z</time>
      </trkpt>
      <trkpt lat="47.28466" lon="-2.35937">
        <ele>24.200000762939</ele>
        <time>2020-12-17T08:41:13.000Z</time>
      </trkpt>
      <trkpt lat="47.28468" lon="-2.3593">
        <ele>23.60000038147</ele>
        <time>2020-12-17T08:41:14.000Z</time>
      </trkpt>
      <trkpt lat="47.28471" lon="-2.35925">
        <ele>23</ele>
        <time>2020-12-17T08:41:15.000Z</time>
      </trkpt>
      <trkpt lat="47.28471" lon="-2.3592">
        <ele>22.60000038147</ele>
        <time>2020-12-17T08:41:16.000Z</time>
      </trkpt>
      <trkpt lat="47.28471" lon="-2.35916">
        <ele>22</ele>
        <time>2020-12-17T08:41:17.000Z</time>
      </trkpt>
      <trkpt lat="47.28471" lon="-2.35912">
        <ele>20.799999237061</ele>
        <time>2020-12-17T08:41:18.000Z</time>
      </trkpt>
      <trkpt lat="47.2847" lon="-2.35907">
        <ele>20.200000762939</ele>
        <time>2020-12-17T08:41:19.000Z</time>
      </trkpt>
      <trkpt lat="47.28468" lon="-2.35902">
        <ele>19.799999237061</ele>
        <time>2020-12-17T08:41:20.000Z</time>
      </trkpt>
      <trkpt lat="47.28466" lon="-2.35898">
        <ele>19.200000762939</ele>
        <time>2020-12-17T08:41:21.000Z</time>
      </trkpt>
      <trkpt lat="47.28465" lon="-2.35893">
        <ele>18.60000038147</ele>
        <time>2020-12-17T08:41:22.000Z</time>
      </trkpt>
      <trkpt lat="47.28464" lon="-2.35889">
        <ele>18</ele>
        <time>2020-12-17T08:41:23.000Z</time>
      </trkpt>
      <trkpt lat="47.28464" lon="-2.35884">
        <ele>17.60000038147</ele>
        <time>2020-12-17T08:41:24.000Z</time>
      </trkpt>
      <trkpt lat="47.28463" lon="-2.35873">
        <ele>17.200000762939</ele>
        <time>2020-12-17T08:41:26.000Z</time>
      </trkpt>
      <trkpt lat="47.28463" lon="-2.35868">
        <ele>16.60000038147</ele>
        <time>2020-12-17T08:41:27.000Z</time>
      </trkpt>
      <trkpt lat="47.28464" lon="-2.35863">
        <ele>16.200000762939</ele>
        <time>2020-12-17T08:41:28.000Z</time>
      </trkpt>
      <trkpt lat="47.28466" lon="-2.3586">
        <ele>15.800000190735</ele>
        <time>2020-12-17T08:41:29.000Z</time>
      </trkpt>
      <trkpt lat="47.28468" lon="-2.35856">
        <ele>15.39999961853</ele>
        <time>2020-12-17T08:41:30.000Z</time>
      </trkpt>
      <trkpt lat="47.2847" lon="-2.35851">
        <ele>15.39999961853</ele>
        <time>2020-12-17T08:41:31.000Z</time>
      </trkpt>
      <trkpt lat="47.28474" lon="-2.35833">
        <ele>15.39999961853</ele>
        <time>2020-12-17T08:41:37.000Z</time>
      </trkpt>
      <trkpt lat="47.28478" lon="-2.35818">
        <ele>15.39999961853</ele>
        <time>2020-12-17T08:41:42.000Z</time>
      </trkpt>
      <trkpt lat="47.28479" lon="-2.35813">
        <ele>15.39999961853</ele>
        <time>2020-12-17T08:41:44.000Z</time>
      </trkpt>
      <trkpt lat="47.28479" lon="-2.35802">
        <ele>15.39999961853</ele>
        <time>2020-12-17T08:41:50.000Z</time>
      </trkpt>
      <trkpt lat="47.28472" lon="-2.35777">
        <ele>15.39999961853</ele>
        <time>2020-12-17T08:41:56.000Z</time>
      </trkpt>
      <trkpt lat="47.28475" lon="-2.35757">
        <ele>15.39999961853</ele>
        <time>2020-12-17T08:42:01.000Z</time>
      </trkpt>
      <trkpt lat="47.28476" lon="-2.35753">
        <ele>15.39999961853</ele>
        <time>2020-12-17T08:42:02.000Z</time>
      </trkpt>
      <trkpt lat="47.28487" lon="-2.35734">
        <ele>15.39999961853</ele>
        <time>2020-12-17T08:42:07.000Z</time>
      </trkpt>
      <trkpt lat="47.28503" lon="-2.35708">
        <ele>15.39999961853</ele>
        <time>2020-12-17T08:42:14.000Z</time>
      </trkpt>
      <trkpt lat="47.28501" lon="-2.35704">
        <ele>15.39999961853</ele>
        <time>2020-12-17T08:42:15.000Z</time>
      </trkpt>
      <trkpt lat="47.28496" lon="-2.35695">
        <ele>15.39999961853</ele>
        <time>2020-12-17T08:42:17.000Z</time>
      </trkpt>
      <trkpt lat="47.28486" lon="-2.35677">
        <ele>15.39999961853</ele>
        <time>2020-12-17T08:42:23.000Z</time>
      </trkpt>
      <trkpt lat="47.28469" lon="-2.35654">
        <ele>15.39999961853</ele>
        <time>2020-12-17T08:42:30.000Z</time>
      </trkpt>
      <trkpt lat="47.28456" lon="-2.35645">
        <ele>15.39999961853</ele>
        <time>2020-12-17T08:42:35.000Z</time>
      </trkpt>
      <trkpt lat="47.28454" lon="-2.35643">
        <ele>15</ele>
        <time>2020-12-17T08:42:37.000Z</time>
      </trkpt>
      <trkpt lat="47.28453" lon="-2.35643">
        <ele>14.60000038147</ele>
        <time>2020-12-17T08:42:38.000Z</time>
      </trkpt>
      <trkpt lat="47.2845" lon="-2.35636">
        <ele>14.199999809265</ele>
        <time>2020-12-17T08:42:39.000Z</time>
      </trkpt>
      <trkpt lat="47.28448" lon="-2.35633">
        <ele>13.800000190735</ele>
        <time>2020-12-17T08:42:40.000Z</time>
      </trkpt>
      <trkpt lat="47.28448" lon="-2.3563">
        <ele>13.39999961853</ele>
        <time>2020-12-17T08:42:41.000Z</time>
      </trkpt>
      <trkpt lat="47.28442" lon="-2.35609">
        <ele>13.39999961853</ele>
        <time>2020-12-17T08:42:46.000Z</time>
      </trkpt>
      <trkpt lat="47.28439" lon="-2.35605">
        <ele>13.39999961853</ele>
        <time>2020-12-17T08:42:47.000Z</time>
      </trkpt>
      <trkpt lat="47.28425" lon="-2.35569">
        <ele>13.39999961853</ele>
        <time>2020-12-17T08:42:55.000Z</time>
      </trkpt>
      <trkpt lat="47.28408" lon="-2.35544">
        <ele>13.39999961853</ele>
        <time>2020-12-17T08:43:00.000Z</time>
      </trkpt>
      <trkpt lat="47.28401" lon="-2.3552">
        <ele>13.39999961853</ele>
        <time>2020-12-17T08:43:05.000Z</time>
      </trkpt>
      <trkpt lat="47.28401" lon="-2.35492">
        <ele>13.39999961853</ele>
        <time>2020-12-17T08:43:10.000Z</time>
      </trkpt>
      <trkpt lat="47.28399" lon="-2.35465">
        <ele>13.39999961853</ele>
        <time>2020-12-17T08:43:16.000Z</time>
      </trkpt>
      <trkpt lat="47.284" lon="-2.35455">
        <ele>13.800000190735</ele>
        <time>2020-12-17T08:43:19.000Z</time>
      </trkpt>
      <trkpt lat="47.284" lon="-2.35451">
        <ele>14.199999809265</ele>
        <time>2020-12-17T08:43:20.000Z</time>
      </trkpt>
      <trkpt lat="47.284" lon="-2.35448">
        <ele>15.199999809265</ele>
        <time>2020-12-17T08:43:21.000Z</time>
      </trkpt>
      <trkpt lat="47.284" lon="-2.35444">
        <ele>15.60000038147</ele>
        <time>2020-12-17T08:43:22.000Z</time>
      </trkpt>
      <trkpt lat="47.28404" lon="-2.35436">
        <ele>15.60000038147</ele>
        <time>2020-12-17T08:43:27.000Z</time>
      </trkpt>
      <trkpt lat="47.2842" lon="-2.3544">
        <ele>15.60000038147</ele>
        <time>2020-12-17T08:43:32.000Z</time>
      </trkpt>
      <trkpt lat="47.28437" lon="-2.35433">
        <ele>15.60000038147</ele>
        <time>2020-12-17T08:43:37.000Z</time>
      </trkpt>
      <trkpt lat="47.28439" lon="-2.35432">
        <ele>16</ele>
        <time>2020-12-17T08:43:38.000Z</time>
      </trkpt>
      <trkpt lat="47.28441" lon="-2.3543">
        <ele>16.39999961853</ele>
        <time>2020-12-17T08:43:39.000Z</time>
      </trkpt>
      <trkpt lat="47.28442" lon="-2.35429">
        <ele>16.799999237061</ele>
        <time>2020-12-17T08:43:40.000Z</time>
      </trkpt>
      <trkpt lat="47.28444" lon="-2.35428">
        <ele>17.200000762939</ele>
        <time>2020-12-17T08:43:41.000Z</time>
      </trkpt>
      <trkpt lat="47.28445" lon="-2.35428">
        <ele>17.60000038147</ele>
        <time>2020-12-17T08:43:42.000Z</time>
      </trkpt>
      <trkpt lat="47.28446" lon="-2.35427">
        <ele>17.60000038147</ele>
        <time>2020-12-17T08:43:43.000Z</time>
      </trkpt>
      <trkpt lat="47.28451" lon="-2.35427">
        <ele>17.60000038147</ele>
        <time>2020-12-17T08:43:45.000Z</time>
      </trkpt>
      <trkpt lat="47.28455" lon="-2.35432">
        <ele>17.60000038147</ele>
        <time>2020-12-17T08:43:48.000Z</time>
      </trkpt>
      <trkpt lat="47.28464" lon="-2.35442">
        <ele>17.60000038147</ele>
        <time>2020-12-17T08:43:53.000Z</time>
      </trkpt>
      <trkpt lat="47.28471" lon="-2.35442">
        <ele>17.200000762939</ele>
        <time>2020-12-17T08:43:55.000Z</time>
      </trkpt>
      <trkpt lat="47.28473" lon="-2.3544">
        <ele>16.799999237061</ele>
        <time>2020-12-17T08:43:56.000Z</time>
      </trkpt>
      <trkpt lat="47.28476" lon="-2.35438">
        <ele>16.39999961853</ele>
        <time>2020-12-17T08:43:57.000Z</time>
      </trkpt>
      <trkpt lat="47.28478" lon="-2.35435">
        <ele>15.800000190735</ele>
        <time>2020-12-17T08:43:58.000Z</time>
      </trkpt>
      <trkpt lat="47.28481" lon="-2.35432">
        <ele>15.39999961853</ele>
        <time>2020-12-17T08:43:59.000Z</time>
      </trkpt>
      <trkpt lat="47.28484" lon="-2.35431">
        <ele>14.800000190735</ele>
        <time>2020-12-17T08:44:00.000Z</time>
      </trkpt>
      <trkpt lat="47.28487" lon="-2.35431">
        <ele>14.39999961853</ele>
        <time>2020-12-17T08:44:01.000Z</time>
      </trkpt>
      <trkpt lat="47.28489" lon="-2.35432">
        <ele>13.800000190735</ele>
        <time>2020-12-17T08:44:02.000Z</time>
      </trkpt>
      <trkpt lat="47.28491" lon="-2.35436">
        <ele>13.39999961853</ele>
        <time>2020-12-17T08:44:03.000Z</time>
      </trkpt>
      <trkpt lat="47.28498" lon="-2.35444">
        <ele>13.39999961853</ele>
        <time>2020-12-17T08:44:06.000Z</time>
      </trkpt>
      <trkpt lat="47.28499" lon="-2.35445">
        <ele>13.39999961853</ele>
        <time>2020-12-17T08:44:07.000Z</time>
      </trkpt>
      <trkpt lat="47.285" lon="-2.3545">
        <ele>13.39999961853</ele>
        <time>2020-12-17T08:44:11.000Z</time>
      </trkpt>
      <trkpt lat="47.28507" lon="-2.35451">
        <ele>13.39999961853</ele>
        <time>2020-12-17T08:44:33.000Z</time>
      </trkpt>
      <trkpt lat="47.28507" lon="-2.35448">
        <ele>13.39999961853</ele>
        <time>2020-12-17T08:44:36.000Z</time>
      </trkpt>
      <trkpt lat="47.2851" lon="-2.35441">
        <ele>13.39999961853</ele>
        <time>2020-12-17T08:44:40.000Z</time>
      </trkpt>
      <trkpt lat="47.28522" lon="-2.35421">
        <ele>11.199999809265</ele>
        <time>2020-12-17T08:44:58.000Z</time>
      </trkpt>
      <trkpt lat="47.28523" lon="-2.35424">
        <ele>11.199999809265</ele>
        <time>2020-12-17T08:44:59.000Z</time>
      </trkpt>
      <trkpt lat="47.28536" lon="-2.35426">
        <ele>11.199999809265</ele>
        <time>2020-12-17T08:45:03.000Z</time>
      </trkpt>
      <trkpt lat="47.28538" lon="-2.35424">
        <ele>11.199999809265</ele>
        <time>2020-12-17T08:45:04.000Z</time>
      </trkpt>
      <trkpt lat="47.28547" lon="-2.35419">
        <ele>11.199999809265</ele>
        <time>2020-12-17T08:45:09.000Z</time>
      </trkpt>
      <trkpt lat="47.28554" lon="-2.35416">
        <ele>11.199999809265</ele>
        <time>2020-12-17T08:45:15.000Z</time>
      </trkpt>
      <trkpt lat="47.28555" lon="-2.35415">
        <ele>11.199999809265</ele>
        <time>2020-12-17T08:45:16.000Z</time>
      </trkpt>
      <trkpt lat="47.28565" lon="-2.35422">
        <ele>11.199999809265</ele>
        <time>2020-12-17T08:45:29.000Z</time>
      </trkpt>
      <trkpt lat="47.28566" lon="-2.35432">
        <ele>11.199999809265</ele>
        <time>2020-12-17T08:45:31.000Z</time>
      </trkpt>
      <trkpt lat="47.28576" lon="-2.35464">
        <ele>11.199999809265</ele>
        <time>2020-12-17T08:45:36.000Z</time>
      </trkpt>
      <trkpt lat="47.28584" lon="-2.35515">
        <ele>11.199999809265</ele>
        <time>2020-12-17T08:45:43.000Z</time>
      </trkpt>
      <trkpt lat="47.2859" lon="-2.35569">
        <ele>11.199999809265</ele>
        <time>2020-12-17T08:45:50.000Z</time>
      </trkpt>
      <trkpt lat="47.28594" lon="-2.35598">
        <ele>11.60000038147</ele>
        <time>2020-12-17T08:45:54.000Z</time>
      </trkpt>
      <trkpt lat="47.28595" lon="-2.35604">
        <ele>12</ele>
        <time>2020-12-17T08:45:55.000Z</time>
      </trkpt>
      <trkpt lat="47.28596" lon="-2.35612">
        <ele>12.39999961853</ele>
        <time>2020-12-17T08:45:56.000Z</time>
      </trkpt>
      <trkpt lat="47.28596" lon="-2.35619">
        <ele>12.800000190735</ele>
        <time>2020-12-17T08:45:57.000Z</time>
      </trkpt>
      <trkpt lat="47.28597" lon="-2.35626">
        <ele>13.199999809265</ele>
        <time>2020-12-17T08:45:58.000Z</time>
      </trkpt>
      <trkpt lat="47.28601" lon="-2.35654">
        <ele>13.199999809265</ele>
        <time>2020-12-17T08:46:02.000Z</time>
      </trkpt>
      <trkpt lat="47.28603" lon="-2.35668">
        <ele>13.199999809265</ele>
        <time>2020-12-17T08:46:04.000Z</time>
      </trkpt>
      <trkpt lat="47.28611" lon="-2.35725">
        <ele>13.199999809265</ele>
        <time>2020-12-17T08:46:12.000Z</time>
      </trkpt>
      <trkpt lat="47.28613" lon="-2.35731">
        <ele>13.199999809265</ele>
        <time>2020-12-17T08:46:13.000Z</time>
      </trkpt>
      <trkpt lat="47.28625" lon="-2.35751">
        <ele>13.199999809265</ele>
        <time>2020-12-17T08:46:17.000Z</time>
      </trkpt>
      <trkpt lat="47.28628" lon="-2.35757">
        <ele>13.199999809265</ele>
        <time>2020-12-17T08:46:18.000Z</time>
      </trkpt>
      <trkpt lat="47.28633" lon="-2.35777">
        <ele>13.199999809265</ele>
        <time>2020-12-17T08:46:21.000Z</time>
      </trkpt>
      <trkpt lat="47.2864" lon="-2.35799">
        <ele>13.199999809265</ele>
        <time>2020-12-17T08:46:25.000Z</time>
      </trkpt>
      <trkpt lat="47.2864" lon="-2.35803">
        <ele>13.199999809265</ele>
        <time>2020-12-17T08:46:26.000Z</time>
      </trkpt>
      <trkpt lat="47.28641" lon="-2.35806">
        <ele>13.199999809265</ele>
        <time>2020-12-17T08:46:29.000Z</time>
      </trkpt>
      <trkpt lat="47.28641" lon="-2.35811">
        <ele>13.199999809265</ele>
        <time>2020-12-17T08:46:32.000Z</time>
      </trkpt>
      <trkpt lat="47.28642" lon="-2.3582">
        <ele>13.199999809265</ele>
        <time>2020-12-17T08:46:35.000Z</time>
      </trkpt>
      <trkpt lat="47.28642" lon="-2.35825">
        <ele>13.199999809265</ele>
        <time>2020-12-17T08:46:36.000Z</time>
      </trkpt>
      <trkpt lat="47.28646" lon="-2.35842">
        <ele>13.199999809265</ele>
        <time>2020-12-17T08:46:39.000Z</time>
      </trkpt>
      <trkpt lat="47.28647" lon="-2.35848">
        <ele>13.60000038147</ele>
        <time>2020-12-17T08:46:40.000Z</time>
      </trkpt>
      <trkpt lat="47.2865" lon="-2.35853">
        <ele>14</ele>
        <time>2020-12-17T08:46:41.000Z</time>
      </trkpt>
      <trkpt lat="47.28652" lon="-2.35859">
        <ele>14.60000038147</ele>
        <time>2020-12-17T08:46:42.000Z</time>
      </trkpt>
      <trkpt lat="47.28655" lon="-2.35865">
        <ele>15</ele>
        <time>2020-12-17T08:46:43.000Z</time>
      </trkpt>
      <trkpt lat="47.28657" lon="-2.35871">
        <ele>15.39999961853</ele>
        <time>2020-12-17T08:46:44.000Z</time>
      </trkpt>
      <trkpt lat="47.28659" lon="-2.35877">
        <ele>15.39999961853</ele>
        <time>2020-12-17T08:46:45.000Z</time>
      </trkpt>
      <trkpt lat="47.28663" lon="-2.3589">
        <ele>15.39999961853</ele>
        <time>2020-12-17T08:46:47.000Z</time>
      </trkpt>
      <trkpt lat="47.28667" lon="-2.35901">
        <ele>15.39999961853</ele>
        <time>2020-12-17T08:46:49.000Z</time>
      </trkpt>
      <trkpt lat="47.28675" lon="-2.35918">
        <ele>15.39999961853</ele>
        <time>2020-12-17T08:46:54.000Z</time>
      </trkpt>
      <trkpt lat="47.28684" lon="-2.35906">
        <ele>15.39999961853</ele>
        <time>2020-12-17T08:46:57.000Z</time>
      </trkpt>
      <trkpt lat="47.28707" lon="-2.35874">
        <ele>15.39999961853</ele>
        <time>2020-12-17T08:47:03.000Z</time>
      </trkpt>
      <trkpt lat="47.28711" lon="-2.35868">
        <ele>16.200000762939</ele>
        <time>2020-12-17T08:47:04.000Z</time>
      </trkpt>
      <trkpt lat="47.28715" lon="-2.35862">
        <ele>16.60000038147</ele>
        <time>2020-12-17T08:47:05.000Z</time>
      </trkpt>
      <trkpt lat="47.28718" lon="-2.35857">
        <ele>17</ele>
        <time>2020-12-17T08:47:06.000Z</time>
      </trkpt>
      <trkpt lat="47.28722" lon="-2.35851">
        <ele>17.39999961853</ele>
        <time>2020-12-17T08:47:07.000Z</time>
      </trkpt>
      <trkpt lat="47.28731" lon="-2.35833">
        <ele>17.39999961853</ele>
        <time>2020-12-17T08:47:10.000Z</time>
      </trkpt>
      <trkpt lat="47.28749" lon="-2.35797">
        <ele>17.39999961853</ele>
        <time>2020-12-17T08:47:16.000Z</time>
      </trkpt>
      <trkpt lat="47.28781" lon="-2.35736">
        <ele>17.39999961853</ele>
        <time>2020-12-17T08:47:26.000Z</time>
      </trkpt>
      <trkpt lat="47.28811" lon="-2.35678">
        <ele>17.39999961853</ele>
        <time>2020-12-17T08:47:35.000Z</time>
      </trkpt>
      <trkpt lat="47.28823" lon="-2.35659">
        <ele>17.39999961853</ele>
        <time>2020-12-17T08:47:38.000Z</time>
      </trkpt>
      <trkpt lat="47.28834" lon="-2.35644">
        <ele>17.39999961853</ele>
        <time>2020-12-17T08:47:41.000Z</time>
      </trkpt>
      <trkpt lat="47.28866" lon="-2.35614">
        <ele>17.39999961853</ele>
        <time>2020-12-17T08:47:48.000Z</time>
      </trkpt>
      <trkpt lat="47.289" lon="-2.3558">
        <ele>17.39999961853</ele>
        <time>2020-12-17T08:47:56.000Z</time>
      </trkpt>
      <trkpt lat="47.2892" lon="-2.35558">
        <ele>17.39999961853</ele>
        <time>2020-12-17T08:48:02.000Z</time>
      </trkpt>
      <trkpt lat="47.28924" lon="-2.35557">
        <ele>17.39999961853</ele>
        <time>2020-12-17T08:48:03.000Z</time>
      </trkpt>
      <trkpt lat="47.2893" lon="-2.35562">
        <ele>17.39999961853</ele>
        <time>2020-12-17T08:48:05.000Z</time>
      </trkpt>
      <trkpt lat="47.28935" lon="-2.35578">
        <ele>17.39999961853</ele>
        <time>2020-12-17T08:48:08.000Z</time>
      </trkpt>
      <trkpt lat="47.28937" lon="-2.35584">
        <ele>17.39999961853</ele>
        <time>2020-12-17T08:48:09.000Z</time>
      </trkpt>
      <trkpt lat="47.28955" lon="-2.3563">
        <ele>17.39999961853</ele>
        <time>2020-12-17T08:48:16.000Z</time>
      </trkpt>
      <trkpt lat="47.28957" lon="-2.35636">
        <ele>17.39999961853</ele>
        <time>2020-12-17T08:48:17.000Z</time>
      </trkpt>
      <trkpt lat="47.28965" lon="-2.35656">
        <ele>17.799999237061</ele>
        <time>2020-12-17T08:48:20.000Z</time>
      </trkpt>
      <trkpt lat="47.28968" lon="-2.35662">
        <ele>18.200000762939</ele>
        <time>2020-12-17T08:48:21.000Z</time>
      </trkpt>
      <trkpt lat="47.28971" lon="-2.35668">
        <ele>18.60000038147</ele>
        <time>2020-12-17T08:48:22.000Z</time>
      </trkpt>
      <trkpt lat="47.28974" lon="-2.35674">
        <ele>19</ele>
        <time>2020-12-17T08:48:23.000Z</time>
      </trkpt>
      <trkpt lat="47.28977" lon="-2.35679">
        <ele>19.39999961853</ele>
        <time>2020-12-17T08:48:24.000Z</time>
      </trkpt>
      <trkpt lat="47.28992" lon="-2.35698">
        <ele>19.39999961853</ele>
        <time>2020-12-17T08:48:28.000Z</time>
      </trkpt>
      <trkpt lat="47.28996" lon="-2.35702">
        <ele>19.39999961853</ele>
        <time>2020-12-17T08:48:29.000Z</time>
      </trkpt>
      <trkpt lat="47.29015" lon="-2.35704">
        <ele>19.39999961853</ele>
        <time>2020-12-17T08:48:33.000Z</time>
      </trkpt>
      <trkpt lat="47.29035" lon="-2.35693">
        <ele>19.39999961853</ele>
        <time>2020-12-17T08:48:37.000Z</time>
      </trkpt>
      <trkpt lat="47.2904" lon="-2.35689">
        <ele>19.39999961853</ele>
        <time>2020-12-17T08:48:38.000Z</time>
      </trkpt>
      <trkpt lat="47.29069" lon="-2.35658">
        <ele>19.39999961853</ele>
        <time>2020-12-17T08:48:45.000Z</time>
      </trkpt>
      <trkpt lat="47.29088" lon="-2.35641">
        <ele>19.39999961853</ele>
        <time>2020-12-17T08:48:50.000Z</time>
      </trkpt>
      <trkpt lat="47.29091" lon="-2.35638">
        <ele>19.39999961853</ele>
        <time>2020-12-17T08:48:51.000Z</time>
      </trkpt>
      <trkpt lat="47.29106" lon="-2.35624">
        <ele>19.39999961853</ele>
        <time>2020-12-17T08:48:57.000Z</time>
      </trkpt>
      <trkpt lat="47.29124" lon="-2.35604">
        <ele>19.39999961853</ele>
        <time>2020-12-17T08:49:02.000Z</time>
      </trkpt>
      <trkpt lat="47.2913" lon="-2.35575">
        <ele>19.39999961853</ele>
        <time>2020-12-17T08:49:06.000Z</time>
      </trkpt>
      <trkpt lat="47.29126" lon="-2.35542">
        <ele>19.39999961853</ele>
        <time>2020-12-17T08:49:10.000Z</time>
      </trkpt>
      <trkpt lat="47.29117" lon="-2.35499">
        <ele>19.39999961853</ele>
        <time>2020-12-17T08:49:16.000Z</time>
      </trkpt>
      <trkpt lat="47.29117" lon="-2.35475">
        <ele>19.39999961853</ele>
        <time>2020-12-17T08:49:20.000Z</time>
      </trkpt>
      <trkpt lat="47.29133" lon="-2.35459">
        <ele>19.39999961853</ele>
        <time>2020-12-17T08:49:24.000Z</time>
      </trkpt>
      <trkpt lat="47.29143" lon="-2.35455">
        <ele>19.39999961853</ele>
        <time>2020-12-17T08:49:26.000Z</time>
      </trkpt>
      <trkpt lat="47.29165" lon="-2.35447">
        <ele>19.39999961853</ele>
        <time>2020-12-17T08:49:30.000Z</time>
      </trkpt>
      <trkpt lat="47.29202" lon="-2.35435">
        <ele>19.39999961853</ele>
        <time>2020-12-17T08:49:37.000Z</time>
      </trkpt>
      <trkpt lat="47.29241" lon="-2.35419">
        <ele>19.39999961853</ele>
        <time>2020-12-17T08:49:45.000Z</time>
      </trkpt>
      <trkpt lat="47.29276" lon="-2.35401">
        <ele>19.39999961853</ele>
        <time>2020-12-17T08:49:52.000Z</time>
      </trkpt>
      <trkpt lat="47.29303" lon="-2.35377">
        <ele>19.39999961853</ele>
        <time>2020-12-17T08:49:58.000Z</time>
      </trkpt>
      <trkpt lat="47.29345" lon="-2.35333">
        <ele>19.39999961853</ele>
        <time>2020-12-17T08:50:07.000Z</time>
      </trkpt>
      <trkpt lat="47.29355" lon="-2.35322">
        <ele>19</ele>
        <time>2020-12-17T08:50:09.000Z</time>
      </trkpt>
      <trkpt lat="47.2936" lon="-2.35317">
        <ele>18.60000038147</ele>
        <time>2020-12-17T08:50:10.000Z</time>
      </trkpt>
      <trkpt lat="47.29365" lon="-2.35312">
        <ele>18.200000762939</ele>
        <time>2020-12-17T08:50:11.000Z</time>
      </trkpt>
      <trkpt lat="47.2937" lon="-2.35306">
        <ele>17.799999237061</ele>
        <time>2020-12-17T08:50:12.000Z</time>
      </trkpt>
      <trkpt lat="47.29375" lon="-2.35301">
        <ele>17.39999961853</ele>
        <time>2020-12-17T08:50:13.000Z</time>
      </trkpt>
      <trkpt lat="47.2938" lon="-2.35295">
        <ele>17.39999961853</ele>
        <time>2020-12-17T08:50:14.000Z</time>
      </trkpt>
      <trkpt lat="47.29407" lon="-2.35261">
        <ele>17.39999961853</ele>
        <time>2020-12-17T08:50:20.000Z</time>
      </trkpt>
      <trkpt lat="47.29411" lon="-2.35255">
        <ele>17.39999961853</ele>
        <time>2020-12-17T08:50:21.000Z</time>
      </trkpt>
      <trkpt lat="47.29439" lon="-2.35201">
        <ele>17.39999961853</ele>
        <time>2020-12-17T08:50:29.000Z</time>
      </trkpt>
      <trkpt lat="47.29449" lon="-2.35178">
        <ele>17</ele>
        <time>2020-12-17T08:50:32.000Z</time>
      </trkpt>
      <trkpt lat="47.29451" lon="-2.35171">
        <ele>16.60000038147</ele>
        <time>2020-12-17T08:50:33.000Z</time>
      </trkpt>
      <trkpt lat="47.29454" lon="-2.35164">
        <ele>16.200000762939</ele>
        <time>2020-12-17T08:50:34.000Z</time>
      </trkpt>
      <trkpt lat="47.29456" lon="-2.35156">
        <ele>15.800000190735</ele>
        <time>2020-12-17T08:50:35.000Z</time>
      </trkpt>
      <trkpt lat="47.29459" lon="-2.35148">
        <ele>15.39999961853</ele>
        <time>2020-12-17T08:50:36.000Z</time>
      </trkpt>
      <trkpt lat="47.29477" lon="-2.35091">
        <ele>15.39999961853</ele>
        <time>2020-12-17T08:50:43.000Z</time>
      </trkpt>
      <trkpt lat="47.29502" lon="-2.35018">
        <ele>15.39999961853</ele>
        <time>2020-12-17T08:50:52.000Z</time>
      </trkpt>
      <trkpt lat="47.2951" lon="-2.34998">
        <ele>14.800000190735</ele>
        <time>2020-12-17T08:50:54.000Z</time>
      </trkpt>
      <trkpt lat="47.29515" lon="-2.34988">
        <ele>14.39999961853</ele>
        <time>2020-12-17T08:50:55.000Z</time>
      </trkpt>
      <trkpt lat="47.29519" lon="-2.34977">
        <ele>13.800000190735</ele>
        <time>2020-12-17T08:50:56.000Z</time>
      </trkpt>
      <trkpt lat="47.29523" lon="-2.34967">
        <ele>13.39999961853</ele>
        <time>2020-12-17T08:50:57.000Z</time>
      </trkpt>
      <trkpt lat="47.29527" lon="-2.34957">
        <ele>13</ele>
        <time>2020-12-17T08:50:58.000Z</time>
      </trkpt>
      <trkpt lat="47.29545" lon="-2.34922">
        <ele>13</ele>
        <time>2020-12-17T08:51:02.000Z</time>
      </trkpt>
      <trkpt lat="47.29549" lon="-2.34917">
        <ele>13</ele>
        <time>2020-12-17T08:51:03.000Z</time>
      </trkpt>
      <trkpt lat="47.29568" lon="-2.34895">
        <ele>13</ele>
        <time>2020-12-17T08:51:08.000Z</time>
      </trkpt>
      <trkpt lat="47.29597" lon="-2.34854">
        <ele>13</ele>
        <time>2020-12-17T08:51:16.000Z</time>
      </trkpt>
      <trkpt lat="47.29619" lon="-2.3483">
        <ele>13</ele>
        <time>2020-12-17T08:51:22.000Z</time>
      </trkpt>
      <trkpt lat="47.29624" lon="-2.34829">
        <ele>13</ele>
        <time>2020-12-17T08:51:23.000Z</time>
      </trkpt>
      <trkpt lat="47.29638" lon="-2.34837">
        <ele>13</ele>
        <time>2020-12-17T08:51:26.000Z</time>
      </trkpt>
      <trkpt lat="47.29652" lon="-2.34858">
        <ele>13</ele>
        <time>2020-12-17T08:51:30.000Z</time>
      </trkpt>
      <trkpt lat="47.29672" lon="-2.34885">
        <ele>13</ele>
        <time>2020-12-17T08:51:35.000Z</time>
      </trkpt>
      <trkpt lat="47.29678" lon="-2.3489">
        <ele>13</ele>
        <time>2020-12-17T08:51:36.000Z</time>
      </trkpt>
      <trkpt lat="47.29688" lon="-2.34894">
        <ele>13</ele>
        <time>2020-12-17T08:51:38.000Z</time>
      </trkpt>
      <trkpt lat="47.29705" lon="-2.34892">
        <ele>13</ele>
        <time>2020-12-17T08:51:41.000Z</time>
      </trkpt>
      <trkpt lat="47.29717" lon="-2.34885">
        <ele>13</ele>
        <time>2020-12-17T08:51:43.000Z</time>
      </trkpt>
      <trkpt lat="47.29736" lon="-2.34874">
        <ele>13</ele>
        <time>2020-12-17T08:51:46.000Z</time>
      </trkpt>
      <trkpt lat="47.29743" lon="-2.34869">
        <ele>13</ele>
        <time>2020-12-17T08:51:47.000Z</time>
      </trkpt>
      <trkpt lat="47.29754" lon="-2.34864">
        <ele>13</ele>
        <time>2020-12-17T08:51:49.000Z</time>
      </trkpt>
      <trkpt lat="47.2978" lon="-2.34856">
        <ele>13</ele>
        <time>2020-12-17T08:51:54.000Z</time>
      </trkpt>
      <trkpt lat="47.29816" lon="-2.34847">
        <ele>13</ele>
        <time>2020-12-17T08:52:00.000Z</time>
      </trkpt>
      <trkpt lat="47.29863" lon="-2.34841">
        <ele>13</ele>
        <time>2020-12-17T08:52:08.000Z</time>
      </trkpt>
      <trkpt lat="47.29898" lon="-2.34836">
        <ele>13</ele>
        <time>2020-12-17T08:52:15.000Z</time>
      </trkpt>
      <trkpt lat="47.2993" lon="-2.34831">
        <ele>13.39999961853</ele>
        <time>2020-12-17T08:52:22.000Z</time>
      </trkpt>
      <trkpt lat="47.29934" lon="-2.3483">
        <ele>13.800000190735</ele>
        <time>2020-12-17T08:52:23.000Z</time>
      </trkpt>
      <trkpt lat="47.29939" lon="-2.3483">
        <ele>14.199999809265</ele>
        <time>2020-12-17T08:52:24.000Z</time>
      </trkpt>
      <trkpt lat="47.29943" lon="-2.34829">
        <ele>15</ele>
        <time>2020-12-17T08:52:25.000Z</time>
      </trkpt>
      <trkpt lat="47.29967" lon="-2.34824">
        <ele>15</ele>
        <time>2020-12-17T08:52:32.000Z</time>
      </trkpt>
      <trkpt lat="47.29979" lon="-2.34814">
        <ele>15</ele>
        <time>2020-12-17T08:52:37.000Z</time>
      </trkpt>
      <trkpt lat="47.29979" lon="-2.34796">
        <ele>15</ele>
        <time>2020-12-17T08:52:40.000Z</time>
      </trkpt>
      <trkpt lat="47.29979" lon="-2.34789">
        <ele>15</ele>
        <time>2020-12-17T08:52:41.000Z</time>
      </trkpt>
      <trkpt lat="47.29973" lon="-2.34739">
        <ele>15</ele>
        <time>2020-12-17T08:52:47.000Z</time>
      </trkpt>
      <trkpt lat="47.29961" lon="-2.34646">
        <ele>15</ele>
        <time>2020-12-17T08:52:56.000Z</time>
      </trkpt>
      <trkpt lat="47.29955" lon="-2.34597">
        <ele>15</ele>
        <time>2020-12-17T08:53:03.000Z</time>
      </trkpt>
      <trkpt lat="47.29947" lon="-2.34522">
        <ele>15</ele>
        <time>2020-12-17T08:53:13.000Z</time>
      </trkpt>
      <trkpt lat="47.29938" lon="-2.34444">
        <ele>15</ele>
        <time>2020-12-17T08:53:23.000Z</time>
      </trkpt>
      <trkpt lat="47.29928" lon="-2.34369">
        <ele>15</ele>
        <time>2020-12-17T08:53:32.000Z</time>
      </trkpt>
      <trkpt lat="47.2992" lon="-2.343">
        <ele>15</ele>
        <time>2020-12-17T08:53:40.000Z</time>
      </trkpt>
      <trkpt lat="47.29916" lon="-2.34275">
        <ele>15</ele>
        <time>2020-12-17T08:53:43.000Z</time>
      </trkpt>
      <trkpt lat="47.29918" lon="-2.34258">
        <ele>15</ele>
        <time>2020-12-17T08:53:45.000Z</time>
      </trkpt>
      <trkpt lat="47.29928" lon="-2.34236">
        <ele>15</ele>
        <time>2020-12-17T08:53:48.000Z</time>
      </trkpt>
      <trkpt lat="47.29937" lon="-2.34225">
        <ele>15</ele>
        <time>2020-12-17T08:53:50.000Z</time>
      </trkpt>
      <trkpt lat="47.29956" lon="-2.34201">
        <ele>15</ele>
        <time>2020-12-17T08:53:54.000Z</time>
      </trkpt>
      <trkpt lat="47.29997" lon="-2.3415">
        <ele>15</ele>
        <time>2020-12-17T08:54:03.000Z</time>
      </trkpt>
      <trkpt lat="47.30032" lon="-2.34104">
        <ele>15</ele>
        <time>2020-12-17T08:54:11.000Z</time>
      </trkpt>
      <trkpt lat="47.30068" lon="-2.34055">
        <ele>15</ele>
        <time>2020-12-17T08:54:19.000Z</time>
      </trkpt>
      <trkpt lat="47.30089" lon="-2.34029">
        <ele>14.60000038147</ele>
        <time>2020-12-17T08:54:23.000Z</time>
      </trkpt>
      <trkpt lat="47.30094" lon="-2.34022">
        <ele>14</ele>
        <time>2020-12-17T08:54:24.000Z</time>
      </trkpt>
      <trkpt lat="47.30099" lon="-2.34016">
        <ele>13.60000038147</ele>
        <time>2020-12-17T08:54:25.000Z</time>
      </trkpt>
      <trkpt lat="47.30104" lon="-2.3401">
        <ele>13.199999809265</ele>
        <time>2020-12-17T08:54:26.000Z</time>
      </trkpt>
      <trkpt lat="47.30109" lon="-2.34004">
        <ele>12.800000190735</ele>
        <time>2020-12-17T08:54:27.000Z</time>
      </trkpt>
      <trkpt lat="47.30114" lon="-2.33998">
        <ele>12.800000190735</ele>
        <time>2020-12-17T08:54:28.000Z</time>
      </trkpt>
      <trkpt lat="47.30145" lon="-2.33964">
        <ele>12.800000190735</ele>
        <time>2020-12-17T08:54:35.000Z</time>
      </trkpt>
      <trkpt lat="47.30155" lon="-2.33957">
        <ele>12.800000190735</ele>
        <time>2020-12-17T08:54:37.000Z</time>
      </trkpt>
      <trkpt lat="47.30169" lon="-2.33948">
        <ele>12.800000190735</ele>
        <time>2020-12-17T08:54:40.000Z</time>
      </trkpt>
      <trkpt lat="47.30173" lon="-2.33945">
        <ele>12.800000190735</ele>
        <time>2020-12-17T08:54:41.000Z</time>
      </trkpt>
      <trkpt lat="47.30184" lon="-2.33932">
        <ele>13.199999809265</ele>
        <time>2020-12-17T08:54:44.000Z</time>
      </trkpt>
      <trkpt lat="47.30187" lon="-2.33928">
        <ele>13.60000038147</ele>
        <time>2020-12-17T08:54:45.000Z</time>
      </trkpt>
      <trkpt lat="47.30191" lon="-2.33923">
        <ele>14</ele>
        <time>2020-12-17T08:54:46.000Z</time>
      </trkpt>
      <trkpt lat="47.30195" lon="-2.33918">
        <ele>14.39999961853</ele>
        <time>2020-12-17T08:54:47.000Z</time>
      </trkpt>
      <trkpt lat="47.30199" lon="-2.33913">
        <ele>14.800000190735</ele>
        <time>2020-12-17T08:54:48.000Z</time>
      </trkpt>
      <trkpt lat="47.30212" lon="-2.33899">
        <ele>14.800000190735</ele>
        <time>2020-12-17T08:54:51.000Z</time>
      </trkpt>
      <trkpt lat="47.30238" lon="-2.33879">
        <ele>14.800000190735</ele>
        <time>2020-12-17T08:54:57.000Z</time>
      </trkpt>
      <trkpt lat="47.30256" lon="-2.33869">
        <ele>15.199999809265</ele>
        <time>2020-12-17T08:55:01.000Z</time>
      </trkpt>
      <trkpt lat="47.3026" lon="-2.33866">
        <ele>15.60000038147</ele>
        <time>2020-12-17T08:55:02.000Z</time>
      </trkpt>
      <trkpt lat="47.30265" lon="-2.33863">
        <ele>16</ele>
        <time>2020-12-17T08:55:03.000Z</time>
      </trkpt>
      <trkpt lat="47.30269" lon="-2.3386">
        <ele>16.60000038147</ele>
        <time>2020-12-17T08:55:04.000Z</time>
      </trkpt>
      <trkpt lat="47.30274" lon="-2.33856">
        <ele>17</ele>
        <time>2020-12-17T08:55:05.000Z</time>
      </trkpt>
      <trkpt lat="47.30293" lon="-2.33842">
        <ele>17</ele>
        <time>2020-12-17T08:55:09.000Z</time>
      </trkpt>
      <trkpt lat="47.30326" lon="-2.3382">
        <ele>17</ele>
        <time>2020-12-17T08:55:16.000Z</time>
      </trkpt>
      <trkpt lat="47.30342" lon="-2.338">
        <ele>17</ele>
        <time>2020-12-17T08:55:21.000Z</time>
      </trkpt>
      <trkpt lat="47.30368" lon="-2.3377">
        <ele>17</ele>
        <time>2020-12-17T08:55:28.000Z</time>
      </trkpt>
      <trkpt lat="47.30387" lon="-2.33744">
        <ele>17</ele>
        <time>2020-12-17T08:55:34.000Z</time>
      </trkpt>
      <trkpt lat="47.30397" lon="-2.33729">
        <ele>17</ele>
        <time>2020-12-17T08:55:39.000Z</time>
      </trkpt>
      <trkpt lat="47.30411" lon="-2.33703">
        <ele>17</ele>
        <time>2020-12-17T08:55:45.000Z</time>
      </trkpt>
      <trkpt lat="47.30425" lon="-2.33692">
        <ele>17</ele>
        <time>2020-12-17T08:55:49.000Z</time>
      </trkpt>
      <trkpt lat="47.30441" lon="-2.33686">
        <ele>17</ele>
        <time>2020-12-17T08:55:54.000Z</time>
      </trkpt>
      <trkpt lat="47.30463" lon="-2.33672">
        <ele>17</ele>
        <time>2020-12-17T08:56:01.000Z</time>
      </trkpt>
      <trkpt lat="47.30475" lon="-2.33665">
        <ele>17</ele>
        <time>2020-12-17T08:56:06.000Z</time>
      </trkpt>
      <trkpt lat="47.30489" lon="-2.33658">
        <ele>17</ele>
        <time>2020-12-17T08:56:15.000Z</time>
      </trkpt>
      <trkpt lat="47.30503" lon="-2.33652">
        <ele>17</ele>
        <time>2020-12-17T08:56:20.000Z</time>
      </trkpt>
      <trkpt lat="47.30526" lon="-2.33645">
        <ele>17</ele>
        <time>2020-12-17T08:56:27.000Z</time>
      </trkpt>
      <trkpt lat="47.30544" lon="-2.33646">
        <ele>17</ele>
        <time>2020-12-17T08:56:33.000Z</time>
      </trkpt>
      <trkpt lat="47.30551" lon="-2.33658">
        <ele>17</ele>
        <time>2020-12-17T08:56:38.000Z</time>
      </trkpt>
      <trkpt lat="47.30556" lon="-2.33679">
        <ele>17</ele>
        <time>2020-12-17T08:56:43.000Z</time>
      </trkpt>
      <trkpt lat="47.30562" lon="-2.33701">
        <ele>17</ele>
        <time>2020-12-17T08:56:49.000Z</time>
      </trkpt>
      <trkpt lat="47.30568" lon="-2.33734">
        <ele>17</ele>
        <time>2020-12-17T08:56:57.000Z</time>
      </trkpt>
      <trkpt lat="47.30572" lon="-2.33755">
        <ele>17</ele>
        <time>2020-12-17T08:57:03.000Z</time>
      </trkpt>
      <trkpt lat="47.30577" lon="-2.33773">
        <ele>17</ele>
        <time>2020-12-17T08:57:08.000Z</time>
      </trkpt>
      <trkpt lat="47.30583" lon="-2.33793">
        <ele>17</ele>
        <time>2020-12-17T08:57:14.000Z</time>
      </trkpt>
      <trkpt lat="47.30587" lon="-2.33812">
        <ele>17</ele>
        <time>2020-12-17T08:57:19.000Z</time>
      </trkpt>
      <trkpt lat="47.30593" lon="-2.33832">
        <ele>17</ele>
        <time>2020-12-17T08:57:25.000Z</time>
      </trkpt>
      <trkpt lat="47.30597" lon="-2.33846">
        <ele>17</ele>
        <time>2020-12-17T08:57:30.000Z</time>
      </trkpt>
      <trkpt lat="47.306" lon="-2.33873">
        <ele>17</ele>
        <time>2020-12-17T08:57:36.000Z</time>
      </trkpt>
      <trkpt lat="47.306" lon="-2.33908">
        <ele>17</ele>
        <time>2020-12-17T08:57:42.000Z</time>
      </trkpt>
      <trkpt lat="47.30602" lon="-2.33922">
        <ele>17</ele>
        <time>2020-12-17T08:57:46.000Z</time>
      </trkpt>
      <trkpt lat="47.30608" lon="-2.33943">
        <ele>17</ele>
        <time>2020-12-17T08:57:52.000Z</time>
      </trkpt>
      <trkpt lat="47.30619" lon="-2.33957">
        <ele>17</ele>
        <time>2020-12-17T08:57:57.000Z</time>
      </trkpt>
      <trkpt lat="47.30639" lon="-2.3398">
        <ele>17</ele>
        <time>2020-12-17T08:58:04.000Z</time>
      </trkpt>
      <trkpt lat="47.30658" lon="-2.33991">
        <ele>17</ele>
        <time>2020-12-17T08:58:09.000Z</time>
      </trkpt>
      <trkpt lat="47.30678" lon="-2.33991">
        <ele>17</ele>
        <time>2020-12-17T08:58:15.000Z</time>
      </trkpt>
      <trkpt lat="47.30692" lon="-2.33991">
        <ele>17</ele>
        <time>2020-12-17T08:58:19.000Z</time>
      </trkpt>
      <trkpt lat="47.30714" lon="-2.3399">
        <ele>17</ele>
        <time>2020-12-17T08:58:24.000Z</time>
      </trkpt>
      <trkpt lat="47.30723" lon="-2.33987">
        <ele>17.39999961853</ele>
        <time>2020-12-17T08:58:26.000Z</time>
      </trkpt>
      <trkpt lat="47.30728" lon="-2.33985">
        <ele>17.799999237061</ele>
        <time>2020-12-17T08:58:27.000Z</time>
      </trkpt>
      <trkpt lat="47.30733" lon="-2.33983">
        <ele>18.200000762939</ele>
        <time>2020-12-17T08:58:28.000Z</time>
      </trkpt>
      <trkpt lat="47.30737" lon="-2.33981">
        <ele>18.60000038147</ele>
        <time>2020-12-17T08:58:29.000Z</time>
      </trkpt>
      <trkpt lat="47.30742" lon="-2.3398">
        <ele>19</ele>
        <time>2020-12-17T08:58:30.000Z</time>
      </trkpt>
      <trkpt lat="47.30752" lon="-2.33978">
        <ele>19</ele>
        <time>2020-12-17T08:58:32.000Z</time>
      </trkpt>
      <trkpt lat="47.30791" lon="-2.3397">
        <ele>19</ele>
        <time>2020-12-17T08:58:40.000Z</time>
      </trkpt>
      <trkpt lat="47.3083" lon="-2.33958">
        <ele>19</ele>
        <time>2020-12-17T08:58:48.000Z</time>
      </trkpt>
      <trkpt lat="47.30871" lon="-2.33949">
        <ele>19</ele>
        <time>2020-12-17T08:58:56.000Z</time>
      </trkpt>
      <trkpt lat="47.30912" lon="-2.33946">
        <ele>19</ele>
        <time>2020-12-17T08:59:03.000Z</time>
      </trkpt>
      <trkpt lat="47.30954" lon="-2.33952">
        <ele>19</ele>
        <time>2020-12-17T08:59:10.000Z</time>
      </trkpt>
      <trkpt lat="47.31003" lon="-2.33955">
        <ele>19</ele>
        <time>2020-12-17T08:59:18.000Z</time>
      </trkpt>
      <trkpt lat="47.3104" lon="-2.33949">
        <ele>19</ele>
        <time>2020-12-17T08:59:24.000Z</time>
      </trkpt>
      <trkpt lat="47.31054" lon="-2.33949">
        <ele>19</ele>
        <time>2020-12-17T08:59:27.000Z</time>
      </trkpt>
      <trkpt lat="47.3106" lon="-2.33956">
        <ele>19</ele>
        <time>2020-12-17T08:59:29.000Z</time>
      </trkpt>
      <trkpt lat="47.31067" lon="-2.3398">
        <ele>19</ele>
        <time>2020-12-17T08:59:33.000Z</time>
      </trkpt>
      <trkpt lat="47.31068" lon="-2.33996">
        <ele>19</ele>
        <time>2020-12-17T08:59:35.000Z</time>
      </trkpt>
      <trkpt lat="47.31069" lon="-2.34029">
        <ele>19</ele>
        <time>2020-12-17T08:59:39.000Z</time>
      </trkpt>
      <trkpt lat="47.31076" lon="-2.34076">
        <ele>19</ele>
        <time>2020-12-17T08:59:45.000Z</time>
      </trkpt>
      <trkpt lat="47.31079" lon="-2.34084">
        <ele>18.60000038147</ele>
        <time>2020-12-17T08:59:46.000Z</time>
      </trkpt>
      <trkpt lat="47.31082" lon="-2.34092">
        <ele>18</ele>
        <time>2020-12-17T08:59:47.000Z</time>
      </trkpt>
      <trkpt lat="47.31085" lon="-2.341">
        <ele>17.200000762939</ele>
        <time>2020-12-17T08:59:48.000Z</time>
      </trkpt>
      <trkpt lat="47.31088" lon="-2.34108">
        <ele>16.799999237061</ele>
        <time>2020-12-17T08:59:49.000Z</time>
      </trkpt>
      <trkpt lat="47.31096" lon="-2.34125">
        <ele>16.799999237061</ele>
        <time>2020-12-17T08:59:51.000Z</time>
      </trkpt>
      <trkpt lat="47.31109" lon="-2.34152">
        <ele>16.39999961853</ele>
        <time>2020-12-17T08:59:54.000Z</time>
      </trkpt>
      <trkpt lat="47.31114" lon="-2.34162">
        <ele>16</ele>
        <time>2020-12-17T08:59:55.000Z</time>
      </trkpt>
      <trkpt lat="47.3112" lon="-2.34172">
        <ele>15.39999961853</ele>
        <time>2020-12-17T08:59:56.000Z</time>
      </trkpt>
      <trkpt lat="47.31125" lon="-2.34181">
        <ele>15</ele>
        <time>2020-12-17T08:59:57.000Z</time>
      </trkpt>
      <trkpt lat="47.3113" lon="-2.34191">
        <ele>14.60000038147</ele>
        <time>2020-12-17T08:59:58.000Z</time>
      </trkpt>
      <trkpt lat="47.31136" lon="-2.34202">
        <ele>14</ele>
        <time>2020-12-17T08:59:59.000Z</time>
      </trkpt>
      <trkpt lat="47.31142" lon="-2.34213">
        <ele>13.60000038147</ele>
        <time>2020-12-17T09:00:00.000Z</time>
      </trkpt>
      <trkpt lat="47.31147" lon="-2.34223">
        <ele>13.199999809265</ele>
        <time>2020-12-17T09:00:01.000Z</time>
      </trkpt>
      <trkpt lat="47.31153" lon="-2.34235">
        <ele>12.800000190735</ele>
        <time>2020-12-17T09:00:02.000Z</time>
      </trkpt>
      <trkpt lat="47.31159" lon="-2.34246">
        <ele>12.39999961853</ele>
        <time>2020-12-17T09:00:03.000Z</time>
      </trkpt>
      <trkpt lat="47.31164" lon="-2.34257">
        <ele>12.39999961853</ele>
        <time>2020-12-17T09:00:04.000Z</time>
      </trkpt>
      <trkpt lat="47.31169" lon="-2.34268">
        <ele>12</ele>
        <time>2020-12-17T09:00:05.000Z</time>
      </trkpt>
      <trkpt lat="47.31174" lon="-2.34278">
        <ele>11.60000038147</ele>
        <time>2020-12-17T09:00:06.000Z</time>
      </trkpt>
      <trkpt lat="47.31179" lon="-2.34289">
        <ele>11.199999809265</ele>
        <time>2020-12-17T09:00:07.000Z</time>
      </trkpt>
      <trkpt lat="47.31184" lon="-2.343">
        <ele>10.800000190735</ele>
        <time>2020-12-17T09:00:08.000Z</time>
      </trkpt>
      <trkpt lat="47.31188" lon="-2.34309">
        <ele>10.39999961853</ele>
        <time>2020-12-17T09:00:09.000Z</time>
      </trkpt>
      <trkpt lat="47.31199" lon="-2.34328">
        <ele>10.39999961853</ele>
        <time>2020-12-17T09:00:11.000Z</time>
      </trkpt>
      <trkpt lat="47.31219" lon="-2.34343">
        <ele>10.39999961853</ele>
        <time>2020-12-17T09:00:14.000Z</time>
      </trkpt>
      <trkpt lat="47.31227" lon="-2.34347">
        <ele>10.39999961853</ele>
        <time>2020-12-17T09:00:15.000Z</time>
      </trkpt>
      <trkpt lat="47.31254" lon="-2.34361">
        <ele>10.39999961853</ele>
        <time>2020-12-17T09:00:19.000Z</time>
      </trkpt>
      <trkpt lat="47.3126" lon="-2.34367">
        <ele>10.39999961853</ele>
        <time>2020-12-17T09:00:20.000Z</time>
      </trkpt>
      <trkpt lat="47.31272" lon="-2.34388">
        <ele>10.39999961853</ele>
        <time>2020-12-17T09:00:23.000Z</time>
      </trkpt>
      <trkpt lat="47.31279" lon="-2.34403">
        <ele>10.39999961853</ele>
        <time>2020-12-17T09:00:25.000Z</time>
      </trkpt>
      <trkpt lat="47.3128" lon="-2.34436">
        <ele>10.39999961853</ele>
        <time>2020-12-17T09:00:28.000Z</time>
      </trkpt>
      <trkpt lat="47.31282" lon="-2.34478">
        <ele>10.800000190735</ele>
        <time>2020-12-17T09:00:32.000Z</time>
      </trkpt>
      <trkpt lat="47.31282" lon="-2.34488">
        <ele>11.199999809265</ele>
        <time>2020-12-17T09:00:33.000Z</time>
      </trkpt>
      <trkpt lat="47.31283" lon="-2.34498">
        <ele>11.60000038147</ele>
        <time>2020-12-17T09:00:34.000Z</time>
      </trkpt>
      <trkpt lat="47.31283" lon="-2.34507">
        <ele>12</ele>
        <time>2020-12-17T09:00:35.000Z</time>
      </trkpt>
      <trkpt lat="47.31283" lon="-2.34517">
        <ele>12.39999961853</ele>
        <time>2020-12-17T09:00:36.000Z</time>
      </trkpt>
      <trkpt lat="47.31285" lon="-2.34546">
        <ele>12.800000190735</ele>
        <time>2020-12-17T09:00:39.000Z</time>
      </trkpt>
      <trkpt lat="47.31286" lon="-2.34556">
        <ele>13.39999961853</ele>
        <time>2020-12-17T09:00:40.000Z</time>
      </trkpt>
      <trkpt lat="47.31287" lon="-2.34564">
        <ele>13.800000190735</ele>
        <time>2020-12-17T09:00:41.000Z</time>
      </trkpt>
      <trkpt lat="47.31289" lon="-2.34573">
        <ele>14.199999809265</ele>
        <time>2020-12-17T09:00:42.000Z</time>
      </trkpt>
      <trkpt lat="47.3129" lon="-2.34582">
        <ele>14.60000038147</ele>
        <time>2020-12-17T09:00:43.000Z</time>
      </trkpt>
      <trkpt lat="47.31293" lon="-2.34616">
        <ele>14.60000038147</ele>
        <time>2020-12-17T09:00:47.000Z</time>
      </trkpt>
      <trkpt lat="47.31298" lon="-2.34653">
        <ele>14.60000038147</ele>
        <time>2020-12-17T09:00:52.000Z</time>
      </trkpt>
      <trkpt lat="47.31297" lon="-2.34664">
        <ele>15</ele>
        <time>2020-12-17T09:00:54.000Z</time>
      </trkpt>
      <trkpt lat="47.31296" lon="-2.3467">
        <ele>15.39999961853</ele>
        <time>2020-12-17T09:00:55.000Z</time>
      </trkpt>
      <trkpt lat="47.31295" lon="-2.34676">
        <ele>16</ele>
        <time>2020-12-17T09:00:56.000Z</time>
      </trkpt>
      <trkpt lat="47.31292" lon="-2.34682">
        <ele>16.39999961853</ele>
        <time>2020-12-17T09:00:57.000Z</time>
      </trkpt>
      <trkpt lat="47.3129" lon="-2.34688">
        <ele>16.799999237061</ele>
        <time>2020-12-17T09:00:58.000Z</time>
      </trkpt>
      <trkpt lat="47.31284" lon="-2.34697">
        <ele>16.799999237061</ele>
        <time>2020-12-17T09:01:00.000Z</time>
      </trkpt>
      <trkpt lat="47.31282" lon="-2.34703">
        <ele>16.799999237061</ele>
        <time>2020-12-17T09:01:01.000Z</time>
      </trkpt>
      <trkpt lat="47.31281" lon="-2.34716">
        <ele>16.799999237061</ele>
        <time>2020-12-17T09:01:03.000Z</time>
      </trkpt>
      <trkpt lat="47.31283" lon="-2.3473">
        <ele>16.799999237061</ele>
        <time>2020-12-17T09:01:05.000Z</time>
      </trkpt>
      <trkpt lat="47.31287" lon="-2.34758">
        <ele>16.799999237061</ele>
        <time>2020-12-17T09:01:09.000Z</time>
      </trkpt>
      <trkpt lat="47.31294" lon="-2.34801">
        <ele>17.200000762939</ele>
        <time>2020-12-17T09:01:15.000Z</time>
      </trkpt>
      <trkpt lat="47.31296" lon="-2.34808">
        <ele>17.60000038147</ele>
        <time>2020-12-17T09:01:16.000Z</time>
      </trkpt>
      <trkpt lat="47.31297" lon="-2.34815">
        <ele>18</ele>
        <time>2020-12-17T09:01:17.000Z</time>
      </trkpt>
      <trkpt lat="47.31299" lon="-2.34823">
        <ele>18.39999961853</ele>
        <time>2020-12-17T09:01:18.000Z</time>
      </trkpt>
      <trkpt lat="47.313" lon="-2.34831">
        <ele>18.799999237061</ele>
        <time>2020-12-17T09:01:19.000Z</time>
      </trkpt>
      <trkpt lat="47.3131" lon="-2.34877">
        <ele>18.799999237061</ele>
        <time>2020-12-17T09:01:25.000Z</time>
      </trkpt>
      <trkpt lat="47.31328" lon="-2.34934">
        <ele>18.799999237061</ele>
        <time>2020-12-17T09:01:32.000Z</time>
      </trkpt>
      <trkpt lat="47.31337" lon="-2.34968">
        <ele>18.799999237061</ele>
        <time>2020-12-17T09:01:36.000Z</time>
      </trkpt>
      <trkpt lat="47.3134" lon="-2.34986">
        <ele>18.799999237061</ele>
        <time>2020-12-17T09:01:38.000Z</time>
      </trkpt>
      <trkpt lat="47.31345" lon="-2.3504">
        <ele>18.799999237061</ele>
        <time>2020-12-17T09:01:44.000Z</time>
      </trkpt>
      <trkpt lat="47.31346" lon="-2.35109">
        <ele>18.799999237061</ele>
        <time>2020-12-17T09:01:51.000Z</time>
      </trkpt>
      <trkpt lat="47.31342" lon="-2.35189">
        <ele>18.799999237061</ele>
        <time>2020-12-17T09:01:59.000Z</time>
      </trkpt>
      <trkpt lat="47.3134" lon="-2.35249">
        <ele>18.799999237061</ele>
        <time>2020-12-17T09:02:05.000Z</time>
      </trkpt>
      <trkpt lat="47.31338" lon="-2.35326">
        <ele>18.799999237061</ele>
        <time>2020-12-17T09:02:13.000Z</time>
      </trkpt>
      <trkpt lat="47.31336" lon="-2.35396">
        <ele>18.799999237061</ele>
        <time>2020-12-17T09:02:20.000Z</time>
      </trkpt>
      <trkpt lat="47.31336" lon="-2.35454">
        <ele>18.799999237061</ele>
        <time>2020-12-17T09:02:26.000Z</time>
      </trkpt>
      <trkpt lat="47.31335" lon="-2.35505">
        <ele>18.799999237061</ele>
        <time>2020-12-17T09:02:32.000Z</time>
      </trkpt>
      <trkpt lat="47.31335" lon="-2.35541">
        <ele>18.799999237061</ele>
        <time>2020-12-17T09:02:38.000Z</time>
      </trkpt>
      <trkpt lat="47.31336" lon="-2.35545">
        <ele>18.799999237061</ele>
        <time>2020-12-17T09:02:41.000Z</time>
      </trkpt>
      <trkpt lat="47.31337" lon="-2.35546">
        <ele>18.799999237061</ele>
        <time>2020-12-17T09:02:42.000Z</time>
      </trkpt>
      <trkpt lat="47.31345" lon="-2.35546">
        <ele>18.799999237061</ele>
        <time>2020-12-17T09:02:47.000Z</time>
      </trkpt>
      <trkpt lat="47.3135" lon="-2.35543">
        <ele>18.799999237061</ele>
        <time>2020-12-17T09:02:49.000Z</time>
      </trkpt>
      <trkpt lat="47.31361" lon="-2.35536">
        <ele>18.799999237061</ele>
        <time>2020-12-17T09:02:53.000Z</time>
      </trkpt>
      <trkpt lat="47.31379" lon="-2.35531">
        <ele>18.799999237061</ele>
        <time>2020-12-17T09:02:59.000Z</time>
      </trkpt>
      <trkpt lat="47.31396" lon="-2.35527">
        <ele>18.799999237061</ele>
        <time>2020-12-17T09:03:04.000Z</time>
      </trkpt>
      <trkpt lat="47.31415" lon="-2.35527">
        <ele>18.799999237061</ele>
        <time>2020-12-17T09:03:08.000Z</time>
      </trkpt>
      <trkpt lat="47.31425" lon="-2.35529">
        <ele>18.799999237061</ele>
        <time>2020-12-17T09:03:10.000Z</time>
      </trkpt>
      <trkpt lat="47.31435" lon="-2.3553">
        <ele>18.799999237061</ele>
        <time>2020-12-17T09:03:12.000Z</time>
      </trkpt>
      <trkpt lat="47.31447" lon="-2.35529">
        <ele>18.799999237061</ele>
        <time>2020-12-17T09:03:15.000Z</time>
      </trkpt>
      <trkpt lat="47.31465" lon="-2.35523">
        <ele>18.799999237061</ele>
        <time>2020-12-17T09:03:21.000Z</time>
      </trkpt>
      <trkpt lat="47.31475" lon="-2.35513">
        <ele>18.799999237061</ele>
        <time>2020-12-17T09:03:25.000Z</time>
      </trkpt>
      <trkpt lat="47.31477" lon="-2.35508">
        <ele>18.799999237061</ele>
        <time>2020-12-17T09:03:26.000Z</time>
      </trkpt>
      <trkpt lat="47.31485" lon="-2.35486">
        <ele>18.799999237061</ele>
        <time>2020-12-17T09:03:30.000Z</time>
      </trkpt>
      <trkpt lat="47.31488" lon="-2.35466">
        <ele>18.799999237061</ele>
        <time>2020-12-17T09:03:33.000Z</time>
      </trkpt>
      <trkpt lat="47.31489" lon="-2.3545">
        <ele>18.799999237061</ele>
        <time>2020-12-17T09:03:35.000Z</time>
      </trkpt>
      <trkpt lat="47.31497" lon="-2.35425">
        <ele>18.799999237061</ele>
        <time>2020-12-17T09:03:39.000Z</time>
      </trkpt>
      <trkpt lat="47.31511" lon="-2.3541">
        <ele>18.39999961853</ele>
        <time>2020-12-17T09:03:43.000Z</time>
      </trkpt>
      <trkpt lat="47.31515" lon="-2.35407">
        <ele>18</ele>
        <time>2020-12-17T09:03:44.000Z</time>
      </trkpt>
      <trkpt lat="47.31519" lon="-2.35404">
        <ele>17.60000038147</ele>
        <time>2020-12-17T09:03:45.000Z</time>
      </trkpt>
      <trkpt lat="47.31522" lon="-2.35401">
        <ele>17</ele>
        <time>2020-12-17T09:03:46.000Z</time>
      </trkpt>
      <trkpt lat="47.31527" lon="-2.35398">
        <ele>16.60000038147</ele>
        <time>2020-12-17T09:03:47.000Z</time>
      </trkpt>
      <trkpt lat="47.31536" lon="-2.35392">
        <ele>16.60000038147</ele>
        <time>2020-12-17T09:03:49.000Z</time>
      </trkpt>
      <trkpt lat="47.31566" lon="-2.35375">
        <ele>16.60000038147</ele>
        <time>2020-12-17T09:03:55.000Z</time>
      </trkpt>
      <trkpt lat="47.31602" lon="-2.35363">
        <ele>16.60000038147</ele>
        <time>2020-12-17T09:04:02.000Z</time>
      </trkpt>
      <trkpt lat="47.31613" lon="-2.35362">
        <ele>16.60000038147</ele>
        <time>2020-12-17T09:04:04.000Z</time>
      </trkpt>
      <trkpt lat="47.31624" lon="-2.35363">
        <ele>16.60000038147</ele>
        <time>2020-12-17T09:04:06.000Z</time>
      </trkpt>
      <trkpt lat="47.3163" lon="-2.35365">
        <ele>16.60000038147</ele>
        <time>2020-12-17T09:04:07.000Z</time>
      </trkpt>
      <trkpt lat="47.31672" lon="-2.35373">
        <ele>16.60000038147</ele>
        <time>2020-12-17T09:04:14.000Z</time>
      </trkpt>
      <trkpt lat="47.317" lon="-2.35371">
        <ele>16.60000038147</ele>
        <time>2020-12-17T09:04:19.000Z</time>
      </trkpt>
      <trkpt lat="47.31705" lon="-2.35369">
        <ele>16.60000038147</ele>
        <time>2020-12-17T09:04:20.000Z</time>
      </trkpt>
      <trkpt lat="47.31726" lon="-2.35364">
        <ele>16.60000038147</ele>
        <time>2020-12-17T09:04:24.000Z</time>
      </trkpt>
      <trkpt lat="47.31735" lon="-2.35361">
        <ele>16.60000038147</ele>
        <time>2020-12-17T09:04:26.000Z</time>
      </trkpt>
      <trkpt lat="47.3174" lon="-2.35359">
        <ele>16.200000762939</ele>
        <time>2020-12-17T09:04:27.000Z</time>
      </trkpt>
      <trkpt lat="47.31743" lon="-2.35356">
        <ele>15.800000190735</ele>
        <time>2020-12-17T09:04:28.000Z</time>
      </trkpt>
      <trkpt lat="47.31747" lon="-2.35354">
        <ele>15.39999961853</ele>
        <time>2020-12-17T09:04:29.000Z</time>
      </trkpt>
      <trkpt lat="47.31752" lon="-2.35352">
        <ele>15</ele>
        <time>2020-12-17T09:04:30.000Z</time>
      </trkpt>
      <trkpt lat="47.31756" lon="-2.35349">
        <ele>14.60000038147</ele>
        <time>2020-12-17T09:04:31.000Z</time>
      </trkpt>
      <trkpt lat="47.3177" lon="-2.35341">
        <ele>14.60000038147</ele>
        <time>2020-12-17T09:04:34.000Z</time>
      </trkpt>
      <trkpt lat="47.31774" lon="-2.35338">
        <ele>14.60000038147</ele>
        <time>2020-12-17T09:04:35.000Z</time>
      </trkpt>
      <trkpt lat="47.31786" lon="-2.35333">
        <ele>14.199999809265</ele>
        <time>2020-12-17T09:04:38.000Z</time>
      </trkpt>
      <trkpt lat="47.31789" lon="-2.35332">
        <ele>13.800000190735</ele>
        <time>2020-12-17T09:04:39.000Z</time>
      </trkpt>
      <trkpt lat="47.31792" lon="-2.3533">
        <ele>13.39999961853</ele>
        <time>2020-12-17T09:04:40.000Z</time>
      </trkpt>
      <trkpt lat="47.31796" lon="-2.35328">
        <ele>12.800000190735</ele>
        <time>2020-12-17T09:04:41.000Z</time>
      </trkpt>
      <trkpt lat="47.318" lon="-2.35326">
        <ele>12.39999961853</ele>
        <time>2020-12-17T09:04:42.000Z</time>
      </trkpt>
      <trkpt lat="47.31815" lon="-2.35319">
        <ele>12.39999961853</ele>
        <time>2020-12-17T09:04:45.000Z</time>
      </trkpt>
      <trkpt lat="47.31849" lon="-2.35296">
        <ele>12</ele>
        <time>2020-12-17T09:04:51.000Z</time>
      </trkpt>
      <trkpt lat="47.31854" lon="-2.35292">
        <ele>11.60000038147</ele>
        <time>2020-12-17T09:04:52.000Z</time>
      </trkpt>
      <trkpt lat="47.31859" lon="-2.35288">
        <ele>11.199999809265</ele>
        <time>2020-12-17T09:04:53.000Z</time>
      </trkpt>
      <trkpt lat="47.31864" lon="-2.35284">
        <ele>10.800000190735</ele>
        <time>2020-12-17T09:04:54.000Z</time>
      </trkpt>
      <trkpt lat="47.31869" lon="-2.3528">
        <ele>10.39999961853</ele>
        <time>2020-12-17T09:04:55.000Z</time>
      </trkpt>
      <trkpt lat="47.31874" lon="-2.35276">
        <ele>10.39999961853</ele>
        <time>2020-12-17T09:04:56.000Z</time>
      </trkpt>
      <trkpt lat="47.31889" lon="-2.3526">
        <ele>10.39999961853</ele>
        <time>2020-12-17T09:04:59.000Z</time>
      </trkpt>
      <trkpt lat="47.31897" lon="-2.35251">
        <ele>10.39999961853</ele>
        <time>2020-12-17T09:05:01.000Z</time>
      </trkpt>
      <trkpt lat="47.31919" lon="-2.3523">
        <ele>10.39999961853</ele>
        <time>2020-12-17T09:05:06.000Z</time>
      </trkpt>
      <trkpt lat="47.31939" lon="-2.35214">
        <ele>10</ele>
        <time>2020-12-17T09:05:10.000Z</time>
      </trkpt>
      <trkpt lat="47.31944" lon="-2.3521">
        <ele>9.6000003814697</ele>
        <time>2020-12-17T09:05:11.000Z</time>
      </trkpt>
      <trkpt lat="47.31949" lon="-2.35205">
        <ele>9.1999998092651</ele>
        <time>2020-12-17T09:05:12.000Z</time>
      </trkpt>
      <trkpt lat="47.31953" lon="-2.352">
        <ele>8.8000001907349</ele>
        <time>2020-12-17T09:05:13.000Z</time>
      </trkpt>
      <trkpt lat="47.31957" lon="-2.35196">
        <ele>8.3999996185303</ele>
        <time>2020-12-17T09:05:14.000Z</time>
      </trkpt>
      <trkpt lat="47.31981" lon="-2.35174">
        <ele>8.3999996185303</ele>
        <time>2020-12-17T09:05:19.000Z</time>
      </trkpt>
      <trkpt lat="47.3201" lon="-2.35143">
        <ele>8.3999996185303</ele>
        <time>2020-12-17T09:05:25.000Z</time>
      </trkpt>
      <trkpt lat="47.32021" lon="-2.35133">
        <ele>8.3999996185303</ele>
        <time>2020-12-17T09:05:27.000Z</time>
      </trkpt>
      <trkpt lat="47.3203" lon="-2.35115">
        <ele>8.3999996185303</ele>
        <time>2020-12-17T09:05:30.000Z</time>
      </trkpt>
      <trkpt lat="47.32032" lon="-2.35097">
        <ele>8.3999996185303</ele>
        <time>2020-12-17T09:05:33.000Z</time>
      </trkpt>
      <trkpt lat="47.32031" lon="-2.35091">
        <ele>8.3999996185303</ele>
        <time>2020-12-17T09:05:34.000Z</time>
      </trkpt>
      <trkpt lat="47.3203" lon="-2.35086">
        <ele>8.3999996185303</ele>
        <time>2020-12-17T09:05:35.000Z</time>
      </trkpt>
      <trkpt lat="47.32032" lon="-2.35069">
        <ele>8.3999996185303</ele>
        <time>2020-12-17T09:05:38.000Z</time>
      </trkpt>
      <trkpt lat="47.32044" lon="-2.35063">
        <ele>8.3999996185303</ele>
        <time>2020-12-17T09:05:41.000Z</time>
      </trkpt>
      <trkpt lat="47.32049" lon="-2.35063">
        <ele>8.3999996185303</ele>
        <time>2020-12-17T09:05:42.000Z</time>
      </trkpt>
      <trkpt lat="47.32076" lon="-2.35062">
        <ele>8.3999996185303</ele>
        <time>2020-12-17T09:05:47.000Z</time>
      </trkpt>
      <trkpt lat="47.32116" lon="-2.35061">
        <ele>8.3999996185303</ele>
        <time>2020-12-17T09:05:54.000Z</time>
      </trkpt>
      <trkpt lat="47.32162" lon="-2.35057">
        <ele>8.3999996185303</ele>
        <time>2020-12-17T09:06:02.000Z</time>
      </trkpt>
      <trkpt lat="47.32208" lon="-2.35052">
        <ele>8.3999996185303</ele>
        <time>2020-12-17T09:06:10.000Z</time>
      </trkpt>
      <trkpt lat="47.32237" lon="-2.35047">
        <ele>8.3999996185303</ele>
        <time>2020-12-17T09:06:16.000Z</time>
      </trkpt>
      <trkpt lat="47.32268" lon="-2.35045">
        <ele>8.3999996185303</ele>
        <time>2020-12-17T09:06:22.000Z</time>
      </trkpt>
      <trkpt lat="47.32274" lon="-2.35046">
        <ele>8.3999996185303</ele>
        <time>2020-12-17T09:06:23.000Z</time>
      </trkpt>
      <trkpt lat="47.32296" lon="-2.35046">
        <ele>8.3999996185303</ele>
        <time>2020-12-17T09:06:27.000Z</time>
      </trkpt>
      <trkpt lat="47.32311" lon="-2.35047">
        <ele>8.8000001907349</ele>
        <time>2020-12-17T09:06:30.000Z</time>
      </trkpt>
      <trkpt lat="47.32316" lon="-2.35046">
        <ele>9.1999998092651</ele>
        <time>2020-12-17T09:06:31.000Z</time>
      </trkpt>
      <trkpt lat="47.32322" lon="-2.35046">
        <ele>9.6000003814697</ele>
        <time>2020-12-17T09:06:32.000Z</time>
      </trkpt>
      <trkpt lat="47.32327" lon="-2.35046">
        <ele>10</ele>
        <time>2020-12-17T09:06:33.000Z</time>
      </trkpt>
      <trkpt lat="47.32332" lon="-2.35046">
        <ele>10.39999961853</ele>
        <time>2020-12-17T09:06:34.000Z</time>
      </trkpt>
      <trkpt lat="47.32365" lon="-2.35047">
        <ele>10.39999961853</ele>
        <time>2020-12-17T09:06:41.000Z</time>
      </trkpt>
      <trkpt lat="47.32404" lon="-2.35045">
        <ele>10.39999961853</ele>
        <time>2020-12-17T09:06:49.000Z</time>
      </trkpt>
      <trkpt lat="47.32409" lon="-2.35045">
        <ele>10.800000190735</ele>
        <time>2020-12-17T09:06:50.000Z</time>
      </trkpt>
      <trkpt lat="47.32413" lon="-2.35045">
        <ele>11.199999809265</ele>
        <time>2020-12-17T09:06:51.000Z</time>
      </trkpt>
      <trkpt lat="47.32418" lon="-2.35044">
        <ele>11.60000038147</ele>
        <time>2020-12-17T09:06:52.000Z</time>
      </trkpt>
      <trkpt lat="47.32423" lon="-2.35044">
        <ele>12</ele>
        <time>2020-12-17T09:06:53.000Z</time>
      </trkpt>
      <trkpt lat="47.32428" lon="-2.35043">
        <ele>12.39999961853</ele>
        <time>2020-12-17T09:06:54.000Z</time>
      </trkpt>
      <trkpt lat="47.32432" lon="-2.35043">
        <ele>12.39999961853</ele>
        <time>2020-12-17T09:06:55.000Z</time>
      </trkpt>
      <trkpt lat="47.32442" lon="-2.35042">
        <ele>12.39999961853</ele>
        <time>2020-12-17T09:06:57.000Z</time>
      </trkpt>
      <trkpt lat="47.3246" lon="-2.35038">
        <ele>12.39999961853</ele>
        <time>2020-12-17T09:07:01.000Z</time>
      </trkpt>
      <trkpt lat="47.32481" lon="-2.35035">
        <ele>12.39999961853</ele>
        <time>2020-12-17T09:07:05.000Z</time>
      </trkpt>
      <trkpt lat="47.3249" lon="-2.35033">
        <ele>12.39999961853</ele>
        <time>2020-12-17T09:07:07.000Z</time>
      </trkpt>
      <trkpt lat="47.3252" lon="-2.35025">
        <ele>12.39999961853</ele>
        <time>2020-12-17T09:07:14.000Z</time>
      </trkpt>
      <trkpt lat="47.32548" lon="-2.35014">
        <ele>12.39999961853</ele>
        <time>2020-12-17T09:07:20.000Z</time>
      </trkpt>
      <trkpt lat="47.32586" lon="-2.34997">
        <ele>12.39999961853</ele>
        <time>2020-12-17T09:07:27.000Z</time>
      </trkpt>
      <trkpt lat="47.32592" lon="-2.34993">
        <ele>12</ele>
        <time>2020-12-17T09:07:28.000Z</time>
      </trkpt>
      <trkpt lat="47.32597" lon="-2.3499">
        <ele>11.60000038147</ele>
        <time>2020-12-17T09:07:29.000Z</time>
      </trkpt>
      <trkpt lat="47.32602" lon="-2.34988">
        <ele>11.199999809265</ele>
        <time>2020-12-17T09:07:30.000Z</time>
      </trkpt>
      <trkpt lat="47.32607" lon="-2.34985">
        <ele>10.800000190735</ele>
        <time>2020-12-17T09:07:31.000Z</time>
      </trkpt>
      <trkpt lat="47.32612" lon="-2.34983">
        <ele>10.199999809265</ele>
        <time>2020-12-17T09:07:32.000Z</time>
      </trkpt>
      <trkpt lat="47.32617" lon="-2.34981">
        <ele>10.199999809265</ele>
        <time>2020-12-17T09:07:33.000Z</time>
      </trkpt>
      <trkpt lat="47.32647" lon="-2.34966">
        <ele>10.199999809265</ele>
        <time>2020-12-17T09:07:40.000Z</time>
      </trkpt>
      <trkpt lat="47.32661" lon="-2.34956">
        <ele>10.199999809265</ele>
        <time>2020-12-17T09:07:45.000Z</time>
      </trkpt>
      <trkpt lat="47.32677" lon="-2.34944">
        <ele>10.199999809265</ele>
        <time>2020-12-17T09:07:50.000Z</time>
      </trkpt>
      <trkpt lat="47.32681" lon="-2.34942">
        <ele>9.8000001907349</ele>
        <time>2020-12-17T09:07:51.000Z</time>
      </trkpt>
      <trkpt lat="47.32684" lon="-2.3494">
        <ele>9.3999996185303</ele>
        <time>2020-12-17T09:07:52.000Z</time>
      </trkpt>
      <trkpt lat="47.32687" lon="-2.34937">
        <ele>9</ele>
        <time>2020-12-17T09:07:53.000Z</time>
      </trkpt>
      <trkpt lat="47.3269" lon="-2.34935">
        <ele>8.6000003814697</ele>
        <time>2020-12-17T09:07:54.000Z</time>
      </trkpt>
      <trkpt lat="47.32693" lon="-2.34932">
        <ele>8.1999998092651</ele>
        <time>2020-12-17T09:07:55.000Z</time>
      </trkpt>
      <trkpt lat="47.32697" lon="-2.34929">
        <ele>8.1999998092651</ele>
        <time>2020-12-17T09:07:56.000Z</time>
      </trkpt>
      <trkpt lat="47.32721" lon="-2.34909">
        <ele>8.1999998092651</ele>
        <time>2020-12-17T09:08:03.000Z</time>
      </trkpt>
      <trkpt lat="47.32749" lon="-2.34887">
        <ele>8.1999998092651</ele>
        <time>2020-12-17T09:08:10.000Z</time>
      </trkpt>
      <trkpt lat="47.32781" lon="-2.34863">
        <ele>8.1999998092651</ele>
        <time>2020-12-17T09:08:17.000Z</time>
      </trkpt>
      <trkpt lat="47.32795" lon="-2.34854">
        <ele>8.1999998092651</ele>
        <time>2020-12-17T09:08:20.000Z</time>
      </trkpt>
      <trkpt lat="47.32809" lon="-2.34843">
        <ele>8.1999998092651</ele>
        <time>2020-12-17T09:08:23.000Z</time>
      </trkpt>
      <trkpt lat="47.3284" lon="-2.34823">
        <ele>8.1999998092651</ele>
        <time>2020-12-17T09:08:29.000Z</time>
      </trkpt>
      <trkpt lat="47.32845" lon="-2.34819">
        <ele>7.8000001907349</ele>
        <time>2020-12-17T09:08:30.000Z</time>
      </trkpt>
      <trkpt lat="47.3285" lon="-2.34816">
        <ele>7.4000000953674</ele>
        <time>2020-12-17T09:08:31.000Z</time>
      </trkpt>
      <trkpt lat="47.32855" lon="-2.34813">
        <ele>7</ele>
        <time>2020-12-17T09:08:32.000Z</time>
      </trkpt>
      <trkpt lat="47.3286" lon="-2.3481">
        <ele>6.5999999046326</ele>
        <time>2020-12-17T09:08:33.000Z</time>
      </trkpt>
      <trkpt lat="47.32865" lon="-2.34806">
        <ele>6</ele>
        <time>2020-12-17T09:08:34.000Z</time>
      </trkpt>
      <trkpt lat="47.32869" lon="-2.34802">
        <ele>6</ele>
        <time>2020-12-17T09:08:35.000Z</time>
      </trkpt>
      <trkpt lat="47.32894" lon="-2.34786">
        <ele>6</ele>
        <time>2020-12-17T09:08:41.000Z</time>
      </trkpt>
      <trkpt lat="47.32899" lon="-2.34783">
        <ele>5.5999999046326</ele>
        <time>2020-12-17T09:08:43.000Z</time>
      </trkpt>
      <trkpt lat="47.32901" lon="-2.34784">
        <ele>5.1999998092651</ele>
        <time>2020-12-17T09:08:44.000Z</time>
      </trkpt>
      <trkpt lat="47.32902" lon="-2.34785">
        <ele>4.8000001907349</ele>
        <time>2020-12-17T09:08:45.000Z</time>
      </trkpt>
      <trkpt lat="47.32904" lon="-2.34786">
        <ele>4.4000000953674</ele>
        <time>2020-12-17T09:08:46.000Z</time>
      </trkpt>
      <trkpt lat="47.32906" lon="-2.34787">
        <ele>4</ele>
        <time>2020-12-17T09:08:47.000Z</time>
      </trkpt>
      <trkpt lat="47.32911" lon="-2.34795">
        <ele>4</ele>
        <time>2020-12-17T09:08:52.000Z</time>
      </trkpt>
      <trkpt lat="47.32915" lon="-2.34803">
        <ele>4</ele>
        <time>2020-12-17T09:08:57.000Z</time>
      </trkpt>
      <trkpt lat="47.32922" lon="-2.34816">
        <ele>4</ele>
        <time>2020-12-17T09:09:03.000Z</time>
      </trkpt>
      <trkpt lat="47.32928" lon="-2.34834">
        <ele>4</ele>
        <time>2020-12-17T09:09:09.000Z</time>
      </trkpt>
      <trkpt lat="47.32934" lon="-2.34851">
        <ele>4</ele>
        <time>2020-12-17T09:09:15.000Z</time>
      </trkpt>
      <trkpt lat="47.32945" lon="-2.34876">
        <ele>4</ele>
        <time>2020-12-17T09:09:22.000Z</time>
      </trkpt>
      <trkpt lat="47.32953" lon="-2.34899">
        <ele>4</ele>
        <time>2020-12-17T09:09:27.000Z</time>
      </trkpt>
      <trkpt lat="47.32956" lon="-2.34911">
        <ele>4</ele>
        <time>2020-12-17T09:09:31.000Z</time>
      </trkpt>
      <trkpt lat="47.32962" lon="-2.3493">
        <ele>4</ele>
        <time>2020-12-17T09:09:37.000Z</time>
      </trkpt>
      <trkpt lat="47.32966" lon="-2.34942">
        <ele>4</ele>
        <time>2020-12-17T09:09:42.000Z</time>
      </trkpt>
      <trkpt lat="47.32971" lon="-2.34952">
        <ele>4</ele>
        <time>2020-12-17T09:09:49.000Z</time>
      </trkpt>
      <trkpt lat="47.32979" lon="-2.34975">
        <ele>4</ele>
        <time>2020-12-17T09:09:56.000Z</time>
      </trkpt>
      <trkpt lat="47.32985" lon="-2.34988">
        <ele>4.4000000953674</ele>
        <time>2020-12-17T09:10:00.000Z</time>
      </trkpt>
      <trkpt lat="47.32987" lon="-2.34992">
        <ele>4.8000001907349</ele>
        <time>2020-12-17T09:10:01.000Z</time>
      </trkpt>
      <trkpt lat="47.32989" lon="-2.34996">
        <ele>5.4000000953674</ele>
        <time>2020-12-17T09:10:02.000Z</time>
      </trkpt>
      <trkpt lat="47.32991" lon="-2.35">
        <ele>5.8000001907349</ele>
        <time>2020-12-17T09:10:03.000Z</time>
      </trkpt>
      <trkpt lat="47.32993" lon="-2.35004">
        <ele>6.1999998092651</ele>
        <time>2020-12-17T09:10:04.000Z</time>
      </trkpt>
      <trkpt lat="47.32995" lon="-2.35011">
        <ele>6.1999998092651</ele>
        <time>2020-12-17T09:10:06.000Z</time>
      </trkpt>
      <trkpt lat="47.32999" lon="-2.35021">
        <ele>6.1999998092651</ele>
        <time>2020-12-17T09:10:10.000Z</time>
      </trkpt>
      <trkpt lat="47.32999" lon="-2.35023">
        <ele>6.1999998092651</ele>
        <time>2020-12-17T09:10:11.000Z</time>
      </trkpt>
      <trkpt lat="47.33001" lon="-2.35031">
        <ele>6.1999998092651</ele>
        <time>2020-12-17T09:10:15.000Z</time>
      </trkpt>
      <trkpt lat="47.33003" lon="-2.35036">
        <ele>6.1999998092651</ele>
        <time>2020-12-17T09:10:17.000Z</time>
      </trkpt>
      <trkpt lat="47.33003" lon="-2.35037">
        <ele>6.1999998092651</ele>
        <time>2020-12-17T09:10:18.000Z</time>
      </trkpt>
      <trkpt lat="47.33001" lon="-2.35045">
        <ele>6.1999998092651</ele>
        <time>2020-12-17T09:10:22.000Z</time>
      </trkpt>
      <trkpt lat="47.33001" lon="-2.35047">
        <ele>6.1999998092651</ele>
        <time>2020-12-17T09:10:23.000Z</time>
      </trkpt>
      <trkpt lat="47.33007" lon="-2.35065">
        <ele>6.1999998092651</ele>
        <time>2020-12-17T09:10:27.000Z</time>
      </trkpt>
      <trkpt lat="47.33008" lon="-2.35073">
        <ele>6.5999999046326</ele>
        <time>2020-12-17T09:10:29.000Z</time>
      </trkpt>
      <trkpt lat="47.33009" lon="-2.35078">
        <ele>7</ele>
        <time>2020-12-17T09:10:30.000Z</time>
      </trkpt>
      <trkpt lat="47.33009" lon="-2.35082">
        <ele>7.4000000953674</ele>
        <time>2020-12-17T09:10:31.000Z</time>
      </trkpt>
      <trkpt lat="47.3301" lon="-2.35087">
        <ele>7.8000001907349</ele>
        <time>2020-12-17T09:10:32.000Z</time>
      </trkpt>
      <trkpt lat="47.3301" lon="-2.35091">
        <ele>8.3999996185303</ele>
        <time>2020-12-17T09:10:33.000Z</time>
      </trkpt>
      <trkpt lat="47.33013" lon="-2.35114">
        <ele>8.3999996185303</ele>
        <time>2020-12-17T09:10:38.000Z</time>
      </trkpt>
      <trkpt lat="47.33018" lon="-2.35147">
        <ele>8.3999996185303</ele>
        <time>2020-12-17T09:10:44.000Z</time>
      </trkpt>
      <trkpt lat="47.3302" lon="-2.35162">
        <ele>8.3999996185303</ele>
        <time>2020-12-17T09:10:46.000Z</time>
      </trkpt>
      <trkpt lat="47.33023" lon="-2.35183">
        <ele>8.3999996185303</ele>
        <time>2020-12-17T09:10:49.000Z</time>
      </trkpt>
      <trkpt lat="47.33022" lon="-2.35216">
        <ele>8.8000001907349</ele>
        <time>2020-12-17T09:10:55.000Z</time>
      </trkpt>
      <trkpt lat="47.33022" lon="-2.3522">
        <ele>9.1999998092651</ele>
        <time>2020-12-17T09:10:56.000Z</time>
      </trkpt>
      <trkpt lat="47.33022" lon="-2.35224">
        <ele>9.6000003814697</ele>
        <time>2020-12-17T09:10:57.000Z</time>
      </trkpt>
      <trkpt lat="47.33023" lon="-2.35228">
        <ele>10</ele>
        <time>2020-12-17T09:10:58.000Z</time>
      </trkpt>
      <trkpt lat="47.33023" lon="-2.35231">
        <ele>10.39999961853</ele>
        <time>2020-12-17T09:10:59.000Z</time>
      </trkpt>
      <trkpt lat="47.33024" lon="-2.35232">
        <ele>10.39999961853</ele>
        <time>2020-12-17T09:11:00.000Z</time>
      </trkpt>
      <trkpt lat="47.33025" lon="-2.35237">
        <ele>10.39999961853</ele>
        <time>2020-12-17T09:11:03.000Z</time>
      </trkpt>
      <trkpt lat="47.33025" lon="-2.35244">
        <ele>10.39999961853</ele>
        <time>2020-12-17T09:12:13.000Z</time>
      </trkpt>
      <trkpt lat="47.33025" lon="-2.35246">
        <ele>10.39999961853</ele>
        <time>2020-12-17T09:12:14.000Z</time>
      </trkpt>
      <trkpt lat="47.33024" lon="-2.35248">
        <ele>10.39999961853</ele>
        <time>2020-12-17T09:12:15.000Z</time>
      </trkpt>
      <trkpt lat="47.33023" lon="-2.35263">
        <ele>10.39999961853</ele>
        <time>2020-12-17T09:12:18.000Z</time>
      </trkpt>
      <trkpt lat="47.33022" lon="-2.35292">
        <ele>10.39999961853</ele>
        <time>2020-12-17T09:12:24.000Z</time>
      </trkpt>
      <trkpt lat="47.33022" lon="-2.35326">
        <ele>10.39999961853</ele>
        <time>2020-12-17T09:12:30.000Z</time>
      </trkpt>
      <trkpt lat="47.33025" lon="-2.35367">
        <ele>10.39999961853</ele>
        <time>2020-12-17T09:12:37.000Z</time>
      </trkpt>
      <trkpt lat="47.33028" lon="-2.3539">
        <ele>10.39999961853</ele>
        <time>2020-12-17T09:12:43.000Z</time>
      </trkpt>
      <trkpt lat="47.33031" lon="-2.35412">
        <ele>10.39999961853</ele>
        <time>2020-12-17T09:12:50.000Z</time>
      </trkpt>
      <trkpt lat="47.33031" lon="-2.35435">
        <ele>10.39999961853</ele>
        <time>2020-12-17T09:12:55.000Z</time>
      </trkpt>
      <trkpt lat="47.33033" lon="-2.35446">
        <ele>9.3999996185303</ele>
        <time>2020-12-17T09:12:58.000Z</time>
      </trkpt>
      <trkpt lat="47.33033" lon="-2.3545">
        <ele>9</ele>
        <time>2020-12-17T09:12:59.000Z</time>
      </trkpt>
      <trkpt lat="47.33033" lon="-2.35453">
        <ele>8.6000003814697</ele>
        <time>2020-12-17T09:13:00.000Z</time>
      </trkpt>
      <trkpt lat="47.33032" lon="-2.35457">
        <ele>8.1999998092651</ele>
        <time>2020-12-17T09:13:01.000Z</time>
      </trkpt>
      <trkpt lat="47.33031" lon="-2.35473">
        <ele>8.1999998092651</ele>
        <time>2020-12-17T09:13:05.000Z</time>
      </trkpt>
      <trkpt lat="47.3303" lon="-2.35498">
        <ele>8.1999998092651</ele>
        <time>2020-12-17T09:13:11.000Z</time>
      </trkpt>
      <trkpt lat="47.33029" lon="-2.35508">
        <ele>8.1999998092651</ele>
        <time>2020-12-17T09:13:14.000Z</time>
      </trkpt>
      <trkpt lat="47.3303" lon="-2.35513">
        <ele>8.1999998092651</ele>
        <time>2020-12-17T09:13:16.000Z</time>
      </trkpt>
      <trkpt lat="47.3303" lon="-2.35516">
        <ele>8.1999998092651</ele>
        <time>2020-12-17T09:13:17.000Z</time>
      </trkpt>
      <trkpt lat="47.3303" lon="-2.35529">
        <ele>8.1999998092651</ele>
        <time>2020-12-17T09:13:20.000Z</time>
      </trkpt>
      <trkpt lat="47.33029" lon="-2.35553">
        <ele>8.1999998092651</ele>
        <time>2020-12-17T09:13:26.000Z</time>
      </trkpt>
      <trkpt lat="47.33026" lon="-2.3558">
        <ele>7.8000001907349</ele>
        <time>2020-12-17T09:13:32.000Z</time>
      </trkpt>
      <trkpt lat="47.33026" lon="-2.35586">
        <ele>7.4000000953674</ele>
        <time>2020-12-17T09:13:33.000Z</time>
      </trkpt>
      <trkpt lat="47.33025" lon="-2.35592">
        <ele>7</ele>
        <time>2020-12-17T09:13:34.000Z</time>
      </trkpt>
      <trkpt lat="47.33024" lon="-2.35598">
        <ele>6.5999999046326</ele>
        <time>2020-12-17T09:13:35.000Z</time>
      </trkpt>
      <trkpt lat="47.33024" lon="-2.35604">
        <ele>6</ele>
        <time>2020-12-17T09:13:36.000Z</time>
      </trkpt>
      <trkpt lat="47.33023" lon="-2.35626">
        <ele>6</ele>
        <time>2020-12-17T09:13:40.000Z</time>
      </trkpt>
      <trkpt lat="47.33018" lon="-2.35661">
        <ele>6</ele>
        <time>2020-12-17T09:13:46.000Z</time>
      </trkpt>
      <trkpt lat="47.33012" lon="-2.35707">
        <ele>6</ele>
        <time>2020-12-17T09:13:52.000Z</time>
      </trkpt>
      <trkpt lat="47.33012" lon="-2.35743">
        <ele>6</ele>
        <time>2020-12-17T09:13:56.000Z</time>
      </trkpt>
      <trkpt lat="47.33013" lon="-2.3575">
        <ele>6</ele>
        <time>2020-12-17T09:13:57.000Z</time>
      </trkpt>
      <trkpt lat="47.3302" lon="-2.35773">
        <ele>6</ele>
        <time>2020-12-17T09:14:00.000Z</time>
      </trkpt>
      <trkpt lat="47.33023" lon="-2.3578">
        <ele>6</ele>
        <time>2020-12-17T09:14:01.000Z</time>
      </trkpt>
      <trkpt lat="47.33026" lon="-2.35785">
        <ele>6</ele>
        <time>2020-12-17T09:14:02.000Z</time>
      </trkpt>
      <trkpt lat="47.33044" lon="-2.358">
        <ele>6</ele>
        <time>2020-12-17T09:14:06.000Z</time>
      </trkpt>
      <trkpt lat="47.33052" lon="-2.35804">
        <ele>6</ele>
        <time>2020-12-17T09:14:08.000Z</time>
      </trkpt>
      <trkpt lat="47.3306" lon="-2.35806">
        <ele>6</ele>
        <time>2020-12-17T09:14:10.000Z</time>
      </trkpt>
      <trkpt lat="47.33085" lon="-2.35805">
        <ele>6</ele>
        <time>2020-12-17T09:14:15.000Z</time>
      </trkpt>
      <trkpt lat="47.33106" lon="-2.35804">
        <ele>6</ele>
        <time>2020-12-17T09:14:19.000Z</time>
      </trkpt>
      <trkpt lat="47.33116" lon="-2.35803">
        <ele>6.4000000953674</ele>
        <time>2020-12-17T09:14:21.000Z</time>
      </trkpt>
      <trkpt lat="47.33122" lon="-2.35803">
        <ele>6.8000001907349</ele>
        <time>2020-12-17T09:14:22.000Z</time>
      </trkpt>
      <trkpt lat="47.33128" lon="-2.35804">
        <ele>7.1999998092651</ele>
        <time>2020-12-17T09:14:23.000Z</time>
      </trkpt>
      <trkpt lat="47.33134" lon="-2.35805">
        <ele>7.8000001907349</ele>
        <time>2020-12-17T09:14:24.000Z</time>
      </trkpt>
      <trkpt lat="47.33139" lon="-2.35806">
        <ele>8.1999998092651</ele>
        <time>2020-12-17T09:14:25.000Z</time>
      </trkpt>
      <trkpt lat="47.3315" lon="-2.35807">
        <ele>8.1999998092651</ele>
        <time>2020-12-17T09:14:27.000Z</time>
      </trkpt>
      <trkpt lat="47.33195" lon="-2.35817">
        <ele>8.1999998092651</ele>
        <time>2020-12-17T09:14:35.000Z</time>
      </trkpt>
      <trkpt lat="47.3322" lon="-2.35824">
        <ele>8.6000003814697</ele>
        <time>2020-12-17T09:14:40.000Z</time>
      </trkpt>
      <trkpt lat="47.33225" lon="-2.35827">
        <ele>9</ele>
        <time>2020-12-17T09:14:41.000Z</time>
      </trkpt>
      <trkpt lat="47.33229" lon="-2.35829">
        <ele>9.3999996185303</ele>
        <time>2020-12-17T09:14:42.000Z</time>
      </trkpt>
      <trkpt lat="47.33233" lon="-2.35831">
        <ele>9.8000001907349</ele>
        <time>2020-12-17T09:14:43.000Z</time>
      </trkpt>
      <trkpt lat="47.33238" lon="-2.35834">
        <ele>10.199999809265</ele>
        <time>2020-12-17T09:14:44.000Z</time>
      </trkpt>
      <trkpt lat="47.33254" lon="-2.35847">
        <ele>10.60000038147</ele>
        <time>2020-12-17T09:14:48.000Z</time>
      </trkpt>
      <trkpt lat="47.33258" lon="-2.35852">
        <ele>11</ele>
        <time>2020-12-17T09:14:49.000Z</time>
      </trkpt>
      <trkpt lat="47.33262" lon="-2.35856">
        <ele>11.39999961853</ele>
        <time>2020-12-17T09:14:50.000Z</time>
      </trkpt>
      <trkpt lat="47.33265" lon="-2.3586">
        <ele>11.800000190735</ele>
        <time>2020-12-17T09:14:51.000Z</time>
      </trkpt>
      <trkpt lat="47.33269" lon="-2.35865">
        <ele>12.199999809265</ele>
        <time>2020-12-17T09:14:52.000Z</time>
      </trkpt>
      <trkpt lat="47.33281" lon="-2.35877">
        <ele>12.60000038147</ele>
        <time>2020-12-17T09:14:55.000Z</time>
      </trkpt>
      <trkpt lat="47.33285" lon="-2.3588">
        <ele>13.199999809265</ele>
        <time>2020-12-17T09:14:56.000Z</time>
      </trkpt>
      <trkpt lat="47.33289" lon="-2.35883">
        <ele>13.60000038147</ele>
        <time>2020-12-17T09:14:57.000Z</time>
      </trkpt>
      <trkpt lat="47.33294" lon="-2.35886">
        <ele>14</ele>
        <time>2020-12-17T09:14:58.000Z</time>
      </trkpt>
      <trkpt lat="47.33298" lon="-2.35889">
        <ele>14.39999961853</ele>
        <time>2020-12-17T09:14:59.000Z</time>
      </trkpt>
      <trkpt lat="47.33305" lon="-2.35895">
        <ele>14.39999961853</ele>
        <time>2020-12-17T09:15:01.000Z</time>
      </trkpt>
      <trkpt lat="47.33309" lon="-2.35899">
        <ele>14.39999961853</ele>
        <time>2020-12-17T09:15:02.000Z</time>
      </trkpt>
      <trkpt lat="47.33316" lon="-2.35917">
        <ele>14.39999961853</ele>
        <time>2020-12-17T09:15:05.000Z</time>
      </trkpt>
      <trkpt lat="47.33318" lon="-2.35924">
        <ele>14.39999961853</ele>
        <time>2020-12-17T09:15:06.000Z</time>
      </trkpt>
      <trkpt lat="47.33319" lon="-2.3593">
        <ele>14.800000190735</ele>
        <time>2020-12-17T09:15:07.000Z</time>
      </trkpt>
      <trkpt lat="47.33321" lon="-2.35937">
        <ele>15.199999809265</ele>
        <time>2020-12-17T09:15:08.000Z</time>
      </trkpt>
      <trkpt lat="47.33322" lon="-2.35943">
        <ele>15.60000038147</ele>
        <time>2020-12-17T09:15:09.000Z</time>
      </trkpt>
      <trkpt lat="47.33323" lon="-2.3595">
        <ele>16</ele>
        <time>2020-12-17T09:15:10.000Z</time>
      </trkpt>
      <trkpt lat="47.33324" lon="-2.35957">
        <ele>16.39999961853</ele>
        <time>2020-12-17T09:15:11.000Z</time>
      </trkpt>
      <trkpt lat="47.33323" lon="-2.35964">
        <ele>16.39999961853</ele>
        <time>2020-12-17T09:15:12.000Z</time>
      </trkpt>
      <trkpt lat="47.33321" lon="-2.35978">
        <ele>16.39999961853</ele>
        <time>2020-12-17T09:15:14.000Z</time>
      </trkpt>
      <trkpt lat="47.33317" lon="-2.36001">
        <ele>16.39999961853</ele>
        <time>2020-12-17T09:15:17.000Z</time>
      </trkpt>
      <trkpt lat="47.33313" lon="-2.36017">
        <ele>16.39999961853</ele>
        <time>2020-12-17T09:15:19.000Z</time>
      </trkpt>
      <trkpt lat="47.33311" lon="-2.36035">
        <ele>16.39999961853</ele>
        <time>2020-12-17T09:15:21.000Z</time>
      </trkpt>
      <trkpt lat="47.3331" lon="-2.36043">
        <ele>16.39999961853</ele>
        <time>2020-12-17T09:15:22.000Z</time>
      </trkpt>
      <trkpt lat="47.33309" lon="-2.36096">
        <ele>16.39999961853</ele>
        <time>2020-12-17T09:15:28.000Z</time>
      </trkpt>
      <trkpt lat="47.3331" lon="-2.36177">
        <ele>16.39999961853</ele>
        <time>2020-12-17T09:15:37.000Z</time>
      </trkpt>
      <trkpt lat="47.33311" lon="-2.36208">
        <ele>16.39999961853</ele>
        <time>2020-12-17T09:15:41.000Z</time>
      </trkpt>
      <trkpt lat="47.33312" lon="-2.36214">
        <ele>16.39999961853</ele>
        <time>2020-12-17T09:15:42.000Z</time>
      </trkpt>
      <trkpt lat="47.33323" lon="-2.36215">
        <ele>16.39999961853</ele>
        <time>2020-12-17T09:15:45.000Z</time>
      </trkpt>
      <trkpt lat="47.3334" lon="-2.36202">
        <ele>16.39999961853</ele>
        <time>2020-12-17T09:15:49.000Z</time>
      </trkpt>
      <trkpt lat="47.33382" lon="-2.36172">
        <ele>16.39999961853</ele>
        <time>2020-12-17T09:15:58.000Z</time>
      </trkpt>
      <trkpt lat="47.33417" lon="-2.36146">
        <ele>16.39999961853</ele>
        <time>2020-12-17T09:16:05.000Z</time>
      </trkpt>
      <trkpt lat="47.33426" lon="-2.36134">
        <ele>16.39999961853</ele>
        <time>2020-12-17T09:16:07.000Z</time>
      </trkpt>
      <trkpt lat="47.33433" lon="-2.36119">
        <ele>16.39999961853</ele>
        <time>2020-12-17T09:16:09.000Z</time>
      </trkpt>
      <trkpt lat="47.33437" lon="-2.3611">
        <ele>16.39999961853</ele>
        <time>2020-12-17T09:16:10.000Z</time>
      </trkpt>
      <trkpt lat="47.33449" lon="-2.3609">
        <ele>16.39999961853</ele>
        <time>2020-12-17T09:16:13.000Z</time>
      </trkpt>
      <trkpt lat="47.33458" lon="-2.36078">
        <ele>16.39999961853</ele>
        <time>2020-12-17T09:16:15.000Z</time>
      </trkpt>
      <trkpt lat="47.33498" lon="-2.36028">
        <ele>16</ele>
        <time>2020-12-17T09:16:23.000Z</time>
      </trkpt>
      <trkpt lat="47.33502" lon="-2.36021">
        <ele>15.60000038147</ele>
        <time>2020-12-17T09:16:24.000Z</time>
      </trkpt>
      <trkpt lat="47.33507" lon="-2.36016">
        <ele>15.199999809265</ele>
        <time>2020-12-17T09:16:25.000Z</time>
      </trkpt>
      <trkpt lat="47.33512" lon="-2.36011">
        <ele>14.800000190735</ele>
        <time>2020-12-17T09:16:26.000Z</time>
      </trkpt>
      <trkpt lat="47.33516" lon="-2.36006">
        <ele>14.199999809265</ele>
        <time>2020-12-17T09:16:27.000Z</time>
      </trkpt>
      <trkpt lat="47.33521" lon="-2.36002">
        <ele>14.199999809265</ele>
        <time>2020-12-17T09:16:28.000Z</time>
      </trkpt>
      <trkpt lat="47.33549" lon="-2.35983">
        <ele>14.199999809265</ele>
        <time>2020-12-17T09:16:34.000Z</time>
      </trkpt>
      <trkpt lat="47.33583" lon="-2.35973">
        <ele>14.199999809265</ele>
        <time>2020-12-17T09:16:42.000Z</time>
      </trkpt>
      <trkpt lat="47.33604" lon="-2.3597">
        <ele>14.199999809265</ele>
        <time>2020-12-17T09:16:48.000Z</time>
      </trkpt>
      <trkpt lat="47.33631" lon="-2.35977">
        <ele>14.199999809265</ele>
        <time>2020-12-17T09:16:55.000Z</time>
      </trkpt>
      <trkpt lat="47.33657" lon="-2.35993">
        <ele>14.199999809265</ele>
        <time>2020-12-17T09:17:03.000Z</time>
      </trkpt>
      <trkpt lat="47.33688" lon="-2.36005">
        <ele>14.199999809265</ele>
        <time>2020-12-17T09:17:13.000Z</time>
      </trkpt>
      <trkpt lat="47.33709" lon="-2.36">
        <ele>14.199999809265</ele>
        <time>2020-12-17T09:17:19.000Z</time>
      </trkpt>
      <trkpt lat="47.33736" lon="-2.35983">
        <ele>14.199999809265</ele>
        <time>2020-12-17T09:17:26.000Z</time>
      </trkpt>
      <trkpt lat="47.33763" lon="-2.35966">
        <ele>13.800000190735</ele>
        <time>2020-12-17T09:17:32.000Z</time>
      </trkpt>
      <trkpt lat="47.33768" lon="-2.35964">
        <ele>13.39999961853</ele>
        <time>2020-12-17T09:17:33.000Z</time>
      </trkpt>
      <trkpt lat="47.33774" lon="-2.35962">
        <ele>13</ele>
        <time>2020-12-17T09:17:34.000Z</time>
      </trkpt>
      <trkpt lat="47.33779" lon="-2.3596">
        <ele>12.60000038147</ele>
        <time>2020-12-17T09:17:35.000Z</time>
      </trkpt>
      <trkpt lat="47.33786" lon="-2.35958">
        <ele>12.199999809265</ele>
        <time>2020-12-17T09:17:36.000Z</time>
      </trkpt>
      <trkpt lat="47.33799" lon="-2.35953">
        <ele>12.199999809265</ele>
        <time>2020-12-17T09:17:38.000Z</time>
      </trkpt>
      <trkpt lat="47.33814" lon="-2.3595">
        <ele>11.800000190735</ele>
        <time>2020-12-17T09:17:40.000Z</time>
      </trkpt>
      <trkpt lat="47.33822" lon="-2.35949">
        <ele>11.39999961853</ele>
        <time>2020-12-17T09:17:41.000Z</time>
      </trkpt>
      <trkpt lat="47.3383" lon="-2.35948">
        <ele>11</ele>
        <time>2020-12-17T09:17:42.000Z</time>
      </trkpt>
      <trkpt lat="47.33839" lon="-2.35947">
        <ele>10.60000038147</ele>
        <time>2020-12-17T09:17:43.000Z</time>
      </trkpt>
      <trkpt lat="47.33849" lon="-2.35945">
        <ele>10.199999809265</ele>
        <time>2020-12-17T09:17:44.000Z</time>
      </trkpt>
      <trkpt lat="47.33889" lon="-2.35938">
        <ele>9.8000001907349</ele>
        <time>2020-12-17T09:17:48.000Z</time>
      </trkpt>
      <trkpt lat="47.33898" lon="-2.35936">
        <ele>9.1999998092651</ele>
        <time>2020-12-17T09:17:49.000Z</time>
      </trkpt>
      <trkpt lat="47.33908" lon="-2.35934">
        <ele>8.8000001907349</ele>
        <time>2020-12-17T09:17:50.000Z</time>
      </trkpt>
      <trkpt lat="47.33918" lon="-2.35932">
        <ele>8.3999996185303</ele>
        <time>2020-12-17T09:17:51.000Z</time>
      </trkpt>
      <trkpt lat="47.33928" lon="-2.3593">
        <ele>8</ele>
        <time>2020-12-17T09:17:52.000Z</time>
      </trkpt>
      <trkpt lat="47.33937" lon="-2.35928">
        <ele>7.5999999046326</ele>
        <time>2020-12-17T09:17:53.000Z</time>
      </trkpt>
      <trkpt lat="47.33947" lon="-2.35925">
        <ele>6.5999999046326</ele>
        <time>2020-12-17T09:17:54.000Z</time>
      </trkpt>
      <trkpt lat="47.33956" lon="-2.35922">
        <ele>6.1999998092651</ele>
        <time>2020-12-17T09:17:55.000Z</time>
      </trkpt>
      <trkpt lat="47.33965" lon="-2.35918">
        <ele>5.5999999046326</ele>
        <time>2020-12-17T09:17:56.000Z</time>
      </trkpt>
      <trkpt lat="47.33974" lon="-2.35915">
        <ele>5.1999998092651</ele>
        <time>2020-12-17T09:17:57.000Z</time>
      </trkpt>
      <trkpt lat="47.33983" lon="-2.35913">
        <ele>4.8000001907349</ele>
        <time>2020-12-17T09:17:58.000Z</time>
      </trkpt>
      <trkpt lat="47.33991" lon="-2.3591">
        <ele>4.4000000953674</ele>
        <time>2020-12-17T09:17:59.000Z</time>
      </trkpt>
      <trkpt lat="47.34" lon="-2.35907">
        <ele>3.7999999523163</ele>
        <time>2020-12-17T09:18:00.000Z</time>
      </trkpt>
      <trkpt lat="47.34009" lon="-2.35904">
        <ele>3.4000000953674</ele>
        <time>2020-12-17T09:18:01.000Z</time>
      </trkpt>
      <trkpt lat="47.34018" lon="-2.35901">
        <ele>3</ele>
        <time>2020-12-17T09:18:02.000Z</time>
      </trkpt>
      <trkpt lat="47.34027" lon="-2.35898">
        <ele>2.5999999046326</ele>
        <time>2020-12-17T09:18:03.000Z</time>
      </trkpt>
      <trkpt lat="47.34036" lon="-2.35894">
        <ele>2.2000000476837</ele>
        <time>2020-12-17T09:18:04.000Z</time>
      </trkpt>
      <trkpt lat="47.34045" lon="-2.35891">
        <ele>1.6000000238419</ele>
        <time>2020-12-17T09:18:05.000Z</time>
      </trkpt>
      <trkpt lat="47.34053" lon="-2.35888">
        <ele>1.2000000476837</ele>
        <time>2020-12-17T09:18:06.000Z</time>
      </trkpt>
      <trkpt lat="47.34061" lon="-2.35885">
        <ele>0.80000001192093</ele>
        <time>2020-12-17T09:18:07.000Z</time>
      </trkpt>
      <trkpt lat="47.3407" lon="-2.35882">
        <ele>0.40000000596046</ele>
        <time>2020-12-17T09:18:08.000Z</time>
      </trkpt>
      <trkpt lat="47.34079" lon="-2.35879">
        <ele>12.9</ele>
        <time>2020-12-17T09:18:09.000Z</time>
      </trkpt>
      <trkpt lat="47.34087" lon="-2.35876">
        <ele>-0.40000000596046</ele>
        <time>2020-12-17T09:18:10.000Z</time>
      </trkpt>
      <trkpt lat="47.34096" lon="-2.35873">
        <ele>-0.80000001192093</ele>
        <time>2020-12-17T09:18:11.000Z</time>
      </trkpt>
      <trkpt lat="47.34105" lon="-2.3587">
        <ele>-1.2000000476837</ele>
        <time>2020-12-17T09:18:12.000Z</time>
      </trkpt>
      <trkpt lat="47.34113" lon="-2.35867">
        <ele>-1.6000000238419</ele>
        <time>2020-12-17T09:18:13.000Z</time>
      </trkpt>
      <trkpt lat="47.34121" lon="-2.35864">
        <ele>-2</ele>
        <time>2020-12-17T09:18:14.000Z</time>
      </trkpt>
      <trkpt lat="47.34129" lon="-2.3586">
        <ele>-2.4000000953674</ele>
        <time>2020-12-17T09:18:15.000Z</time>
      </trkpt>
      <trkpt lat="47.34136" lon="-2.35855">
        <ele>-2.7999999523163</ele>
        <time>2020-12-17T09:18:16.000Z</time>
      </trkpt>
      <trkpt lat="47.34157" lon="-2.35841">
        <ele>-2.7999999523163</ele>
        <time>2020-12-17T09:18:19.000Z</time>
      </trkpt>
      <trkpt lat="47.34184" lon="-2.3582">
        <ele>-2.7999999523163</ele>
        <time>2020-12-17T09:18:24.000Z</time>
      </trkpt>
      <trkpt lat="47.34213" lon="-2.35796">
        <ele>-2.7999999523163</ele>
        <time>2020-12-17T09:18:31.000Z</time>
      </trkpt>
      <trkpt lat="47.34218" lon="-2.3579">
        <ele>-3.2000000476837</ele>
        <time>2020-12-17T09:18:33.000Z</time>
      </trkpt>
      <trkpt lat="47.3422" lon="-2.35787">
        <ele>-3.5999999046326</ele>
        <time>2020-12-17T09:18:34.000Z</time>
      </trkpt>
      <trkpt lat="47.34223" lon="-2.35784">
        <ele>-4</ele>
        <time>2020-12-17T09:18:35.000Z</time>
      </trkpt>
      <trkpt lat="47.34226" lon="-2.35782">
        <ele>-4.5999999046326</ele>
        <time>2020-12-17T09:18:36.000Z</time>
      </trkpt>
      <trkpt lat="47.34229" lon="-2.35781">
        <ele>-5</ele>
        <time>2020-12-17T09:18:37.000Z</time>
      </trkpt>
      <trkpt lat="47.34232" lon="-2.35783">
        <ele>-5</ele>
        <time>2020-12-17T09:18:38.000Z</time>
      </trkpt>
      <trkpt lat="47.34234" lon="-2.35786">
        <ele>-5</ele>
        <time>2020-12-17T09:18:39.000Z</time>
      </trkpt>
      <trkpt lat="47.3424" lon="-2.35801">
        <ele>-5</ele>
        <time>2020-12-17T09:18:42.000Z</time>
      </trkpt>
      <trkpt lat="47.34242" lon="-2.35807">
        <ele>-5</ele>
        <time>2020-12-17T09:18:43.000Z</time>
      </trkpt>
      <trkpt lat="47.34252" lon="-2.35849">
        <ele>-5</ele>
        <time>2020-12-17T09:18:49.000Z</time>
      </trkpt>
      <trkpt lat="47.34253" lon="-2.35864">
        <ele>-5</ele>
        <time>2020-12-17T09:18:51.000Z</time>
      </trkpt>
      <trkpt lat="47.34252" lon="-2.35886">
        <ele>-5</ele>
        <time>2020-12-17T09:18:54.000Z</time>
      </trkpt>
      <trkpt lat="47.3425" lon="-2.35893">
        <ele>-5</ele>
        <time>2020-12-17T09:18:55.000Z</time>
      </trkpt>
      <trkpt lat="47.34245" lon="-2.35927">
        <ele>-5</ele>
        <time>2020-12-17T09:19:00.000Z</time>
      </trkpt>
      <trkpt lat="47.34247" lon="-2.35947">
        <ele>-5</ele>
        <time>2020-12-17T09:19:04.000Z</time>
      </trkpt>
      <trkpt lat="47.34258" lon="-2.35953">
        <ele>-4.5999999046326</ele>
        <time>2020-12-17T09:19:07.000Z</time>
      </trkpt>
      <trkpt lat="47.34262" lon="-2.35952">
        <ele>-3.5999999046326</ele>
        <time>2020-12-17T09:19:08.000Z</time>
      </trkpt>
      <trkpt lat="47.34268" lon="-2.35949">
        <ele>-3.2000000476837</ele>
        <time>2020-12-17T09:19:09.000Z</time>
      </trkpt>
      <trkpt lat="47.34272" lon="-2.35948">
        <ele>-2.7999999523163</ele>
        <time>2020-12-17T09:19:10.000Z</time>
      </trkpt>
      <trkpt lat="47.34276" lon="-2.35948">
        <ele>-2.7999999523163</ele>
        <time>2020-12-17T09:19:11.000Z</time>
      </trkpt>
      <trkpt lat="47.34283" lon="-2.35949">
        <ele>-2.4000000953674</ele>
        <time>2020-12-17T09:19:13.000Z</time>
      </trkpt>
      <trkpt lat="47.34287" lon="-2.3595">
        <ele>-2</ele>
        <time>2020-12-17T09:19:14.000Z</time>
      </trkpt>
      <trkpt lat="47.3429" lon="-2.3595">
        <ele>-1.6000000238419</ele>
        <time>2020-12-17T09:19:15.000Z</time>
      </trkpt>
      <trkpt lat="47.34294" lon="-2.35951">
        <ele>-1.2000000476837</ele>
        <time>2020-12-17T09:19:16.000Z</time>
      </trkpt>
      <trkpt lat="47.34299" lon="-2.35953">
        <ele>-0.60000002384186</ele>
        <time>2020-12-17T09:19:17.000Z</time>
      </trkpt>
      <trkpt lat="47.34314" lon="-2.35955">
        <ele>-0.20000000298023</ele>
        <time>2020-12-17T09:19:21.000Z</time>
      </trkpt>
      <trkpt lat="47.34318" lon="-2.35956">
        <ele>0.20000000298023</ele>
        <time>2020-12-17T09:19:22.000Z</time>
      </trkpt>
      <trkpt lat="47.34322" lon="-2.35957">
        <ele>0.60000002384186</ele>
        <time>2020-12-17T09:19:23.000Z</time>
      </trkpt>
      <trkpt lat="47.34326" lon="-2.35958">
        <ele>1</ele>
        <time>2020-12-17T09:19:24.000Z</time>
      </trkpt>
      <trkpt lat="47.34329" lon="-2.35959">
        <ele>1.3999999761581</ele>
        <time>2020-12-17T09:19:25.000Z</time>
      </trkpt>
      <trkpt lat="47.34352" lon="-2.35971">
        <ele>1.3999999761581</ele>
        <time>2020-12-17T09:19:31.000Z</time>
      </trkpt>
      <trkpt lat="47.34356" lon="-2.35972">
        <ele>1.3999999761581</ele>
        <time>2020-12-17T09:19:32.000Z</time>
      </trkpt>
      <trkpt lat="47.34368" lon="-2.35978">
        <ele>1.3999999761581</ele>
        <time>2020-12-17T09:19:35.000Z</time>
      </trkpt>
      <trkpt lat="47.34398" lon="-2.35992">
        <ele>1.3999999761581</ele>
        <time>2020-12-17T09:19:42.000Z</time>
      </trkpt>
      <trkpt lat="47.34406" lon="-2.36">
        <ele>1.3999999761581</ele>
        <time>2020-12-17T09:19:44.000Z</time>
      </trkpt>
      <trkpt lat="47.34412" lon="-2.36012">
        <ele>1.3999999761581</ele>
        <time>2020-12-17T09:19:46.000Z</time>
      </trkpt>
      <trkpt lat="47.34423" lon="-2.36044">
        <ele>1.3999999761581</ele>
        <time>2020-12-17T09:19:51.000Z</time>
      </trkpt>
      <trkpt lat="47.34425" lon="-2.36051">
        <ele>1.3999999761581</ele>
        <time>2020-12-17T09:19:52.000Z</time>
      </trkpt>
      <trkpt lat="47.34433" lon="-2.36086">
        <ele>1.3999999761581</ele>
        <time>2020-12-17T09:19:57.000Z</time>
      </trkpt>
      <trkpt lat="47.34444" lon="-2.36114">
        <ele>1.3999999761581</ele>
        <time>2020-12-17T09:20:01.000Z</time>
      </trkpt>
      <trkpt lat="47.34448" lon="-2.36121">
        <ele>1.3999999761581</ele>
        <time>2020-12-17T09:20:02.000Z</time>
      </trkpt>
      <trkpt lat="47.34465" lon="-2.36159">
        <ele>1.3999999761581</ele>
        <time>2020-12-17T09:20:07.000Z</time>
      </trkpt>
      <trkpt lat="47.34487" lon="-2.36198">
        <ele>1.3999999761581</ele>
        <time>2020-12-17T09:20:12.000Z</time>
      </trkpt>
      <trkpt lat="47.345" lon="-2.36221">
        <ele>1</ele>
        <time>2020-12-17T09:20:15.000Z</time>
      </trkpt>
      <trkpt lat="47.34504" lon="-2.36229">
        <ele>0.60000002384186</ele>
        <time>2020-12-17T09:20:16.000Z</time>
      </trkpt>
      <trkpt lat="47.34507" lon="-2.36237">
        <ele>0.20000000298023</ele>
        <time>2020-12-17T09:20:17.000Z</time>
      </trkpt>
      <trkpt lat="47.34509" lon="-2.36245">
        <ele>-0.20000000298023</ele>
        <time>2020-12-17T09:20:18.000Z</time>
      </trkpt>
      <trkpt lat="47.34512" lon="-2.36254">
        <ele>-0.60000002384186</ele>
        <time>2020-12-17T09:20:19.000Z</time>
      </trkpt>
      <trkpt lat="47.34524" lon="-2.36299">
        <ele>-0.60000002384186</ele>
        <time>2020-12-17T09:20:24.000Z</time>
      </trkpt>
      <trkpt lat="47.34541" lon="-2.36349">
        <ele>-0.60000002384186</ele>
        <time>2020-12-17T09:20:30.000Z</time>
      </trkpt>
      <trkpt lat="47.34551" lon="-2.36376">
        <ele>-0.60000002384186</ele>
        <time>2020-12-17T09:20:34.000Z</time>
      </trkpt>
      <trkpt lat="47.34555" lon="-2.36381">
        <ele>-0.60000002384186</ele>
        <time>2020-12-17T09:20:35.000Z</time>
      </trkpt>
      <trkpt lat="47.34577" lon="-2.36414">
        <ele>-0.60000002384186</ele>
        <time>2020-12-17T09:20:41.000Z</time>
      </trkpt>
      <trkpt lat="47.3459" lon="-2.36434">
        <ele>-0.20000000298023</ele>
        <time>2020-12-17T09:20:45.000Z</time>
      </trkpt>
      <trkpt lat="47.34593" lon="-2.36439">
        <ele>0.20000000298023</ele>
        <time>2020-12-17T09:20:46.000Z</time>
      </trkpt>
      <trkpt lat="47.34596" lon="-2.36442">
        <ele>0.60000002384186</ele>
        <time>2020-12-17T09:20:47.000Z</time>
      </trkpt>
      <trkpt lat="47.34601" lon="-2.36441">
        <ele>1</ele>
        <time>2020-12-17T09:20:48.000Z</time>
      </trkpt>
      <trkpt lat="47.34606" lon="-2.3644">
        <ele>1.3999999761581</ele>
        <time>2020-12-17T09:20:49.000Z</time>
      </trkpt>
      <trkpt lat="47.3461" lon="-2.36438">
        <ele>1.3999999761581</ele>
        <time>2020-12-17T09:20:50.000Z</time>
      </trkpt>
      <trkpt lat="47.34635" lon="-2.36424">
        <ele>1.3999999761581</ele>
        <time>2020-12-17T09:20:55.000Z</time>
      </trkpt>
      <trkpt lat="47.34655" lon="-2.36416">
        <ele>1.3999999761581</ele>
        <time>2020-12-17T09:20:59.000Z</time>
      </trkpt>
      <trkpt lat="47.3466" lon="-2.36414">
        <ele>1.7999999523163</ele>
        <time>2020-12-17T09:21:00.000Z</time>
      </trkpt>
      <trkpt lat="47.34665" lon="-2.36412">
        <ele>2.2000000476837</ele>
        <time>2020-12-17T09:21:01.000Z</time>
      </trkpt>
      <trkpt lat="47.3467" lon="-2.3641">
        <ele>2.7999999523163</ele>
        <time>2020-12-17T09:21:02.000Z</time>
      </trkpt>
      <trkpt lat="47.34675" lon="-2.36408">
        <ele>3.2000000476837</ele>
        <time>2020-12-17T09:21:03.000Z</time>
      </trkpt>
      <trkpt lat="47.3468" lon="-2.36406">
        <ele>3.5999999046326</ele>
        <time>2020-12-17T09:21:04.000Z</time>
      </trkpt>
      <trkpt lat="47.34704" lon="-2.36396">
        <ele>4</ele>
        <time>2020-12-17T09:21:09.000Z</time>
      </trkpt>
      <trkpt lat="47.34709" lon="-2.36394">
        <ele>4.4000000953674</ele>
        <time>2020-12-17T09:21:10.000Z</time>
      </trkpt>
      <trkpt lat="47.34714" lon="-2.36392">
        <ele>4.8000001907349</ele>
        <time>2020-12-17T09:21:11.000Z</time>
      </trkpt>
      <trkpt lat="47.34719" lon="-2.3639">
        <ele>5.1999998092651</ele>
        <time>2020-12-17T09:21:12.000Z</time>
      </trkpt>
      <trkpt lat="47.34724" lon="-2.36387">
        <ele>5.5999999046326</ele>
        <time>2020-12-17T09:21:13.000Z</time>
      </trkpt>
      <trkpt lat="47.34746" lon="-2.36375">
        <ele>5.5999999046326</ele>
        <time>2020-12-17T09:21:17.000Z</time>
      </trkpt>
      <trkpt lat="47.34785" lon="-2.36347">
        <ele>5.5999999046326</ele>
        <time>2020-12-17T09:21:24.000Z</time>
      </trkpt>
      <trkpt lat="47.34808" lon="-2.36331">
        <ele>5.5999999046326</ele>
        <time>2020-12-17T09:21:29.000Z</time>
      </trkpt>
      <trkpt lat="47.34843" lon="-2.36308">
        <ele>5.5999999046326</ele>
        <time>2020-12-17T09:21:36.000Z</time>
      </trkpt>
      <trkpt lat="47.34875" lon="-2.36286">
        <ele>5.5999999046326</ele>
        <time>2020-12-17T09:21:42.000Z</time>
      </trkpt>
      <trkpt lat="47.34923" lon="-2.36244">
        <ele>5.5999999046326</ele>
        <time>2020-12-17T09:21:51.000Z</time>
      </trkpt>
      <trkpt lat="47.34956" lon="-2.36205">
        <ele>5.5999999046326</ele>
        <time>2020-12-17T09:21:57.000Z</time>
      </trkpt>
      <trkpt lat="47.34984" lon="-2.36173">
        <ele>5.1999998092651</ele>
        <time>2020-12-17T09:22:02.000Z</time>
      </trkpt>
      <trkpt lat="47.3499" lon="-2.36168">
        <ele>4.8000001907349</ele>
        <time>2020-12-17T09:22:03.000Z</time>
      </trkpt>
      <trkpt lat="47.34997" lon="-2.36165">
        <ele>4.4000000953674</ele>
        <time>2020-12-17T09:22:04.000Z</time>
      </trkpt>
      <trkpt lat="47.35003" lon="-2.36163">
        <ele>4</ele>
        <time>2020-12-17T09:22:05.000Z</time>
      </trkpt>
      <trkpt lat="47.3501" lon="-2.36161">
        <ele>3.5999999046326</ele>
        <time>2020-12-17T09:22:06.000Z</time>
      </trkpt>
      <trkpt lat="47.35025" lon="-2.36162">
        <ele>3.5999999046326</ele>
        <time>2020-12-17T09:22:08.000Z</time>
      </trkpt>
      <trkpt lat="47.35045" lon="-2.3617">
        <ele>3.5999999046326</ele>
        <time>2020-12-17T09:22:11.000Z</time>
      </trkpt>
      <trkpt lat="47.35052" lon="-2.36173">
        <ele>3</ele>
        <time>2020-12-17T09:22:12.000Z</time>
      </trkpt>
      <trkpt lat="47.35059" lon="-2.36175">
        <ele>2.5999999046326</ele>
        <time>2020-12-17T09:22:13.000Z</time>
      </trkpt>
      <trkpt lat="47.35067" lon="-2.36176">
        <ele>2.2000000476837</ele>
        <time>2020-12-17T09:22:14.000Z</time>
      </trkpt>
      <trkpt lat="47.35073" lon="-2.36176">
        <ele>1.7999999523163</ele>
        <time>2020-12-17T09:22:15.000Z</time>
      </trkpt>
      <trkpt lat="47.3508" lon="-2.36176">
        <ele>1.3999999761581</ele>
        <time>2020-12-17T09:22:16.000Z</time>
      </trkpt>
      <trkpt lat="47.35085" lon="-2.36175">
        <ele>1.3999999761581</ele>
        <time>2020-12-17T09:22:17.000Z</time>
      </trkpt>
      <trkpt lat="47.3509" lon="-2.36173">
        <ele>1.3999999761581</ele>
        <time>2020-12-17T09:22:18.000Z</time>
      </trkpt>
      <trkpt lat="47.35103" lon="-2.3617">
        <ele>1</ele>
        <time>2020-12-17T09:22:21.000Z</time>
      </trkpt>
      <trkpt lat="47.35108" lon="-2.36168">
        <ele>0.60000002384186</ele>
        <time>2020-12-17T09:22:22.000Z</time>
      </trkpt>
      <trkpt lat="47.35113" lon="-2.36165">
        <ele>-0.20000000298023</ele>
        <time>2020-12-17T09:22:23.000Z</time>
      </trkpt>
      <trkpt lat="47.35118" lon="-2.36162">
        <ele>-0.80000001192093</ele>
        <time>2020-12-17T09:22:24.000Z</time>
      </trkpt>
      <trkpt lat="47.3513" lon="-2.36154">
        <ele>-0.80000001192093</ele>
        <time>2020-12-17T09:22:26.000Z</time>
      </trkpt>
      <trkpt lat="47.35141" lon="-2.36146">
        <ele>-0.80000001192093</ele>
        <time>2020-12-17T09:22:28.000Z</time>
      </trkpt>
      <trkpt lat="47.35185" lon="-2.36113">
        <ele>-0.80000001192093</ele>
        <time>2020-12-17T09:22:35.000Z</time>
      </trkpt>
      <trkpt lat="47.35228" lon="-2.36079">
        <ele>-0.80000001192093</ele>
        <time>2020-12-17T09:22:42.000Z</time>
      </trkpt>
      <trkpt lat="47.35268" lon="-2.36044">
        <ele>-0.80000001192093</ele>
        <time>2020-12-17T09:22:49.000Z</time>
      </trkpt>
      <trkpt lat="47.35299" lon="-2.36016">
        <ele>-0.80000001192093</ele>
        <time>2020-12-17T09:22:54.000Z</time>
      </trkpt>
      <trkpt lat="47.35304" lon="-2.36008">
        <ele>-0.80000001192093</ele>
        <time>2020-12-17T09:22:55.000Z</time>
      </trkpt>
      <trkpt lat="47.35316" lon="-2.35981">
        <ele>-0.80000001192093</ele>
        <time>2020-12-17T09:22:58.000Z</time>
      </trkpt>
      <trkpt lat="47.3532" lon="-2.35973">
        <ele>-0.80000001192093</ele>
        <time>2020-12-17T09:22:59.000Z</time>
      </trkpt>
      <trkpt lat="47.35337" lon="-2.35935">
        <ele>-0.80000001192093</ele>
        <time>2020-12-17T09:23:04.000Z</time>
      </trkpt>
      <trkpt lat="47.35349" lon="-2.35916">
        <ele>-0.80000001192093</ele>
        <time>2020-12-17T09:23:07.000Z</time>
      </trkpt>
      <trkpt lat="47.35362" lon="-2.35898">
        <ele>-0.80000001192093</ele>
        <time>2020-12-17T09:23:10.000Z</time>
      </trkpt>
      <trkpt lat="47.35367" lon="-2.35894">
        <ele>-0.80000001192093</ele>
        <time>2020-12-17T09:23:11.000Z</time>
      </trkpt>
      <trkpt lat="47.35391" lon="-2.35869">
        <ele>-0.80000001192093</ele>
        <time>2020-12-17T09:23:16.000Z</time>
      </trkpt>
      <trkpt lat="47.35422" lon="-2.35827">
        <ele>-0.80000001192093</ele>
        <time>2020-12-17T09:23:23.000Z</time>
      </trkpt>
      <trkpt lat="47.35448" lon="-2.35791">
        <ele>-0.80000001192093</ele>
        <time>2020-12-17T09:23:29.000Z</time>
      </trkpt>
      <trkpt lat="47.35474" lon="-2.3575">
        <ele>-0.80000001192093</ele>
        <time>2020-12-17T09:23:35.000Z</time>
      </trkpt>
      <trkpt lat="47.35507" lon="-2.35701">
        <ele>-0.80000001192093</ele>
        <time>2020-12-17T09:23:42.000Z</time>
      </trkpt>
      <trkpt lat="47.3554" lon="-2.35667">
        <ele>-0.80000001192093</ele>
        <time>2020-12-17T09:23:48.000Z</time>
      </trkpt>
      <trkpt lat="47.35583" lon="-2.35631">
        <ele>-0.80000001192093</ele>
        <time>2020-12-17T09:23:55.000Z</time>
      </trkpt>
      <trkpt lat="47.35606" lon="-2.35605">
        <ele>-1.2000000476837</ele>
        <time>2020-12-17T09:23:59.000Z</time>
      </trkpt>
      <trkpt lat="47.35612" lon="-2.35598">
        <ele>-1.6000000238419</ele>
        <time>2020-12-17T09:24:00.000Z</time>
      </trkpt>
      <trkpt lat="47.35617" lon="-2.35592">
        <ele>-2</ele>
        <time>2020-12-17T09:24:01.000Z</time>
      </trkpt>
      <trkpt lat="47.35623" lon="-2.35585">
        <ele>-2.7999999523163</ele>
        <time>2020-12-17T09:24:02.000Z</time>
      </trkpt>
      <trkpt lat="47.35653" lon="-2.35561">
        <ele>-2.7999999523163</ele>
        <time>2020-12-17T09:24:07.000Z</time>
      </trkpt>
      <trkpt lat="47.35688" lon="-2.35534">
        <ele>-2.7999999523163</ele>
        <time>2020-12-17T09:24:13.000Z</time>
      </trkpt>
      <trkpt lat="47.35717" lon="-2.3552">
        <ele>-2.7999999523163</ele>
        <time>2020-12-17T09:24:18.000Z</time>
      </trkpt>
      <trkpt lat="47.35755" lon="-2.35499">
        <ele>-2.7999999523163</ele>
        <time>2020-12-17T09:24:24.000Z</time>
      </trkpt>
      <trkpt lat="47.35792" lon="-2.35478">
        <ele>-2.7999999523163</ele>
        <time>2020-12-17T09:24:30.000Z</time>
      </trkpt>
      <trkpt lat="47.35804" lon="-2.35472">
        <ele>-3.2000000476837</ele>
        <time>2020-12-17T09:24:32.000Z</time>
      </trkpt>
      <trkpt lat="47.3581" lon="-2.35469">
        <ele>-3.5999999046326</ele>
        <time>2020-12-17T09:24:33.000Z</time>
      </trkpt>
      <trkpt lat="47.35816" lon="-2.35467">
        <ele>-4</ele>
        <time>2020-12-17T09:24:34.000Z</time>
      </trkpt>
      <trkpt lat="47.35821" lon="-2.35464">
        <ele>-4.4000000953674</ele>
        <time>2020-12-17T09:24:35.000Z</time>
      </trkpt>
      <trkpt lat="47.35826" lon="-2.35462">
        <ele>-5</ele>
        <time>2020-12-17T09:24:36.000Z</time>
      </trkpt>
      <trkpt lat="47.35832" lon="-2.35459">
        <ele>-5</ele>
        <time>2020-12-17T09:24:37.000Z</time>
      </trkpt>
      <trkpt lat="47.35871" lon="-2.3544">
        <ele>-5</ele>
        <time>2020-12-17T09:24:44.000Z</time>
      </trkpt>
      <trkpt lat="47.35875" lon="-2.35437">
        <ele>-5</ele>
        <time>2020-12-17T09:24:45.000Z</time>
      </trkpt>
      <trkpt lat="47.35898" lon="-2.35422">
        <ele>-5</ele>
        <time>2020-12-17T09:24:50.000Z</time>
      </trkpt>
      <trkpt lat="47.35906" lon="-2.35415">
        <ele>-5</ele>
        <time>2020-12-17T09:24:52.000Z</time>
      </trkpt>
      <trkpt lat="47.35918" lon="-2.35406">
        <ele>-5</ele>
        <time>2020-12-17T09:24:55.000Z</time>
      </trkpt>
      <trkpt lat="47.35922" lon="-2.35405">
        <ele>-5</ele>
        <time>2020-12-17T09:24:56.000Z</time>
      </trkpt>
      <trkpt lat="47.35938" lon="-2.35393">
        <ele>-5</ele>
        <time>2020-12-17T09:25:01.000Z</time>
      </trkpt>
      <trkpt lat="47.35945" lon="-2.35381">
        <ele>-5</ele>
        <time>2020-12-17T09:25:03.000Z</time>
      </trkpt>
      <trkpt lat="47.35951" lon="-2.35368">
        <ele>-5</ele>
        <time>2020-12-17T09:25:05.000Z</time>
      </trkpt>
      <trkpt lat="47.35972" lon="-2.35336">
        <ele>-5</ele>
        <time>2020-12-17T09:25:10.000Z</time>
      </trkpt>
      <trkpt lat="47.35977" lon="-2.3533">
        <ele>-5</ele>
        <time>2020-12-17T09:25:11.000Z</time>
      </trkpt>
      <trkpt lat="47.36012" lon="-2.35283">
        <ele>-5</ele>
        <time>2020-12-17T09:25:19.000Z</time>
      </trkpt>
      <trkpt lat="47.36043" lon="-2.35245">
        <ele>-5</ele>
        <time>2020-12-17T09:25:25.000Z</time>
      </trkpt>
      <trkpt lat="47.36077" lon="-2.35201">
        <ele>-5</ele>
        <time>2020-12-17T09:25:31.000Z</time>
      </trkpt>
      <trkpt lat="47.36117" lon="-2.35149">
        <ele>-5</ele>
        <time>2020-12-17T09:25:38.000Z</time>
      </trkpt>
      <trkpt lat="47.36152" lon="-2.35109">
        <ele>-5</ele>
        <time>2020-12-17T09:25:44.000Z</time>
      </trkpt>
      <trkpt lat="47.36196" lon="-2.35065">
        <ele>-5</ele>
        <time>2020-12-17T09:25:52.000Z</time>
      </trkpt>
      <trkpt lat="47.36226" lon="-2.35029">
        <ele>-5</ele>
        <time>2020-12-17T09:25:58.000Z</time>
      </trkpt>
      <trkpt lat="47.36247" lon="-2.34987">
        <ele>-5</ele>
        <time>2020-12-17T09:26:04.000Z</time>
      </trkpt>
      <trkpt lat="47.36265" lon="-2.34943">
        <ele>-5</ele>
        <time>2020-12-17T09:26:11.000Z</time>
      </trkpt>
      <trkpt lat="47.3628" lon="-2.34923">
        <ele>-5</ele>
        <time>2020-12-17T09:26:17.000Z</time>
      </trkpt>
      <trkpt lat="47.36287" lon="-2.34937">
        <ele>-5</ele>
        <time>2020-12-17T09:26:20.000Z</time>
      </trkpt>
      <trkpt lat="47.3629" lon="-2.34949">
        <ele>-5</ele>
        <time>2020-12-17T09:26:22.000Z</time>
      </trkpt>
      <trkpt lat="47.36292" lon="-2.34968">
        <ele>-5</ele>
        <time>2020-12-17T09:26:25.000Z</time>
      </trkpt>
      <trkpt lat="47.36297" lon="-2.34998">
        <ele>-5</ele>
        <time>2020-12-17T09:26:31.000Z</time>
      </trkpt>
      <trkpt lat="47.36299" lon="-2.35004">
        <ele>-5.4000000953674</ele>
        <time>2020-12-17T09:26:33.000Z</time>
      </trkpt>
      <trkpt lat="47.36301" lon="-2.35006">
        <ele>-5.8000001907349</ele>
        <time>2020-12-17T09:26:34.000Z</time>
      </trkpt>
      <trkpt lat="47.36302" lon="-2.35007">
        <ele>-6.1999998092651</ele>
        <time>2020-12-17T09:26:35.000Z</time>
      </trkpt>
      <trkpt lat="47.36303" lon="-2.35007">
        <ele>-6.5999999046326</ele>
        <time>2020-12-17T09:26:36.000Z</time>
      </trkpt>
      <trkpt lat="47.36304" lon="-2.35008">
        <ele>-7</ele>
        <time>2020-12-17T09:26:37.000Z</time>
      </trkpt>
      <trkpt lat="47.36308" lon="-2.35007">
        <ele>-7</ele>
        <time>2020-12-17T09:26:40.000Z</time>
      </trkpt>
      <trkpt lat="47.36319" lon="-2.34998">
        <ele>-7</ele>
        <time>2020-12-17T09:26:45.000Z</time>
      </trkpt>
      <trkpt lat="47.36338" lon="-2.34978">
        <ele>-7</ele>
        <time>2020-12-17T09:26:51.000Z</time>
      </trkpt>
      <trkpt lat="47.36342" lon="-2.34978">
        <ele>-7</ele>
        <time>2020-12-17T09:26:52.000Z</time>
      </trkpt>
      <trkpt lat="47.36348" lon="-2.34982">
        <ele>-7</ele>
        <time>2020-12-17T09:26:54.000Z</time>
      </trkpt>
      <trkpt lat="47.36358" lon="-2.34994">
        <ele>-7</ele>
        <time>2020-12-17T09:26:58.000Z</time>
      </trkpt>
      <trkpt lat="47.36364" lon="-2.35002">
        <ele>-7</ele>
        <time>2020-12-17T09:27:01.000Z</time>
      </trkpt>
      <trkpt lat="47.36368" lon="-2.35011">
        <ele>-7</ele>
        <time>2020-12-17T09:27:03.000Z</time>
      </trkpt>
      <trkpt lat="47.36379" lon="-2.35044">
        <ele>-7</ele>
        <time>2020-12-17T09:27:09.000Z</time>
      </trkpt>
      <trkpt lat="47.36391" lon="-2.35074">
        <ele>-7</ele>
        <time>2020-12-17T09:27:15.000Z</time>
      </trkpt>
      <trkpt lat="47.36395" lon="-2.35078">
        <ele>-7</ele>
        <time>2020-12-17T09:27:16.000Z</time>
      </trkpt>
      <trkpt lat="47.364" lon="-2.3508">
        <ele>-7</ele>
        <time>2020-12-17T09:27:18.000Z</time>
      </trkpt>
      <trkpt lat="47.36409" lon="-2.35076">
        <ele>-7</ele>
        <time>2020-12-17T09:27:23.000Z</time>
      </trkpt>
      <trkpt lat="47.36409" lon="-2.35076">
        <ele>-7</ele>
        <time>2020-12-17T09:27:24.000Z</time>
      </trkpt>
      <trkpt lat="47.36425" lon="-2.35069">
        <ele>-7</ele>
        <time>2020-12-17T09:28:03.000Z</time>
      </trkpt>
      <trkpt lat="47.3643" lon="-2.35071">
        <ele>-7</ele>
        <time>2020-12-17T09:28:05.000Z</time>
      </trkpt>
      <trkpt lat="47.36454" lon="-2.35083">
        <ele>-7</ele>
        <time>2020-12-17T09:28:12.000Z</time>
      </trkpt>
      <trkpt lat="47.36473" lon="-2.35092">
        <ele>-7</ele>
        <time>2020-12-17T09:28:17.000Z</time>
      </trkpt>
      <trkpt lat="47.36492" lon="-2.35104">
        <ele>-7</ele>
        <time>2020-12-17T09:28:23.000Z</time>
      </trkpt>
      <trkpt lat="47.36501" lon="-2.35106">
        <ele>-7</ele>
        <time>2020-12-17T09:28:26.000Z</time>
      </trkpt>
      <trkpt lat="47.36508" lon="-2.35104">
        <ele>-7</ele>
        <time>2020-12-17T09:28:28.000Z</time>
      </trkpt>
      <trkpt lat="47.3653" lon="-2.351">
        <ele>-7</ele>
        <time>2020-12-17T09:28:33.000Z</time>
      </trkpt>
      <trkpt lat="47.36547" lon="-2.35092">
        <ele>-7</ele>
        <time>2020-12-17T09:28:38.000Z</time>
      </trkpt>
      <trkpt lat="47.3655" lon="-2.35079">
        <ele>-7</ele>
        <time>2020-12-17T09:28:42.000Z</time>
      </trkpt>
      <trkpt lat="47.36547" lon="-2.35076">
        <ele>-7</ele>
        <time>2020-12-17T09:28:43.000Z</time>
      </trkpt>
      <trkpt lat="47.36539" lon="-2.35068">
        <ele>-7</ele>
        <time>2020-12-17T09:28:46.000Z</time>
      </trkpt>
      <trkpt lat="47.36533" lon="-2.35062">
        <ele>-7</ele>
        <time>2020-12-17T09:28:48.000Z</time>
      </trkpt>
      <trkpt lat="47.36518" lon="-2.3504">
        <ele>-7</ele>
        <time>2020-12-17T09:28:53.000Z</time>
      </trkpt>
      <trkpt lat="47.365" lon="-2.35006">
        <ele>-7</ele>
        <time>2020-12-17T09:29:00.000Z</time>
      </trkpt>
      <trkpt lat="47.36494" lon="-2.34991">
        <ele>-7</ele>
        <time>2020-12-17T09:29:04.000Z</time>
      </trkpt>
      <trkpt lat="47.36494" lon="-2.34988">
        <ele>-7</ele>
        <time>2020-12-17T09:29:05.000Z</time>
      </trkpt>
      <trkpt lat="47.36502" lon="-2.34991">
        <ele>-7</ele>
        <time>2020-12-17T09:29:08.000Z</time>
      </trkpt>
      <trkpt lat="47.36514" lon="-2.35012">
        <ele>-7</ele>
        <time>2020-12-17T09:29:12.000Z</time>
      </trkpt>
      <trkpt lat="47.36518" lon="-2.35018">
        <ele>-7</ele>
        <time>2020-12-17T09:29:13.000Z</time>
      </trkpt>
      <trkpt lat="47.36521" lon="-2.35024">
        <ele>-7</ele>
        <time>2020-12-17T09:29:14.000Z</time>
      </trkpt>
      <trkpt lat="47.36533" lon="-2.35042">
        <ele>-7</ele>
        <time>2020-12-17T09:29:17.000Z</time>
      </trkpt>
      <trkpt lat="47.36559" lon="-2.35089">
        <ele>-7</ele>
        <time>2020-12-17T09:29:24.000Z</time>
      </trkpt>
      <trkpt lat="47.3658" lon="-2.35123">
        <ele>-7</ele>
        <time>2020-12-17T09:29:29.000Z</time>
      </trkpt>
      <trkpt lat="47.36604" lon="-2.35166">
        <ele>-7</ele>
        <time>2020-12-17T09:29:35.000Z</time>
      </trkpt>
      <trkpt lat="47.36608" lon="-2.35173">
        <ele>-7.4000000953674</ele>
        <time>2020-12-17T09:29:36.000Z</time>
      </trkpt>
      <trkpt lat="47.36613" lon="-2.3518">
        <ele>-7.8000001907349</ele>
        <time>2020-12-17T09:29:37.000Z</time>
      </trkpt>
      <trkpt lat="47.36617" lon="-2.35187">
        <ele>-8.1999998092651</ele>
        <time>2020-12-17T09:29:38.000Z</time>
      </trkpt>
      <trkpt lat="47.36621" lon="-2.35194">
        <ele>-8.6000003814697</ele>
        <time>2020-12-17T09:29:39.000Z</time>
      </trkpt>
      <trkpt lat="47.36624" lon="-2.352">
        <ele>-9</ele>
        <time>2020-12-17T09:29:40.000Z</time>
      </trkpt>
      <trkpt lat="47.36636" lon="-2.35218">
        <ele>-9</ele>
        <time>2020-12-17T09:29:43.000Z</time>
      </trkpt>
      <trkpt lat="47.36638" lon="-2.35225">
        <ele>-9</ele>
        <time>2020-12-17T09:29:44.000Z</time>
      </trkpt>
      <trkpt lat="47.36639" lon="-2.35237">
        <ele>-9</ele>
        <time>2020-12-17T09:29:46.000Z</time>
      </trkpt>
      <trkpt lat="47.36631" lon="-2.35255">
        <ele>-9</ele>
        <time>2020-12-17T09:29:49.000Z</time>
      </trkpt>
      <trkpt lat="47.36608" lon="-2.35292">
        <ele>-9</ele>
        <time>2020-12-17T09:29:55.000Z</time>
      </trkpt>
      <trkpt lat="47.36604" lon="-2.35298">
        <ele>-9</ele>
        <time>2020-12-17T09:29:56.000Z</time>
      </trkpt>
      <trkpt lat="47.36584" lon="-2.35333">
        <ele>-9</ele>
        <time>2020-12-17T09:30:02.000Z</time>
      </trkpt>
      <trkpt lat="47.36555" lon="-2.35385">
        <ele>-9</ele>
        <time>2020-12-17T09:30:10.000Z</time>
      </trkpt>
      <trkpt lat="47.36531" lon="-2.35425">
        <ele>-9</ele>
        <time>2020-12-17T09:30:16.000Z</time>
      </trkpt>
      <trkpt lat="47.36506" lon="-2.35466">
        <ele>-9</ele>
        <time>2020-12-17T09:30:22.000Z</time>
      </trkpt>
      <trkpt lat="47.36482" lon="-2.35505">
        <ele>-9</ele>
        <time>2020-12-17T09:30:28.000Z</time>
      </trkpt>
      <trkpt lat="47.3648" lon="-2.35511">
        <ele>-9</ele>
        <time>2020-12-17T09:30:29.000Z</time>
      </trkpt>
      <trkpt lat="47.36483" lon="-2.35534">
        <ele>-9</ele>
        <time>2020-12-17T09:30:32.000Z</time>
      </trkpt>
      <trkpt lat="47.36486" lon="-2.35542">
        <ele>-9</ele>
        <time>2020-12-17T09:30:33.000Z</time>
      </trkpt>
      <trkpt lat="47.36504" lon="-2.35595">
        <ele>-9</ele>
        <time>2020-12-17T09:30:39.000Z</time>
      </trkpt>
      <trkpt lat="47.36528" lon="-2.35668">
        <ele>-9</ele>
        <time>2020-12-17T09:30:47.000Z</time>
      </trkpt>
      <trkpt lat="47.36531" lon="-2.35677">
        <ele>-9</ele>
        <time>2020-12-17T09:30:48.000Z</time>
      </trkpt>
      <trkpt lat="47.36559" lon="-2.35755">
        <ele>-9</ele>
        <time>2020-12-17T09:30:57.000Z</time>
      </trkpt>
      <trkpt lat="47.36571" lon="-2.35787">
        <ele>-9</ele>
        <time>2020-12-17T09:31:01.000Z</time>
      </trkpt>
      <trkpt lat="47.36575" lon="-2.35805">
        <ele>-9</ele>
        <time>2020-12-17T09:31:03.000Z</time>
      </trkpt>
      <trkpt lat="47.36586" lon="-2.35856">
        <ele>-9</ele>
        <time>2020-12-17T09:31:09.000Z</time>
      </trkpt>
      <trkpt lat="47.36588" lon="-2.35873">
        <ele>-9</ele>
        <time>2020-12-17T09:31:11.000Z</time>
      </trkpt>
      <trkpt lat="47.36586" lon="-2.35889">
        <ele>-9</ele>
        <time>2020-12-17T09:31:13.000Z</time>
      </trkpt>
      <trkpt lat="47.36575" lon="-2.35907">
        <ele>-9</ele>
        <time>2020-12-17T09:31:16.000Z</time>
      </trkpt>
      <trkpt lat="47.36571" lon="-2.35913">
        <ele>-9</ele>
        <time>2020-12-17T09:31:17.000Z</time>
      </trkpt>
      <trkpt lat="47.36566" lon="-2.35919">
        <ele>-8.6000003814697</ele>
        <time>2020-12-17T09:31:18.000Z</time>
      </trkpt>
      <trkpt lat="47.36562" lon="-2.35925">
        <ele>-8.1999998092651</ele>
        <time>2020-12-17T09:31:19.000Z</time>
      </trkpt>
      <trkpt lat="47.36557" lon="-2.35931">
        <ele>-7.8000001907349</ele>
        <time>2020-12-17T09:31:20.000Z</time>
      </trkpt>
      <trkpt lat="47.36552" lon="-2.35937">
        <ele>-7.4000000953674</ele>
        <time>2020-12-17T09:31:21.000Z</time>
      </trkpt>
      <trkpt lat="47.36548" lon="-2.35943">
        <ele>-7</ele>
        <time>2020-12-17T09:31:22.000Z</time>
      </trkpt>
      <trkpt lat="47.36538" lon="-2.35954">
        <ele>-7</ele>
        <time>2020-12-17T09:31:24.000Z</time>
      </trkpt>
      <trkpt lat="47.3651" lon="-2.35989">
        <ele>-7</ele>
        <time>2020-12-17T09:31:30.000Z</time>
      </trkpt>
      <trkpt lat="47.36505" lon="-2.35995">
        <ele>-7</ele>
        <time>2020-12-17T09:31:31.000Z</time>
      </trkpt>
      <trkpt lat="47.365" lon="-2.36">
        <ele>-6.5999999046326</ele>
        <time>2020-12-17T09:31:32.000Z</time>
      </trkpt>
      <trkpt lat="47.36495" lon="-2.36005">
        <ele>-6.1999998092651</ele>
        <time>2020-12-17T09:31:33.000Z</time>
      </trkpt>
      <trkpt lat="47.3649" lon="-2.3601">
        <ele>-5.8000001907349</ele>
        <time>2020-12-17T09:31:34.000Z</time>
      </trkpt>
      <trkpt lat="47.36486" lon="-2.36015">
        <ele>-5.4000000953674</ele>
        <time>2020-12-17T09:31:35.000Z</time>
      </trkpt>
      <trkpt lat="47.36481" lon="-2.3602">
        <ele>-5</ele>
        <time>2020-12-17T09:31:36.000Z</time>
      </trkpt>
      <trkpt lat="47.3647" lon="-2.36036">
        <ele>-5</ele>
        <time>2020-12-17T09:31:39.000Z</time>
      </trkpt>
      <trkpt lat="47.36467" lon="-2.36042">
        <ele>-5</ele>
        <time>2020-12-17T09:31:40.000Z</time>
      </trkpt>
      <trkpt lat="47.36457" lon="-2.36061">
        <ele>-4.5999999046326</ele>
        <time>2020-12-17T09:31:43.000Z</time>
      </trkpt>
      <trkpt lat="47.36454" lon="-2.36067">
        <ele>-4.1999998092651</ele>
        <time>2020-12-17T09:31:44.000Z</time>
      </trkpt>
      <trkpt lat="47.36452" lon="-2.36073">
        <ele>-3.7999999523163</ele>
        <time>2020-12-17T09:31:45.000Z</time>
      </trkpt>
      <trkpt lat="47.36449" lon="-2.36078">
        <ele>-3.4000000953674</ele>
        <time>2020-12-17T09:31:46.000Z</time>
      </trkpt>
      <trkpt lat="47.36446" lon="-2.36084">
        <ele>-3</ele>
        <time>2020-12-17T09:31:47.000Z</time>
      </trkpt>
      <trkpt lat="47.36444" lon="-2.3609">
        <ele>-3</ele>
        <time>2020-12-17T09:31:48.000Z</time>
      </trkpt>
      <trkpt lat="47.36442" lon="-2.3611">
        <ele>-2.5999999046326</ele>
        <time>2020-12-17T09:31:51.000Z</time>
      </trkpt>
      <trkpt lat="47.36444" lon="-2.36116">
        <ele>-1.7999999523163</ele>
        <time>2020-12-17T09:31:52.000Z</time>
      </trkpt>
      <trkpt lat="47.36445" lon="-2.36123">
        <ele>-1.2000000476837</ele>
        <time>2020-12-17T09:31:53.000Z</time>
      </trkpt>
      <trkpt lat="47.36447" lon="-2.3613">
        <ele>-0.80000001192093</ele>
        <time>2020-12-17T09:31:54.000Z</time>
      </trkpt>
      <trkpt lat="47.36449" lon="-2.36136">
        <ele>-0.80000001192093</ele>
        <time>2020-12-17T09:31:55.000Z</time>
      </trkpt>
      <trkpt lat="47.36451" lon="-2.36143">
        <ele>-0.80000001192093</ele>
        <time>2020-12-17T09:31:56.000Z</time>
      </trkpt>
      <trkpt lat="47.36467" lon="-2.36197">
        <ele>-0.80000001192093</ele>
        <time>2020-12-17T09:32:04.000Z</time>
      </trkpt>
      <trkpt lat="47.36472" lon="-2.36216">
        <ele>-0.80000001192093</ele>
        <time>2020-12-17T09:32:08.000Z</time>
      </trkpt>
      <trkpt lat="47.36473" lon="-2.36221">
        <ele>-0.80000001192093</ele>
        <time>2020-12-17T09:32:09.000Z</time>
      </trkpt>
      <trkpt lat="47.3648" lon="-2.36241">
        <ele>-0.80000001192093</ele>
        <time>2020-12-17T09:32:12.000Z</time>
      </trkpt>
      <trkpt lat="47.36495" lon="-2.36289">
        <ele>-0.80000001192093</ele>
        <time>2020-12-17T09:32:18.000Z</time>
      </trkpt>
      <trkpt lat="47.36519" lon="-2.36354">
        <ele>-0.80000001192093</ele>
        <time>2020-12-17T09:32:25.000Z</time>
      </trkpt>
      <trkpt lat="47.36522" lon="-2.36364">
        <ele>-1.3999999761581</ele>
        <time>2020-12-17T09:32:26.000Z</time>
      </trkpt>
      <trkpt lat="47.36525" lon="-2.36374">
        <ele>-1.7999999523163</ele>
        <time>2020-12-17T09:32:27.000Z</time>
      </trkpt>
      <trkpt lat="47.36527" lon="-2.36385">
        <ele>-2.2000000476837</ele>
        <time>2020-12-17T09:32:28.000Z</time>
      </trkpt>
      <trkpt lat="47.3653" lon="-2.36395">
        <ele>-2.5999999046326</ele>
        <time>2020-12-17T09:32:29.000Z</time>
      </trkpt>
      <trkpt lat="47.36533" lon="-2.36406">
        <ele>-3</ele>
        <time>2020-12-17T09:32:30.000Z</time>
      </trkpt>
      <trkpt lat="47.36539" lon="-2.36425">
        <ele>-3</ele>
        <time>2020-12-17T09:32:32.000Z</time>
      </trkpt>
      <trkpt lat="47.36556" lon="-2.36472">
        <ele>-3</ele>
        <time>2020-12-17T09:32:38.000Z</time>
      </trkpt>
      <trkpt lat="47.36571" lon="-2.36515">
        <ele>-3</ele>
        <time>2020-12-17T09:32:44.000Z</time>
      </trkpt>
      <trkpt lat="47.36575" lon="-2.36519">
        <ele>-3</ele>
        <time>2020-12-17T09:32:45.000Z</time>
      </trkpt>
      <trkpt lat="47.3659" lon="-2.3652">
        <ele>-3</ele>
        <time>2020-12-17T09:32:48.000Z</time>
      </trkpt>
      <trkpt lat="47.36604" lon="-2.36509">
        <ele>-3</ele>
        <time>2020-12-17T09:32:50.000Z</time>
      </trkpt>
      <trkpt lat="47.36618" lon="-2.36498">
        <ele>-3</ele>
        <time>2020-12-17T09:32:52.000Z</time>
      </trkpt>
      <trkpt lat="47.3666" lon="-2.36469">
        <ele>-3</ele>
        <time>2020-12-17T09:32:58.000Z</time>
      </trkpt>
      <trkpt lat="47.36667" lon="-2.36464">
        <ele>-3.4000000953674</ele>
        <time>2020-12-17T09:32:59.000Z</time>
      </trkpt>
      <trkpt lat="47.36674" lon="-2.3646">
        <ele>-3.7999999523163</ele>
        <time>2020-12-17T09:33:00.000Z</time>
      </trkpt>
      <trkpt lat="47.36682" lon="-2.36454">
        <ele>-4.1999998092651</ele>
        <time>2020-12-17T09:33:01.000Z</time>
      </trkpt>
      <trkpt lat="47.36689" lon="-2.36449">
        <ele>-4.5999999046326</ele>
        <time>2020-12-17T09:33:02.000Z</time>
      </trkpt>
      <trkpt lat="47.36697" lon="-2.36442">
        <ele>-5</ele>
        <time>2020-12-17T09:33:03.000Z</time>
      </trkpt>
      <trkpt lat="47.3671" lon="-2.36428">
        <ele>-5</ele>
        <time>2020-12-17T09:33:05.000Z</time>
      </trkpt>
      <trkpt lat="47.36738" lon="-2.3639">
        <ele>-5.4000000953674</ele>
        <time>2020-12-17T09:33:10.000Z</time>
      </trkpt>
      <trkpt lat="47.36744" lon="-2.36383">
        <ele>-5.8000001907349</ele>
        <time>2020-12-17T09:33:11.000Z</time>
      </trkpt>
      <trkpt lat="47.3675" lon="-2.36378">
        <ele>-6.1999998092651</ele>
        <time>2020-12-17T09:33:12.000Z</time>
      </trkpt>
      <trkpt lat="47.36756" lon="-2.36374">
        <ele>-6.5999999046326</ele>
        <time>2020-12-17T09:33:13.000Z</time>
      </trkpt>
      <trkpt lat="47.36763" lon="-2.36372">
        <ele>-7</ele>
        <time>2020-12-17T09:33:14.000Z</time>
      </trkpt>
      <trkpt lat="47.36777" lon="-2.36371">
        <ele>-7</ele>
        <time>2020-12-17T09:33:16.000Z</time>
      </trkpt>
      <trkpt lat="47.36799" lon="-2.3637">
        <ele>-7</ele>
        <time>2020-12-17T09:33:19.000Z</time>
      </trkpt>
      <trkpt lat="47.36834" lon="-2.36368">
        <ele>-7</ele>
        <time>2020-12-17T09:33:24.000Z</time>
      </trkpt>
      <trkpt lat="47.36848" lon="-2.36368">
        <ele>-7</ele>
        <time>2020-12-17T09:33:26.000Z</time>
      </trkpt>
      <trkpt lat="47.36854" lon="-2.36367">
        <ele>-7</ele>
        <time>2020-12-17T09:33:27.000Z</time>
      </trkpt>
      <trkpt lat="47.36873" lon="-2.36369">
        <ele>-7</ele>
        <time>2020-12-17T09:33:30.000Z</time>
      </trkpt>
      <trkpt lat="47.36879" lon="-2.36369">
        <ele>-8</ele>
        <time>2020-12-17T09:33:31.000Z</time>
      </trkpt>
      <trkpt lat="47.36885" lon="-2.36368">
        <ele>-8.3999996185303</ele>
        <time>2020-12-17T09:33:32.000Z</time>
      </trkpt>
      <trkpt lat="47.36892" lon="-2.36369">
        <ele>-8.8000001907349</ele>
        <time>2020-12-17T09:33:33.000Z</time>
      </trkpt>
      <trkpt lat="47.36898" lon="-2.36369">
        <ele>-9.1999998092651</ele>
        <time>2020-12-17T09:33:34.000Z</time>
      </trkpt>
      <trkpt lat="47.36904" lon="-2.36369">
        <ele>-9.1999998092651</ele>
        <time>2020-12-17T09:33:35.000Z</time>
      </trkpt>
      <trkpt lat="47.36916" lon="-2.36368">
        <ele>-9.1999998092651</ele>
        <time>2020-12-17T09:33:37.000Z</time>
      </trkpt>
      <trkpt lat="47.36959" lon="-2.36368">
        <ele>-9.1999998092651</ele>
        <time>2020-12-17T09:33:44.000Z</time>
      </trkpt>
      <trkpt lat="47.36995" lon="-2.36368">
        <ele>-9.1999998092651</ele>
        <time>2020-12-17T09:33:50.000Z</time>
      </trkpt>
      <trkpt lat="47.37024" lon="-2.36367">
        <ele>-9.1999998092651</ele>
        <time>2020-12-17T09:33:55.000Z</time>
      </trkpt>
      <trkpt lat="47.37042" lon="-2.36368">
        <ele>-9.1999998092651</ele>
        <time>2020-12-17T09:33:58.000Z</time>
      </trkpt>
      <trkpt lat="47.37054" lon="-2.36368">
        <ele>-9.1999998092651</ele>
        <time>2020-12-17T09:34:00.000Z</time>
      </trkpt>
      <trkpt lat="47.37066" lon="-2.36365">
        <ele>-9.1999998092651</ele>
        <time>2020-12-17T09:34:02.000Z</time>
      </trkpt>
      <trkpt lat="47.37077" lon="-2.36356">
        <ele>-9.1999998092651</ele>
        <time>2020-12-17T09:34:04.000Z</time>
      </trkpt>
      <trkpt lat="47.37086" lon="-2.36343">
        <ele>-9.1999998092651</ele>
        <time>2020-12-17T09:34:06.000Z</time>
      </trkpt>
      <trkpt lat="47.37094" lon="-2.36328">
        <ele>-9.1999998092651</ele>
        <time>2020-12-17T09:34:08.000Z</time>
      </trkpt>
      <trkpt lat="47.37118" lon="-2.36277">
        <ele>-9.1999998092651</ele>
        <time>2020-12-17T09:34:14.000Z</time>
      </trkpt>
      <trkpt lat="47.3715" lon="-2.36211">
        <ele>-9.1999998092651</ele>
        <time>2020-12-17T09:34:21.000Z</time>
      </trkpt>
      <trkpt lat="47.37172" lon="-2.36162">
        <ele>-9.6000003814697</ele>
        <time>2020-12-17T09:34:26.000Z</time>
      </trkpt>
      <trkpt lat="47.37177" lon="-2.36152">
        <ele>-10.199999809265</ele>
        <time>2020-12-17T09:34:27.000Z</time>
      </trkpt>
      <trkpt lat="47.37181" lon="-2.36143">
        <ele>-10.60000038147</ele>
        <time>2020-12-17T09:34:28.000Z</time>
      </trkpt>
      <trkpt lat="47.37185" lon="-2.36133">
        <ele>-11</ele>
        <time>2020-12-17T09:34:29.000Z</time>
      </trkpt>
      <trkpt lat="47.3719" lon="-2.36124">
        <ele>-11.39999961853</ele>
        <time>2020-12-17T09:34:30.000Z</time>
      </trkpt>
      <trkpt lat="47.37202" lon="-2.36101">
        <ele>-11.39999961853</ele>
        <time>2020-12-17T09:34:33.000Z</time>
      </trkpt>
      <trkpt lat="47.37209" lon="-2.36089">
        <ele>-11.39999961853</ele>
        <time>2020-12-17T09:34:36.000Z</time>
      </trkpt>
      <trkpt lat="47.37212" lon="-2.36087">
        <ele>-11.39999961853</ele>
        <time>2020-12-17T09:34:38.000Z</time>
      </trkpt>
      <trkpt lat="47.37216" lon="-2.36089">
        <ele>-11.800000190735</ele>
        <time>2020-12-17T09:34:40.000Z</time>
      </trkpt>
      <trkpt lat="47.37217" lon="-2.3609">
        <ele>-12.199999809265</ele>
        <time>2020-12-17T09:34:41.000Z</time>
      </trkpt>
      <trkpt lat="47.37219" lon="-2.36092">
        <ele>-12.60000038147</ele>
        <time>2020-12-17T09:34:42.000Z</time>
      </trkpt>
      <trkpt lat="47.37221" lon="-2.36093">
        <ele>-13</ele>
        <time>2020-12-17T09:34:43.000Z</time>
      </trkpt>
      <trkpt lat="47.37223" lon="-2.36093">
        <ele>-13.60000038147</ele>
        <time>2020-12-17T09:34:44.000Z</time>
      </trkpt>
      <trkpt lat="47.37224" lon="-2.36094">
        <ele>-13.60000038147</ele>
        <time>2020-12-17T09:34:45.000Z</time>
      </trkpt>
      <trkpt lat="47.3723" lon="-2.36095">
        <ele>-13.60000038147</ele>
        <time>2020-12-17T09:34:50.000Z</time>
      </trkpt>
      <trkpt lat="47.3723" lon="-2.36095">
        <ele>-13.60000038147</ele>
        <time>2020-12-17T09:34:51.000Z</time>
      </trkpt>
      <trkpt lat="47.37222" lon="-2.36096">
        <ele>-13.60000038147</ele>
        <time>2020-12-17T09:45:22.000Z</time>
      </trkpt>
      <trkpt lat="47.37219" lon="-2.36096">
        <ele>-13.60000038147</ele>
        <time>2020-12-17T09:45:24.000Z</time>
      </trkpt>
      <trkpt lat="47.37215" lon="-2.36094">
        <ele>-13.60000038147</ele>
        <time>2020-12-17T09:45:26.000Z</time>
      </trkpt>
      <trkpt lat="47.3721" lon="-2.36093">
        <ele>-13.60000038147</ele>
        <time>2020-12-17T09:45:28.000Z</time>
      </trkpt>
      <trkpt lat="47.37204" lon="-2.36098">
        <ele>-13.60000038147</ele>
        <time>2020-12-17T09:45:32.000Z</time>
      </trkpt>
      <trkpt lat="47.37197" lon="-2.36109">
        <ele>-13.60000038147</ele>
        <time>2020-12-17T09:45:35.000Z</time>
      </trkpt>
      <trkpt lat="47.37193" lon="-2.36118">
        <ele>-13.60000038147</ele>
        <time>2020-12-17T09:45:37.000Z</time>
      </trkpt>
      <trkpt lat="47.37184" lon="-2.36138">
        <ele>-13.60000038147</ele>
        <time>2020-12-17T09:45:41.000Z</time>
      </trkpt>
      <trkpt lat="47.3718" lon="-2.36147">
        <ele>-13.60000038147</ele>
        <time>2020-12-17T09:45:43.000Z</time>
      </trkpt>
      <trkpt lat="47.37165" lon="-2.36178">
        <ele>-13.60000038147</ele>
        <time>2020-12-17T09:45:49.000Z</time>
      </trkpt>
      <trkpt lat="47.37149" lon="-2.3621">
        <ele>-13</ele>
        <time>2020-12-17T09:45:56.000Z</time>
      </trkpt>
      <trkpt lat="47.37147" lon="-2.36214">
        <ele>-12.60000038147</ele>
        <time>2020-12-17T09:45:57.000Z</time>
      </trkpt>
      <trkpt lat="47.37145" lon="-2.36219">
        <ele>-12.199999809265</ele>
        <time>2020-12-17T09:45:58.000Z</time>
      </trkpt>
      <trkpt lat="47.37142" lon="-2.36224">
        <ele>-11.800000190735</ele>
        <time>2020-12-17T09:45:59.000Z</time>
      </trkpt>
      <trkpt lat="47.37139" lon="-2.36229">
        <ele>-11.39999961853</ele>
        <time>2020-12-17T09:46:00.000Z</time>
      </trkpt>
      <trkpt lat="47.37132" lon="-2.36243">
        <ele>-11.39999961853</ele>
        <time>2020-12-17T09:46:03.000Z</time>
      </trkpt>
      <trkpt lat="47.37107" lon="-2.36293">
        <ele>-11.39999961853</ele>
        <time>2020-12-17T09:46:13.000Z</time>
      </trkpt>
      <trkpt lat="47.37086" lon="-2.36339">
        <ele>-11.39999961853</ele>
        <time>2020-12-17T09:46:21.000Z</time>
      </trkpt>
      <trkpt lat="47.37083" lon="-2.36345">
        <ele>-11</ele>
        <time>2020-12-17T09:46:22.000Z</time>
      </trkpt>
      <trkpt lat="47.3708" lon="-2.36351">
        <ele>-10.60000038147</ele>
        <time>2020-12-17T09:46:23.000Z</time>
      </trkpt>
      <trkpt lat="47.37077" lon="-2.36356">
        <ele>-10.199999809265</ele>
        <time>2020-12-17T09:46:24.000Z</time>
      </trkpt>
      <trkpt lat="47.37073" lon="-2.3636">
        <ele>-9.8000001907349</ele>
        <time>2020-12-17T09:46:25.000Z</time>
      </trkpt>
      <trkpt lat="47.37068" lon="-2.36363">
        <ele>-9.3999996185303</ele>
        <time>2020-12-17T09:46:26.000Z</time>
      </trkpt>
      <trkpt lat="47.37064" lon="-2.36365">
        <ele>-9.3999996185303</ele>
        <time>2020-12-17T09:46:27.000Z</time>
      </trkpt>
      <trkpt lat="47.37049" lon="-2.36368">
        <ele>-9.3999996185303</ele>
        <time>2020-12-17T09:46:30.000Z</time>
      </trkpt>
      <trkpt lat="47.37039" lon="-2.36368">
        <ele>-9.3999996185303</ele>
        <time>2020-12-17T09:46:32.000Z</time>
      </trkpt>
      <trkpt lat="47.37034" lon="-2.36368">
        <ele>-9.3999996185303</ele>
        <time>2020-12-17T09:46:33.000Z</time>
      </trkpt>
      <trkpt lat="47.37023" lon="-2.36369">
        <ele>-9.3999996185303</ele>
        <time>2020-12-17T09:46:35.000Z</time>
      </trkpt>
      <trkpt lat="47.37012" lon="-2.36368">
        <ele>-9.3999996185303</ele>
        <time>2020-12-17T09:46:37.000Z</time>
      </trkpt>
      <trkpt lat="47.36996" lon="-2.36369">
        <ele>-9.3999996185303</ele>
        <time>2020-12-17T09:46:40.000Z</time>
      </trkpt>
      <trkpt lat="47.36987" lon="-2.36368">
        <ele>-9.3999996185303</ele>
        <time>2020-12-17T09:46:42.000Z</time>
      </trkpt>
      <trkpt lat="47.3697" lon="-2.36369">
        <ele>-9.3999996185303</ele>
        <time>2020-12-17T09:46:46.000Z</time>
      </trkpt>
      <trkpt lat="47.36961" lon="-2.36369">
        <ele>-9.3999996185303</ele>
        <time>2020-12-17T09:46:48.000Z</time>
      </trkpt>
      <trkpt lat="47.3693" lon="-2.36368">
        <ele>-9.3999996185303</ele>
        <time>2020-12-17T09:46:55.000Z</time>
      </trkpt>
      <trkpt lat="47.36899" lon="-2.36369">
        <ele>-9.3999996185303</ele>
        <time>2020-12-17T09:47:02.000Z</time>
      </trkpt>
      <trkpt lat="47.36876" lon="-2.3637">
        <ele>-9.3999996185303</ele>
        <time>2020-12-17T09:47:07.000Z</time>
      </trkpt>
      <trkpt lat="47.36871" lon="-2.3637">
        <ele>-9.3999996185303</ele>
        <time>2020-12-17T09:47:08.000Z</time>
      </trkpt>
      <trkpt lat="47.36852" lon="-2.36369">
        <ele>-9.3999996185303</ele>
        <time>2020-12-17T09:47:12.000Z</time>
      </trkpt>
      <trkpt lat="47.36843" lon="-2.3637">
        <ele>-9.3999996185303</ele>
        <time>2020-12-17T09:47:14.000Z</time>
      </trkpt>
      <trkpt lat="47.36812" lon="-2.3637">
        <ele>-9.3999996185303</ele>
        <time>2020-12-17T09:47:21.000Z</time>
      </trkpt>
      <trkpt lat="47.36778" lon="-2.36372">
        <ele>-9.3999996185303</ele>
        <time>2020-12-17T09:47:29.000Z</time>
      </trkpt>
      <trkpt lat="47.36756" lon="-2.36375">
        <ele>-9.3999996185303</ele>
        <time>2020-12-17T09:47:35.000Z</time>
      </trkpt>
      <trkpt lat="47.36737" lon="-2.36392">
        <ele>-9.3999996185303</ele>
        <time>2020-12-17T09:47:41.000Z</time>
      </trkpt>
      <trkpt lat="47.36712" lon="-2.36427">
        <ele>-9.3999996185303</ele>
        <time>2020-12-17T09:47:49.000Z</time>
      </trkpt>
      <trkpt lat="47.36685" lon="-2.36454">
        <ele>-9.3999996185303</ele>
        <time>2020-12-17T09:47:56.000Z</time>
      </trkpt>
      <trkpt lat="47.36677" lon="-2.3646">
        <ele>-9</ele>
        <time>2020-12-17T09:47:58.000Z</time>
      </trkpt>
      <trkpt lat="47.36672" lon="-2.36463">
        <ele>-8.6000003814697</ele>
        <time>2020-12-17T09:47:59.000Z</time>
      </trkpt>
      <trkpt lat="47.36668" lon="-2.36465">
        <ele>-8.1999998092651</ele>
        <time>2020-12-17T09:48:00.000Z</time>
      </trkpt>
      <trkpt lat="47.36664" lon="-2.36468">
        <ele>-7.8000001907349</ele>
        <time>2020-12-17T09:48:01.000Z</time>
      </trkpt>
      <trkpt lat="47.3666" lon="-2.3647">
        <ele>-7.1999998092651</ele>
        <time>2020-12-17T09:48:02.000Z</time>
      </trkpt>
      <trkpt lat="47.36656" lon="-2.36473">
        <ele>-7.1999998092651</ele>
        <time>2020-12-17T09:48:03.000Z</time>
      </trkpt>
      <trkpt lat="47.36629" lon="-2.3649">
        <ele>-7.1999998092651</ele>
        <time>2020-12-17T09:48:10.000Z</time>
      </trkpt>
      <trkpt lat="47.36617" lon="-2.36497">
        <ele>-6.8000001907349</ele>
        <time>2020-12-17T09:48:13.000Z</time>
      </trkpt>
      <trkpt lat="47.36613" lon="-2.36499">
        <ele>-6.4000000953674</ele>
        <time>2020-12-17T09:48:14.000Z</time>
      </trkpt>
      <trkpt lat="47.36609" lon="-2.36501">
        <ele>-6</ele>
        <time>2020-12-17T09:48:15.000Z</time>
      </trkpt>
      <trkpt lat="47.36605" lon="-2.36503">
        <ele>-5.5999999046326</ele>
        <time>2020-12-17T09:48:16.000Z</time>
      </trkpt>
      <trkpt lat="47.36601" lon="-2.36505">
        <ele>-5.1999998092651</ele>
        <time>2020-12-17T09:48:17.000Z</time>
      </trkpt>
      <trkpt lat="47.36598" lon="-2.36508">
        <ele>-5.1999998092651</ele>
        <time>2020-12-17T09:48:18.000Z</time>
      </trkpt>
      <trkpt lat="47.36576" lon="-2.36523">
        <ele>-5.1999998092651</ele>
        <time>2020-12-17T09:48:25.000Z</time>
      </trkpt>
      <trkpt lat="47.36563" lon="-2.36531">
        <ele>-4.5999999046326</ele>
        <time>2020-12-17T09:48:31.000Z</time>
      </trkpt>
      <trkpt lat="47.3656" lon="-2.36532">
        <ele>-4.1999998092651</ele>
        <time>2020-12-17T09:48:32.000Z</time>
      </trkpt>
      <trkpt lat="47.36558" lon="-2.36533">
        <ele>-3.7999999523163</ele>
        <time>2020-12-17T09:48:33.000Z</time>
      </trkpt>
      <trkpt lat="47.36555" lon="-2.36535">
        <ele>-3.4000000953674</ele>
        <time>2020-12-17T09:48:34.000Z</time>
      </trkpt>
      <trkpt lat="47.36553" lon="-2.36537">
        <ele>-3</ele>
        <time>2020-12-17T09:48:35.000Z</time>
      </trkpt>
      <trkpt lat="47.36544" lon="-2.36541">
        <ele>-3</ele>
        <time>2020-12-17T09:48:38.000Z</time>
      </trkpt>
      <trkpt lat="47.36521" lon="-2.36555">
        <ele>-3</ele>
        <time>2020-12-17T09:48:45.000Z</time>
      </trkpt>
      <trkpt lat="47.36497" lon="-2.36568">
        <ele>-3</ele>
        <time>2020-12-17T09:48:52.000Z</time>
      </trkpt>
      <trkpt lat="47.36478" lon="-2.36582">
        <ele>-3</ele>
        <time>2020-12-17T09:48:58.000Z</time>
      </trkpt>
      <trkpt lat="47.36464" lon="-2.36606">
        <ele>-3</ele>
        <time>2020-12-17T09:49:04.000Z</time>
      </trkpt>
      <trkpt lat="47.36448" lon="-2.36647">
        <ele>-3</ele>
        <time>2020-12-17T09:49:11.000Z</time>
      </trkpt>
      <trkpt lat="47.36432" lon="-2.36694">
        <ele>-3</ele>
        <time>2020-12-17T09:49:18.000Z</time>
      </trkpt>
      <trkpt lat="47.36412" lon="-2.3675">
        <ele>-3</ele>
        <time>2020-12-17T09:49:27.000Z</time>
      </trkpt>
      <trkpt lat="47.36393" lon="-2.36798">
        <ele>-3</ele>
        <time>2020-12-17T09:49:35.000Z</time>
      </trkpt>
      <trkpt lat="47.36389" lon="-2.36811">
        <ele>-3.4000000953674</ele>
        <time>2020-12-17T09:49:37.000Z</time>
      </trkpt>
      <trkpt lat="47.36387" lon="-2.36817">
        <ele>-3.7999999523163</ele>
        <time>2020-12-17T09:49:38.000Z</time>
      </trkpt>
      <trkpt lat="47.36385" lon="-2.36824">
        <ele>-4.1999998092651</ele>
        <time>2020-12-17T09:49:39.000Z</time>
      </trkpt>
      <trkpt lat="47.36383" lon="-2.36831">
        <ele>-4.5999999046326</ele>
        <time>2020-12-17T09:49:40.000Z</time>
      </trkpt>
      <trkpt lat="47.36381" lon="-2.36839">
        <ele>-5</ele>
        <time>2020-12-17T09:49:41.000Z</time>
      </trkpt>
      <trkpt lat="47.36364" lon="-2.36888">
        <ele>-5</ele>
        <time>2020-12-17T09:49:48.000Z</time>
      </trkpt>
      <trkpt lat="47.36341" lon="-2.36933">
        <ele>-5</ele>
        <time>2020-12-17T09:49:55.000Z</time>
      </trkpt>
      <trkpt lat="47.36324" lon="-2.36954">
        <ele>-5</ele>
        <time>2020-12-17T09:49:59.000Z</time>
      </trkpt>
      <trkpt lat="47.36314" lon="-2.36961">
        <ele>-5</ele>
        <time>2020-12-17T09:50:01.000Z</time>
      </trkpt>
      <trkpt lat="47.36272" lon="-2.36989">
        <ele>-5</ele>
        <time>2020-12-17T09:50:08.000Z</time>
      </trkpt>
      <trkpt lat="47.36237" lon="-2.37009">
        <ele>-5.4000000953674</ele>
        <time>2020-12-17T09:50:13.000Z</time>
      </trkpt>
      <trkpt lat="47.3623" lon="-2.37013">
        <ele>-5.8000001907349</ele>
        <time>2020-12-17T09:50:14.000Z</time>
      </trkpt>
      <trkpt lat="47.36223" lon="-2.37018">
        <ele>-6.1999998092651</ele>
        <time>2020-12-17T09:50:15.000Z</time>
      </trkpt>
      <trkpt lat="47.36215" lon="-2.37022">
        <ele>-6.5999999046326</ele>
        <time>2020-12-17T09:50:16.000Z</time>
      </trkpt>
      <trkpt lat="47.36208" lon="-2.37026">
        <ele>-7</ele>
        <time>2020-12-17T09:50:17.000Z</time>
      </trkpt>
      <trkpt lat="47.36177" lon="-2.37043">
        <ele>-7.4000000953674</ele>
        <time>2020-12-17T09:50:21.000Z</time>
      </trkpt>
      <trkpt lat="47.36169" lon="-2.37047">
        <ele>-8</ele>
        <time>2020-12-17T09:50:22.000Z</time>
      </trkpt>
      <trkpt lat="47.36162" lon="-2.37052">
        <ele>-8.8000001907349</ele>
        <time>2020-12-17T09:50:23.000Z</time>
      </trkpt>
      <trkpt lat="47.36155" lon="-2.37056">
        <ele>-9.1999998092651</ele>
        <time>2020-12-17T09:50:24.000Z</time>
      </trkpt>
      <trkpt lat="47.36132" lon="-2.37077">
        <ele>-9.1999998092651</ele>
        <time>2020-12-17T09:50:28.000Z</time>
      </trkpt>
      <trkpt lat="47.36106" lon="-2.37112">
        <ele>-9.1999998092651</ele>
        <time>2020-12-17T09:50:34.000Z</time>
      </trkpt>
      <trkpt lat="47.36093" lon="-2.37143">
        <ele>-9.1999998092651</ele>
        <time>2020-12-17T09:50:39.000Z</time>
      </trkpt>
      <trkpt lat="47.36082" lon="-2.37177">
        <ele>-9.1999998092651</ele>
        <time>2020-12-17T09:50:44.000Z</time>
      </trkpt>
      <trkpt lat="47.36079" lon="-2.37193">
        <ele>-9.1999998092651</ele>
        <time>2020-12-17T09:50:46.000Z</time>
      </trkpt>
      <trkpt lat="47.36061" lon="-2.37264">
        <ele>-9.1999998092651</ele>
        <time>2020-12-17T09:50:54.000Z</time>
      </trkpt>
      <trkpt lat="47.36045" lon="-2.37339">
        <ele>-9.1999998092651</ele>
        <time>2020-12-17T09:51:03.000Z</time>
      </trkpt>
      <trkpt lat="47.36036" lon="-2.37383">
        <ele>-9.1999998092651</ele>
        <time>2020-12-17T09:51:09.000Z</time>
      </trkpt>
      <trkpt lat="47.36036" lon="-2.3739">
        <ele>-9.1999998092651</ele>
        <time>2020-12-17T09:51:10.000Z</time>
      </trkpt>
      <trkpt lat="47.36046" lon="-2.37406">
        <ele>-9.1999998092651</ele>
        <time>2020-12-17T09:51:13.000Z</time>
      </trkpt>
      <trkpt lat="47.36063" lon="-2.37411">
        <ele>-9.1999998092651</ele>
        <time>2020-12-17T09:51:16.000Z</time>
      </trkpt>
      <trkpt lat="47.36069" lon="-2.37412">
        <ele>-9.1999998092651</ele>
        <time>2020-12-17T09:51:17.000Z</time>
      </trkpt>
      <trkpt lat="47.36113" lon="-2.37425">
        <ele>-9.1999998092651</ele>
        <time>2020-12-17T09:51:24.000Z</time>
      </trkpt>
      <trkpt lat="47.36172" lon="-2.37446">
        <ele>-9.1999998092651</ele>
        <time>2020-12-17T09:51:33.000Z</time>
      </trkpt>
      <trkpt lat="47.36224" lon="-2.37469">
        <ele>-9.1999998092651</ele>
        <time>2020-12-17T09:51:41.000Z</time>
      </trkpt>
      <trkpt lat="47.36264" lon="-2.375">
        <ele>-9.6000003814697</ele>
        <time>2020-12-17T09:51:47.000Z</time>
      </trkpt>
      <trkpt lat="47.36271" lon="-2.37506">
        <ele>-10</ele>
        <time>2020-12-17T09:51:48.000Z</time>
      </trkpt>
      <trkpt lat="47.36278" lon="-2.37512">
        <ele>-10.39999961853</ele>
        <time>2020-12-17T09:51:49.000Z</time>
      </trkpt>
      <trkpt lat="47.36284" lon="-2.37518">
        <ele>-10.800000190735</ele>
        <time>2020-12-17T09:51:50.000Z</time>
      </trkpt>
      <trkpt lat="47.36291" lon="-2.37524">
        <ele>-11.199999809265</ele>
        <time>2020-12-17T09:51:51.000Z</time>
      </trkpt>
      <trkpt lat="47.36322" lon="-2.37554">
        <ele>-11.199999809265</ele>
        <time>2020-12-17T09:51:56.000Z</time>
      </trkpt>
      <trkpt lat="47.3636" lon="-2.37597">
        <ele>-11.199999809265</ele>
        <time>2020-12-17T09:52:03.000Z</time>
      </trkpt>
      <trkpt lat="47.36366" lon="-2.37601">
        <ele>-11.199999809265</ele>
        <time>2020-12-17T09:52:04.000Z</time>
      </trkpt>
      <trkpt lat="47.36384" lon="-2.37608">
        <ele>-11.199999809265</ele>
        <time>2020-12-17T09:52:07.000Z</time>
      </trkpt>
      <trkpt lat="47.3639" lon="-2.3761">
        <ele>-11.199999809265</ele>
        <time>2020-12-17T09:52:08.000Z</time>
      </trkpt>
      <trkpt lat="47.36426" lon="-2.37617">
        <ele>-11.199999809265</ele>
        <time>2020-12-17T09:52:14.000Z</time>
      </trkpt>
      <trkpt lat="47.36432" lon="-2.37619">
        <ele>-11.199999809265</ele>
        <time>2020-12-17T09:52:15.000Z</time>
      </trkpt>
      <trkpt lat="47.36447" lon="-2.37633">
        <ele>-11.199999809265</ele>
        <time>2020-12-17T09:52:18.000Z</time>
      </trkpt>
      <trkpt lat="47.36454" lon="-2.37646">
        <ele>-11.199999809265</ele>
        <time>2020-12-17T09:52:20.000Z</time>
      </trkpt>
      <trkpt lat="47.36465" lon="-2.37669">
        <ele>-10.800000190735</ele>
        <time>2020-12-17T09:52:23.000Z</time>
      </trkpt>
      <trkpt lat="47.36468" lon="-2.37676">
        <ele>-10.39999961853</ele>
        <time>2020-12-17T09:52:24.000Z</time>
      </trkpt>
      <trkpt lat="47.36472" lon="-2.37685">
        <ele>-10</ele>
        <time>2020-12-17T09:52:25.000Z</time>
      </trkpt>
      <trkpt lat="47.36475" lon="-2.37692">
        <ele>-9.1999998092651</ele>
        <time>2020-12-17T09:52:26.000Z</time>
      </trkpt>
      <trkpt lat="47.36495" lon="-2.37736">
        <ele>-9.1999998092651</ele>
        <time>2020-12-17T09:52:32.000Z</time>
      </trkpt>
      <trkpt lat="47.36499" lon="-2.37742">
        <ele>-9.1999998092651</ele>
        <time>2020-12-17T09:52:33.000Z</time>
      </trkpt>
      <trkpt lat="47.36513" lon="-2.37758">
        <ele>-9.1999998092651</ele>
        <time>2020-12-17T09:52:36.000Z</time>
      </trkpt>
      <trkpt lat="47.36538" lon="-2.37787">
        <ele>-9.1999998092651</ele>
        <time>2020-12-17T09:52:41.000Z</time>
      </trkpt>
      <trkpt lat="47.36542" lon="-2.37795">
        <ele>-9.1999998092651</ele>
        <time>2020-12-17T09:52:42.000Z</time>
      </trkpt>
      <trkpt lat="47.36557" lon="-2.37837">
        <ele>-9.1999998092651</ele>
        <time>2020-12-17T09:52:47.000Z</time>
      </trkpt>
      <trkpt lat="47.36571" lon="-2.37901">
        <ele>-9.1999998092651</ele>
        <time>2020-12-17T09:52:54.000Z</time>
      </trkpt>
      <trkpt lat="47.36583" lon="-2.37945">
        <ele>-9.1999998092651</ele>
        <time>2020-12-17T09:52:59.000Z</time>
      </trkpt>
      <trkpt lat="47.3659" lon="-2.37962">
        <ele>-9.1999998092651</ele>
        <time>2020-12-17T09:53:01.000Z</time>
      </trkpt>
      <trkpt lat="47.36607" lon="-2.38007">
        <ele>-9.1999998092651</ele>
        <time>2020-12-17T09:53:06.000Z</time>
      </trkpt>
      <trkpt lat="47.36609" lon="-2.38025">
        <ele>-9.1999998092651</ele>
        <time>2020-12-17T09:53:08.000Z</time>
      </trkpt>
      <trkpt lat="47.36609" lon="-2.38043">
        <ele>-9.1999998092651</ele>
        <time>2020-12-17T09:53:10.000Z</time>
      </trkpt>
      <trkpt lat="47.3661" lon="-2.38067">
        <ele>-9.1999998092651</ele>
        <time>2020-12-17T09:53:13.000Z</time>
      </trkpt>
      <trkpt lat="47.36612" lon="-2.38088">
        <ele>-9.1999998092651</ele>
        <time>2020-12-17T09:53:16.000Z</time>
      </trkpt>
      <trkpt lat="47.36613" lon="-2.3811">
        <ele>-9.1999998092651</ele>
        <time>2020-12-17T09:53:19.000Z</time>
      </trkpt>
      <trkpt lat="47.36605" lon="-2.38126">
        <ele>-9.1999998092651</ele>
        <time>2020-12-17T09:53:22.000Z</time>
      </trkpt>
      <trkpt lat="47.36602" lon="-2.3813">
        <ele>-9.1999998092651</ele>
        <time>2020-12-17T09:53:23.000Z</time>
      </trkpt>
      <trkpt lat="47.36586" lon="-2.38155">
        <ele>-9.1999998092651</ele>
        <time>2020-12-17T09:53:29.000Z</time>
      </trkpt>
      <trkpt lat="47.3657" lon="-2.38163">
        <ele>-9.1999998092651</ele>
        <time>2020-12-17T09:53:34.000Z</time>
      </trkpt>
      <trkpt lat="47.36558" lon="-2.3816">
        <ele>-9.1999998092651</ele>
        <time>2020-12-17T09:53:39.000Z</time>
      </trkpt>
      <trkpt lat="47.36562" lon="-2.38157">
        <ele>-9.1999998092651</ele>
        <time>2020-12-17T09:53:42.000Z</time>
      </trkpt>
      <trkpt lat="47.36566" lon="-2.38159">
        <ele>-9.1999998092651</ele>
        <time>2020-12-17T09:53:44.000Z</time>
      </trkpt>
      <trkpt lat="47.36575" lon="-2.38163">
        <ele>-9.1999998092651</ele>
        <time>2020-12-17T09:53:48.000Z</time>
      </trkpt>
      <trkpt lat="47.36585" lon="-2.38166">
        <ele>-9.1999998092651</ele>
        <time>2020-12-17T09:53:53.000Z</time>
      </trkpt>
      <trkpt lat="47.36587" lon="-2.38168">
        <ele>-9.1999998092651</ele>
        <time>2020-12-17T09:53:54.000Z</time>
      </trkpt>
      <trkpt lat="47.36592" lon="-2.38177">
        <ele>-9.1999998092651</ele>
        <time>2020-12-17T09:53:57.000Z</time>
      </trkpt>
      <trkpt lat="47.36596" lon="-2.38184">
        <ele>-9.1999998092651</ele>
        <time>2020-12-17T09:53:59.000Z</time>
      </trkpt>
      <trkpt lat="47.36607" lon="-2.38208">
        <ele>-9.1999998092651</ele>
        <time>2020-12-17T09:54:04.000Z</time>
      </trkpt>
      <trkpt lat="47.3661" lon="-2.38212">
        <ele>-9.1999998092651</ele>
        <time>2020-12-17T09:54:05.000Z</time>
      </trkpt>
      <trkpt lat="47.36627" lon="-2.38236">
        <ele>-9.1999998092651</ele>
        <time>2020-12-17T09:54:10.000Z</time>
      </trkpt>
      <trkpt lat="47.3663" lon="-2.3824">
        <ele>-9.1999998092651</ele>
        <time>2020-12-17T09:54:11.000Z</time>
      </trkpt>
      <trkpt lat="47.36643" lon="-2.38244">
        <ele>-9.1999998092651</ele>
        <time>2020-12-17T09:54:14.000Z</time>
      </trkpt>
      <trkpt lat="47.36648" lon="-2.38245">
        <ele>-9.1999998092651</ele>
        <time>2020-12-17T09:54:15.000Z</time>
      </trkpt>
      <trkpt lat="47.36652" lon="-2.38247">
        <ele>-9.1999998092651</ele>
        <time>2020-12-17T09:54:16.000Z</time>
      </trkpt>
      <trkpt lat="47.36659" lon="-2.38255">
        <ele>-9.1999998092651</ele>
        <time>2020-12-17T09:54:18.000Z</time>
      </trkpt>
      <trkpt lat="47.36673" lon="-2.38272">
        <ele>-9.1999998092651</ele>
        <time>2020-12-17T09:54:22.000Z</time>
      </trkpt>
      <trkpt lat="47.36677" lon="-2.38277">
        <ele>-9.1999998092651</ele>
        <time>2020-12-17T09:54:23.000Z</time>
      </trkpt>
      <trkpt lat="47.36696" lon="-2.38298">
        <ele>-8.8000001907349</ele>
        <time>2020-12-17T09:54:28.000Z</time>
      </trkpt>
      <trkpt lat="47.36699" lon="-2.38302">
        <ele>-8.1999998092651</ele>
        <time>2020-12-17T09:54:29.000Z</time>
      </trkpt>
      <trkpt lat="47.36701" lon="-2.38306">
        <ele>-7.4000000953674</ele>
        <time>2020-12-17T09:54:30.000Z</time>
      </trkpt>
      <trkpt lat="47.36701" lon="-2.3831">
        <ele>-7</ele>
        <time>2020-12-17T09:54:31.000Z</time>
      </trkpt>
      <trkpt lat="47.367" lon="-2.38319">
        <ele>-7</ele>
        <time>2020-12-17T09:54:33.000Z</time>
      </trkpt>
      <trkpt lat="47.36687" lon="-2.38342">
        <ele>-7</ele>
        <time>2020-12-17T09:54:38.000Z</time>
      </trkpt>
      <trkpt lat="47.36668" lon="-2.38377">
        <ele>-7</ele>
        <time>2020-12-17T09:54:44.000Z</time>
      </trkpt>
      <trkpt lat="47.3666" lon="-2.38397">
        <ele>-7</ele>
        <time>2020-12-17T09:54:47.000Z</time>
      </trkpt>
      <trkpt lat="47.36655" lon="-2.38419">
        <ele>-7</ele>
        <time>2020-12-17T09:54:50.000Z</time>
      </trkpt>
      <trkpt lat="47.36642" lon="-2.38473">
        <ele>-6.5999999046326</ele>
        <time>2020-12-17T09:54:57.000Z</time>
      </trkpt>
      <trkpt lat="47.3664" lon="-2.38481">
        <ele>-6</ele>
        <time>2020-12-17T09:54:58.000Z</time>
      </trkpt>
      <trkpt lat="47.36638" lon="-2.38488">
        <ele>-5.5999999046326</ele>
        <time>2020-12-17T09:54:59.000Z</time>
      </trkpt>
      <trkpt lat="47.36637" lon="-2.38496">
        <ele>-5.1999998092651</ele>
        <time>2020-12-17T09:55:00.000Z</time>
      </trkpt>
      <trkpt lat="47.36635" lon="-2.38505">
        <ele>-4.8000001907349</ele>
        <time>2020-12-17T09:55:01.000Z</time>
      </trkpt>
      <trkpt lat="47.36626" lon="-2.38544">
        <ele>-4.8000001907349</ele>
        <time>2020-12-17T09:55:06.000Z</time>
      </trkpt>
      <trkpt lat="47.36612" lon="-2.386">
        <ele>-4.8000001907349</ele>
        <time>2020-12-17T09:55:13.000Z</time>
      </trkpt>
      <trkpt lat="47.36596" lon="-2.38662">
        <ele>-4.8000001907349</ele>
        <time>2020-12-17T09:55:20.000Z</time>
      </trkpt>
      <trkpt lat="47.36592" lon="-2.38669">
        <ele>-4.8000001907349</ele>
        <time>2020-12-17T09:55:21.000Z</time>
      </trkpt>
      <trkpt lat="47.36581" lon="-2.38679">
        <ele>-4.8000001907349</ele>
        <time>2020-12-17T09:55:23.000Z</time>
      </trkpt>
      <trkpt lat="47.36568" lon="-2.38686">
        <ele>-4.8000001907349</ele>
        <time>2020-12-17T09:55:25.000Z</time>
      </trkpt>
      <trkpt lat="47.36556" lon="-2.38697">
        <ele>-4.8000001907349</ele>
        <time>2020-12-17T09:55:27.000Z</time>
      </trkpt>
      <trkpt lat="47.36551" lon="-2.38704">
        <ele>-4.8000001907349</ele>
        <time>2020-12-17T09:55:28.000Z</time>
      </trkpt>
      <trkpt lat="47.36541" lon="-2.38734">
        <ele>-4.8000001907349</ele>
        <time>2020-12-17T09:55:31.000Z</time>
      </trkpt>
      <trkpt lat="47.36537" lon="-2.38754">
        <ele>-4.8000001907349</ele>
        <time>2020-12-17T09:55:33.000Z</time>
      </trkpt>
      <trkpt lat="47.3653" lon="-2.38795">
        <ele>-4.8000001907349</ele>
        <time>2020-12-17T09:55:37.000Z</time>
      </trkpt>
      <trkpt lat="47.36515" lon="-2.38875">
        <ele>-4.8000001907349</ele>
        <time>2020-12-17T09:55:45.000Z</time>
      </trkpt>
      <trkpt lat="47.36514" lon="-2.38885">
        <ele>-4.8000001907349</ele>
        <time>2020-12-17T09:55:46.000Z</time>
      </trkpt>
      <trkpt lat="47.36512" lon="-2.38895">
        <ele>-5.1999998092651</ele>
        <time>2020-12-17T09:55:47.000Z</time>
      </trkpt>
      <trkpt lat="47.3651" lon="-2.38904">
        <ele>-5.5999999046326</ele>
        <time>2020-12-17T09:55:48.000Z</time>
      </trkpt>
      <trkpt lat="47.36509" lon="-2.38915">
        <ele>-6</ele>
        <time>2020-12-17T09:55:49.000Z</time>
      </trkpt>
      <trkpt lat="47.36507" lon="-2.38926">
        <ele>-6.4000000953674</ele>
        <time>2020-12-17T09:55:50.000Z</time>
      </trkpt>
      <trkpt lat="47.36506" lon="-2.38937">
        <ele>-6.8000001907349</ele>
        <time>2020-12-17T09:55:51.000Z</time>
      </trkpt>
      <trkpt lat="47.36503" lon="-2.38958">
        <ele>-6.8000001907349</ele>
        <time>2020-12-17T09:55:53.000Z</time>
      </trkpt>
      <trkpt lat="47.365" lon="-2.39014">
        <ele>-7.1999998092651</ele>
        <time>2020-12-17T09:55:58.000Z</time>
      </trkpt>
      <trkpt lat="47.36499" lon="-2.39025">
        <ele>-7.5999999046326</ele>
        <time>2020-12-17T09:55:59.000Z</time>
      </trkpt>
      <trkpt lat="47.365" lon="-2.39035">
        <ele>-8</ele>
        <time>2020-12-17T09:56:00.000Z</time>
      </trkpt>
      <trkpt lat="47.365" lon="-2.39046">
        <ele>-8.6000003814697</ele>
        <time>2020-12-17T09:56:01.000Z</time>
      </trkpt>
      <trkpt lat="47.36499" lon="-2.39056">
        <ele>-9</ele>
        <time>2020-12-17T09:56:02.000Z</time>
      </trkpt>
      <trkpt lat="47.36495" lon="-2.39107">
        <ele>-9</ele>
        <time>2020-12-17T09:56:07.000Z</time>
      </trkpt>
      <trkpt lat="47.36479" lon="-2.39167">
        <ele>-9</ele>
        <time>2020-12-17T09:56:13.000Z</time>
      </trkpt>
      <trkpt lat="47.36456" lon="-2.39218">
        <ele>-9</ele>
        <time>2020-12-17T09:56:19.000Z</time>
      </trkpt>
      <trkpt lat="47.3643" lon="-2.39248">
        <ele>-9</ele>
        <time>2020-12-17T09:56:24.000Z</time>
      </trkpt>
      <trkpt lat="47.36395" lon="-2.39284">
        <ele>-9</ele>
        <time>2020-12-17T09:56:31.000Z</time>
      </trkpt>
      <trkpt lat="47.36377" lon="-2.39306">
        <ele>-9</ele>
        <time>2020-12-17T09:56:35.000Z</time>
      </trkpt>
      <trkpt lat="47.36373" lon="-2.39321">
        <ele>-9</ele>
        <time>2020-12-17T09:56:37.000Z</time>
      </trkpt>
      <trkpt lat="47.36373" lon="-2.39347">
        <ele>-9</ele>
        <time>2020-12-17T09:56:40.000Z</time>
      </trkpt>
      <trkpt lat="47.36374" lon="-2.39356">
        <ele>-9</ele>
        <time>2020-12-17T09:56:41.000Z</time>
      </trkpt>
      <trkpt lat="47.36385" lon="-2.3942">
        <ele>-9</ele>
        <time>2020-12-17T09:56:48.000Z</time>
      </trkpt>
      <trkpt lat="47.36399" lon="-2.39484">
        <ele>-9</ele>
        <time>2020-12-17T09:56:55.000Z</time>
      </trkpt>
      <trkpt lat="47.36415" lon="-2.39544">
        <ele>-9</ele>
        <time>2020-12-17T09:57:02.000Z</time>
      </trkpt>
      <trkpt lat="47.36431" lon="-2.39594">
        <ele>-9</ele>
        <time>2020-12-17T09:57:08.000Z</time>
      </trkpt>
      <trkpt lat="47.36451" lon="-2.39654">
        <ele>-9</ele>
        <time>2020-12-17T09:57:15.000Z</time>
      </trkpt>
      <trkpt lat="47.36453" lon="-2.39664">
        <ele>-9</ele>
        <time>2020-12-17T09:57:16.000Z</time>
      </trkpt>
      <trkpt lat="47.36465" lon="-2.39714">
        <ele>-9</ele>
        <time>2020-12-17T09:57:22.000Z</time>
      </trkpt>
      <trkpt lat="47.36478" lon="-2.39748">
        <ele>-9</ele>
        <time>2020-12-17T09:57:27.000Z</time>
      </trkpt>
      <trkpt lat="47.3648" lon="-2.39752">
        <ele>-9</ele>
        <time>2020-12-17T09:57:28.000Z</time>
      </trkpt>
      <trkpt lat="47.36486" lon="-2.39764">
        <ele>-9.3999996185303</ele>
        <time>2020-12-17T09:57:31.000Z</time>
      </trkpt>
      <trkpt lat="47.36488" lon="-2.39766">
        <ele>-9.8000001907349</ele>
        <time>2020-12-17T09:57:32.000Z</time>
      </trkpt>
      <trkpt lat="47.3649" lon="-2.39769">
        <ele>-10.199999809265</ele>
        <time>2020-12-17T09:57:33.000Z</time>
      </trkpt>
      <trkpt lat="47.36492" lon="-2.39769">
        <ele>-10.60000038147</ele>
        <time>2020-12-17T09:57:34.000Z</time>
      </trkpt>
      <trkpt lat="47.36495" lon="-2.39769">
        <ele>-11.199999809265</ele>
        <time>2020-12-17T09:57:35.000Z</time>
      </trkpt>
      <trkpt lat="47.365" lon="-2.39772">
        <ele>-11.199999809265</ele>
        <time>2020-12-17T09:57:37.000Z</time>
      </trkpt>
      <trkpt lat="47.36503" lon="-2.39773">
        <ele>-11.199999809265</ele>
        <time>2020-12-17T09:57:38.000Z</time>
      </trkpt>
      <trkpt lat="47.36515" lon="-2.39784">
        <ele>-11.199999809265</ele>
        <time>2020-12-17T09:57:41.000Z</time>
      </trkpt>
      <trkpt lat="47.36518" lon="-2.39789">
        <ele>-11.199999809265</ele>
        <time>2020-12-17T09:57:42.000Z</time>
      </trkpt>
      <trkpt lat="47.36524" lon="-2.39808">
        <ele>-11.199999809265</ele>
        <time>2020-12-17T09:57:45.000Z</time>
      </trkpt>
      <trkpt lat="47.36526" lon="-2.39814">
        <ele>-11.199999809265</ele>
        <time>2020-12-17T09:57:46.000Z</time>
      </trkpt>
      <trkpt lat="47.36534" lon="-2.39829">
        <ele>-11.199999809265</ele>
        <time>2020-12-17T09:57:50.000Z</time>
      </trkpt>
      <trkpt lat="47.36549" lon="-2.39847">
        <ele>-11.199999809265</ele>
        <time>2020-12-17T09:57:56.000Z</time>
      </trkpt>
      <trkpt lat="47.36564" lon="-2.39864">
        <ele>-11.199999809265</ele>
        <time>2020-12-17T09:58:03.000Z</time>
      </trkpt>
      <trkpt lat="47.36579" lon="-2.39886">
        <ele>-11.199999809265</ele>
        <time>2020-12-17T09:58:09.000Z</time>
      </trkpt>
      <trkpt lat="47.36585" lon="-2.39907">
        <ele>-11.199999809265</ele>
        <time>2020-12-17T09:58:13.000Z</time>
      </trkpt>
      <trkpt lat="47.36582" lon="-2.39916">
        <ele>-11.199999809265</ele>
        <time>2020-12-17T09:58:15.000Z</time>
      </trkpt>
      <trkpt lat="47.36577" lon="-2.39926">
        <ele>-11.199999809265</ele>
        <time>2020-12-17T09:58:17.000Z</time>
      </trkpt>
      <trkpt lat="47.36563" lon="-2.39946">
        <ele>-10.800000190735</ele>
        <time>2020-12-17T09:58:21.000Z</time>
      </trkpt>
      <trkpt lat="47.36559" lon="-2.39951">
        <ele>-10.39999961853</ele>
        <time>2020-12-17T09:58:22.000Z</time>
      </trkpt>
      <trkpt lat="47.36555" lon="-2.39957">
        <ele>-10</ele>
        <time>2020-12-17T09:58:23.000Z</time>
      </trkpt>
      <trkpt lat="47.36551" lon="-2.39961">
        <ele>-9.6000003814697</ele>
        <time>2020-12-17T09:58:24.000Z</time>
      </trkpt>
      <trkpt lat="47.36547" lon="-2.39966">
        <ele>-9.1999998092651</ele>
        <time>2020-12-17T09:58:25.000Z</time>
      </trkpt>
      <trkpt lat="47.36539" lon="-2.39976">
        <ele>-9.1999998092651</ele>
        <time>2020-12-17T09:58:27.000Z</time>
      </trkpt>
      <trkpt lat="47.3653" lon="-2.39985">
        <ele>-9.1999998092651</ele>
        <time>2020-12-17T09:58:29.000Z</time>
      </trkpt>
      <trkpt lat="47.3651" lon="-2.40007">
        <ele>-9.1999998092651</ele>
        <time>2020-12-17T09:58:34.000Z</time>
      </trkpt>
      <trkpt lat="47.36498" lon="-2.40019">
        <ele>-9.1999998092651</ele>
        <time>2020-12-17T09:58:37.000Z</time>
      </trkpt>
      <trkpt lat="47.36468" lon="-2.40045">
        <ele>-9.1999998092651</ele>
        <time>2020-12-17T09:58:44.000Z</time>
      </trkpt>
      <trkpt lat="47.36452" lon="-2.40056">
        <ele>-9.1999998092651</ele>
        <time>2020-12-17T09:58:48.000Z</time>
      </trkpt>
      <trkpt lat="47.36448" lon="-2.40058">
        <ele>-9.1999998092651</ele>
        <time>2020-12-17T09:58:49.000Z</time>
      </trkpt>
      <trkpt lat="47.36439" lon="-2.40062">
        <ele>-9.1999998092651</ele>
        <time>2020-12-17T09:58:51.000Z</time>
      </trkpt>
      <trkpt lat="47.3642" lon="-2.40067">
        <ele>-9.1999998092651</ele>
        <time>2020-12-17T09:58:55.000Z</time>
      </trkpt>
      <trkpt lat="47.36415" lon="-2.4007">
        <ele>-9.1999998092651</ele>
        <time>2020-12-17T09:58:56.000Z</time>
      </trkpt>
      <trkpt lat="47.36395" lon="-2.40075">
        <ele>-9.1999998092651</ele>
        <time>2020-12-17T09:59:00.000Z</time>
      </trkpt>
      <trkpt lat="47.36354" lon="-2.40089">
        <ele>-9.1999998092651</ele>
        <time>2020-12-17T09:59:08.000Z</time>
      </trkpt>
      <trkpt lat="47.36314" lon="-2.40107">
        <ele>-9.1999998092651</ele>
        <time>2020-12-17T09:59:16.000Z</time>
      </trkpt>
      <trkpt lat="47.36284" lon="-2.4012">
        <ele>-9.1999998092651</ele>
        <time>2020-12-17T09:59:22.000Z</time>
      </trkpt>
      <trkpt lat="47.36279" lon="-2.40122">
        <ele>-9.1999998092651</ele>
        <time>2020-12-17T09:59:23.000Z</time>
      </trkpt>
      <trkpt lat="47.36258" lon="-2.40129">
        <ele>-9.1999998092651</ele>
        <time>2020-12-17T09:59:27.000Z</time>
      </trkpt>
      <trkpt lat="47.36248" lon="-2.40135">
        <ele>-9.1999998092651</ele>
        <time>2020-12-17T09:59:29.000Z</time>
      </trkpt>
      <trkpt lat="47.36233" lon="-2.40147">
        <ele>-8.8000001907349</ele>
        <time>2020-12-17T09:59:32.000Z</time>
      </trkpt>
      <trkpt lat="47.36228" lon="-2.4015">
        <ele>-8.1999998092651</ele>
        <time>2020-12-17T09:59:33.000Z</time>
      </trkpt>
      <trkpt lat="47.36224" lon="-2.40154">
        <ele>-7.8000001907349</ele>
        <time>2020-12-17T09:59:34.000Z</time>
      </trkpt>
      <trkpt lat="47.3622" lon="-2.40157">
        <ele>-7.4000000953674</ele>
        <time>2020-12-17T09:59:35.000Z</time>
      </trkpt>
      <trkpt lat="47.36217" lon="-2.4016">
        <ele>-7</ele>
        <time>2020-12-17T09:59:36.000Z</time>
      </trkpt>
      <trkpt lat="47.36214" lon="-2.40162">
        <ele>-7</ele>
        <time>2020-12-17T09:59:37.000Z</time>
      </trkpt>
      <trkpt lat="47.36196" lon="-2.40179">
        <ele>-7</ele>
        <time>2020-12-17T09:59:42.000Z</time>
      </trkpt>
      <trkpt lat="47.36193" lon="-2.40182">
        <ele>-7</ele>
        <time>2020-12-17T09:59:43.000Z</time>
      </trkpt>
      <trkpt lat="47.36178" lon="-2.40195">
        <ele>-7</ele>
        <time>2020-12-17T09:59:48.000Z</time>
      </trkpt>
      <trkpt lat="47.3616" lon="-2.4021">
        <ele>-7</ele>
        <time>2020-12-17T09:59:53.000Z</time>
      </trkpt>
      <trkpt lat="47.36156" lon="-2.40213">
        <ele>-7</ele>
        <time>2020-12-17T09:59:54.000Z</time>
      </trkpt>
      <trkpt lat="47.36125" lon="-2.40239">
        <ele>-7</ele>
        <time>2020-12-17T10:00:01.000Z</time>
      </trkpt>
      <trkpt lat="47.36099" lon="-2.40257">
        <ele>-7</ele>
        <time>2020-12-17T10:00:06.000Z</time>
      </trkpt>
      <trkpt lat="47.36094" lon="-2.4026">
        <ele>-7</ele>
        <time>2020-12-17T10:00:07.000Z</time>
      </trkpt>
      <trkpt lat="47.36085" lon="-2.40268">
        <ele>-7</ele>
        <time>2020-12-17T10:00:09.000Z</time>
      </trkpt>
      <trkpt lat="47.36071" lon="-2.40282">
        <ele>-7</ele>
        <time>2020-12-17T10:00:12.000Z</time>
      </trkpt>
      <trkpt lat="47.36043" lon="-2.40312">
        <ele>-7</ele>
        <time>2020-12-17T10:00:18.000Z</time>
      </trkpt>
      <trkpt lat="47.3603" lon="-2.40339">
        <ele>-7</ele>
        <time>2020-12-17T10:00:22.000Z</time>
      </trkpt>
      <trkpt lat="47.36028" lon="-2.40347">
        <ele>-7</ele>
        <time>2020-12-17T10:00:23.000Z</time>
      </trkpt>
      <trkpt lat="47.36026" lon="-2.40365">
        <ele>-7</ele>
        <time>2020-12-17T10:00:25.000Z</time>
      </trkpt>
      <trkpt lat="47.36025" lon="-2.40392">
        <ele>-7</ele>
        <time>2020-12-17T10:00:28.000Z</time>
      </trkpt>
      <trkpt lat="47.3602" lon="-2.40436">
        <ele>-7</ele>
        <time>2020-12-17T10:00:33.000Z</time>
      </trkpt>
      <trkpt lat="47.36017" lon="-2.40443">
        <ele>-7</ele>
        <time>2020-12-17T10:00:34.000Z</time>
      </trkpt>
      <trkpt lat="47.36004" lon="-2.40461">
        <ele>-7</ele>
        <time>2020-12-17T10:00:37.000Z</time>
      </trkpt>
      <trkpt lat="47.35998" lon="-2.40467">
        <ele>-7</ele>
        <time>2020-12-17T10:00:38.000Z</time>
      </trkpt>
      <trkpt lat="47.3597" lon="-2.405">
        <ele>-7</ele>
        <time>2020-12-17T10:00:44.000Z</time>
      </trkpt>
      <trkpt lat="47.35961" lon="-2.40511">
        <ele>-7</ele>
        <time>2020-12-17T10:00:46.000Z</time>
      </trkpt>
      <trkpt lat="47.35949" lon="-2.40529">
        <ele>-7</ele>
        <time>2020-12-17T10:00:49.000Z</time>
      </trkpt>
      <trkpt lat="47.35923" lon="-2.40568">
        <ele>-7</ele>
        <time>2020-12-17T10:00:55.000Z</time>
      </trkpt>
      <trkpt lat="47.35896" lon="-2.4061">
        <ele>-7</ele>
        <time>2020-12-17T10:01:01.000Z</time>
      </trkpt>
      <trkpt lat="47.35867" lon="-2.40663">
        <ele>-7</ele>
        <time>2020-12-17T10:01:08.000Z</time>
      </trkpt>
      <trkpt lat="47.3586" lon="-2.40679">
        <ele>-7</ele>
        <time>2020-12-17T10:01:10.000Z</time>
      </trkpt>
      <trkpt lat="47.35853" lon="-2.40705">
        <ele>-7</ele>
        <time>2020-12-17T10:01:13.000Z</time>
      </trkpt>
      <trkpt lat="47.35847" lon="-2.40738">
        <ele>-7</ele>
        <time>2020-12-17T10:01:17.000Z</time>
      </trkpt>
      <trkpt lat="47.35843" lon="-2.40746">
        <ele>-7</ele>
        <time>2020-12-17T10:01:18.000Z</time>
      </trkpt>
      <trkpt lat="47.3583" lon="-2.40766">
        <ele>-7</ele>
        <time>2020-12-17T10:01:21.000Z</time>
      </trkpt>
      <trkpt lat="47.35826" lon="-2.40772">
        <ele>-7</ele>
        <time>2020-12-17T10:01:22.000Z</time>
      </trkpt>
      <trkpt lat="47.358" lon="-2.40811">
        <ele>-7</ele>
        <time>2020-12-17T10:01:29.000Z</time>
      </trkpt>
      <trkpt lat="47.35775" lon="-2.40847">
        <ele>-7</ele>
        <time>2020-12-17T10:01:36.000Z</time>
      </trkpt>
      <trkpt lat="47.35756" lon="-2.40872">
        <ele>-7</ele>
        <time>2020-12-17T10:01:42.000Z</time>
      </trkpt>
      <trkpt lat="47.3574" lon="-2.40897">
        <ele>-7</ele>
        <time>2020-12-17T10:01:48.000Z</time>
      </trkpt>
      <trkpt lat="47.35727" lon="-2.40915">
        <ele>-7</ele>
        <time>2020-12-17T10:01:54.000Z</time>
      </trkpt>
      <trkpt lat="47.35713" lon="-2.40931">
        <ele>-7</ele>
        <time>2020-12-17T10:02:01.000Z</time>
      </trkpt>
      <trkpt lat="47.35707" lon="-2.40941">
        <ele>-7</ele>
        <time>2020-12-17T10:02:06.000Z</time>
      </trkpt>
      <trkpt lat="47.357" lon="-2.40955">
        <ele>-7</ele>
        <time>2020-12-17T10:02:13.000Z</time>
      </trkpt>
      <trkpt lat="47.3569" lon="-2.40968">
        <ele>-7</ele>
        <time>2020-12-17T10:02:20.000Z</time>
      </trkpt>
      <trkpt lat="47.35681" lon="-2.40981">
        <ele>-7</ele>
        <time>2020-12-17T10:02:27.000Z</time>
      </trkpt>
      <trkpt lat="47.35671" lon="-2.40995">
        <ele>-7</ele>
        <time>2020-12-17T10:02:33.000Z</time>
      </trkpt>
      <trkpt lat="47.35659" lon="-2.41016">
        <ele>-7</ele>
        <time>2020-12-17T10:02:40.000Z</time>
      </trkpt>
      <trkpt lat="47.35644" lon="-2.41037">
        <ele>-7</ele>
        <time>2020-12-17T10:02:47.000Z</time>
      </trkpt>
      <trkpt lat="47.35627" lon="-2.41058">
        <ele>-7</ele>
        <time>2020-12-17T10:02:55.000Z</time>
      </trkpt>
      <trkpt lat="47.35606" lon="-2.4108">
        <ele>-7</ele>
        <time>2020-12-17T10:03:02.000Z</time>
      </trkpt>
      <trkpt lat="47.35585" lon="-2.41105">
        <ele>-7</ele>
        <time>2020-12-17T10:03:09.000Z</time>
      </trkpt>
      <trkpt lat="47.35573" lon="-2.41115">
        <ele>-7</ele>
        <time>2020-12-17T10:03:12.000Z</time>
      </trkpt>
      <trkpt lat="47.35565" lon="-2.41122">
        <ele>-7</ele>
        <time>2020-12-17T10:03:14.000Z</time>
      </trkpt>
      <trkpt lat="47.35543" lon="-2.41139">
        <ele>-6.5999999046326</ele>
        <time>2020-12-17T10:03:19.000Z</time>
      </trkpt>
      <trkpt lat="47.35538" lon="-2.41142">
        <ele>-6.1999998092651</ele>
        <time>2020-12-17T10:03:20.000Z</time>
      </trkpt>
      <trkpt lat="47.35533" lon="-2.41146">
        <ele>-5.8000001907349</ele>
        <time>2020-12-17T10:03:21.000Z</time>
      </trkpt>
      <trkpt lat="47.35528" lon="-2.41149">
        <ele>-5.4000000953674</ele>
        <time>2020-12-17T10:03:22.000Z</time>
      </trkpt>
      <trkpt lat="47.35523" lon="-2.41153">
        <ele>-5</ele>
        <time>2020-12-17T10:03:23.000Z</time>
      </trkpt>
      <trkpt lat="47.35507" lon="-2.41165">
        <ele>-5</ele>
        <time>2020-12-17T10:03:26.000Z</time>
      </trkpt>
      <trkpt lat="47.3547" lon="-2.41197">
        <ele>-5</ele>
        <time>2020-12-17T10:03:33.000Z</time>
      </trkpt>
      <trkpt lat="47.35439" lon="-2.41229">
        <ele>-5</ele>
        <time>2020-12-17T10:03:39.000Z</time>
      </trkpt>
      <trkpt lat="47.35435" lon="-2.41236">
        <ele>-5</ele>
        <time>2020-12-17T10:03:40.000Z</time>
      </trkpt>
      <trkpt lat="47.35418" lon="-2.41263">
        <ele>-5</ele>
        <time>2020-12-17T10:03:44.000Z</time>
      </trkpt>
      <trkpt lat="47.35413" lon="-2.41268">
        <ele>-5</ele>
        <time>2020-12-17T10:03:45.000Z</time>
      </trkpt>
      <trkpt lat="47.35386" lon="-2.41286">
        <ele>-5</ele>
        <time>2020-12-17T10:03:50.000Z</time>
      </trkpt>
      <trkpt lat="47.35381" lon="-2.41292">
        <ele>-5</ele>
        <time>2020-12-17T10:03:51.000Z</time>
      </trkpt>
      <trkpt lat="47.35368" lon="-2.41307">
        <ele>-5</ele>
        <time>2020-12-17T10:03:54.000Z</time>
      </trkpt>
      <trkpt lat="47.35364" lon="-2.41312">
        <ele>-5</ele>
        <time>2020-12-17T10:03:55.000Z</time>
      </trkpt>
      <trkpt lat="47.35339" lon="-2.41348">
        <ele>-5</ele>
        <time>2020-12-17T10:04:01.000Z</time>
      </trkpt>
      <trkpt lat="47.35326" lon="-2.41366">
        <ele>-5</ele>
        <time>2020-12-17T10:04:04.000Z</time>
      </trkpt>
      <trkpt lat="47.35318" lon="-2.41377">
        <ele>-5</ele>
        <time>2020-12-17T10:04:06.000Z</time>
      </trkpt>
      <trkpt lat="47.35302" lon="-2.41408">
        <ele>-5</ele>
        <time>2020-12-17T10:04:11.000Z</time>
      </trkpt>
      <trkpt lat="47.35299" lon="-2.41412">
        <ele>-5</ele>
        <time>2020-12-17T10:04:12.000Z</time>
      </trkpt>
      <trkpt lat="47.3529" lon="-2.41425">
        <ele>-5</ele>
        <time>2020-12-17T10:04:15.000Z</time>
      </trkpt>
      <trkpt lat="47.35283" lon="-2.41433">
        <ele>-5</ele>
        <time>2020-12-17T10:04:17.000Z</time>
      </trkpt>
      <trkpt lat="47.35269" lon="-2.41441">
        <ele>-5</ele>
        <time>2020-12-17T10:04:20.000Z</time>
      </trkpt>
      <trkpt lat="47.3526" lon="-2.41446">
        <ele>-5</ele>
        <time>2020-12-17T10:04:22.000Z</time>
      </trkpt>
      <trkpt lat="47.35247" lon="-2.41441">
        <ele>-5</ele>
        <time>2020-12-17T10:04:25.000Z</time>
      </trkpt>
      <trkpt lat="47.35243" lon="-2.41435">
        <ele>-5</ele>
        <time>2020-12-17T10:04:26.000Z</time>
      </trkpt>
      <trkpt lat="47.35232" lon="-2.41419">
        <ele>-5</ele>
        <time>2020-12-17T10:04:29.000Z</time>
      </trkpt>
      <trkpt lat="47.35222" lon="-2.41401">
        <ele>-5</ele>
        <time>2020-12-17T10:04:32.000Z</time>
      </trkpt>
      <trkpt lat="47.35192" lon="-2.41357">
        <ele>-5</ele>
        <time>2020-12-17T10:04:40.000Z</time>
      </trkpt>
      <trkpt lat="47.35175" lon="-2.41355">
        <ele>-5</ele>
        <time>2020-12-17T10:04:43.000Z</time>
      </trkpt>
      <trkpt lat="47.3517" lon="-2.41357">
        <ele>-5</ele>
        <time>2020-12-17T10:04:44.000Z</time>
      </trkpt>
      <trkpt lat="47.35165" lon="-2.41359">
        <ele>-5</ele>
        <time>2020-12-17T10:04:45.000Z</time>
      </trkpt>
      <trkpt lat="47.35155" lon="-2.41364">
        <ele>-5</ele>
        <time>2020-12-17T10:04:47.000Z</time>
      </trkpt>
      <trkpt lat="47.35138" lon="-2.41375">
        <ele>-5</ele>
        <time>2020-12-17T10:04:51.000Z</time>
      </trkpt>
      <trkpt lat="47.35129" lon="-2.41381">
        <ele>-5</ele>
        <time>2020-12-17T10:04:53.000Z</time>
      </trkpt>
      <trkpt lat="47.35092" lon="-2.41404">
        <ele>-5</ele>
        <time>2020-12-17T10:05:01.000Z</time>
      </trkpt>
      <trkpt lat="47.35083" lon="-2.41402">
        <ele>-5</ele>
        <time>2020-12-17T10:05:03.000Z</time>
      </trkpt>
      <trkpt lat="47.35076" lon="-2.41393">
        <ele>-5</ele>
        <time>2020-12-17T10:05:05.000Z</time>
      </trkpt>
      <trkpt lat="47.35069" lon="-2.41377">
        <ele>-5</ele>
        <time>2020-12-17T10:05:08.000Z</time>
      </trkpt>
      <trkpt lat="47.35064" lon="-2.41367">
        <ele>-5</ele>
        <time>2020-12-17T10:05:10.000Z</time>
      </trkpt>
      <trkpt lat="47.35061" lon="-2.41361">
        <ele>-5</ele>
        <time>2020-12-17T10:05:11.000Z</time>
      </trkpt>
      <trkpt lat="47.3504" lon="-2.41307">
        <ele>-5</ele>
        <time>2020-12-17T10:05:20.000Z</time>
      </trkpt>
      <trkpt lat="47.35021" lon="-2.41264">
        <ele>-5</ele>
        <time>2020-12-17T10:05:27.000Z</time>
      </trkpt>
      <trkpt lat="47.35006" lon="-2.41227">
        <ele>-5</ele>
        <time>2020-12-17T10:05:33.000Z</time>
      </trkpt>
      <trkpt lat="47.3499" lon="-2.41186">
        <ele>-5</ele>
        <time>2020-12-17T10:05:39.000Z</time>
      </trkpt>
      <trkpt lat="47.34968" lon="-2.4114">
        <ele>-5</ele>
        <time>2020-12-17T10:05:46.000Z</time>
      </trkpt>
      <trkpt lat="47.34952" lon="-2.41099">
        <ele>-5</ele>
        <time>2020-12-17T10:05:52.000Z</time>
      </trkpt>
      <trkpt lat="47.34948" lon="-2.41086">
        <ele>-5</ele>
        <time>2020-12-17T10:05:54.000Z</time>
      </trkpt>
      <trkpt lat="47.34937" lon="-2.41058">
        <ele>-5</ele>
        <time>2020-12-17T10:05:58.000Z</time>
      </trkpt>
      <trkpt lat="47.34935" lon="-2.41052">
        <ele>-5</ele>
        <time>2020-12-17T10:05:59.000Z</time>
      </trkpt>
      <trkpt lat="47.34933" lon="-2.4103">
        <ele>-5</ele>
        <time>2020-12-17T10:06:02.000Z</time>
      </trkpt>
      <trkpt lat="47.34934" lon="-2.41022">
        <ele>-5</ele>
        <time>2020-12-17T10:06:03.000Z</time>
      </trkpt>
      <trkpt lat="47.34937" lon="-2.40981">
        <ele>-4.5999999046326</ele>
        <time>2020-12-17T10:06:08.000Z</time>
      </trkpt>
      <trkpt lat="47.34939" lon="-2.40973">
        <ele>-4.1999998092651</ele>
        <time>2020-12-17T10:06:09.000Z</time>
      </trkpt>
      <trkpt lat="47.3494" lon="-2.40964">
        <ele>-3.7999999523163</ele>
        <time>2020-12-17T10:06:10.000Z</time>
      </trkpt>
      <trkpt lat="47.34941" lon="-2.40956">
        <ele>-3.4000000953674</ele>
        <time>2020-12-17T10:06:11.000Z</time>
      </trkpt>
      <trkpt lat="47.34942" lon="-2.40948">
        <ele>-2.7999999523163</ele>
        <time>2020-12-17T10:06:12.000Z</time>
      </trkpt>
      <trkpt lat="47.34943" lon="-2.4093">
        <ele>-2.7999999523163</ele>
        <time>2020-12-17T10:06:14.000Z</time>
      </trkpt>
      <trkpt lat="47.34943" lon="-2.40921">
        <ele>-2.7999999523163</ele>
        <time>2020-12-17T10:06:15.000Z</time>
      </trkpt>
      <trkpt lat="47.34938" lon="-2.40871">
        <ele>-2.7999999523163</ele>
        <time>2020-12-17T10:06:21.000Z</time>
      </trkpt>
      <trkpt lat="47.34935" lon="-2.40856">
        <ele>-2.7999999523163</ele>
        <time>2020-12-17T10:06:23.000Z</time>
      </trkpt>
      <trkpt lat="47.34927" lon="-2.40837">
        <ele>-2.7999999523163</ele>
        <time>2020-12-17T10:06:26.000Z</time>
      </trkpt>
      <trkpt lat="47.34924" lon="-2.40832">
        <ele>-2.7999999523163</ele>
        <time>2020-12-17T10:06:27.000Z</time>
      </trkpt>
      <trkpt lat="47.34917" lon="-2.40816">
        <ele>-2.7999999523163</ele>
        <time>2020-12-17T10:06:30.000Z</time>
      </trkpt>
      <trkpt lat="47.3491" lon="-2.40801">
        <ele>-2.7999999523163</ele>
        <time>2020-12-17T10:06:33.000Z</time>
      </trkpt>
      <trkpt lat="47.34901" lon="-2.40787">
        <ele>-2.7999999523163</ele>
        <time>2020-12-17T10:06:38.000Z</time>
      </trkpt>
      <trkpt lat="47.34897" lon="-2.40783">
        <ele>-2.7999999523163</ele>
        <time>2020-12-17T10:06:40.000Z</time>
      </trkpt>
      <trkpt lat="47.34887" lon="-2.40781">
        <ele>-2.7999999523163</ele>
        <time>2020-12-17T10:06:43.000Z</time>
      </trkpt>
      <trkpt lat="47.34863" lon="-2.40781">
        <ele>-2.7999999523163</ele>
        <time>2020-12-17T10:06:49.000Z</time>
      </trkpt>
      <trkpt lat="47.34838" lon="-2.40776">
        <ele>-2.7999999523163</ele>
        <time>2020-12-17T10:06:55.000Z</time>
      </trkpt>
      <trkpt lat="47.3483" lon="-2.40758">
        <ele>-2.7999999523163</ele>
        <time>2020-12-17T10:06:59.000Z</time>
      </trkpt>
      <trkpt lat="47.34825" lon="-2.4073">
        <ele>-2.7999999523163</ele>
        <time>2020-12-17T10:07:03.000Z</time>
      </trkpt>
      <trkpt lat="47.34824" lon="-2.40714">
        <ele>-2.7999999523163</ele>
        <time>2020-12-17T10:07:05.000Z</time>
      </trkpt>
      <trkpt lat="47.34825" lon="-2.40689">
        <ele>-2.7999999523163</ele>
        <time>2020-12-17T10:07:08.000Z</time>
      </trkpt>
      <trkpt lat="47.34826" lon="-2.40672">
        <ele>-3.2000000476837</ele>
        <time>2020-12-17T10:07:10.000Z</time>
      </trkpt>
      <trkpt lat="47.34827" lon="-2.40664">
        <ele>-3.5999999046326</ele>
        <time>2020-12-17T10:07:11.000Z</time>
      </trkpt>
      <trkpt lat="47.34829" lon="-2.40655">
        <ele>-4</ele>
        <time>2020-12-17T10:07:12.000Z</time>
      </trkpt>
      <trkpt lat="47.34831" lon="-2.40647">
        <ele>-4.4000000953674</ele>
        <time>2020-12-17T10:07:13.000Z</time>
      </trkpt>
      <trkpt lat="47.34833" lon="-2.40638">
        <ele>-4.8000001907349</ele>
        <time>2020-12-17T10:07:14.000Z</time>
      </trkpt>
      <trkpt lat="47.34838" lon="-2.40622">
        <ele>-4.8000001907349</ele>
        <time>2020-12-17T10:07:16.000Z</time>
      </trkpt>
      <trkpt lat="47.34842" lon="-2.40615">
        <ele>-4.8000001907349</ele>
        <time>2020-12-17T10:07:17.000Z</time>
      </trkpt>
      <trkpt lat="47.34858" lon="-2.40592">
        <ele>-4.8000001907349</ele>
        <time>2020-12-17T10:07:21.000Z</time>
      </trkpt>
      <trkpt lat="47.34862" lon="-2.40588">
        <ele>-4.8000001907349</ele>
        <time>2020-12-17T10:07:22.000Z</time>
      </trkpt>
      <trkpt lat="47.34883" lon="-2.4056">
        <ele>-4.8000001907349</ele>
        <time>2020-12-17T10:07:27.000Z</time>
      </trkpt>
      <trkpt lat="47.34886" lon="-2.40552">
        <ele>-4.8000001907349</ele>
        <time>2020-12-17T10:07:28.000Z</time>
      </trkpt>
      <trkpt lat="47.34888" lon="-2.40525">
        <ele>-4.8000001907349</ele>
        <time>2020-12-17T10:07:31.000Z</time>
      </trkpt>
      <trkpt lat="47.34885" lon="-2.40507">
        <ele>-4.8000001907349</ele>
        <time>2020-12-17T10:07:33.000Z</time>
      </trkpt>
      <trkpt lat="47.34881" lon="-2.40482">
        <ele>-4.8000001907349</ele>
        <time>2020-12-17T10:07:36.000Z</time>
      </trkpt>
      <trkpt lat="47.34873" lon="-2.40437">
        <ele>-4.8000001907349</ele>
        <time>2020-12-17T10:07:42.000Z</time>
      </trkpt>
      <trkpt lat="47.34863" lon="-2.40375">
        <ele>-4.8000001907349</ele>
        <time>2020-12-17T10:07:50.000Z</time>
      </trkpt>
      <trkpt lat="47.34856" lon="-2.40344">
        <ele>-4.4000000953674</ele>
        <time>2020-12-17T10:07:54.000Z</time>
      </trkpt>
      <trkpt lat="47.34854" lon="-2.40337">
        <ele>-4</ele>
        <time>2020-12-17T10:07:55.000Z</time>
      </trkpt>
      <trkpt lat="47.34852" lon="-2.4033">
        <ele>-3.5999999046326</ele>
        <time>2020-12-17T10:07:56.000Z</time>
      </trkpt>
      <trkpt lat="47.34849" lon="-2.40323">
        <ele>-3.2000000476837</ele>
        <time>2020-12-17T10:07:57.000Z</time>
      </trkpt>
      <trkpt lat="47.34846" lon="-2.40317">
        <ele>-2.7999999523163</ele>
        <time>2020-12-17T10:07:58.000Z</time>
      </trkpt>
      <trkpt lat="47.34827" lon="-2.40282">
        <ele>-2.7999999523163</ele>
        <time>2020-12-17T10:08:04.000Z</time>
      </trkpt>
      <trkpt lat="47.34806" lon="-2.40239">
        <ele>-2.7999999523163</ele>
        <time>2020-12-17T10:08:11.000Z</time>
      </trkpt>
      <trkpt lat="47.34799" lon="-2.40224">
        <ele>-2.4000000953674</ele>
        <time>2020-12-17T10:08:14.000Z</time>
      </trkpt>
      <trkpt lat="47.34798" lon="-2.4022">
        <ele>-2</ele>
        <time>2020-12-17T10:08:15.000Z</time>
      </trkpt>
      <trkpt lat="47.34797" lon="-2.40218">
        <ele>-1.6000000238419</ele>
        <time>2020-12-17T10:08:16.000Z</time>
      </trkpt>
      <trkpt lat="47.34797" lon="-2.40216">
        <ele>-1.2000000476837</ele>
        <time>2020-12-17T10:08:17.000Z</time>
      </trkpt>
      <trkpt lat="47.34796" lon="-2.40214">
        <ele>-0.60000002384186</ele>
        <time>2020-12-17T10:08:18.000Z</time>
      </trkpt>
      <trkpt lat="47.34791" lon="-2.40214">
        <ele>-0.60000002384186</ele>
        <time>2020-12-17T10:08:20.000Z</time>
      </trkpt>
      <trkpt lat="47.34789" lon="-2.40214">
        <ele>-0.60000002384186</ele>
        <time>2020-12-17T10:08:21.000Z</time>
      </trkpt>
      <trkpt lat="47.34782" lon="-2.40213">
        <ele>-0.60000002384186</ele>
        <time>2020-12-17T10:08:24.000Z</time>
      </trkpt>
      <trkpt lat="47.3478" lon="-2.40211">
        <ele>-0.60000002384186</ele>
        <time>2020-12-17T10:08:25.000Z</time>
      </trkpt>
      <trkpt lat="47.34771" lon="-2.40201">
        <ele>-0.60000002384186</ele>
        <time>2020-12-17T10:08:29.000Z</time>
      </trkpt>
      <trkpt lat="47.34764" lon="-2.40191">
        <ele>-0.20000000298023</ele>
        <time>2020-12-17T10:08:32.000Z</time>
      </trkpt>
      <trkpt lat="47.34761" lon="-2.40188">
        <ele>0.20000000298023</ele>
        <time>2020-12-17T10:08:33.000Z</time>
      </trkpt>
      <trkpt lat="47.34758" lon="-2.40183">
        <ele>0.60000002384186</ele>
        <time>2020-12-17T10:08:34.000Z</time>
      </trkpt>
      <trkpt lat="47.34756" lon="-2.4018">
        <ele>1</ele>
        <time>2020-12-17T10:08:35.000Z</time>
      </trkpt>
      <trkpt lat="47.34753" lon="-2.40176">
        <ele>1.3999999761581</ele>
        <time>2020-12-17T10:08:36.000Z</time>
      </trkpt>
      <trkpt lat="47.34724" lon="-2.40143">
        <ele>1.3999999761581</ele>
        <time>2020-12-17T10:08:44.000Z</time>
      </trkpt>
      <trkpt lat="47.3472" lon="-2.4014">
        <ele>1.3999999761581</ele>
        <time>2020-12-17T10:08:45.000Z</time>
      </trkpt>
      <trkpt lat="47.34706" lon="-2.40132">
        <ele>1.3999999761581</ele>
        <time>2020-12-17T10:08:48.000Z</time>
      </trkpt>
      <trkpt lat="47.34693" lon="-2.40128">
        <ele>1.3999999761581</ele>
        <time>2020-12-17T10:08:51.000Z</time>
      </trkpt>
      <trkpt lat="47.3468" lon="-2.40125">
        <ele>1.3999999761581</ele>
        <time>2020-12-17T10:08:54.000Z</time>
      </trkpt>
      <trkpt lat="47.34668" lon="-2.40117">
        <ele>1.3999999761581</ele>
        <time>2020-12-17T10:08:57.000Z</time>
      </trkpt>
      <trkpt lat="47.34664" lon="-2.40113">
        <ele>1.3999999761581</ele>
        <time>2020-12-17T10:08:58.000Z</time>
      </trkpt>
      <trkpt lat="47.34649" lon="-2.40096">
        <ele>1.3999999761581</ele>
        <time>2020-12-17T10:09:02.000Z</time>
      </trkpt>
      <trkpt lat="47.34645" lon="-2.40091">
        <ele>1.3999999761581</ele>
        <time>2020-12-17T10:09:03.000Z</time>
      </trkpt>
      <trkpt lat="47.34629" lon="-2.40063">
        <ele>1.3999999761581</ele>
        <time>2020-12-17T10:09:08.000Z</time>
      </trkpt>
      <trkpt lat="47.3461" lon="-2.40033">
        <ele>1.7999999523163</ele>
        <time>2020-12-17T10:09:14.000Z</time>
      </trkpt>
      <trkpt lat="47.34607" lon="-2.40027">
        <ele>2.2000000476837</ele>
        <time>2020-12-17T10:09:15.000Z</time>
      </trkpt>
      <trkpt lat="47.34604" lon="-2.40023">
        <ele>2.7999999523163</ele>
        <time>2020-12-17T10:09:16.000Z</time>
      </trkpt>
      <trkpt lat="47.34602" lon="-2.40018">
        <ele>3.2000000476837</ele>
        <time>2020-12-17T10:09:17.000Z</time>
      </trkpt>
      <trkpt lat="47.34599" lon="-2.40015">
        <ele>3.5999999046326</ele>
        <time>2020-12-17T10:09:18.000Z</time>
      </trkpt>
      <trkpt lat="47.34592" lon="-2.40006">
        <ele>3.5999999046326</ele>
        <time>2020-12-17T10:09:21.000Z</time>
      </trkpt>
      <trkpt lat="47.34584" lon="-2.39994">
        <ele>3.5999999046326</ele>
        <time>2020-12-17T10:09:26.000Z</time>
      </trkpt>
      <trkpt lat="47.34581" lon="-2.39991">
        <ele>3.5999999046326</ele>
        <time>2020-12-17T10:09:29.000Z</time>
      </trkpt>
      <trkpt lat="47.34581" lon="-2.39988">
        <ele>3.5999999046326</ele>
        <time>2020-12-17T10:09:32.000Z</time>
      </trkpt>
      <trkpt lat="47.34581" lon="-2.39971">
        <ele>3.5999999046326</ele>
        <time>2020-12-17T10:09:37.000Z</time>
      </trkpt>
      <trkpt lat="47.34588" lon="-2.3995">
        <ele>3.5999999046326</ele>
        <time>2020-12-17T10:09:41.000Z</time>
      </trkpt>
      <trkpt lat="47.3459" lon="-2.39945">
        <ele>3.5999999046326</ele>
        <time>2020-12-17T10:09:42.000Z</time>
      </trkpt>
      <trkpt lat="47.34593" lon="-2.39938">
        <ele>3.5999999046326</ele>
        <time>2020-12-17T10:09:43.000Z</time>
      </trkpt>
      <trkpt lat="47.34599" lon="-2.39916">
        <ele>3.5999999046326</ele>
        <time>2020-12-17T10:09:46.000Z</time>
      </trkpt>
      <trkpt lat="47.34611" lon="-2.39879">
        <ele>3.5999999046326</ele>
        <time>2020-12-17T10:09:51.000Z</time>
      </trkpt>
      <trkpt lat="47.34611" lon="-2.39871">
        <ele>3.5999999046326</ele>
        <time>2020-12-17T10:09:52.000Z</time>
      </trkpt>
      <trkpt lat="47.34605" lon="-2.3986">
        <ele>3.5999999046326</ele>
        <time>2020-12-17T10:09:54.000Z</time>
      </trkpt>
      <trkpt lat="47.34587" lon="-2.3985">
        <ele>3.5999999046326</ele>
        <time>2020-12-17T10:09:58.000Z</time>
      </trkpt>
      <trkpt lat="47.34583" lon="-2.39847">
        <ele>3.5999999046326</ele>
        <time>2020-12-17T10:09:59.000Z</time>
      </trkpt>
      <trkpt lat="47.34561" lon="-2.39831">
        <ele>3.5999999046326</ele>
        <time>2020-12-17T10:10:04.000Z</time>
      </trkpt>
      <trkpt lat="47.3455" lon="-2.3982">
        <ele>3.5999999046326</ele>
        <time>2020-12-17T10:10:07.000Z</time>
      </trkpt>
      <trkpt lat="47.34538" lon="-2.3981">
        <ele>3.5999999046326</ele>
        <time>2020-12-17T10:10:10.000Z</time>
      </trkpt>
      <trkpt lat="47.34535" lon="-2.39806">
        <ele>3.5999999046326</ele>
        <time>2020-12-17T10:10:11.000Z</time>
      </trkpt>
      <trkpt lat="47.34516" lon="-2.3979">
        <ele>3.5999999046326</ele>
        <time>2020-12-17T10:10:16.000Z</time>
      </trkpt>
      <trkpt lat="47.34501" lon="-2.39779">
        <ele>3.5999999046326</ele>
        <time>2020-12-17T10:10:19.000Z</time>
      </trkpt>
      <trkpt lat="47.34496" lon="-2.39777">
        <ele>3.5999999046326</ele>
        <time>2020-12-17T10:10:20.000Z</time>
      </trkpt>
      <trkpt lat="47.34473" lon="-2.39769">
        <ele>3.5999999046326</ele>
        <time>2020-12-17T10:10:25.000Z</time>
      </trkpt>
      <trkpt lat="47.34467" lon="-2.39761">
        <ele>3.5999999046326</ele>
        <time>2020-12-17T10:10:27.000Z</time>
      </trkpt>
      <trkpt lat="47.34465" lon="-2.39731">
        <ele>3.5999999046326</ele>
        <time>2020-12-17T10:10:31.000Z</time>
      </trkpt>
      <trkpt lat="47.34466" lon="-2.39723">
        <ele>3.5999999046326</ele>
        <time>2020-12-17T10:10:32.000Z</time>
      </trkpt>
      <trkpt lat="47.34471" lon="-2.39691">
        <ele>3.5999999046326</ele>
        <time>2020-12-17T10:10:36.000Z</time>
      </trkpt>
      <trkpt lat="47.34475" lon="-2.39677">
        <ele>3.5999999046326</ele>
        <time>2020-12-17T10:10:38.000Z</time>
      </trkpt>
      <trkpt lat="47.34488" lon="-2.3965">
        <ele>3.5999999046326</ele>
        <time>2020-12-17T10:10:42.000Z</time>
      </trkpt>
      <trkpt lat="47.34492" lon="-2.39643">
        <ele>3.5999999046326</ele>
        <time>2020-12-17T10:10:43.000Z</time>
      </trkpt>
      <trkpt lat="47.34515" lon="-2.39596">
        <ele>3.5999999046326</ele>
        <time>2020-12-17T10:10:49.000Z</time>
      </trkpt>
      <trkpt lat="47.34525" lon="-2.39577">
        <ele>3.5999999046326</ele>
        <time>2020-12-17T10:10:52.000Z</time>
      </trkpt>
      <trkpt lat="47.3453" lon="-2.39564">
        <ele>3.5999999046326</ele>
        <time>2020-12-17T10:10:54.000Z</time>
      </trkpt>
      <trkpt lat="47.34538" lon="-2.39545">
        <ele>3.5999999046326</ele>
        <time>2020-12-17T10:10:57.000Z</time>
      </trkpt>
      <trkpt lat="47.34543" lon="-2.39523">
        <ele>3.5999999046326</ele>
        <time>2020-12-17T10:11:00.000Z</time>
      </trkpt>
      <trkpt lat="47.34554" lon="-2.3947">
        <ele>3.5999999046326</ele>
        <time>2020-12-17T10:11:07.000Z</time>
      </trkpt>
      <trkpt lat="47.34557" lon="-2.39464">
        <ele>3.5999999046326</ele>
        <time>2020-12-17T10:11:08.000Z</time>
      </trkpt>
      <trkpt lat="47.34575" lon="-2.39445">
        <ele>3.5999999046326</ele>
        <time>2020-12-17T10:11:12.000Z</time>
      </trkpt>
      <trkpt lat="47.34599" lon="-2.39415">
        <ele>3</ele>
        <time>2020-12-17T10:11:18.000Z</time>
      </trkpt>
      <trkpt lat="47.34602" lon="-2.3941">
        <ele>2.5999999046326</ele>
        <time>2020-12-17T10:11:19.000Z</time>
      </trkpt>
      <trkpt lat="47.34605" lon="-2.39404">
        <ele>2.2000000476837</ele>
        <time>2020-12-17T10:11:20.000Z</time>
      </trkpt>
      <trkpt lat="47.34608" lon="-2.39398">
        <ele>1.7999999523163</ele>
        <time>2020-12-17T10:11:21.000Z</time>
      </trkpt>
      <trkpt lat="47.34611" lon="-2.39392">
        <ele>1.3999999761581</ele>
        <time>2020-12-17T10:11:22.000Z</time>
      </trkpt>
      <trkpt lat="47.34622" lon="-2.39374">
        <ele>1.3999999761581</ele>
        <time>2020-12-17T10:11:25.000Z</time>
      </trkpt>
      <trkpt lat="47.34639" lon="-2.39345">
        <ele>1</ele>
        <time>2020-12-17T10:11:30.000Z</time>
      </trkpt>
      <trkpt lat="47.34642" lon="-2.39339">
        <ele>0.60000002384186</ele>
        <time>2020-12-17T10:11:31.000Z</time>
      </trkpt>
      <trkpt lat="47.34646" lon="-2.39334">
        <ele>0.20000000298023</ele>
        <time>2020-12-17T10:11:32.000Z</time>
      </trkpt>
      <trkpt lat="47.34649" lon="-2.39328">
        <ele>-0.20000000298023</ele>
        <time>2020-12-17T10:11:33.000Z</time>
      </trkpt>
      <trkpt lat="47.34652" lon="-2.39324">
        <ele>-0.60000002384186</ele>
        <time>2020-12-17T10:11:34.000Z</time>
      </trkpt>
      <trkpt lat="47.34656" lon="-2.39315">
        <ele>-0.60000002384186</ele>
        <time>2020-12-17T10:11:36.000Z</time>
      </trkpt>
      <trkpt lat="47.34657" lon="-2.39306">
        <ele>-0.60000002384186</ele>
        <time>2020-12-17T10:11:38.000Z</time>
      </trkpt>
      <trkpt lat="47.34655" lon="-2.39301">
        <ele>-0.60000002384186</ele>
        <time>2020-12-17T10:11:39.000Z</time>
      </trkpt>
      <trkpt lat="47.34643" lon="-2.39291">
        <ele>-0.60000002384186</ele>
        <time>2020-12-17T10:11:42.000Z</time>
      </trkpt>
      <trkpt lat="47.34615" lon="-2.39267">
        <ele>-0.60000002384186</ele>
        <time>2020-12-17T10:11:48.000Z</time>
      </trkpt>
      <trkpt lat="47.34573" lon="-2.3924">
        <ele>-0.60000002384186</ele>
        <time>2020-12-17T10:11:56.000Z</time>
      </trkpt>
      <trkpt lat="47.3454" lon="-2.39229">
        <ele>-0.60000002384186</ele>
        <time>2020-12-17T10:12:02.000Z</time>
      </trkpt>
      <trkpt lat="47.34499" lon="-2.39229">
        <ele>-0.60000002384186</ele>
        <time>2020-12-17T10:12:10.000Z</time>
      </trkpt>
      <trkpt lat="47.34462" lon="-2.39239">
        <ele>-0.60000002384186</ele>
        <time>2020-12-17T10:12:18.000Z</time>
      </trkpt>
      <trkpt lat="47.34448" lon="-2.39245">
        <ele>-0.20000000298023</ele>
        <time>2020-12-17T10:12:21.000Z</time>
      </trkpt>
      <trkpt lat="47.34442" lon="-2.39246">
        <ele>0.20000000298023</ele>
        <time>2020-12-17T10:12:22.000Z</time>
      </trkpt>
      <trkpt lat="47.34437" lon="-2.39248">
        <ele>0.60000002384186</ele>
        <time>2020-12-17T10:12:23.000Z</time>
      </trkpt>
      <trkpt lat="47.34433" lon="-2.39249">
        <ele>1</ele>
        <time>2020-12-17T10:12:24.000Z</time>
      </trkpt>
      <trkpt lat="47.34427" lon="-2.3925">
        <ele>1.3999999761581</ele>
        <time>2020-12-17T10:12:25.000Z</time>
      </trkpt>
      <trkpt lat="47.34418" lon="-2.39252">
        <ele>1.3999999761581</ele>
        <time>2020-12-17T10:12:27.000Z</time>
      </trkpt>
      <trkpt lat="47.34409" lon="-2.39255">
        <ele>1.7999999523163</ele>
        <time>2020-12-17T10:12:29.000Z</time>
      </trkpt>
      <trkpt lat="47.34405" lon="-2.39257">
        <ele>2.2000000476837</ele>
        <time>2020-12-17T10:12:30.000Z</time>
      </trkpt>
      <trkpt lat="47.344" lon="-2.39259">
        <ele>2.7999999523163</ele>
        <time>2020-12-17T10:12:31.000Z</time>
      </trkpt>
      <trkpt lat="47.34395" lon="-2.39261">
        <ele>3.2000000476837</ele>
        <time>2020-12-17T10:12:32.000Z</time>
      </trkpt>
      <trkpt lat="47.3439" lon="-2.39264">
        <ele>3.5999999046326</ele>
        <time>2020-12-17T10:12:33.000Z</time>
      </trkpt>
      <trkpt lat="47.34377" lon="-2.3927">
        <ele>3.5999999046326</ele>
        <time>2020-12-17T10:12:36.000Z</time>
      </trkpt>
      <trkpt lat="47.34373" lon="-2.39273">
        <ele>4</ele>
        <time>2020-12-17T10:12:37.000Z</time>
      </trkpt>
      <trkpt lat="47.34368" lon="-2.39275">
        <ele>4.4000000953674</ele>
        <time>2020-12-17T10:12:38.000Z</time>
      </trkpt>
      <trkpt lat="47.34363" lon="-2.39278">
        <ele>4.8000001907349</ele>
        <time>2020-12-17T10:12:39.000Z</time>
      </trkpt>
      <trkpt lat="47.34359" lon="-2.3928">
        <ele>5.1999998092651</ele>
        <time>2020-12-17T10:12:40.000Z</time>
      </trkpt>
      <trkpt lat="47.34355" lon="-2.39282">
        <ele>5.8000001907349</ele>
        <time>2020-12-17T10:12:41.000Z</time>
      </trkpt>
      <trkpt lat="47.3435" lon="-2.39285">
        <ele>5.8000001907349</ele>
        <time>2020-12-17T10:12:42.000Z</time>
      </trkpt>
      <trkpt lat="47.34341" lon="-2.39289">
        <ele>5.8000001907349</ele>
        <time>2020-12-17T10:12:44.000Z</time>
      </trkpt>
      <trkpt lat="47.34337" lon="-2.39292">
        <ele>6.1999998092651</ele>
        <time>2020-12-17T10:12:45.000Z</time>
      </trkpt>
      <trkpt lat="47.34332" lon="-2.39294">
        <ele>6.5999999046326</ele>
        <time>2020-12-17T10:12:46.000Z</time>
      </trkpt>
      <trkpt lat="47.34328" lon="-2.39297">
        <ele>7</ele>
        <time>2020-12-17T10:12:47.000Z</time>
      </trkpt>
      <trkpt lat="47.34323" lon="-2.39299">
        <ele>7.4000000953674</ele>
        <time>2020-12-17T10:12:49.000Z</time>
      </trkpt>
      <trkpt lat="47.34318" lon="-2.39302">
        <ele>7.8000001907349</ele>
        <time>2020-12-17T10:12:50.000Z</time>
      </trkpt>
      <trkpt lat="47.34296" lon="-2.39313">
        <ele>8.6000003814697</ele>
        <time>2020-12-17T10:12:55.000Z</time>
      </trkpt>
      <trkpt lat="47.34291" lon="-2.39315">
        <ele>9</ele>
        <time>2020-12-17T10:12:56.000Z</time>
      </trkpt>
      <trkpt lat="47.34287" lon="-2.39317">
        <ele>9.3999996185303</ele>
        <time>2020-12-17T10:12:57.000Z</time>
      </trkpt>
      <trkpt lat="47.34282" lon="-2.39319">
        <ele>9.8000001907349</ele>
        <time>2020-12-17T10:12:58.000Z</time>
      </trkpt>
      <trkpt lat="47.34266" lon="-2.39328">
        <ele>9.8000001907349</ele>
        <time>2020-12-17T10:13:02.000Z</time>
      </trkpt>
      <trkpt lat="47.34231" lon="-2.39354">
        <ele>9.8000001907349</ele>
        <time>2020-12-17T10:13:10.000Z</time>
      </trkpt>
      <trkpt lat="47.34227" lon="-2.39357">
        <ele>9.8000001907349</ele>
        <time>2020-12-17T10:13:11.000Z</time>
      </trkpt>
      <trkpt lat="47.3421" lon="-2.39368">
        <ele>9.8000001907349</ele>
        <time>2020-12-17T10:13:15.000Z</time>
      </trkpt>
      <trkpt lat="47.34187" lon="-2.39383">
        <ele>10.199999809265</ele>
        <time>2020-12-17T10:13:21.000Z</time>
      </trkpt>
      <trkpt lat="47.34183" lon="-2.39385">
        <ele>10.60000038147</ele>
        <time>2020-12-17T10:13:22.000Z</time>
      </trkpt>
      <trkpt lat="47.34179" lon="-2.39388">
        <ele>11.199999809265</ele>
        <time>2020-12-17T10:13:23.000Z</time>
      </trkpt>
      <trkpt lat="47.34174" lon="-2.3939">
        <ele>11.60000038147</ele>
        <time>2020-12-17T10:13:24.000Z</time>
      </trkpt>
      <trkpt lat="47.3417" lon="-2.39393">
        <ele>12</ele>
        <time>2020-12-17T10:13:25.000Z</time>
      </trkpt>
      <trkpt lat="47.34158" lon="-2.39402">
        <ele>12</ele>
        <time>2020-12-17T10:13:28.000Z</time>
      </trkpt>
      <trkpt lat="47.34131" lon="-2.3942">
        <ele>12</ele>
        <time>2020-12-17T10:13:34.000Z</time>
      </trkpt>
      <trkpt lat="47.3412" lon="-2.39425">
        <ele>12</ele>
        <time>2020-12-17T10:13:36.000Z</time>
      </trkpt>
      <trkpt lat="47.34105" lon="-2.39433">
        <ele>12</ele>
        <time>2020-12-17T10:13:39.000Z</time>
      </trkpt>
      <trkpt lat="47.34093" lon="-2.39424">
        <ele>12</ele>
        <time>2020-12-17T10:13:42.000Z</time>
      </trkpt>
      <trkpt lat="47.34087" lon="-2.39404">
        <ele>12</ele>
        <time>2020-12-17T10:13:45.000Z</time>
      </trkpt>
      <trkpt lat="47.34086" lon="-2.39397">
        <ele>12</ele>
        <time>2020-12-17T10:13:46.000Z</time>
      </trkpt>
      <trkpt lat="47.34079" lon="-2.39355">
        <ele>12</ele>
        <time>2020-12-17T10:13:51.000Z</time>
      </trkpt>
      <trkpt lat="47.34067" lon="-2.39282">
        <ele>12</ele>
        <time>2020-12-17T10:13:59.000Z</time>
      </trkpt>
      <trkpt lat="47.34062" lon="-2.39266">
        <ele>12</ele>
        <time>2020-12-17T10:14:01.000Z</time>
      </trkpt>
      <trkpt lat="47.34055" lon="-2.39256">
        <ele>12</ele>
        <time>2020-12-17T10:14:03.000Z</time>
      </trkpt>
      <trkpt lat="47.34039" lon="-2.39255">
        <ele>12</ele>
        <time>2020-12-17T10:14:06.000Z</time>
      </trkpt>
      <trkpt lat="47.34034" lon="-2.39255">
        <ele>12</ele>
        <time>2020-12-17T10:14:07.000Z</time>
      </trkpt>
      <trkpt lat="47.34001" lon="-2.39258">
        <ele>12</ele>
        <time>2020-12-17T10:14:13.000Z</time>
      </trkpt>
      <trkpt lat="47.33996" lon="-2.39259">
        <ele>12</ele>
        <time>2020-12-17T10:14:14.000Z</time>
      </trkpt>
      <trkpt lat="47.33958" lon="-2.39265">
        <ele>12</ele>
        <time>2020-12-17T10:14:21.000Z</time>
      </trkpt>
      <trkpt lat="47.33926" lon="-2.39272">
        <ele>12</ele>
        <time>2020-12-17T10:14:27.000Z</time>
      </trkpt>
      <trkpt lat="47.33884" lon="-2.39282">
        <ele>12</ele>
        <time>2020-12-17T10:14:35.000Z</time>
      </trkpt>
      <trkpt lat="47.33869" lon="-2.39286">
        <ele>12</ele>
        <time>2020-12-17T10:14:38.000Z</time>
      </trkpt>
      <trkpt lat="47.33857" lon="-2.39287">
        <ele>12</ele>
        <time>2020-12-17T10:14:40.000Z</time>
      </trkpt>
      <trkpt lat="47.33819" lon="-2.39292">
        <ele>12.39999961853</ele>
        <time>2020-12-17T10:14:47.000Z</time>
      </trkpt>
      <trkpt lat="47.33814" lon="-2.39292">
        <ele>12.800000190735</ele>
        <time>2020-12-17T10:14:48.000Z</time>
      </trkpt>
      <trkpt lat="47.33808" lon="-2.39293">
        <ele>13.199999809265</ele>
        <time>2020-12-17T10:14:49.000Z</time>
      </trkpt>
      <trkpt lat="47.33803" lon="-2.39294">
        <ele>13.60000038147</ele>
        <time>2020-12-17T10:14:50.000Z</time>
      </trkpt>
      <trkpt lat="47.33797" lon="-2.39295">
        <ele>14</ele>
        <time>2020-12-17T10:14:51.000Z</time>
      </trkpt>
      <trkpt lat="47.33782" lon="-2.39298">
        <ele>14</ele>
        <time>2020-12-17T10:14:54.000Z</time>
      </trkpt>
      <trkpt lat="47.33757" lon="-2.39302">
        <ele>14</ele>
        <time>2020-12-17T10:14:59.000Z</time>
      </trkpt>
      <trkpt lat="47.33748" lon="-2.39304">
        <ele>14.39999961853</ele>
        <time>2020-12-17T10:15:01.000Z</time>
      </trkpt>
      <trkpt lat="47.33743" lon="-2.39304">
        <ele>14.800000190735</ele>
        <time>2020-12-17T10:15:02.000Z</time>
      </trkpt>
      <trkpt lat="47.33738" lon="-2.39305">
        <ele>15.199999809265</ele>
        <time>2020-12-17T10:15:03.000Z</time>
      </trkpt>
      <trkpt lat="47.33734" lon="-2.39305">
        <ele>15.60000038147</ele>
        <time>2020-12-17T10:15:04.000Z</time>
      </trkpt>
      <trkpt lat="47.33729" lon="-2.39306">
        <ele>16</ele>
        <time>2020-12-17T10:15:05.000Z</time>
      </trkpt>
      <trkpt lat="47.33719" lon="-2.39308">
        <ele>16</ele>
        <time>2020-12-17T10:15:07.000Z</time>
      </trkpt>
      <trkpt lat="47.33711" lon="-2.39323">
        <ele>16</ele>
        <time>2020-12-17T10:15:10.000Z</time>
      </trkpt>
      <trkpt lat="47.33709" lon="-2.39353">
        <ele>16</ele>
        <time>2020-12-17T10:15:14.000Z</time>
      </trkpt>
      <trkpt lat="47.33709" lon="-2.39361">
        <ele>16</ele>
        <time>2020-12-17T10:15:15.000Z</time>
      </trkpt>
      <trkpt lat="47.33708" lon="-2.39368">
        <ele>16</ele>
        <time>2020-12-17T10:15:16.000Z</time>
      </trkpt>
      <trkpt lat="47.33705" lon="-2.39396">
        <ele>16</ele>
        <time>2020-12-17T10:15:20.000Z</time>
      </trkpt>
      <trkpt lat="47.33701" lon="-2.39441">
        <ele>16.39999961853</ele>
        <time>2020-12-17T10:15:26.000Z</time>
      </trkpt>
      <trkpt lat="47.337" lon="-2.39448">
        <ele>16.799999237061</ele>
        <time>2020-12-17T10:15:27.000Z</time>
      </trkpt>
      <trkpt lat="47.33698" lon="-2.39455">
        <ele>17.39999961853</ele>
        <time>2020-12-17T10:15:28.000Z</time>
      </trkpt>
      <trkpt lat="47.33696" lon="-2.39462">
        <ele>17.799999237061</ele>
        <time>2020-12-17T10:15:29.000Z</time>
      </trkpt>
      <trkpt lat="47.33695" lon="-2.39469">
        <ele>18.200000762939</ele>
        <time>2020-12-17T10:15:30.000Z</time>
      </trkpt>
      <trkpt lat="47.33692" lon="-2.39476">
        <ele>18.200000762939</ele>
        <time>2020-12-17T10:15:31.000Z</time>
      </trkpt>
      <trkpt lat="47.33681" lon="-2.39513">
        <ele>18.200000762939</ele>
        <time>2020-12-17T10:15:36.000Z</time>
      </trkpt>
      <trkpt lat="47.33664" lon="-2.3956">
        <ele>18.200000762939</ele>
        <time>2020-12-17T10:15:42.000Z</time>
      </trkpt>
      <trkpt lat="47.33642" lon="-2.39623">
        <ele>18.200000762939</ele>
        <time>2020-12-17T10:15:49.000Z</time>
      </trkpt>
      <trkpt lat="47.33627" lon="-2.39658">
        <ele>17.799999237061</ele>
        <time>2020-12-17T10:15:53.000Z</time>
      </trkpt>
      <trkpt lat="47.33622" lon="-2.39666">
        <ele>17.39999961853</ele>
        <time>2020-12-17T10:15:54.000Z</time>
      </trkpt>
      <trkpt lat="47.33617" lon="-2.39674">
        <ele>17</ele>
        <time>2020-12-17T10:15:55.000Z</time>
      </trkpt>
      <trkpt lat="47.33612" lon="-2.39681">
        <ele>16.60000038147</ele>
        <time>2020-12-17T10:15:56.000Z</time>
      </trkpt>
      <trkpt lat="47.33607" lon="-2.39688">
        <ele>16.200000762939</ele>
        <time>2020-12-17T10:15:57.000Z</time>
      </trkpt>
      <trkpt lat="47.33593" lon="-2.3971">
        <ele>16.200000762939</ele>
        <time>2020-12-17T10:16:00.000Z</time>
      </trkpt>
      <trkpt lat="47.33574" lon="-2.39742">
        <ele>16.200000762939</ele>
        <time>2020-12-17T10:16:05.000Z</time>
      </trkpt>
      <trkpt lat="47.3357" lon="-2.39747">
        <ele>16.200000762939</ele>
        <time>2020-12-17T10:16:06.000Z</time>
      </trkpt>
      <trkpt lat="47.33543" lon="-2.39774">
        <ele>16.200000762939</ele>
        <time>2020-12-17T10:16:12.000Z</time>
      </trkpt>
      <trkpt lat="47.33515" lon="-2.39811">
        <ele>16.200000762939</ele>
        <time>2020-12-17T10:16:19.000Z</time>
      </trkpt>
      <trkpt lat="47.33488" lon="-2.39851">
        <ele>16.200000762939</ele>
        <time>2020-12-17T10:16:26.000Z</time>
      </trkpt>
      <trkpt lat="47.33461" lon="-2.39887">
        <ele>16.200000762939</ele>
        <time>2020-12-17T10:16:33.000Z</time>
      </trkpt>
      <trkpt lat="47.33442" lon="-2.39912">
        <ele>16.60000038147</ele>
        <time>2020-12-17T10:16:38.000Z</time>
      </trkpt>
      <trkpt lat="47.33439" lon="-2.39917">
        <ele>17</ele>
        <time>2020-12-17T10:16:39.000Z</time>
      </trkpt>
      <trkpt lat="47.33435" lon="-2.39922">
        <ele>17.39999961853</ele>
        <time>2020-12-17T10:16:40.000Z</time>
      </trkpt>
      <trkpt lat="47.33432" lon="-2.39926">
        <ele>17.799999237061</ele>
        <time>2020-12-17T10:16:41.000Z</time>
      </trkpt>
      <trkpt lat="47.33429" lon="-2.3993">
        <ele>18.200000762939</ele>
        <time>2020-12-17T10:16:42.000Z</time>
      </trkpt>
      <trkpt lat="47.33407" lon="-2.39967">
        <ele>18.200000762939</ele>
        <time>2020-12-17T10:16:49.000Z</time>
      </trkpt>
      <trkpt lat="47.33401" lon="-2.39976">
        <ele>18.60000038147</ele>
        <time>2020-12-17T10:16:51.000Z</time>
      </trkpt>
      <trkpt lat="47.33398" lon="-2.39981">
        <ele>19</ele>
        <time>2020-12-17T10:16:52.000Z</time>
      </trkpt>
      <trkpt lat="47.33394" lon="-2.39986">
        <ele>19.39999961853</ele>
        <time>2020-12-17T10:16:53.000Z</time>
      </trkpt>
      <trkpt lat="47.33391" lon="-2.39991">
        <ele>19.799999237061</ele>
        <time>2020-12-17T10:16:54.000Z</time>
      </trkpt>
      <trkpt lat="47.33388" lon="-2.39996">
        <ele>20.39999961853</ele>
        <time>2020-12-17T10:16:55.000Z</time>
      </trkpt>
      <trkpt lat="47.33375" lon="-2.40016">
        <ele>20.39999961853</ele>
        <time>2020-12-17T10:16:57.000Z</time>
      </trkpt>
      <trkpt lat="47.3336" lon="-2.40042">
        <ele>20.39999961853</ele>
        <time>2020-12-17T10:17:04.000Z</time>
      </trkpt>
      <trkpt lat="47.33357" lon="-2.40053">
        <ele>20.39999961853</ele>
        <time>2020-12-17T10:17:06.000Z</time>
      </trkpt>
      <trkpt lat="47.33356" lon="-2.40065">
        <ele>20.39999961853</ele>
        <time>2020-12-17T10:17:08.000Z</time>
      </trkpt>
      <trkpt lat="47.33355" lon="-2.40079">
        <ele>20.799999237061</ele>
        <time>2020-12-17T10:17:10.000Z</time>
      </trkpt>
      <trkpt lat="47.33354" lon="-2.40086">
        <ele>21.200000762939</ele>
        <time>2020-12-17T10:17:11.000Z</time>
      </trkpt>
      <trkpt lat="47.33354" lon="-2.40094">
        <ele>21.60000038147</ele>
        <time>2020-12-17T10:17:12.000Z</time>
      </trkpt>
      <trkpt lat="47.33353" lon="-2.40101">
        <ele>22</ele>
        <time>2020-12-17T10:17:13.000Z</time>
      </trkpt>
      <trkpt lat="47.33353" lon="-2.40109">
        <ele>22.39999961853</ele>
        <time>2020-12-17T10:17:14.000Z</time>
      </trkpt>
      <trkpt lat="47.33352" lon="-2.4014">
        <ele>22.39999961853</ele>
        <time>2020-12-17T10:17:18.000Z</time>
      </trkpt>
      <trkpt lat="47.33347" lon="-2.40187">
        <ele>22.39999961853</ele>
        <time>2020-12-17T10:17:24.000Z</time>
      </trkpt>
      <trkpt lat="47.33342" lon="-2.40241">
        <ele>22.39999961853</ele>
        <time>2020-12-17T10:17:31.000Z</time>
      </trkpt>
      <trkpt lat="47.33337" lon="-2.40296">
        <ele>22.39999961853</ele>
        <time>2020-12-17T10:17:38.000Z</time>
      </trkpt>
      <trkpt lat="47.33334" lon="-2.40314">
        <ele>22.39999961853</ele>
        <time>2020-12-17T10:17:40.000Z</time>
      </trkpt>
      <trkpt lat="47.33326" lon="-2.40338">
        <ele>22.39999961853</ele>
        <time>2020-12-17T10:17:43.000Z</time>
      </trkpt>
      <trkpt lat="47.33313" lon="-2.40385">
        <ele>21.799999237061</ele>
        <time>2020-12-17T10:17:48.000Z</time>
      </trkpt>
      <trkpt lat="47.33314" lon="-2.40396">
        <ele>21.39999961853</ele>
        <time>2020-12-17T10:17:49.000Z</time>
      </trkpt>
      <trkpt lat="47.33315" lon="-2.40407">
        <ele>20.799999237061</ele>
        <time>2020-12-17T10:17:50.000Z</time>
      </trkpt>
      <trkpt lat="47.33315" lon="-2.40418">
        <ele>19.799999237061</ele>
        <time>2020-12-17T10:17:51.000Z</time>
      </trkpt>
      <trkpt lat="47.33312" lon="-2.40441">
        <ele>19.39999961853</ele>
        <time>2020-12-17T10:17:53.000Z</time>
      </trkpt>
      <trkpt lat="47.3331" lon="-2.40453">
        <ele>19</ele>
        <time>2020-12-17T10:17:54.000Z</time>
      </trkpt>
      <trkpt lat="47.33309" lon="-2.40465">
        <ele>18.60000038147</ele>
        <time>2020-12-17T10:17:55.000Z</time>
      </trkpt>
      <trkpt lat="47.33308" lon="-2.40477">
        <ele>18.200000762939</ele>
        <time>2020-12-17T10:17:56.000Z</time>
      </trkpt>
      <trkpt lat="47.33307" lon="-2.40488">
        <ele>17.799999237061</ele>
        <time>2020-12-17T10:17:57.000Z</time>
      </trkpt>
      <trkpt lat="47.33303" lon="-2.40507">
        <ele>17.799999237061</ele>
        <time>2020-12-17T10:17:59.000Z</time>
      </trkpt>
      <trkpt lat="47.33299" lon="-2.40514">
        <ele>17.39999961853</ele>
        <time>2020-12-17T10:18:00.000Z</time>
      </trkpt>
      <trkpt lat="47.33295" lon="-2.40522">
        <ele>17</ele>
        <time>2020-12-17T10:18:01.000Z</time>
      </trkpt>
      <trkpt lat="47.3329" lon="-2.40529">
        <ele>16.60000038147</ele>
        <time>2020-12-17T10:18:02.000Z</time>
      </trkpt>
      <trkpt lat="47.33286" lon="-2.40536">
        <ele>16.200000762939</ele>
        <time>2020-12-17T10:18:03.000Z</time>
      </trkpt>
      <trkpt lat="47.33283" lon="-2.40543">
        <ele>15.800000190735</ele>
        <time>2020-12-17T10:18:04.000Z</time>
      </trkpt>
      <trkpt lat="47.33281" lon="-2.40551">
        <ele>15.800000190735</ele>
        <time>2020-12-17T10:18:05.000Z</time>
      </trkpt>
      <trkpt lat="47.33264" lon="-2.40608">
        <ele>15.800000190735</ele>
        <time>2020-12-17T10:18:12.000Z</time>
      </trkpt>
      <trkpt lat="47.33248" lon="-2.40665">
        <ele>15.800000190735</ele>
        <time>2020-12-17T10:18:19.000Z</time>
      </trkpt>
      <trkpt lat="47.33239" lon="-2.40704">
        <ele>15.800000190735</ele>
        <time>2020-12-17T10:18:24.000Z</time>
      </trkpt>
      <trkpt lat="47.33238" lon="-2.40712">
        <ele>15.800000190735</ele>
        <time>2020-12-17T10:18:25.000Z</time>
      </trkpt>
      <trkpt lat="47.33237" lon="-2.4072">
        <ele>16.200000762939</ele>
        <time>2020-12-17T10:18:26.000Z</time>
      </trkpt>
      <trkpt lat="47.33236" lon="-2.40728">
        <ele>16.60000038147</ele>
        <time>2020-12-17T10:18:27.000Z</time>
      </trkpt>
      <trkpt lat="47.33235" lon="-2.40737">
        <ele>17</ele>
        <time>2020-12-17T10:18:28.000Z</time>
      </trkpt>
      <trkpt lat="47.33234" lon="-2.40745">
        <ele>17.39999961853</ele>
        <time>2020-12-17T10:18:29.000Z</time>
      </trkpt>
      <trkpt lat="47.33233" lon="-2.40753">
        <ele>17.799999237061</ele>
        <time>2020-12-17T10:18:30.000Z</time>
      </trkpt>
      <trkpt lat="47.33232" lon="-2.40761">
        <ele>17.799999237061</ele>
        <time>2020-12-17T10:18:31.000Z</time>
      </trkpt>
      <trkpt lat="47.3323" lon="-2.40769">
        <ele>17.799999237061</ele>
        <time>2020-12-17T10:18:32.000Z</time>
      </trkpt>
      <trkpt lat="47.33224" lon="-2.4079">
        <ele>17.799999237061</ele>
        <time>2020-12-17T10:18:35.000Z</time>
      </trkpt>
      <trkpt lat="47.33221" lon="-2.40796">
        <ele>17.799999237061</ele>
        <time>2020-12-17T10:18:36.000Z</time>
      </trkpt>
      <trkpt lat="47.33215" lon="-2.40808">
        <ele>17.799999237061</ele>
        <time>2020-12-17T10:18:38.000Z</time>
      </trkpt>
      <trkpt lat="47.33211" lon="-2.40813">
        <ele>18.200000762939</ele>
        <time>2020-12-17T10:18:39.000Z</time>
      </trkpt>
      <trkpt lat="47.33207" lon="-2.40818">
        <ele>18.60000038147</ele>
        <time>2020-12-17T10:18:40.000Z</time>
      </trkpt>
      <trkpt lat="47.33203" lon="-2.40824">
        <ele>19.39999961853</ele>
        <time>2020-12-17T10:18:41.000Z</time>
      </trkpt>
      <trkpt lat="47.332" lon="-2.40829">
        <ele>20</ele>
        <time>2020-12-17T10:18:42.000Z</time>
      </trkpt>
      <trkpt lat="47.33178" lon="-2.40861">
        <ele>20</ele>
        <time>2020-12-17T10:18:48.000Z</time>
      </trkpt>
      <trkpt lat="47.33171" lon="-2.40871">
        <ele>20.39999961853</ele>
        <time>2020-12-17T10:18:50.000Z</time>
      </trkpt>
      <trkpt lat="47.33168" lon="-2.40877">
        <ele>20.799999237061</ele>
        <time>2020-12-17T10:18:51.000Z</time>
      </trkpt>
      <trkpt lat="47.33165" lon="-2.40882">
        <ele>21.200000762939</ele>
        <time>2020-12-17T10:18:52.000Z</time>
      </trkpt>
      <trkpt lat="47.33162" lon="-2.40888">
        <ele>21.60000038147</ele>
        <time>2020-12-17T10:18:53.000Z</time>
      </trkpt>
      <trkpt lat="47.33159" lon="-2.40894">
        <ele>22</ele>
        <time>2020-12-17T10:18:54.000Z</time>
      </trkpt>
      <trkpt lat="47.33146" lon="-2.40918">
        <ele>22</ele>
        <time>2020-12-17T10:18:58.000Z</time>
      </trkpt>
      <trkpt lat="47.33143" lon="-2.40923">
        <ele>22</ele>
        <time>2020-12-17T10:18:59.000Z</time>
      </trkpt>
      <trkpt lat="47.3314" lon="-2.40929">
        <ele>22</ele>
        <time>2020-12-17T10:19:00.000Z</time>
      </trkpt>
      <trkpt lat="47.33125" lon="-2.40961">
        <ele>22</ele>
        <time>2020-12-17T10:19:05.000Z</time>
      </trkpt>
      <trkpt lat="47.33123" lon="-2.40967">
        <ele>22</ele>
        <time>2020-12-17T10:19:06.000Z</time>
      </trkpt>
      <trkpt lat="47.33114" lon="-2.40993">
        <ele>22</ele>
        <time>2020-12-17T10:19:10.000Z</time>
      </trkpt>
      <trkpt lat="47.33102" lon="-2.41027">
        <ele>22.39999961853</ele>
        <time>2020-12-17T10:19:15.000Z</time>
      </trkpt>
      <trkpt lat="47.33099" lon="-2.41034">
        <ele>22.799999237061</ele>
        <time>2020-12-17T10:19:16.000Z</time>
      </trkpt>
      <trkpt lat="47.33097" lon="-2.41041">
        <ele>23.200000762939</ele>
        <time>2020-12-17T10:19:17.000Z</time>
      </trkpt>
      <trkpt lat="47.33095" lon="-2.41048">
        <ele>23.60000038147</ele>
        <time>2020-12-17T10:19:18.000Z</time>
      </trkpt>
      <trkpt lat="47.33092" lon="-2.41055">
        <ele>24</ele>
        <time>2020-12-17T10:19:19.000Z</time>
      </trkpt>
      <trkpt lat="47.33083" lon="-2.41083">
        <ele>24</ele>
        <time>2020-12-17T10:19:23.000Z</time>
      </trkpt>
      <trkpt lat="47.33065" lon="-2.41128">
        <ele>24</ele>
        <time>2020-12-17T10:19:30.000Z</time>
      </trkpt>
      <trkpt lat="47.33053" lon="-2.41151">
        <ele>24</ele>
        <time>2020-12-17T10:19:34.000Z</time>
      </trkpt>
      <trkpt lat="47.33047" lon="-2.41163">
        <ele>24</ele>
        <time>2020-12-17T10:19:36.000Z</time>
      </trkpt>
      <trkpt lat="47.3304" lon="-2.41174">
        <ele>24</ele>
        <time>2020-12-17T10:19:38.000Z</time>
      </trkpt>
      <trkpt lat="47.33034" lon="-2.41185">
        <ele>24</ele>
        <time>2020-12-17T10:19:40.000Z</time>
      </trkpt>
      <trkpt lat="47.33026" lon="-2.41203">
        <ele>24</ele>
        <time>2020-12-17T10:19:43.000Z</time>
      </trkpt>
      <trkpt lat="47.33023" lon="-2.41208">
        <ele>24</ele>
        <time>2020-12-17T10:19:44.000Z</time>
      </trkpt>
      <trkpt lat="47.33014" lon="-2.41222">
        <ele>24</ele>
        <time>2020-12-17T10:19:47.000Z</time>
      </trkpt>
      <trkpt lat="47.33008" lon="-2.41231">
        <ele>24</ele>
        <time>2020-12-17T10:19:49.000Z</time>
      </trkpt>
      <trkpt lat="47.32995" lon="-2.41245">
        <ele>24.39999961853</ele>
        <time>2020-12-17T10:19:53.000Z</time>
      </trkpt>
      <trkpt lat="47.32991" lon="-2.41248">
        <ele>25</ele>
        <time>2020-12-17T10:19:54.000Z</time>
      </trkpt>
      <trkpt lat="47.32987" lon="-2.4125">
        <ele>25.799999237061</ele>
        <time>2020-12-17T10:19:55.000Z</time>
      </trkpt>
      <trkpt lat="47.32982" lon="-2.41252">
        <ele>26.200000762939</ele>
        <time>2020-12-17T10:19:56.000Z</time>
      </trkpt>
      <trkpt lat="47.32964" lon="-2.4126">
        <ele>26.200000762939</ele>
        <time>2020-12-17T10:20:00.000Z</time>
      </trkpt>
      <trkpt lat="47.32932" lon="-2.4127">
        <ele>26.200000762939</ele>
        <time>2020-12-17T10:20:07.000Z</time>
      </trkpt>
      <trkpt lat="47.32913" lon="-2.41277">
        <ele>26.200000762939</ele>
        <time>2020-12-17T10:20:11.000Z</time>
      </trkpt>
      <trkpt lat="47.32908" lon="-2.41277">
        <ele>26.200000762939</ele>
        <time>2020-12-17T10:20:12.000Z</time>
      </trkpt>
      <trkpt lat="47.32874" lon="-2.41281">
        <ele>26.200000762939</ele>
        <time>2020-12-17T10:20:19.000Z</time>
      </trkpt>
      <trkpt lat="47.32834" lon="-2.41286">
        <ele>26.200000762939</ele>
        <time>2020-12-17T10:20:28.000Z</time>
      </trkpt>
      <trkpt lat="47.32829" lon="-2.41291">
        <ele>26.200000762939</ele>
        <time>2020-12-17T10:20:31.000Z</time>
      </trkpt>
      <trkpt lat="47.32817" lon="-2.41288">
        <ele>26.200000762939</ele>
        <time>2020-12-17T10:20:35.000Z</time>
      </trkpt>
      <trkpt lat="47.32813" lon="-2.41287">
        <ele>26.200000762939</ele>
        <time>2020-12-17T10:20:36.000Z</time>
      </trkpt>
      <trkpt lat="47.32799" lon="-2.41287">
        <ele>26.200000762939</ele>
        <time>2020-12-17T10:20:39.000Z</time>
      </trkpt>
      <trkpt lat="47.32794" lon="-2.41287">
        <ele>26.200000762939</ele>
        <time>2020-12-17T10:20:40.000Z</time>
      </trkpt>
      <trkpt lat="47.32765" lon="-2.41295">
        <ele>26.200000762939</ele>
        <time>2020-12-17T10:20:46.000Z</time>
      </trkpt>
      <trkpt lat="47.32744" lon="-2.41307">
        <ele>26.200000762939</ele>
        <time>2020-12-17T10:20:51.000Z</time>
      </trkpt>
      <trkpt lat="47.32741" lon="-2.41311">
        <ele>26.200000762939</ele>
        <time>2020-12-17T10:20:52.000Z</time>
      </trkpt>
      <trkpt lat="47.32741" lon="-2.41329">
        <ele>26.200000762939</ele>
        <time>2020-12-17T10:20:55.000Z</time>
      </trkpt>
      <trkpt lat="47.32742" lon="-2.41343">
        <ele>26.60000038147</ele>
        <time>2020-12-17T10:20:57.000Z</time>
      </trkpt>
      <trkpt lat="47.32744" lon="-2.4135">
        <ele>27</ele>
        <time>2020-12-17T10:20:58.000Z</time>
      </trkpt>
      <trkpt lat="47.32746" lon="-2.41356">
        <ele>27.39999961853</ele>
        <time>2020-12-17T10:20:59.000Z</time>
      </trkpt>
      <trkpt lat="47.32747" lon="-2.41362">
        <ele>27.799999237061</ele>
        <time>2020-12-17T10:21:00.000Z</time>
      </trkpt>
      <trkpt lat="47.32748" lon="-2.41369">
        <ele>28.200000762939</ele>
        <time>2020-12-17T10:21:01.000Z</time>
      </trkpt>
      <trkpt lat="47.32752" lon="-2.41396">
        <ele>28.200000762939</ele>
        <time>2020-12-17T10:21:05.000Z</time>
      </trkpt>
      <trkpt lat="47.32755" lon="-2.41416">
        <ele>27.799999237061</ele>
        <time>2020-12-17T10:21:08.000Z</time>
      </trkpt>
      <trkpt lat="47.32755" lon="-2.41422">
        <ele>27</ele>
        <time>2020-12-17T10:21:09.000Z</time>
      </trkpt>
      <trkpt lat="47.32755" lon="-2.41429">
        <ele>26.60000038147</ele>
        <time>2020-12-17T10:21:10.000Z</time>
      </trkpt>
      <trkpt lat="47.32755" lon="-2.41435">
        <ele>26.200000762939</ele>
        <time>2020-12-17T10:21:11.000Z</time>
      </trkpt>
      <trkpt lat="47.32755" lon="-2.41442">
        <ele>26.200000762939</ele>
        <time>2020-12-17T10:21:12.000Z</time>
      </trkpt>
      <trkpt lat="47.32755" lon="-2.41495">
        <ele>26.200000762939</ele>
        <time>2020-12-17T10:21:20.000Z</time>
      </trkpt>
      <trkpt lat="47.32755" lon="-2.4152">
        <ele>26.200000762939</ele>
        <time>2020-12-17T10:21:25.000Z</time>
      </trkpt>
      <trkpt lat="47.32758" lon="-2.41526">
        <ele>26.200000762939</ele>
        <time>2020-12-17T10:21:29.000Z</time>
      </trkpt>
      <trkpt lat="47.32757" lon="-2.4153">
        <ele>26.200000762939</ele>
        <time>2020-12-17T10:21:31.000Z</time>
      </trkpt>
      <trkpt lat="47.32753" lon="-2.41534">
        <ele>26.200000762939</ele>
        <time>2020-12-17T10:21:33.000Z</time>
      </trkpt>
      <trkpt lat="47.32753" lon="-2.41544">
        <ele>26.200000762939</ele>
        <time>2020-12-17T10:21:36.000Z</time>
      </trkpt>
      <trkpt lat="47.32759" lon="-2.41556">
        <ele>26.200000762939</ele>
        <time>2020-12-17T10:21:42.000Z</time>
      </trkpt>
      <trkpt lat="47.32765" lon="-2.41574">
        <ele>26.200000762939</ele>
        <time>2020-12-17T10:21:46.000Z</time>
      </trkpt>
      <trkpt lat="47.32765" lon="-2.41581">
        <ele>26.200000762939</ele>
        <time>2020-12-17T10:21:47.000Z</time>
      </trkpt>
      <trkpt lat="47.32758" lon="-2.41606">
        <ele>26.200000762939</ele>
        <time>2020-12-17T10:21:51.000Z</time>
      </trkpt>
      <trkpt lat="47.32741" lon="-2.41619">
        <ele>26.200000762939</ele>
        <time>2020-12-17T10:21:55.000Z</time>
      </trkpt>
      <trkpt lat="47.32728" lon="-2.41615">
        <ele>26.200000762939</ele>
        <time>2020-12-17T10:21:58.000Z</time>
      </trkpt>
      <trkpt lat="47.32723" lon="-2.41616">
        <ele>26.200000762939</ele>
        <time>2020-12-17T10:21:59.000Z</time>
      </trkpt>
      <trkpt lat="47.32717" lon="-2.41619">
        <ele>26.200000762939</ele>
        <time>2020-12-17T10:22:01.000Z</time>
      </trkpt>
      <trkpt lat="47.32711" lon="-2.41628">
        <ele>26.200000762939</ele>
        <time>2020-12-17T10:22:04.000Z</time>
      </trkpt>
      <trkpt lat="47.32699" lon="-2.41627">
        <ele>26.200000762939</ele>
        <time>2020-12-17T10:22:07.000Z</time>
      </trkpt>
      <trkpt lat="47.32684" lon="-2.41626">
        <ele>26.60000038147</ele>
        <time>2020-12-17T10:22:10.000Z</time>
      </trkpt>
      <trkpt lat="47.3268" lon="-2.41625">
        <ele>27.200000762939</ele>
        <time>2020-12-17T10:22:11.000Z</time>
      </trkpt>
      <trkpt lat="47.32675" lon="-2.41624">
        <ele>27.60000038147</ele>
        <time>2020-12-17T10:22:12.000Z</time>
      </trkpt>
      <trkpt lat="47.3267" lon="-2.41623">
        <ele>28</ele>
        <time>2020-12-17T10:22:13.000Z</time>
      </trkpt>
      <trkpt lat="47.32665" lon="-2.41621">
        <ele>28.39999961853</ele>
        <time>2020-12-17T10:22:14.000Z</time>
      </trkpt>
      <trkpt lat="47.32645" lon="-2.41614">
        <ele>28.39999961853</ele>
        <time>2020-12-17T10:22:18.000Z</time>
      </trkpt>
      <trkpt lat="47.32627" lon="-2.41608">
        <ele>28.799999237061</ele>
        <time>2020-12-17T10:22:22.000Z</time>
      </trkpt>
      <trkpt lat="47.32623" lon="-2.41606">
        <ele>29.60000038147</ele>
        <time>2020-12-17T10:22:23.000Z</time>
      </trkpt>
      <trkpt lat="47.32619" lon="-2.41604">
        <ele>30</ele>
        <time>2020-12-17T10:22:24.000Z</time>
      </trkpt>
      <trkpt lat="47.32615" lon="-2.41604">
        <ele>30.39999961853</ele>
        <time>2020-12-17T10:22:25.000Z</time>
      </trkpt>
      <trkpt lat="47.32597" lon="-2.41607">
        <ele>30.39999961853</ele>
        <time>2020-12-17T10:22:29.000Z</time>
      </trkpt>
      <trkpt lat="47.32588" lon="-2.41607">
        <ele>30.39999961853</ele>
        <time>2020-12-17T10:22:31.000Z</time>
      </trkpt>
      <trkpt lat="47.32579" lon="-2.41602">
        <ele>30.39999961853</ele>
        <time>2020-12-17T10:22:33.000Z</time>
      </trkpt>
      <trkpt lat="47.32576" lon="-2.41598">
        <ele>30.799999237061</ele>
        <time>2020-12-17T10:22:34.000Z</time>
      </trkpt>
      <trkpt lat="47.32572" lon="-2.41594">
        <ele>31.200000762939</ele>
        <time>2020-12-17T10:22:35.000Z</time>
      </trkpt>
      <trkpt lat="47.32568" lon="-2.4159">
        <ele>31.60000038147</ele>
        <time>2020-12-17T10:22:36.000Z</time>
      </trkpt>
      <trkpt lat="47.32563" lon="-2.41586">
        <ele>32</ele>
        <time>2020-12-17T10:22:37.000Z</time>
      </trkpt>
      <trkpt lat="47.3256" lon="-2.41582">
        <ele>32.400001525879</ele>
        <time>2020-12-17T10:22:38.000Z</time>
      </trkpt>
      <trkpt lat="47.32556" lon="-2.41579">
        <ele>32.400001525879</ele>
        <time>2020-12-17T10:22:39.000Z</time>
      </trkpt>
      <trkpt lat="47.32538" lon="-2.41579">
        <ele>32.400001525879</ele>
        <time>2020-12-17T10:22:43.000Z</time>
      </trkpt>
      <trkpt lat="47.32533" lon="-2.4158">
        <ele>32.400001525879</ele>
        <time>2020-12-17T10:22:44.000Z</time>
      </trkpt>
      <trkpt lat="47.32512" lon="-2.41589">
        <ele>32.400001525879</ele>
        <time>2020-12-17T10:22:49.000Z</time>
      </trkpt>
      <trkpt lat="47.32503" lon="-2.4159">
        <ele>32.400001525879</ele>
        <time>2020-12-17T10:22:51.000Z</time>
      </trkpt>
      <trkpt lat="47.32489" lon="-2.41586">
        <ele>32.400001525879</ele>
        <time>2020-12-17T10:22:54.000Z</time>
      </trkpt>
      <trkpt lat="47.32471" lon="-2.41578">
        <ele>32.400001525879</ele>
        <time>2020-12-17T10:23:00.000Z</time>
      </trkpt>
      <trkpt lat="47.32463" lon="-2.41575">
        <ele>32.400001525879</ele>
        <time>2020-12-17T10:23:05.000Z</time>
      </trkpt>
      <trkpt lat="47.32454" lon="-2.4157">
        <ele>32.400001525879</ele>
        <time>2020-12-17T10:23:10.000Z</time>
      </trkpt>
      <trkpt lat="47.32439" lon="-2.41566">
        <ele>32.400001525879</ele>
        <time>2020-12-17T10:23:16.000Z</time>
      </trkpt>
      <trkpt lat="47.32431" lon="-2.41567">
        <ele>32.400001525879</ele>
        <time>2020-12-17T10:23:21.000Z</time>
      </trkpt>
      <trkpt lat="47.32425" lon="-2.41567">
        <ele>32.400001525879</ele>
        <time>2020-12-17T10:23:27.000Z</time>
      </trkpt>
      <trkpt lat="47.3242" lon="-2.41565">
        <ele>32.400001525879</ele>
        <time>2020-12-17T10:24:11.000Z</time>
      </trkpt>
      <trkpt lat="47.32414" lon="-2.41565">
        <ele>32.400001525879</ele>
        <time>2020-12-17T10:24:13.000Z</time>
      </trkpt>
      <trkpt lat="47.32398" lon="-2.41562">
        <ele>32.400001525879</ele>
        <time>2020-12-17T10:24:19.000Z</time>
      </trkpt>
      <trkpt lat="47.32382" lon="-2.41551">
        <ele>32.400001525879</ele>
        <time>2020-12-17T10:24:26.000Z</time>
      </trkpt>
      <trkpt lat="47.32365" lon="-2.41546">
        <ele>32.400001525879</ele>
        <time>2020-12-17T10:24:31.000Z</time>
      </trkpt>
      <trkpt lat="47.32345" lon="-2.41549">
        <ele>32.400001525879</ele>
        <time>2020-12-17T10:24:37.000Z</time>
      </trkpt>
      <trkpt lat="47.32328" lon="-2.41566">
        <ele>32.400001525879</ele>
        <time>2020-12-17T10:24:43.000Z</time>
      </trkpt>
      <trkpt lat="47.32319" lon="-2.41586">
        <ele>32.400001525879</ele>
        <time>2020-12-17T10:24:48.000Z</time>
      </trkpt>
      <trkpt lat="47.32307" lon="-2.41628">
        <ele>32.400001525879</ele>
        <time>2020-12-17T10:24:56.000Z</time>
      </trkpt>
      <trkpt lat="47.32298" lon="-2.41649">
        <ele>32.400001525879</ele>
        <time>2020-12-17T10:25:01.000Z</time>
      </trkpt>
      <trkpt lat="47.32298" lon="-2.41674">
        <ele>32.400001525879</ele>
        <time>2020-12-17T10:25:06.000Z</time>
      </trkpt>
      <trkpt lat="47.32299" lon="-2.41708">
        <ele>32.400001525879</ele>
        <time>2020-12-17T10:25:11.000Z</time>
      </trkpt>
      <trkpt lat="47.32297" lon="-2.41716">
        <ele>32.400001525879</ele>
        <time>2020-12-17T10:25:12.000Z</time>
      </trkpt>
      <trkpt lat="47.3229" lon="-2.41735">
        <ele>32.400001525879</ele>
        <time>2020-12-17T10:25:15.000Z</time>
      </trkpt>
      <trkpt lat="47.32286" lon="-2.41741">
        <ele>32.400001525879</ele>
        <time>2020-12-17T10:25:16.000Z</time>
      </trkpt>
      <trkpt lat="47.32282" lon="-2.41751">
        <ele>32</ele>
        <time>2020-12-17T10:25:18.000Z</time>
      </trkpt>
      <trkpt lat="47.32282" lon="-2.41756">
        <ele>31.60000038147</ele>
        <time>2020-12-17T10:25:19.000Z</time>
      </trkpt>
      <trkpt lat="47.32282" lon="-2.41761">
        <ele>31.200000762939</ele>
        <time>2020-12-17T10:25:20.000Z</time>
      </trkpt>
      <trkpt lat="47.32282" lon="-2.41767">
        <ele>30.799999237061</ele>
        <time>2020-12-17T10:25:21.000Z</time>
      </trkpt>
      <trkpt lat="47.32284" lon="-2.41773">
        <ele>30.39999961853</ele>
        <time>2020-12-17T10:25:22.000Z</time>
      </trkpt>
      <trkpt lat="47.32286" lon="-2.41778">
        <ele>30.39999961853</ele>
        <time>2020-12-17T10:25:23.000Z</time>
      </trkpt>
      <trkpt lat="47.32295" lon="-2.41797">
        <ele>30.39999961853</ele>
        <time>2020-12-17T10:25:27.000Z</time>
      </trkpt>
      <trkpt lat="47.323" lon="-2.41815">
        <ele>30.39999961853</ele>
        <time>2020-12-17T10:25:31.000Z</time>
      </trkpt>
      <trkpt lat="47.32298" lon="-2.41819">
        <ele>30.39999961853</ele>
        <time>2020-12-17T10:25:32.000Z</time>
      </trkpt>
      <trkpt lat="47.32296" lon="-2.41821">
        <ele>30</ele>
        <time>2020-12-17T10:25:33.000Z</time>
      </trkpt>
      <trkpt lat="47.32295" lon="-2.41823">
        <ele>29.60000038147</ele>
        <time>2020-12-17T10:25:34.000Z</time>
      </trkpt>
      <trkpt lat="47.32293" lon="-2.41826">
        <ele>29.200000762939</ele>
        <time>2020-12-17T10:25:35.000Z</time>
      </trkpt>
      <trkpt lat="47.32292" lon="-2.41828">
        <ele>28.799999237061</ele>
        <time>2020-12-17T10:25:36.000Z</time>
      </trkpt>
      <trkpt lat="47.32292" lon="-2.41829">
        <ele>28.39999961853</ele>
        <time>2020-12-17T10:25:37.000Z</time>
      </trkpt>
      <trkpt lat="47.32292" lon="-2.41829">
        <ele>28.39999961853</ele>
        <time>2020-12-17T10:25:38.000Z</time>
      </trkpt>
      <trkpt lat="47.32288" lon="-2.41831">
        <ele>28.39999961853</ele>
        <time>2020-12-17T10:34:55.000Z</time>
      </trkpt>
      <trkpt lat="47.32279" lon="-2.41841">
        <ele>28.39999961853</ele>
        <time>2020-12-17T10:35:01.000Z</time>
      </trkpt>
      <trkpt lat="47.32261" lon="-2.4186">
        <ele>28.39999961853</ele>
        <time>2020-12-17T10:35:09.000Z</time>
      </trkpt>
      <trkpt lat="47.32253" lon="-2.41873">
        <ele>28.39999961853</ele>
        <time>2020-12-17T10:35:13.000Z</time>
      </trkpt>
      <trkpt lat="47.32253" lon="-2.41876">
        <ele>28.39999961853</ele>
        <time>2020-12-17T10:35:14.000Z</time>
      </trkpt>
      <trkpt lat="47.32259" lon="-2.41886">
        <ele>28.39999961853</ele>
        <time>2020-12-17T10:35:17.000Z</time>
      </trkpt>
      <trkpt lat="47.32277" lon="-2.41916">
        <ele>28.39999961853</ele>
        <time>2020-12-17T10:35:24.000Z</time>
      </trkpt>
      <trkpt lat="47.32295" lon="-2.41943">
        <ele>28.39999961853</ele>
        <time>2020-12-17T10:35:31.000Z</time>
      </trkpt>
      <trkpt lat="47.32313" lon="-2.41971">
        <ele>28.39999961853</ele>
        <time>2020-12-17T10:35:38.000Z</time>
      </trkpt>
      <trkpt lat="47.32343" lon="-2.42001">
        <ele>28.39999961853</ele>
        <time>2020-12-17T10:35:47.000Z</time>
      </trkpt>
      <trkpt lat="47.32369" lon="-2.42027">
        <ele>28.39999961853</ele>
        <time>2020-12-17T10:35:54.000Z</time>
      </trkpt>
      <trkpt lat="47.32394" lon="-2.42054">
        <ele>28.799999237061</ele>
        <time>2020-12-17T10:36:01.000Z</time>
      </trkpt>
      <trkpt lat="47.32397" lon="-2.42058">
        <ele>29.200000762939</ele>
        <time>2020-12-17T10:36:02.000Z</time>
      </trkpt>
      <trkpt lat="47.32401" lon="-2.42062">
        <ele>29.60000038147</ele>
        <time>2020-12-17T10:36:03.000Z</time>
      </trkpt>
      <trkpt lat="47.32404" lon="-2.42066">
        <ele>30</ele>
        <time>2020-12-17T10:36:04.000Z</time>
      </trkpt>
      <trkpt lat="47.32407" lon="-2.4207">
        <ele>30.39999961853</ele>
        <time>2020-12-17T10:36:05.000Z</time>
      </trkpt>
      <trkpt lat="47.32433" lon="-2.42099">
        <ele>30.39999961853</ele>
        <time>2020-12-17T10:36:13.000Z</time>
      </trkpt>
      <trkpt lat="47.32443" lon="-2.42109">
        <ele>30.799999237061</ele>
        <time>2020-12-17T10:36:16.000Z</time>
      </trkpt>
      <trkpt lat="47.32446" lon="-2.42113">
        <ele>31.200000762939</ele>
        <time>2020-12-17T10:36:17.000Z</time>
      </trkpt>
      <trkpt lat="47.3245" lon="-2.42116">
        <ele>31.60000038147</ele>
        <time>2020-12-17T10:36:18.000Z</time>
      </trkpt>
      <trkpt lat="47.32454" lon="-2.4212">
        <ele>32.200000762939</ele>
        <time>2020-12-17T10:36:19.000Z</time>
      </trkpt>
      <trkpt lat="47.32458" lon="-2.42123">
        <ele>32.599998474121</ele>
        <time>2020-12-17T10:36:20.000Z</time>
      </trkpt>
      <trkpt lat="47.32484" lon="-2.42144">
        <ele>32.599998474121</ele>
        <time>2020-12-17T10:36:27.000Z</time>
      </trkpt>
      <trkpt lat="47.32492" lon="-2.42152">
        <ele>32.599998474121</ele>
        <time>2020-12-17T10:36:29.000Z</time>
      </trkpt>
      <trkpt lat="47.32499" lon="-2.42165">
        <ele>32.599998474121</ele>
        <time>2020-12-17T10:36:31.000Z</time>
      </trkpt>
      <trkpt lat="47.3252" lon="-2.42213">
        <ele>32.599998474121</ele>
        <time>2020-12-17T10:36:37.000Z</time>
      </trkpt>
      <trkpt lat="47.3255" lon="-2.42272">
        <ele>32.599998474121</ele>
        <time>2020-12-17T10:36:44.000Z</time>
      </trkpt>
      <trkpt lat="47.32562" lon="-2.42294">
        <ele>32</ele>
        <time>2020-12-17T10:36:47.000Z</time>
      </trkpt>
      <trkpt lat="47.32566" lon="-2.42301">
        <ele>31.60000038147</ele>
        <time>2020-12-17T10:36:48.000Z</time>
      </trkpt>
      <trkpt lat="47.3257" lon="-2.42308">
        <ele>31.200000762939</ele>
        <time>2020-12-17T10:36:49.000Z</time>
      </trkpt>
      <trkpt lat="47.32575" lon="-2.42316">
        <ele>30.799999237061</ele>
        <time>2020-12-17T10:36:50.000Z</time>
      </trkpt>
      <trkpt lat="47.32579" lon="-2.42323">
        <ele>30.200000762939</ele>
        <time>2020-12-17T10:36:51.000Z</time>
      </trkpt>
      <trkpt lat="47.32583" lon="-2.42331">
        <ele>30.200000762939</ele>
        <time>2020-12-17T10:36:52.000Z</time>
      </trkpt>
      <trkpt lat="47.32613" lon="-2.42388">
        <ele>30.200000762939</ele>
        <time>2020-12-17T10:36:59.000Z</time>
      </trkpt>
      <trkpt lat="47.32639" lon="-2.42449">
        <ele>30.200000762939</ele>
        <time>2020-12-17T10:37:06.000Z</time>
      </trkpt>
      <trkpt lat="47.32653" lon="-2.42485">
        <ele>29.799999237061</ele>
        <time>2020-12-17T10:37:10.000Z</time>
      </trkpt>
      <trkpt lat="47.32656" lon="-2.42493">
        <ele>29</ele>
        <time>2020-12-17T10:37:11.000Z</time>
      </trkpt>
      <trkpt lat="47.32659" lon="-2.42502">
        <ele>28.60000038147</ele>
        <time>2020-12-17T10:37:12.000Z</time>
      </trkpt>
      <trkpt lat="47.32662" lon="-2.4251">
        <ele>28.200000762939</ele>
        <time>2020-12-17T10:37:13.000Z</time>
      </trkpt>
      <trkpt lat="47.32686" lon="-2.42584">
        <ele>28.200000762939</ele>
        <time>2020-12-17T10:37:22.000Z</time>
      </trkpt>
      <trkpt lat="47.327" lon="-2.42634">
        <ele>28.200000762939</ele>
        <time>2020-12-17T10:37:28.000Z</time>
      </trkpt>
      <trkpt lat="47.32702" lon="-2.4264">
        <ele>28.200000762939</ele>
        <time>2020-12-17T10:37:29.000Z</time>
      </trkpt>
      <trkpt lat="47.32715" lon="-2.42672">
        <ele>28.200000762939</ele>
        <time>2020-12-17T10:37:34.000Z</time>
      </trkpt>
      <trkpt lat="47.32713" lon="-2.42687">
        <ele>28.200000762939</ele>
        <time>2020-12-17T10:37:37.000Z</time>
      </trkpt>
      <trkpt lat="47.32704" lon="-2.4269">
        <ele>28.200000762939</ele>
        <time>2020-12-17T10:37:40.000Z</time>
      </trkpt>
      <trkpt lat="47.32694" lon="-2.42696">
        <ele>28.200000762939</ele>
        <time>2020-12-17T10:37:43.000Z</time>
      </trkpt>
      <trkpt lat="47.32685" lon="-2.427">
        <ele>28.200000762939</ele>
        <time>2020-12-17T10:37:45.000Z</time>
      </trkpt>
      <trkpt lat="47.3266" lon="-2.42716">
        <ele>28.200000762939</ele>
        <time>2020-12-17T10:37:51.000Z</time>
      </trkpt>
      <trkpt lat="47.32652" lon="-2.42724">
        <ele>27.799999237061</ele>
        <time>2020-12-17T10:37:53.000Z</time>
      </trkpt>
      <trkpt lat="47.32649" lon="-2.42729">
        <ele>27.39999961853</ele>
        <time>2020-12-17T10:37:54.000Z</time>
      </trkpt>
      <trkpt lat="47.32646" lon="-2.42734">
        <ele>27</ele>
        <time>2020-12-17T10:37:55.000Z</time>
      </trkpt>
      <trkpt lat="47.32644" lon="-2.4274">
        <ele>26.39999961853</ele>
        <time>2020-12-17T10:37:56.000Z</time>
      </trkpt>
      <trkpt lat="47.32641" lon="-2.42745">
        <ele>26</ele>
        <time>2020-12-17T10:37:57.000Z</time>
      </trkpt>
      <trkpt lat="47.32632" lon="-2.42768">
        <ele>26</ele>
        <time>2020-12-17T10:38:01.000Z</time>
      </trkpt>
      <trkpt lat="47.32619" lon="-2.42803">
        <ele>26</ele>
        <time>2020-12-17T10:38:07.000Z</time>
      </trkpt>
      <trkpt lat="47.32608" lon="-2.42854">
        <ele>26.39999961853</ele>
        <time>2020-12-17T10:38:15.000Z</time>
      </trkpt>
      <trkpt lat="47.32607" lon="-2.4286">
        <ele>26.799999237061</ele>
        <time>2020-12-17T10:38:16.000Z</time>
      </trkpt>
      <trkpt lat="47.32607" lon="-2.42867">
        <ele>27.200000762939</ele>
        <time>2020-12-17T10:38:17.000Z</time>
      </trkpt>
      <trkpt lat="47.32606" lon="-2.42872">
        <ele>27.60000038147</ele>
        <time>2020-12-17T10:38:18.000Z</time>
      </trkpt>
      <trkpt lat="47.32605" lon="-2.42878">
        <ele>28.200000762939</ele>
        <time>2020-12-17T10:38:19.000Z</time>
      </trkpt>
      <trkpt lat="47.32604" lon="-2.42897">
        <ele>28.200000762939</ele>
        <time>2020-12-17T10:38:22.000Z</time>
      </trkpt>
      <trkpt lat="47.32607" lon="-2.42932">
        <ele>28.200000762939</ele>
        <time>2020-12-17T10:38:28.000Z</time>
      </trkpt>
      <trkpt lat="47.32613" lon="-2.42939">
        <ele>28.200000762939</ele>
        <time>2020-12-17T10:38:31.000Z</time>
      </trkpt>
      <trkpt lat="47.32621" lon="-2.4294">
        <ele>28.200000762939</ele>
        <time>2020-12-17T10:38:34.000Z</time>
      </trkpt>
      <trkpt lat="47.3262" lon="-2.42955">
        <ele>28.200000762939</ele>
        <time>2020-12-17T10:38:37.000Z</time>
      </trkpt>
      <trkpt lat="47.32619" lon="-2.42981">
        <ele>28.200000762939</ele>
        <time>2020-12-17T10:38:42.000Z</time>
      </trkpt>
      <trkpt lat="47.3262" lon="-2.42999">
        <ele>28.200000762939</ele>
        <time>2020-12-17T10:38:45.000Z</time>
      </trkpt>
      <trkpt lat="47.32619" lon="-2.43014">
        <ele>28.200000762939</ele>
        <time>2020-12-17T10:38:47.000Z</time>
      </trkpt>
      <trkpt lat="47.32619" lon="-2.43028">
        <ele>28.200000762939</ele>
        <time>2020-12-17T10:38:49.000Z</time>
      </trkpt>
      <trkpt lat="47.32622" lon="-2.43056">
        <ele>28.200000762939</ele>
        <time>2020-12-17T10:38:53.000Z</time>
      </trkpt>
      <trkpt lat="47.32621" lon="-2.43068">
        <ele>28.200000762939</ele>
        <time>2020-12-17T10:38:56.000Z</time>
      </trkpt>
      <trkpt lat="47.32619" lon="-2.43074">
        <ele>28.200000762939</ele>
        <time>2020-12-17T10:38:59.000Z</time>
      </trkpt>
      <trkpt lat="47.32615" lon="-2.43079">
        <ele>28.200000762939</ele>
        <time>2020-12-17T10:39:02.000Z</time>
      </trkpt>
      <trkpt lat="47.32608" lon="-2.43079">
        <ele>28.200000762939</ele>
        <time>2020-12-17T10:39:05.000Z</time>
      </trkpt>
      <trkpt lat="47.32605" lon="-2.43079">
        <ele>28.200000762939</ele>
        <time>2020-12-17T10:39:06.000Z</time>
      </trkpt>
      <trkpt lat="47.32592" lon="-2.4308">
        <ele>28.200000762939</ele>
        <time>2020-12-17T10:39:09.000Z</time>
      </trkpt>
      <trkpt lat="47.32583" lon="-2.43083">
        <ele>28.200000762939</ele>
        <time>2020-12-17T10:39:11.000Z</time>
      </trkpt>
      <trkpt lat="47.32562" lon="-2.43087">
        <ele>27.200000762939</ele>
        <time>2020-12-17T10:39:15.000Z</time>
      </trkpt>
      <trkpt lat="47.32557" lon="-2.43088">
        <ele>26.799999237061</ele>
        <time>2020-12-17T10:39:16.000Z</time>
      </trkpt>
      <trkpt lat="47.32551" lon="-2.43088">
        <ele>26.39999961853</ele>
        <time>2020-12-17T10:39:17.000Z</time>
      </trkpt>
      <trkpt lat="47.32545" lon="-2.43088">
        <ele>26</ele>
        <time>2020-12-17T10:39:18.000Z</time>
      </trkpt>
      <trkpt lat="47.32539" lon="-2.43088">
        <ele>26</ele>
        <time>2020-12-17T10:39:19.000Z</time>
      </trkpt>
      <trkpt lat="47.32521" lon="-2.43087">
        <ele>26</ele>
        <time>2020-12-17T10:39:22.000Z</time>
      </trkpt>
      <trkpt lat="47.32474" lon="-2.43085">
        <ele>26</ele>
        <time>2020-12-17T10:39:29.000Z</time>
      </trkpt>
      <trkpt lat="47.32459" lon="-2.43084">
        <ele>25.60000038147</ele>
        <time>2020-12-17T10:39:31.000Z</time>
      </trkpt>
      <trkpt lat="47.32452" lon="-2.43083">
        <ele>25.200000762939</ele>
        <time>2020-12-17T10:39:32.000Z</time>
      </trkpt>
      <trkpt lat="47.32444" lon="-2.43083">
        <ele>24.799999237061</ele>
        <time>2020-12-17T10:39:33.000Z</time>
      </trkpt>
      <trkpt lat="47.32436" lon="-2.43081">
        <ele>24.39999961853</ele>
        <time>2020-12-17T10:39:34.000Z</time>
      </trkpt>
      <trkpt lat="47.32428" lon="-2.4308">
        <ele>23.799999237061</ele>
        <time>2020-12-17T10:39:35.000Z</time>
      </trkpt>
      <trkpt lat="47.3242" lon="-2.43078">
        <ele>23.39999961853</ele>
        <time>2020-12-17T10:39:36.000Z</time>
      </trkpt>
      <trkpt lat="47.32412" lon="-2.43076">
        <ele>22.799999237061</ele>
        <time>2020-12-17T10:39:37.000Z</time>
      </trkpt>
      <trkpt lat="47.32404" lon="-2.43074">
        <ele>22.39999961853</ele>
        <time>2020-12-17T10:39:38.000Z</time>
      </trkpt>
      <trkpt lat="47.32395" lon="-2.43073">
        <ele>21.799999237061</ele>
        <time>2020-12-17T10:39:39.000Z</time>
      </trkpt>
      <trkpt lat="47.32386" lon="-2.43074">
        <ele>20.799999237061</ele>
        <time>2020-12-17T10:39:40.000Z</time>
      </trkpt>
      <trkpt lat="47.32377" lon="-2.43077">
        <ele>20.39999961853</ele>
        <time>2020-12-17T10:39:41.000Z</time>
      </trkpt>
      <trkpt lat="47.32368" lon="-2.43079">
        <ele>20</ele>
        <time>2020-12-17T10:39:42.000Z</time>
      </trkpt>
      <trkpt lat="47.3236" lon="-2.43082">
        <ele>19.60000038147</ele>
        <time>2020-12-17T10:39:43.000Z</time>
      </trkpt>
      <trkpt lat="47.32351" lon="-2.43085">
        <ele>19</ele>
        <time>2020-12-17T10:39:44.000Z</time>
      </trkpt>
      <trkpt lat="47.32342" lon="-2.43088">
        <ele>18.60000038147</ele>
        <time>2020-12-17T10:39:45.000Z</time>
      </trkpt>
      <trkpt lat="47.32334" lon="-2.43091">
        <ele>18.200000762939</ele>
        <time>2020-12-17T10:39:46.000Z</time>
      </trkpt>
      <trkpt lat="47.32325" lon="-2.43096">
        <ele>17.60000038147</ele>
        <time>2020-12-17T10:39:47.000Z</time>
      </trkpt>
      <trkpt lat="47.32317" lon="-2.43101">
        <ele>17.200000762939</ele>
        <time>2020-12-17T10:39:48.000Z</time>
      </trkpt>
      <trkpt lat="47.32309" lon="-2.43107">
        <ele>16.799999237061</ele>
        <time>2020-12-17T10:39:49.000Z</time>
      </trkpt>
      <trkpt lat="47.32301" lon="-2.43112">
        <ele>16.200000762939</ele>
        <time>2020-12-17T10:39:50.000Z</time>
      </trkpt>
      <trkpt lat="47.32293" lon="-2.43116">
        <ele>15.800000190735</ele>
        <time>2020-12-17T10:39:51.000Z</time>
      </trkpt>
      <trkpt lat="47.32285" lon="-2.4312">
        <ele>15.39999961853</ele>
        <time>2020-12-17T10:39:52.000Z</time>
      </trkpt>
      <trkpt lat="47.32277" lon="-2.43123">
        <ele>14.800000190735</ele>
        <time>2020-12-17T10:39:53.000Z</time>
      </trkpt>
      <trkpt lat="47.32269" lon="-2.43127">
        <ele>14.800000190735</ele>
        <time>2020-12-17T10:39:54.000Z</time>
      </trkpt>
      <trkpt lat="47.32216" lon="-2.43149">
        <ele>14.800000190735</ele>
        <time>2020-12-17T10:40:01.000Z</time>
      </trkpt>
      <trkpt lat="47.3217" lon="-2.43169">
        <ele>14.39999961853</ele>
        <time>2020-12-17T10:40:07.000Z</time>
      </trkpt>
      <trkpt lat="47.32163" lon="-2.43172">
        <ele>14</ele>
        <time>2020-12-17T10:40:08.000Z</time>
      </trkpt>
      <trkpt lat="47.32156" lon="-2.43176">
        <ele>13.60000038147</ele>
        <time>2020-12-17T10:40:09.000Z</time>
      </trkpt>
      <trkpt lat="47.32149" lon="-2.43179">
        <ele>13.199999809265</ele>
        <time>2020-12-17T10:40:10.000Z</time>
      </trkpt>
      <trkpt lat="47.32141" lon="-2.43182">
        <ele>12.800000190735</ele>
        <time>2020-12-17T10:40:11.000Z</time>
      </trkpt>
      <trkpt lat="47.32113" lon="-2.43194">
        <ele>12.800000190735</ele>
        <time>2020-12-17T10:40:15.000Z</time>
      </trkpt>
      <trkpt lat="47.3208" lon="-2.43211">
        <ele>12.39999961853</ele>
        <time>2020-12-17T10:40:20.000Z</time>
      </trkpt>
      <trkpt lat="47.32074" lon="-2.43214">
        <ele>12</ele>
        <time>2020-12-17T10:40:21.000Z</time>
      </trkpt>
      <trkpt lat="47.32067" lon="-2.43217">
        <ele>11.60000038147</ele>
        <time>2020-12-17T10:40:22.000Z</time>
      </trkpt>
      <trkpt lat="47.32061" lon="-2.43221">
        <ele>11</ele>
        <time>2020-12-17T10:40:23.000Z</time>
      </trkpt>
      <trkpt lat="47.32055" lon="-2.43225">
        <ele>10.60000038147</ele>
        <time>2020-12-17T10:40:24.000Z</time>
      </trkpt>
      <trkpt lat="47.32043" lon="-2.43235">
        <ele>10.60000038147</ele>
        <time>2020-12-17T10:40:26.000Z</time>
      </trkpt>
      <trkpt lat="47.32029" lon="-2.43244">
        <ele>10.199999809265</ele>
        <time>2020-12-17T10:40:28.000Z</time>
      </trkpt>
      <trkpt lat="47.32023" lon="-2.43249">
        <ele>9.8000001907349</ele>
        <time>2020-12-17T10:40:29.000Z</time>
      </trkpt>
      <trkpt lat="47.32016" lon="-2.43253">
        <ele>9.3999996185303</ele>
        <time>2020-12-17T10:40:30.000Z</time>
      </trkpt>
      <trkpt lat="47.3201" lon="-2.43258">
        <ele>9</ele>
        <time>2020-12-17T10:40:31.000Z</time>
      </trkpt>
      <trkpt lat="47.32004" lon="-2.43262">
        <ele>8.6000003814697</ele>
        <time>2020-12-17T10:40:32.000Z</time>
      </trkpt>
      <trkpt lat="47.31997" lon="-2.43266">
        <ele>8</ele>
        <time>2020-12-17T10:40:33.000Z</time>
      </trkpt>
      <trkpt lat="47.31992" lon="-2.43269">
        <ele>7.5999999046326</ele>
        <time>2020-12-17T10:40:34.000Z</time>
      </trkpt>
      <trkpt lat="47.31986" lon="-2.43273">
        <ele>7.1999998092651</ele>
        <time>2020-12-17T10:40:35.000Z</time>
      </trkpt>
      <trkpt lat="47.31982" lon="-2.43277">
        <ele>6.8000001907349</ele>
        <time>2020-12-17T10:40:36.000Z</time>
      </trkpt>
      <trkpt lat="47.31978" lon="-2.43283">
        <ele>6.4000000953674</ele>
        <time>2020-12-17T10:40:37.000Z</time>
      </trkpt>
      <trkpt lat="47.31976" lon="-2.4329">
        <ele>5.8000001907349</ele>
        <time>2020-12-17T10:40:38.000Z</time>
      </trkpt>
      <trkpt lat="47.31974" lon="-2.43297">
        <ele>5.4000000953674</ele>
        <time>2020-12-17T10:40:39.000Z</time>
      </trkpt>
      <trkpt lat="47.31972" lon="-2.43305">
        <ele>4.8000001907349</ele>
        <time>2020-12-17T10:40:40.000Z</time>
      </trkpt>
      <trkpt lat="47.31971" lon="-2.43315">
        <ele>4.1999998092651</ele>
        <time>2020-12-17T10:40:41.000Z</time>
      </trkpt>
      <trkpt lat="47.3197" lon="-2.43325">
        <ele>3.7999999523163</ele>
        <time>2020-12-17T10:40:42.000Z</time>
      </trkpt>
      <trkpt lat="47.31962" lon="-2.43375">
        <ele>3.7999999523163</ele>
        <time>2020-12-17T10:40:47.000Z</time>
      </trkpt>
      <trkpt lat="47.31946" lon="-2.43426">
        <ele>3.4000000953674</ele>
        <time>2020-12-17T10:40:52.000Z</time>
      </trkpt>
      <trkpt lat="47.31943" lon="-2.43436">
        <ele>2.7999999523163</ele>
        <time>2020-12-17T10:40:53.000Z</time>
      </trkpt>
      <trkpt lat="47.3194" lon="-2.43446">
        <ele>2.4000000953674</ele>
        <time>2020-12-17T10:40:54.000Z</time>
      </trkpt>
      <trkpt lat="47.31937" lon="-2.43457">
        <ele>2</ele>
        <time>2020-12-17T10:40:55.000Z</time>
      </trkpt>
      <trkpt lat="47.31933" lon="-2.43467">
        <ele>1.3999999761581</ele>
        <time>2020-12-17T10:40:56.000Z</time>
      </trkpt>
      <trkpt lat="47.3193" lon="-2.43478">
        <ele>0.80000001192093</ele>
        <time>2020-12-17T10:40:57.000Z</time>
      </trkpt>
      <trkpt lat="47.31928" lon="-2.4349">
        <ele>0.40000000596046</ele>
        <time>2020-12-17T10:40:58.000Z</time>
      </trkpt>
      <trkpt lat="47.31926" lon="-2.43502">
        <ele>-0.20000000298023</ele>
        <time>2020-12-17T10:40:59.000Z</time>
      </trkpt>
      <trkpt lat="47.31925" lon="-2.43513">
        <ele>-0.60000002384186</ele>
        <time>2020-12-17T10:41:00.000Z</time>
      </trkpt>
      <trkpt lat="47.31926" lon="-2.43546">
        <ele>-1.2000000476837</ele>
        <time>2020-12-17T10:41:03.000Z</time>
      </trkpt>
      <trkpt lat="47.31927" lon="-2.43556">
        <ele>-1.6000000238419</ele>
        <time>2020-12-17T10:41:04.000Z</time>
      </trkpt>
      <trkpt lat="47.31927" lon="-2.43567">
        <ele>-2.2000000476837</ele>
        <time>2020-12-17T10:41:05.000Z</time>
      </trkpt>
      <trkpt lat="47.31927" lon="-2.43578">
        <ele>-2.5999999046326</ele>
        <time>2020-12-17T10:41:06.000Z</time>
      </trkpt>
      <trkpt lat="47.31925" lon="-2.43588">
        <ele>-3.2000000476837</ele>
        <time>2020-12-17T10:41:07.000Z</time>
      </trkpt>
      <trkpt lat="47.31921" lon="-2.43597">
        <ele>-3.2000000476837</ele>
        <time>2020-12-17T10:41:08.000Z</time>
      </trkpt>
      <trkpt lat="47.31915" lon="-2.43605">
        <ele>-3.5999999046326</ele>
        <time>2020-12-17T10:41:09.000Z</time>
      </trkpt>
      <trkpt lat="47.31909" lon="-2.4361">
        <ele>-4</ele>
        <time>2020-12-17T10:41:10.000Z</time>
      </trkpt>
      <trkpt lat="47.31901" lon="-2.43615">
        <ele>-4.4000000953674</ele>
        <time>2020-12-17T10:41:11.000Z</time>
      </trkpt>
      <trkpt lat="47.31895" lon="-2.43621">
        <ele>-4.8000001907349</ele>
        <time>2020-12-17T10:41:12.000Z</time>
      </trkpt>
      <trkpt lat="47.31891" lon="-2.43629">
        <ele>-5.1999998092651</ele>
        <time>2020-12-17T10:41:13.000Z</time>
      </trkpt>
      <trkpt lat="47.31888" lon="-2.43638">
        <ele>-5.1999998092651</ele>
        <time>2020-12-17T10:41:14.000Z</time>
      </trkpt>
      <trkpt lat="47.31887" lon="-2.43646">
        <ele>-5.5999999046326</ele>
        <time>2020-12-17T10:41:15.000Z</time>
      </trkpt>
      <trkpt lat="47.31889" lon="-2.43653">
        <ele>-6.1999998092651</ele>
        <time>2020-12-17T10:41:16.000Z</time>
      </trkpt>
      <trkpt lat="47.31892" lon="-2.43659">
        <ele>-7.1999998092651</ele>
        <time>2020-12-17T10:41:17.000Z</time>
      </trkpt>
      <trkpt lat="47.31896" lon="-2.43665">
        <ele>-7.8000001907349</ele>
        <time>2020-12-17T10:41:18.000Z</time>
      </trkpt>
      <trkpt lat="47.31899" lon="-2.43671">
        <ele>-8.1999998092651</ele>
        <time>2020-12-17T10:41:19.000Z</time>
      </trkpt>
      <trkpt lat="47.31903" lon="-2.43678">
        <ele>-8.8000001907349</ele>
        <time>2020-12-17T10:41:20.000Z</time>
      </trkpt>
      <trkpt lat="47.31908" lon="-2.43686">
        <ele>-9.3999996185303</ele>
        <time>2020-12-17T10:41:21.000Z</time>
      </trkpt>
      <trkpt lat="47.31912" lon="-2.43694">
        <ele>-10</ele>
        <time>2020-12-17T10:41:22.000Z</time>
      </trkpt>
      <trkpt lat="47.31923" lon="-2.4372">
        <ele>-10</ele>
        <time>2020-12-17T10:41:25.000Z</time>
      </trkpt>
      <trkpt lat="47.31941" lon="-2.43772">
        <ele>-10</ele>
        <time>2020-12-17T10:41:31.000Z</time>
      </trkpt>
      <trkpt lat="47.31964" lon="-2.4382">
        <ele>-10</ele>
        <time>2020-12-17T10:41:38.000Z</time>
      </trkpt>
      <trkpt lat="47.31977" lon="-2.43834">
        <ele>-9.1999998092651</ele>
        <time>2020-12-17T10:41:41.000Z</time>
      </trkpt>
      <trkpt lat="47.31981" lon="-2.43838">
        <ele>-8.8000001907349</ele>
        <time>2020-12-17T10:41:42.000Z</time>
      </trkpt>
      <trkpt lat="47.31987" lon="-2.43838">
        <ele>-8.3999996185303</ele>
        <time>2020-12-17T10:41:43.000Z</time>
      </trkpt>
      <trkpt lat="47.31991" lon="-2.43836">
        <ele>-8</ele>
        <time>2020-12-17T10:41:44.000Z</time>
      </trkpt>
      <trkpt lat="47.31999" lon="-2.43827">
        <ele>-8</ele>
        <time>2020-12-17T10:41:46.000Z</time>
      </trkpt>
      <trkpt lat="47.32012" lon="-2.43811">
        <ele>-7.4000000953674</ele>
        <time>2020-12-17T10:41:50.000Z</time>
      </trkpt>
      <trkpt lat="47.32015" lon="-2.43808">
        <ele>-7</ele>
        <time>2020-12-17T10:41:51.000Z</time>
      </trkpt>
      <trkpt lat="47.32018" lon="-2.43805">
        <ele>-6.5999999046326</ele>
        <time>2020-12-17T10:41:52.000Z</time>
      </trkpt>
      <trkpt lat="47.32021" lon="-2.43803">
        <ele>-6.1999998092651</ele>
        <time>2020-12-17T10:41:53.000Z</time>
      </trkpt>
      <trkpt lat="47.32025" lon="-2.43802">
        <ele>-5.8000001907349</ele>
        <time>2020-12-17T10:41:54.000Z</time>
      </trkpt>
      <trkpt lat="47.32032" lon="-2.438">
        <ele>-5.4000000953674</ele>
        <time>2020-12-17T10:41:56.000Z</time>
      </trkpt>
      <trkpt lat="47.32035" lon="-2.43801">
        <ele>-5</ele>
        <time>2020-12-17T10:41:57.000Z</time>
      </trkpt>
      <trkpt lat="47.32038" lon="-2.43804">
        <ele>-4.5999999046326</ele>
        <time>2020-12-17T10:41:58.000Z</time>
      </trkpt>
      <trkpt lat="47.3204" lon="-2.43808">
        <ele>-4.1999998092651</ele>
        <time>2020-12-17T10:41:59.000Z</time>
      </trkpt>
      <trkpt lat="47.32043" lon="-2.43812">
        <ele>-3.7999999523163</ele>
        <time>2020-12-17T10:42:00.000Z</time>
      </trkpt>
      <trkpt lat="47.32046" lon="-2.43817">
        <ele>-3.4000000953674</ele>
        <time>2020-12-17T10:42:01.000Z</time>
      </trkpt>
      <trkpt lat="47.32049" lon="-2.43821">
        <ele>-3</ele>
        <time>2020-12-17T10:42:02.000Z</time>
      </trkpt>
      <trkpt lat="47.32052" lon="-2.43826">
        <ele>-2.5999999046326</ele>
        <time>2020-12-17T10:42:03.000Z</time>
      </trkpt>
      <trkpt lat="47.32054" lon="-2.43831">
        <ele>-2</ele>
        <time>2020-12-17T10:42:04.000Z</time>
      </trkpt>
      <trkpt lat="47.32057" lon="-2.43836">
        <ele>-1.6000000238419</ele>
        <time>2020-12-17T10:42:05.000Z</time>
      </trkpt>
      <trkpt lat="47.32062" lon="-2.43848">
        <ele>-1.6000000238419</ele>
        <time>2020-12-17T10:42:07.000Z</time>
      </trkpt>
      <trkpt lat="47.32081" lon="-2.43885">
        <ele>-1.6000000238419</ele>
        <time>2020-12-17T10:42:14.000Z</time>
      </trkpt>
      <trkpt lat="47.321" lon="-2.43901">
        <ele>-1.2000000476837</ele>
        <time>2020-12-17T10:42:19.000Z</time>
      </trkpt>
      <trkpt lat="47.32104" lon="-2.43903">
        <ele>-0.80000001192093</ele>
        <time>2020-12-17T10:42:20.000Z</time>
      </trkpt>
      <trkpt lat="47.32108" lon="-2.43904">
        <ele>-0.40000000596046</ele>
        <time>2020-12-17T10:42:21.000Z</time>
      </trkpt>
      <trkpt lat="47.32111" lon="-2.43906">
        <ele>23.4</ele>
        <time>2020-12-17T10:42:22.000Z</time>
      </trkpt>
      <trkpt lat="47.32115" lon="-2.43908">
        <ele>0.40000000596046</ele>
        <time>2020-12-17T10:42:23.000Z</time>
      </trkpt>
      <trkpt lat="47.32123" lon="-2.43912">
        <ele>0.40000000596046</ele>
        <time>2020-12-17T10:42:25.000Z</time>
      </trkpt>
      <trkpt lat="47.32136" lon="-2.43924">
        <ele>0.80000001192093</ele>
        <time>2020-12-17T10:42:29.000Z</time>
      </trkpt>
      <trkpt lat="47.32138" lon="-2.43928">
        <ele>1.2000000476837</ele>
        <time>2020-12-17T10:42:30.000Z</time>
      </trkpt>
      <trkpt lat="47.32141" lon="-2.43931">
        <ele>2.2000000476837</ele>
        <time>2020-12-17T10:42:31.000Z</time>
      </trkpt>
      <trkpt lat="47.32144" lon="-2.43934">
        <ele>2.5999999046326</ele>
        <time>2020-12-17T10:42:32.000Z</time>
      </trkpt>
      <trkpt lat="47.32156" lon="-2.43953">
        <ele>3</ele>
        <time>2020-12-17T10:42:37.000Z</time>
      </trkpt>
      <trkpt lat="47.32159" lon="-2.43957">
        <ele>3.4000000953674</ele>
        <time>2020-12-17T10:42:38.000Z</time>
      </trkpt>
      <trkpt lat="47.32162" lon="-2.43961">
        <ele>3.7999999523163</ele>
        <time>2020-12-17T10:42:39.000Z</time>
      </trkpt>
      <trkpt lat="47.32165" lon="-2.43964">
        <ele>4.1999998092651</ele>
        <time>2020-12-17T10:42:40.000Z</time>
      </trkpt>
      <trkpt lat="47.32167" lon="-2.43968">
        <ele>4.5999999046326</ele>
        <time>2020-12-17T10:42:41.000Z</time>
      </trkpt>
      <trkpt lat="47.32179" lon="-2.43984">
        <ele>4.5999999046326</ele>
        <time>2020-12-17T10:42:45.000Z</time>
      </trkpt>
      <trkpt lat="47.32187" lon="-2.43996">
        <ele>5.1999998092651</ele>
        <time>2020-12-17T10:42:48.000Z</time>
      </trkpt>
      <trkpt lat="47.32189" lon="-2.44">
        <ele>5.5999999046326</ele>
        <time>2020-12-17T10:42:49.000Z</time>
      </trkpt>
      <trkpt lat="47.32192" lon="-2.44003">
        <ele>6</ele>
        <time>2020-12-17T10:42:50.000Z</time>
      </trkpt>
      <trkpt lat="47.32195" lon="-2.44007">
        <ele>6.4000000953674</ele>
        <time>2020-12-17T10:42:51.000Z</time>
      </trkpt>
      <trkpt lat="47.32198" lon="-2.44011">
        <ele>6.8000001907349</ele>
        <time>2020-12-17T10:42:52.000Z</time>
      </trkpt>
      <trkpt lat="47.32221" lon="-2.44042">
        <ele>6.8000001907349</ele>
        <time>2020-12-17T10:43:00.000Z</time>
      </trkpt>
      <trkpt lat="47.32223" lon="-2.44051">
        <ele>6.8000001907349</ele>
        <time>2020-12-17T10:43:02.000Z</time>
      </trkpt>
      <trkpt lat="47.32222" lon="-2.44055">
        <ele>6.8000001907349</ele>
        <time>2020-12-17T10:43:03.000Z</time>
      </trkpt>
      <trkpt lat="47.32212" lon="-2.44066">
        <ele>6.8000001907349</ele>
        <time>2020-12-17T10:43:06.000Z</time>
      </trkpt>
      <trkpt lat="47.32203" lon="-2.44074">
        <ele>6.8000001907349</ele>
        <time>2020-12-17T10:43:08.000Z</time>
      </trkpt>
      <trkpt lat="47.32188" lon="-2.44088">
        <ele>6.8000001907349</ele>
        <time>2020-12-17T10:43:11.000Z</time>
      </trkpt>
      <trkpt lat="47.32162" lon="-2.44117">
        <ele>6.8000001907349</ele>
        <time>2020-12-17T10:43:16.000Z</time>
      </trkpt>
      <trkpt lat="47.32126" lon="-2.44161">
        <ele>6.4000000953674</ele>
        <time>2020-12-17T10:43:22.000Z</time>
      </trkpt>
      <trkpt lat="47.3212" lon="-2.44169">
        <ele>5.8000001907349</ele>
        <time>2020-12-17T10:43:23.000Z</time>
      </trkpt>
      <trkpt lat="47.32114" lon="-2.44176">
        <ele>5.4000000953674</ele>
        <time>2020-12-17T10:43:24.000Z</time>
      </trkpt>
      <trkpt lat="47.32107" lon="-2.44184">
        <ele>5</ele>
        <time>2020-12-17T10:43:25.000Z</time>
      </trkpt>
      <trkpt lat="47.32101" lon="-2.44192">
        <ele>4.4000000953674</ele>
        <time>2020-12-17T10:43:26.000Z</time>
      </trkpt>
      <trkpt lat="47.32094" lon="-2.442">
        <ele>4</ele>
        <time>2020-12-17T10:43:27.000Z</time>
      </trkpt>
      <trkpt lat="47.32088" lon="-2.44208">
        <ele>3.4000000953674</ele>
        <time>2020-12-17T10:43:28.000Z</time>
      </trkpt>
      <trkpt lat="47.32081" lon="-2.44216">
        <ele>2.7999999523163</ele>
        <time>2020-12-17T10:43:29.000Z</time>
      </trkpt>
      <trkpt lat="47.32075" lon="-2.44225">
        <ele>2.2000000476837</ele>
        <time>2020-12-17T10:43:30.000Z</time>
      </trkpt>
      <trkpt lat="47.32068" lon="-2.44233">
        <ele>1.6000000238419</ele>
        <time>2020-12-17T10:43:31.000Z</time>
      </trkpt>
      <trkpt lat="47.32061" lon="-2.44241">
        <ele>1</ele>
        <time>2020-12-17T10:43:32.000Z</time>
      </trkpt>
      <trkpt lat="47.32055" lon="-2.4425">
        <ele>0.40000000596046</ele>
        <time>2020-12-17T10:43:33.000Z</time>
      </trkpt>
      <trkpt lat="47.32048" lon="-2.44258">
        <ele>14.5</ele>
        <time>2020-12-17T10:43:34.000Z</time>
      </trkpt>
      <trkpt lat="47.32042" lon="-2.44268">
        <ele>-0.60000002384186</ele>
        <time>2020-12-17T10:43:35.000Z</time>
      </trkpt>
      <trkpt lat="47.32036" lon="-2.44278">
        <ele>-1</ele>
        <time>2020-12-17T10:43:36.000Z</time>
      </trkpt>
      <trkpt lat="47.3203" lon="-2.44288">
        <ele>-1.7999999523163</ele>
        <time>2020-12-17T10:43:37.000Z</time>
      </trkpt>
      <trkpt lat="47.32024" lon="-2.44298">
        <ele>-2.4000000953674</ele>
        <time>2020-12-17T10:43:38.000Z</time>
      </trkpt>
      <trkpt lat="47.32017" lon="-2.44309">
        <ele>-3.2000000476837</ele>
        <time>2020-12-17T10:43:39.000Z</time>
      </trkpt>
      <trkpt lat="47.32011" lon="-2.44319">
        <ele>-3.7999999523163</ele>
        <time>2020-12-17T10:43:40.000Z</time>
      </trkpt>
      <trkpt lat="47.32005" lon="-2.4433">
        <ele>-4.5999999046326</ele>
        <time>2020-12-17T10:43:41.000Z</time>
      </trkpt>
      <trkpt lat="47.31998" lon="-2.4434">
        <ele>-5.4000000953674</ele>
        <time>2020-12-17T10:43:42.000Z</time>
      </trkpt>
      <trkpt lat="47.31991" lon="-2.44349">
        <ele>-6.1999998092651</ele>
        <time>2020-12-17T10:43:43.000Z</time>
      </trkpt>
      <trkpt lat="47.31985" lon="-2.44359">
        <ele>-7</ele>
        <time>2020-12-17T10:43:44.000Z</time>
      </trkpt>
      <trkpt lat="47.31979" lon="-2.44368">
        <ele>-7.8000001907349</ele>
        <time>2020-12-17T10:43:45.000Z</time>
      </trkpt>
      <trkpt lat="47.31973" lon="-2.44378">
        <ele>-8.1999998092651</ele>
        <time>2020-12-17T10:43:46.000Z</time>
      </trkpt>
      <trkpt lat="47.31967" lon="-2.44389">
        <ele>-8.8000001907349</ele>
        <time>2020-12-17T10:43:47.000Z</time>
      </trkpt>
      <trkpt lat="47.31963" lon="-2.444">
        <ele>-9.1999998092651</ele>
        <time>2020-12-17T10:43:48.000Z</time>
      </trkpt>
      <trkpt lat="47.31959" lon="-2.44411">
        <ele>-9.8000001907349</ele>
        <time>2020-12-17T10:43:49.000Z</time>
      </trkpt>
      <trkpt lat="47.31955" lon="-2.44422">
        <ele>-10.39999961853</ele>
        <time>2020-12-17T10:43:50.000Z</time>
      </trkpt>
      <trkpt lat="47.31951" lon="-2.44432">
        <ele>-11</ele>
        <time>2020-12-17T10:43:51.000Z</time>
      </trkpt>
      <trkpt lat="47.31947" lon="-2.44442">
        <ele>-11.60000038147</ele>
        <time>2020-12-17T10:43:52.000Z</time>
      </trkpt>
      <trkpt lat="47.31943" lon="-2.44452">
        <ele>-12</ele>
        <time>2020-12-17T10:43:53.000Z</time>
      </trkpt>
      <trkpt lat="47.31939" lon="-2.44462">
        <ele>-12.60000038147</ele>
        <time>2020-12-17T10:43:54.000Z</time>
      </trkpt>
      <trkpt lat="47.31935" lon="-2.44471">
        <ele>-13.199999809265</ele>
        <time>2020-12-17T10:43:55.000Z</time>
      </trkpt>
      <trkpt lat="47.31917" lon="-2.44516">
        <ele>-13.199999809265</ele>
        <time>2020-12-17T10:44:00.000Z</time>
      </trkpt>
      <trkpt lat="47.31892" lon="-2.44578">
        <ele>-13.199999809265</ele>
        <time>2020-12-17T10:44:07.000Z</time>
      </trkpt>
      <trkpt lat="47.31865" lon="-2.4465">
        <ele>-13.199999809265</ele>
        <time>2020-12-17T10:44:15.000Z</time>
      </trkpt>
      <trkpt lat="47.31845" lon="-2.4469">
        <ele>-13.199999809265</ele>
        <time>2020-12-17T10:44:20.000Z</time>
      </trkpt>
      <trkpt lat="47.3184" lon="-2.44697">
        <ele>-13.199999809265</ele>
        <time>2020-12-17T10:44:21.000Z</time>
      </trkpt>
      <trkpt lat="47.31819" lon="-2.44722">
        <ele>-13.199999809265</ele>
        <time>2020-12-17T10:44:25.000Z</time>
      </trkpt>
      <trkpt lat="47.31813" lon="-2.44726">
        <ele>-13.199999809265</ele>
        <time>2020-12-17T10:44:26.000Z</time>
      </trkpt>
      <trkpt lat="47.31783" lon="-2.44744">
        <ele>-13.199999809265</ele>
        <time>2020-12-17T10:44:31.000Z</time>
      </trkpt>
      <trkpt lat="47.3176" lon="-2.44759">
        <ele>-13.60000038147</ele>
        <time>2020-12-17T10:44:35.000Z</time>
      </trkpt>
      <trkpt lat="47.31754" lon="-2.44763">
        <ele>-14</ele>
        <time>2020-12-17T10:44:36.000Z</time>
      </trkpt>
      <trkpt lat="47.31749" lon="-2.44768">
        <ele>-14.60000038147</ele>
        <time>2020-12-17T10:44:37.000Z</time>
      </trkpt>
      <trkpt lat="47.31744" lon="-2.44773">
        <ele>-15</ele>
        <time>2020-12-17T10:44:38.000Z</time>
      </trkpt>
      <trkpt lat="47.3174" lon="-2.44778">
        <ele>-15.39999961853</ele>
        <time>2020-12-17T10:44:39.000Z</time>
      </trkpt>
      <trkpt lat="47.31735" lon="-2.44782">
        <ele>-15.39999961853</ele>
        <time>2020-12-17T10:44:40.000Z</time>
      </trkpt>
      <trkpt lat="47.31726" lon="-2.44783">
        <ele>-15.39999961853</ele>
        <time>2020-12-17T10:44:42.000Z</time>
      </trkpt>
      <trkpt lat="47.31717" lon="-2.44772">
        <ele>-15.39999961853</ele>
        <time>2020-12-17T10:44:45.000Z</time>
      </trkpt>
      <trkpt lat="47.31711" lon="-2.44761">
        <ele>-15.39999961853</ele>
        <time>2020-12-17T10:44:47.000Z</time>
      </trkpt>
      <trkpt lat="47.31704" lon="-2.44742">
        <ele>-15.39999961853</ele>
        <time>2020-12-17T10:44:50.000Z</time>
      </trkpt>
      <trkpt lat="47.31681" lon="-2.44688">
        <ele>-15.800000190735</ele>
        <time>2020-12-17T10:44:58.000Z</time>
      </trkpt>
      <trkpt lat="47.31678" lon="-2.44681">
        <ele>-16.60000038147</ele>
        <time>2020-12-17T10:44:59.000Z</time>
      </trkpt>
      <trkpt lat="47.31676" lon="-2.44673">
        <ele>-17</ele>
        <time>2020-12-17T10:45:00.000Z</time>
      </trkpt>
      <trkpt lat="47.31673" lon="-2.44665">
        <ele>-17.39999961853</ele>
        <time>2020-12-17T10:45:01.000Z</time>
      </trkpt>
      <trkpt lat="47.31664" lon="-2.44643">
        <ele>-17.39999961853</ele>
        <time>2020-12-17T10:45:04.000Z</time>
      </trkpt>
      <trkpt lat="47.31639" lon="-2.44588">
        <ele>-17.39999961853</ele>
        <time>2020-12-17T10:45:11.000Z</time>
      </trkpt>
      <trkpt lat="47.31603" lon="-2.44529">
        <ele>-17.39999961853</ele>
        <time>2020-12-17T10:45:19.000Z</time>
      </trkpt>
      <trkpt lat="47.31596" lon="-2.44512">
        <ele>-17.39999961853</ele>
        <time>2020-12-17T10:45:21.000Z</time>
      </trkpt>
      <trkpt lat="47.31586" lon="-2.44483">
        <ele>-17.39999961853</ele>
        <time>2020-12-17T10:45:24.000Z</time>
      </trkpt>
      <trkpt lat="47.31577" lon="-2.44433">
        <ele>-17.39999961853</ele>
        <time>2020-12-17T10:45:29.000Z</time>
      </trkpt>
      <trkpt lat="47.31568" lon="-2.44373">
        <ele>-17.39999961853</ele>
        <time>2020-12-17T10:45:35.000Z</time>
      </trkpt>
      <trkpt lat="47.31559" lon="-2.44314">
        <ele>-17.39999961853</ele>
        <time>2020-12-17T10:45:41.000Z</time>
      </trkpt>
      <trkpt lat="47.31547" lon="-2.44242">
        <ele>-17.39999961853</ele>
        <time>2020-12-17T10:45:49.000Z</time>
      </trkpt>
      <trkpt lat="47.31532" lon="-2.44184">
        <ele>-17.39999961853</ele>
        <time>2020-12-17T10:45:56.000Z</time>
      </trkpt>
      <trkpt lat="47.31511" lon="-2.44141">
        <ele>-17.39999961853</ele>
        <time>2020-12-17T10:46:02.000Z</time>
      </trkpt>
      <trkpt lat="47.31506" lon="-2.44134">
        <ele>-17.39999961853</ele>
        <time>2020-12-17T10:46:03.000Z</time>
      </trkpt>
      <trkpt lat="47.31482" lon="-2.44103">
        <ele>-17.39999961853</ele>
        <time>2020-12-17T10:46:08.000Z</time>
      </trkpt>
      <trkpt lat="47.31438" lon="-2.44046">
        <ele>-17.39999961853</ele>
        <time>2020-12-17T10:46:17.000Z</time>
      </trkpt>
      <trkpt lat="47.314" lon="-2.43998">
        <ele>-17.39999961853</ele>
        <time>2020-12-17T10:46:25.000Z</time>
      </trkpt>
      <trkpt lat="47.31365" lon="-2.43944">
        <ele>-17.39999961853</ele>
        <time>2020-12-17T10:46:33.000Z</time>
      </trkpt>
      <trkpt lat="47.31342" lon="-2.43888">
        <ele>-17.39999961853</ele>
        <time>2020-12-17T10:46:40.000Z</time>
      </trkpt>
      <trkpt lat="47.31319" lon="-2.43833">
        <ele>-17.39999961853</ele>
        <time>2020-12-17T10:46:47.000Z</time>
      </trkpt>
      <trkpt lat="47.31314" lon="-2.43826">
        <ele>-17.39999961853</ele>
        <time>2020-12-17T10:46:48.000Z</time>
      </trkpt>
      <trkpt lat="47.31292" lon="-2.43795">
        <ele>-17.39999961853</ele>
        <time>2020-12-17T10:46:53.000Z</time>
      </trkpt>
      <trkpt lat="47.31288" lon="-2.43787">
        <ele>-17.39999961853</ele>
        <time>2020-12-17T10:46:54.000Z</time>
      </trkpt>
      <trkpt lat="47.31263" lon="-2.43724">
        <ele>-17.39999961853</ele>
        <time>2020-12-17T10:47:02.000Z</time>
      </trkpt>
      <trkpt lat="47.31261" lon="-2.43716">
        <ele>-17.39999961853</ele>
        <time>2020-12-17T10:47:03.000Z</time>
      </trkpt>
      <trkpt lat="47.31248" lon="-2.43677">
        <ele>-17.39999961853</ele>
        <time>2020-12-17T10:47:08.000Z</time>
      </trkpt>
      <trkpt lat="47.31236" lon="-2.4362">
        <ele>-17.39999961853</ele>
        <time>2020-12-17T10:47:15.000Z</time>
      </trkpt>
      <trkpt lat="47.31228" lon="-2.43567">
        <ele>-17.39999961853</ele>
        <time>2020-12-17T10:47:21.000Z</time>
      </trkpt>
      <trkpt lat="47.31215" lon="-2.43482">
        <ele>-17.39999961853</ele>
        <time>2020-12-17T10:47:30.000Z</time>
      </trkpt>
      <trkpt lat="47.31203" lon="-2.434">
        <ele>-17.39999961853</ele>
        <time>2020-12-17T10:47:38.000Z</time>
      </trkpt>
      <trkpt lat="47.312" lon="-2.4338">
        <ele>-17.39999961853</ele>
        <time>2020-12-17T10:47:40.000Z</time>
      </trkpt>
      <trkpt lat="47.31188" lon="-2.43322">
        <ele>-17.39999961853</ele>
        <time>2020-12-17T10:47:46.000Z</time>
      </trkpt>
      <trkpt lat="47.31169" lon="-2.4328">
        <ele>-17.39999961853</ele>
        <time>2020-12-17T10:47:51.000Z</time>
      </trkpt>
      <trkpt lat="47.31137" lon="-2.43231">
        <ele>-17.39999961853</ele>
        <time>2020-12-17T10:47:58.000Z</time>
      </trkpt>
      <trkpt lat="47.31115" lon="-2.43197">
        <ele>-17.39999961853</ele>
        <time>2020-12-17T10:48:04.000Z</time>
      </trkpt>
      <trkpt lat="47.31106" lon="-2.43185">
        <ele>-17.39999961853</ele>
        <time>2020-12-17T10:48:09.000Z</time>
      </trkpt>
      <trkpt lat="47.31106" lon="-2.43185">
        <ele>-17.39999961853</ele>
        <time>2020-12-17T10:48:11.000Z</time>
      </trkpt>
      <trkpt lat="47.31105" lon="-2.43183">
        <ele>-17.39999961853</ele>
        <time>2020-12-17T10:48:17.000Z</time>
      </trkpt>
      <trkpt lat="47.31104" lon="-2.43181">
        <ele>-17.39999961853</ele>
        <time>2020-12-17T10:48:18.000Z</time>
      </trkpt>
      <trkpt lat="47.31098" lon="-2.43164">
        <ele>-17.39999961853</ele>
        <time>2020-12-17T10:48:24.000Z</time>
      </trkpt>
      <trkpt lat="47.31087" lon="-2.4313">
        <ele>-17.39999961853</ele>
        <time>2020-12-17T10:48:30.000Z</time>
      </trkpt>
      <trkpt lat="47.31069" lon="-2.43067">
        <ele>-17.39999961853</ele>
        <time>2020-12-17T10:48:41.000Z</time>
      </trkpt>
      <trkpt lat="47.31053" lon="-2.43014">
        <ele>-17.39999961853</ele>
        <time>2020-12-17T10:48:51.000Z</time>
      </trkpt>
      <trkpt lat="47.31042" lon="-2.42984">
        <ele>-17.39999961853</ele>
        <time>2020-12-17T10:48:58.000Z</time>
      </trkpt>
      <trkpt lat="47.31043" lon="-2.42974">
        <ele>-17.39999961853</ele>
        <time>2020-12-17T10:49:02.000Z</time>
      </trkpt>
      <trkpt lat="47.31043" lon="-2.42974">
        <ele>-17.39999961853</ele>
        <time>2020-12-17T10:49:03.000Z</time>
      </trkpt>
      <trkpt lat="47.31045" lon="-2.42964">
        <ele>-17.39999961853</ele>
        <time>2020-12-17T10:49:30.000Z</time>
      </trkpt>
      <trkpt lat="47.31048" lon="-2.42961">
        <ele>-17.39999961853</ele>
        <time>2020-12-17T10:49:32.000Z</time>
      </trkpt>
      <trkpt lat="47.31059" lon="-2.42954">
        <ele>-17.39999961853</ele>
        <time>2020-12-17T10:49:35.000Z</time>
      </trkpt>
      <trkpt lat="47.31063" lon="-2.42953">
        <ele>-17.39999961853</ele>
        <time>2020-12-17T10:49:36.000Z</time>
      </trkpt>
      <trkpt lat="47.3108" lon="-2.4295">
        <ele>-17.39999961853</ele>
        <time>2020-12-17T10:49:39.000Z</time>
      </trkpt>
      <trkpt lat="47.31086" lon="-2.42949">
        <ele>-17.39999961853</ele>
        <time>2020-12-17T10:49:40.000Z</time>
      </trkpt>
      <trkpt lat="47.31139" lon="-2.42942">
        <ele>-17</ele>
        <time>2020-12-17T10:49:48.000Z</time>
      </trkpt>
      <trkpt lat="47.31145" lon="-2.42942">
        <ele>-16.39999961853</ele>
        <time>2020-12-17T10:49:49.000Z</time>
      </trkpt>
      <trkpt lat="47.31152" lon="-2.42941">
        <ele>-16</ele>
        <time>2020-12-17T10:49:50.000Z</time>
      </trkpt>
      <trkpt lat="47.31158" lon="-2.4294">
        <ele>-15.60000038147</ele>
        <time>2020-12-17T10:49:51.000Z</time>
      </trkpt>
      <trkpt lat="47.31164" lon="-2.42939">
        <ele>-15.199999809265</ele>
        <time>2020-12-17T10:49:52.000Z</time>
      </trkpt>
      <trkpt lat="47.31207" lon="-2.42932">
        <ele>-15.199999809265</ele>
        <time>2020-12-17T10:49:59.000Z</time>
      </trkpt>
      <trkpt lat="47.31213" lon="-2.4293">
        <ele>-15.199999809265</ele>
        <time>2020-12-17T10:50:00.000Z</time>
      </trkpt>
      <trkpt lat="47.31244" lon="-2.42925">
        <ele>-15.199999809265</ele>
        <time>2020-12-17T10:50:05.000Z</time>
      </trkpt>
      <trkpt lat="47.313" lon="-2.42913">
        <ele>-15.199999809265</ele>
        <time>2020-12-17T10:50:14.000Z</time>
      </trkpt>
      <trkpt lat="47.31348" lon="-2.429">
        <ele>-15.199999809265</ele>
        <time>2020-12-17T10:50:22.000Z</time>
      </trkpt>
      <trkpt lat="47.31401" lon="-2.42885">
        <ele>-15.199999809265</ele>
        <time>2020-12-17T10:50:31.000Z</time>
      </trkpt>
      <trkpt lat="47.31407" lon="-2.42883">
        <ele>-15.199999809265</ele>
        <time>2020-12-17T10:50:32.000Z</time>
      </trkpt>
      <trkpt lat="47.31413" lon="-2.42881">
        <ele>-14.60000038147</ele>
        <time>2020-12-17T10:50:33.000Z</time>
      </trkpt>
      <trkpt lat="47.31418" lon="-2.42879">
        <ele>-14.199999809265</ele>
        <time>2020-12-17T10:50:34.000Z</time>
      </trkpt>
      <trkpt lat="47.31424" lon="-2.42877">
        <ele>-13.800000190735</ele>
        <time>2020-12-17T10:50:35.000Z</time>
      </trkpt>
      <trkpt lat="47.3143" lon="-2.42874">
        <ele>-13.39999961853</ele>
        <time>2020-12-17T10:50:36.000Z</time>
      </trkpt>
      <trkpt lat="47.31435" lon="-2.42872">
        <ele>-13</ele>
        <time>2020-12-17T10:50:37.000Z</time>
      </trkpt>
      <trkpt lat="47.31456" lon="-2.42862">
        <ele>-13</ele>
        <time>2020-12-17T10:50:41.000Z</time>
      </trkpt>
      <trkpt lat="47.3146" lon="-2.42858">
        <ele>-13</ele>
        <time>2020-12-17T10:50:42.000Z</time>
      </trkpt>
      <trkpt lat="47.31465" lon="-2.42844">
        <ele>-13</ele>
        <time>2020-12-17T10:50:44.000Z</time>
      </trkpt>
      <trkpt lat="47.31466" lon="-2.42829">
        <ele>-13</ele>
        <time>2020-12-17T10:50:46.000Z</time>
      </trkpt>
      <trkpt lat="47.31466" lon="-2.42821">
        <ele>-13</ele>
        <time>2020-12-17T10:50:47.000Z</time>
      </trkpt>
      <trkpt lat="47.31465" lon="-2.42813">
        <ele>-13</ele>
        <time>2020-12-17T10:50:48.000Z</time>
      </trkpt>
      <trkpt lat="47.3146" lon="-2.4279">
        <ele>-13</ele>
        <time>2020-12-17T10:50:51.000Z</time>
      </trkpt>
      <trkpt lat="47.31443" lon="-2.42736">
        <ele>-13</ele>
        <time>2020-12-17T10:50:58.000Z</time>
      </trkpt>
      <trkpt lat="47.31416" lon="-2.4269">
        <ele>-13</ele>
        <time>2020-12-17T10:51:05.000Z</time>
      </trkpt>
      <trkpt lat="47.31396" lon="-2.4266">
        <ele>-13</ele>
        <time>2020-12-17T10:51:10.000Z</time>
      </trkpt>
      <trkpt lat="47.31386" lon="-2.42643">
        <ele>-13</ele>
        <time>2020-12-17T10:51:13.000Z</time>
      </trkpt>
      <trkpt lat="47.31366" lon="-2.42597">
        <ele>-13</ele>
        <time>2020-12-17T10:51:19.000Z</time>
      </trkpt>
      <trkpt lat="47.31355" lon="-2.42545">
        <ele>-13</ele>
        <time>2020-12-17T10:51:25.000Z</time>
      </trkpt>
      <trkpt lat="47.31349" lon="-2.42491">
        <ele>-13</ele>
        <time>2020-12-17T10:51:31.000Z</time>
      </trkpt>
      <trkpt lat="47.31345" lon="-2.42473">
        <ele>-13</ele>
        <time>2020-12-17T10:51:33.000Z</time>
      </trkpt>
      <trkpt lat="47.31336" lon="-2.42447">
        <ele>-13</ele>
        <time>2020-12-17T10:51:36.000Z</time>
      </trkpt>
      <trkpt lat="47.31315" lon="-2.42408">
        <ele>-13</ele>
        <time>2020-12-17T10:51:41.000Z</time>
      </trkpt>
      <trkpt lat="47.3128" lon="-2.42353">
        <ele>-13</ele>
        <time>2020-12-17T10:51:49.000Z</time>
      </trkpt>
      <trkpt lat="47.3125" lon="-2.42319">
        <ele>-13</ele>
        <time>2020-12-17T10:51:55.000Z</time>
      </trkpt>
      <trkpt lat="47.31217" lon="-2.42276">
        <ele>-13</ele>
        <time>2020-12-17T10:52:02.000Z</time>
      </trkpt>
      <trkpt lat="47.31209" lon="-2.42261">
        <ele>-13</ele>
        <time>2020-12-17T10:52:04.000Z</time>
      </trkpt>
      <trkpt lat="47.31195" lon="-2.4223">
        <ele>-13</ele>
        <time>2020-12-17T10:52:08.000Z</time>
      </trkpt>
      <trkpt lat="47.31165" lon="-2.42169">
        <ele>-13.39999961853</ele>
        <time>2020-12-17T10:52:16.000Z</time>
      </trkpt>
      <trkpt lat="47.31162" lon="-2.42162">
        <ele>-13.800000190735</ele>
        <time>2020-12-17T10:52:17.000Z</time>
      </trkpt>
      <trkpt lat="47.31158" lon="-2.42154">
        <ele>-14.199999809265</ele>
        <time>2020-12-17T10:52:18.000Z</time>
      </trkpt>
      <trkpt lat="47.31155" lon="-2.42147">
        <ele>-14.60000038147</ele>
        <time>2020-12-17T10:52:19.000Z</time>
      </trkpt>
      <trkpt lat="47.31151" lon="-2.4214">
        <ele>-15</ele>
        <time>2020-12-17T10:52:20.000Z</time>
      </trkpt>
      <trkpt lat="47.31134" lon="-2.42103">
        <ele>-15</ele>
        <time>2020-12-17T10:52:25.000Z</time>
      </trkpt>
      <trkpt lat="47.31108" lon="-2.42042">
        <ele>-15</ele>
        <time>2020-12-17T10:52:33.000Z</time>
      </trkpt>
      <trkpt lat="47.31093" lon="-2.41993">
        <ele>-15</ele>
        <time>2020-12-17T10:52:39.000Z</time>
      </trkpt>
      <trkpt lat="47.31073" lon="-2.41921">
        <ele>-15</ele>
        <time>2020-12-17T10:52:48.000Z</time>
      </trkpt>
      <trkpt lat="47.31055" lon="-2.41859">
        <ele>-15</ele>
        <time>2020-12-17T10:52:56.000Z</time>
      </trkpt>
      <trkpt lat="47.31048" lon="-2.41837">
        <ele>-15</ele>
        <time>2020-12-17T10:52:59.000Z</time>
      </trkpt>
      <trkpt lat="47.31038" lon="-2.41816">
        <ele>-15</ele>
        <time>2020-12-17T10:53:02.000Z</time>
      </trkpt>
      <trkpt lat="47.3102" lon="-2.41783">
        <ele>-14.60000038147</ele>
        <time>2020-12-17T10:53:07.000Z</time>
      </trkpt>
      <trkpt lat="47.31016" lon="-2.41777">
        <ele>-14.199999809265</ele>
        <time>2020-12-17T10:53:08.000Z</time>
      </trkpt>
      <trkpt lat="47.31012" lon="-2.41771">
        <ele>-13.800000190735</ele>
        <time>2020-12-17T10:53:09.000Z</time>
      </trkpt>
      <trkpt lat="47.31008" lon="-2.41764">
        <ele>-13.39999961853</ele>
        <time>2020-12-17T10:53:10.000Z</time>
      </trkpt>
      <trkpt lat="47.31004" lon="-2.41758">
        <ele>-13</ele>
        <time>2020-12-17T10:53:11.000Z</time>
      </trkpt>
      <trkpt lat="47.30986" lon="-2.4173">
        <ele>-13</ele>
        <time>2020-12-17T10:53:15.000Z</time>
      </trkpt>
      <trkpt lat="47.30957" lon="-2.41678">
        <ele>-13</ele>
        <time>2020-12-17T10:53:22.000Z</time>
      </trkpt>
      <trkpt lat="47.30944" lon="-2.41635">
        <ele>-13</ele>
        <time>2020-12-17T10:53:27.000Z</time>
      </trkpt>
      <trkpt lat="47.30936" lon="-2.41581">
        <ele>-13</ele>
        <time>2020-12-17T10:53:33.000Z</time>
      </trkpt>
      <trkpt lat="47.30929" lon="-2.41527">
        <ele>-13</ele>
        <time>2020-12-17T10:53:39.000Z</time>
      </trkpt>
      <trkpt lat="47.3092" lon="-2.41464">
        <ele>-13</ele>
        <time>2020-12-17T10:53:46.000Z</time>
      </trkpt>
      <trkpt lat="47.30909" lon="-2.41413">
        <ele>-13</ele>
        <time>2020-12-17T10:53:52.000Z</time>
      </trkpt>
      <trkpt lat="47.309" lon="-2.41388">
        <ele>-13</ele>
        <time>2020-12-17T10:53:55.000Z</time>
      </trkpt>
      <trkpt lat="47.30889" lon="-2.41373">
        <ele>-13</ele>
        <time>2020-12-17T10:53:57.000Z</time>
      </trkpt>
      <trkpt lat="47.30855" lon="-2.41337">
        <ele>-13</ele>
        <time>2020-12-17T10:54:03.000Z</time>
      </trkpt>
      <trkpt lat="47.30809" lon="-2.41294">
        <ele>-13</ele>
        <time>2020-12-17T10:54:11.000Z</time>
      </trkpt>
      <trkpt lat="47.30803" lon="-2.41287">
        <ele>-13</ele>
        <time>2020-12-17T10:54:12.000Z</time>
      </trkpt>
      <trkpt lat="47.30788" lon="-2.41263">
        <ele>-13</ele>
        <time>2020-12-17T10:54:15.000Z</time>
      </trkpt>
      <trkpt lat="47.30784" lon="-2.41254">
        <ele>-13</ele>
        <time>2020-12-17T10:54:16.000Z</time>
      </trkpt>
      <trkpt lat="47.30758" lon="-2.41194">
        <ele>-13</ele>
        <time>2020-12-17T10:54:22.000Z</time>
      </trkpt>
      <trkpt lat="47.30738" lon="-2.41134">
        <ele>-13</ele>
        <time>2020-12-17T10:54:28.000Z</time>
      </trkpt>
      <trkpt lat="47.30736" lon="-2.41123">
        <ele>-13</ele>
        <time>2020-12-17T10:54:29.000Z</time>
      </trkpt>
      <trkpt lat="47.30719" lon="-2.41051">
        <ele>-13</ele>
        <time>2020-12-17T10:54:36.000Z</time>
      </trkpt>
      <trkpt lat="47.30714" lon="-2.41042">
        <ele>-13</ele>
        <time>2020-12-17T10:54:37.000Z</time>
      </trkpt>
      <trkpt lat="47.307" lon="-2.41017">
        <ele>-13</ele>
        <time>2020-12-17T10:54:40.000Z</time>
      </trkpt>
      <trkpt lat="47.30659" lon="-2.40953">
        <ele>-13</ele>
        <time>2020-12-17T10:54:48.000Z</time>
      </trkpt>
      <trkpt lat="47.30639" lon="-2.40917">
        <ele>-13</ele>
        <time>2020-12-17T10:54:53.000Z</time>
      </trkpt>
      <trkpt lat="47.30623" lon="-2.40886">
        <ele>-13</ele>
        <time>2020-12-17T10:54:58.000Z</time>
      </trkpt>
      <trkpt lat="47.30606" lon="-2.40852">
        <ele>-13</ele>
        <time>2020-12-17T10:55:04.000Z</time>
      </trkpt>
      <trkpt lat="47.30603" lon="-2.40837">
        <ele>-13</ele>
        <time>2020-12-17T10:55:06.000Z</time>
      </trkpt>
      <trkpt lat="47.30594" lon="-2.408">
        <ele>-13</ele>
        <time>2020-12-17T10:55:11.000Z</time>
      </trkpt>
      <trkpt lat="47.30583" lon="-2.40772">
        <ele>-13</ele>
        <time>2020-12-17T10:55:15.000Z</time>
      </trkpt>
      <trkpt lat="47.30576" lon="-2.40756">
        <ele>-13</ele>
        <time>2020-12-17T10:55:17.000Z</time>
      </trkpt>
      <trkpt lat="47.30549" lon="-2.40688">
        <ele>-13</ele>
        <time>2020-12-17T10:55:25.000Z</time>
      </trkpt>
      <trkpt lat="47.30528" lon="-2.40634">
        <ele>-13</ele>
        <time>2020-12-17T10:55:31.000Z</time>
      </trkpt>
      <trkpt lat="47.30501" lon="-2.40565">
        <ele>-13</ele>
        <time>2020-12-17T10:55:39.000Z</time>
      </trkpt>
      <trkpt lat="47.30479" lon="-2.40505">
        <ele>-13</ele>
        <time>2020-12-17T10:55:46.000Z</time>
      </trkpt>
      <trkpt lat="47.30458" lon="-2.40455">
        <ele>-13</ele>
        <time>2020-12-17T10:55:52.000Z</time>
      </trkpt>
      <trkpt lat="47.30441" lon="-2.40414">
        <ele>-13</ele>
        <time>2020-12-17T10:55:57.000Z</time>
      </trkpt>
      <trkpt lat="47.30427" lon="-2.40376">
        <ele>-13</ele>
        <time>2020-12-17T10:56:02.000Z</time>
      </trkpt>
      <trkpt lat="47.30415" lon="-2.40348">
        <ele>-12.39999961853</ele>
        <time>2020-12-17T10:56:06.000Z</time>
      </trkpt>
      <trkpt lat="47.30413" lon="-2.40342">
        <ele>-11.60000038147</ele>
        <time>2020-12-17T10:56:07.000Z</time>
      </trkpt>
      <trkpt lat="47.3041" lon="-2.40335">
        <ele>-11.199999809265</ele>
        <time>2020-12-17T10:56:08.000Z</time>
      </trkpt>
      <trkpt lat="47.30407" lon="-2.40327">
        <ele>-10.800000190735</ele>
        <time>2020-12-17T10:56:09.000Z</time>
      </trkpt>
      <trkpt lat="47.30389" lon="-2.40278">
        <ele>-10.800000190735</ele>
        <time>2020-12-17T10:56:16.000Z</time>
      </trkpt>
      <trkpt lat="47.30372" lon="-2.40229">
        <ele>-10.800000190735</ele>
        <time>2020-12-17T10:56:22.000Z</time>
      </trkpt>
      <trkpt lat="47.30363" lon="-2.40203">
        <ele>-10.800000190735</ele>
        <time>2020-12-17T10:56:25.000Z</time>
      </trkpt>
      <trkpt lat="47.30354" lon="-2.40189">
        <ele>-10.800000190735</ele>
        <time>2020-12-17T10:56:27.000Z</time>
      </trkpt>
      <trkpt lat="47.30337" lon="-2.40159">
        <ele>-10.800000190735</ele>
        <time>2020-12-17T10:56:31.000Z</time>
      </trkpt>
      <trkpt lat="47.30333" lon="-2.40141">
        <ele>-10.800000190735</ele>
        <time>2020-12-17T10:56:33.000Z</time>
      </trkpt>
      <trkpt lat="47.30323" lon="-2.40107">
        <ele>-10.800000190735</ele>
        <time>2020-12-17T10:56:37.000Z</time>
      </trkpt>
      <trkpt lat="47.30317" lon="-2.40081">
        <ele>-10.800000190735</ele>
        <time>2020-12-17T10:56:40.000Z</time>
      </trkpt>
      <trkpt lat="47.30311" lon="-2.40064">
        <ele>-10.800000190735</ele>
        <time>2020-12-17T10:56:42.000Z</time>
      </trkpt>
      <trkpt lat="47.30294" lon="-2.40015">
        <ele>-10.800000190735</ele>
        <time>2020-12-17T10:56:48.000Z</time>
      </trkpt>
      <trkpt lat="47.30276" lon="-2.39954">
        <ele>-10.800000190735</ele>
        <time>2020-12-17T10:56:55.000Z</time>
      </trkpt>
      <trkpt lat="47.30259" lon="-2.39894">
        <ele>-10.800000190735</ele>
        <time>2020-12-17T10:57:02.000Z</time>
      </trkpt>
      <trkpt lat="47.30238" lon="-2.39829">
        <ele>-10.800000190735</ele>
        <time>2020-12-17T10:57:10.000Z</time>
      </trkpt>
      <trkpt lat="47.30235" lon="-2.3982">
        <ele>-10.39999961853</ele>
        <time>2020-12-17T10:57:11.000Z</time>
      </trkpt>
      <trkpt lat="47.30232" lon="-2.39812">
        <ele>-10</ele>
        <time>2020-12-17T10:57:12.000Z</time>
      </trkpt>
      <trkpt lat="47.30229" lon="-2.39804">
        <ele>-9.6000003814697</ele>
        <time>2020-12-17T10:57:13.000Z</time>
      </trkpt>
      <trkpt lat="47.30226" lon="-2.39796">
        <ele>-9.1999998092651</ele>
        <time>2020-12-17T10:57:14.000Z</time>
      </trkpt>
      <trkpt lat="47.30224" lon="-2.39787">
        <ele>-8.6000003814697</ele>
        <time>2020-12-17T10:57:15.000Z</time>
      </trkpt>
      <trkpt lat="47.30219" lon="-2.39771">
        <ele>-8.6000003814697</ele>
        <time>2020-12-17T10:57:17.000Z</time>
      </trkpt>
      <trkpt lat="47.30201" lon="-2.39723">
        <ele>-8.6000003814697</ele>
        <time>2020-12-17T10:57:23.000Z</time>
      </trkpt>
      <trkpt lat="47.30189" lon="-2.39686">
        <ele>-8.6000003814697</ele>
        <time>2020-12-17T10:57:28.000Z</time>
      </trkpt>
      <trkpt lat="47.30184" lon="-2.3968">
        <ele>-8.6000003814697</ele>
        <time>2020-12-17T10:57:29.000Z</time>
      </trkpt>
      <trkpt lat="47.30167" lon="-2.39673">
        <ele>-8.6000003814697</ele>
        <time>2020-12-17T10:57:32.000Z</time>
      </trkpt>
      <trkpt lat="47.3016" lon="-2.39672">
        <ele>-8.6000003814697</ele>
        <time>2020-12-17T10:57:33.000Z</time>
      </trkpt>
      <trkpt lat="47.30122" lon="-2.39664">
        <ele>-8.6000003814697</ele>
        <time>2020-12-17T10:57:39.000Z</time>
      </trkpt>
      <trkpt lat="47.30075" lon="-2.39655">
        <ele>-8.6000003814697</ele>
        <time>2020-12-17T10:57:46.000Z</time>
      </trkpt>
      <trkpt lat="47.30034" lon="-2.39644">
        <ele>-8.6000003814697</ele>
        <time>2020-12-17T10:57:52.000Z</time>
      </trkpt>
      <trkpt lat="47.29978" lon="-2.39632">
        <ele>-8.6000003814697</ele>
        <time>2020-12-17T10:58:00.000Z</time>
      </trkpt>
      <trkpt lat="47.29971" lon="-2.39631">
        <ele>-8.6000003814697</ele>
        <time>2020-12-17T10:58:01.000Z</time>
      </trkpt>
      <trkpt lat="47.29954" lon="-2.39631">
        <ele>-8.6000003814697</ele>
        <time>2020-12-17T10:58:05.000Z</time>
      </trkpt>
      <trkpt lat="47.29952" lon="-2.3963">
        <ele>-8.6000003814697</ele>
        <time>2020-12-17T10:58:08.000Z</time>
      </trkpt>
      <trkpt lat="47.29951" lon="-2.39624">
        <ele>-9.1999998092651</ele>
        <time>2020-12-17T10:58:12.000Z</time>
      </trkpt>
      <trkpt lat="47.29951" lon="-2.3962">
        <ele>-9.6000003814697</ele>
        <time>2020-12-17T10:58:13.000Z</time>
      </trkpt>
      <trkpt lat="47.2995" lon="-2.39617">
        <ele>-10</ele>
        <time>2020-12-17T10:58:14.000Z</time>
      </trkpt>
      <trkpt lat="47.29949" lon="-2.39615">
        <ele>-10.39999961853</ele>
        <time>2020-12-17T10:58:15.000Z</time>
      </trkpt>
      <trkpt lat="47.29946" lon="-2.39615">
        <ele>-10.800000190735</ele>
        <time>2020-12-17T10:58:16.000Z</time>
      </trkpt>
      <trkpt lat="47.29944" lon="-2.39615">
        <ele>-10.800000190735</ele>
        <time>2020-12-17T10:58:17.000Z</time>
      </trkpt>
      <trkpt lat="47.2993" lon="-2.39615">
        <ele>-10.800000190735</ele>
        <time>2020-12-17T10:58:21.000Z</time>
      </trkpt>
      <trkpt lat="47.29902" lon="-2.39612">
        <ele>-10.800000190735</ele>
        <time>2020-12-17T10:58:27.000Z</time>
      </trkpt>
      <trkpt lat="47.29898" lon="-2.3961">
        <ele>-10.800000190735</ele>
        <time>2020-12-17T10:58:28.000Z</time>
      </trkpt>
      <trkpt lat="47.29868" lon="-2.39603">
        <ele>-10.800000190735</ele>
        <time>2020-12-17T10:58:34.000Z</time>
      </trkpt>
      <trkpt lat="47.29821" lon="-2.39595">
        <ele>-10.800000190735</ele>
        <time>2020-12-17T10:58:43.000Z</time>
      </trkpt>
      <trkpt lat="47.29776" lon="-2.39587">
        <ele>-10.800000190735</ele>
        <time>2020-12-17T10:58:50.000Z</time>
      </trkpt>
      <trkpt lat="47.2977" lon="-2.39585">
        <ele>-11.199999809265</ele>
        <time>2020-12-17T10:58:51.000Z</time>
      </trkpt>
      <trkpt lat="47.29763" lon="-2.39584">
        <ele>-11.60000038147</ele>
        <time>2020-12-17T10:58:52.000Z</time>
      </trkpt>
      <trkpt lat="47.29756" lon="-2.39583">
        <ele>-12</ele>
        <time>2020-12-17T10:58:53.000Z</time>
      </trkpt>
      <trkpt lat="47.2975" lon="-2.39581">
        <ele>-12.39999961853</ele>
        <time>2020-12-17T10:58:54.000Z</time>
      </trkpt>
      <trkpt lat="47.29743" lon="-2.3958">
        <ele>-12.800000190735</ele>
        <time>2020-12-17T10:58:55.000Z</time>
      </trkpt>
      <trkpt lat="47.29736" lon="-2.39578">
        <ele>-12.800000190735</ele>
        <time>2020-12-17T10:58:56.000Z</time>
      </trkpt>
      <trkpt lat="47.29696" lon="-2.39571">
        <ele>-12.800000190735</ele>
        <time>2020-12-17T10:59:02.000Z</time>
      </trkpt>
      <trkpt lat="47.29644" lon="-2.39561">
        <ele>-12.800000190735</ele>
        <time>2020-12-17T10:59:10.000Z</time>
      </trkpt>
      <trkpt lat="47.29605" lon="-2.39553">
        <ele>-13.199999809265</ele>
        <time>2020-12-17T10:59:16.000Z</time>
      </trkpt>
      <trkpt lat="47.296" lon="-2.39552">
        <ele>-13.800000190735</ele>
        <time>2020-12-17T10:59:17.000Z</time>
      </trkpt>
      <trkpt lat="47.29595" lon="-2.3955">
        <ele>-14.199999809265</ele>
        <time>2020-12-17T10:59:18.000Z</time>
      </trkpt>
      <trkpt lat="47.2959" lon="-2.39548">
        <ele>-14.60000038147</ele>
        <time>2020-12-17T10:59:19.000Z</time>
      </trkpt>
      <trkpt lat="47.29586" lon="-2.39547">
        <ele>-15</ele>
        <time>2020-12-17T10:59:20.000Z</time>
      </trkpt>
      <trkpt lat="47.29576" lon="-2.39546">
        <ele>-14.60000038147</ele>
        <time>2020-12-17T10:59:22.000Z</time>
      </trkpt>
      <trkpt lat="47.29571" lon="-2.39545">
        <ele>-13.800000190735</ele>
        <time>2020-12-17T10:59:23.000Z</time>
      </trkpt>
      <trkpt lat="47.29565" lon="-2.39544">
        <ele>-13.39999961853</ele>
        <time>2020-12-17T10:59:24.000Z</time>
      </trkpt>
      <trkpt lat="47.29558" lon="-2.39543">
        <ele>-13</ele>
        <time>2020-12-17T10:59:25.000Z</time>
      </trkpt>
      <trkpt lat="47.29551" lon="-2.3954">
        <ele>-13.39999961853</ele>
        <time>2020-12-17T10:59:27.000Z</time>
      </trkpt>
      <trkpt lat="47.29551" lon="-2.3954">
        <ele>-13.800000190735</ele>
        <time>2020-12-17T10:59:28.000Z</time>
      </trkpt>
      <trkpt lat="47.29551" lon="-2.3954">
        <ele>-14.39999961853</ele>
        <time>2020-12-17T10:59:29.000Z</time>
      </trkpt>
      <trkpt lat="47.2955" lon="-2.3954">
        <ele>-14.800000190735</ele>
        <time>2020-12-17T10:59:30.000Z</time>
      </trkpt>
      <trkpt lat="47.29547" lon="-2.39539">
        <ele>-15.199999809265</ele>
        <time>2020-12-17T10:59:37.000Z</time>
      </trkpt>
      <trkpt lat="47.29541" lon="-2.39539">
        <ele>-15.199999809265</ele>
        <time>2020-12-17T10:59:39.000Z</time>
      </trkpt>
      <trkpt lat="47.29521" lon="-2.39538">
        <ele>-15.199999809265</ele>
        <time>2020-12-17T10:59:43.000Z</time>
      </trkpt>
      <trkpt lat="47.29514" lon="-2.39538">
        <ele>-15.60000038147</ele>
        <time>2020-12-17T10:59:44.000Z</time>
      </trkpt>
      <trkpt lat="47.29508" lon="-2.39536">
        <ele>-16</ele>
        <time>2020-12-17T10:59:45.000Z</time>
      </trkpt>
      <trkpt lat="47.29501" lon="-2.39535">
        <ele>-16.39999961853</ele>
        <time>2020-12-17T10:59:46.000Z</time>
      </trkpt>
      <trkpt lat="47.29495" lon="-2.39534">
        <ele>-17</ele>
        <time>2020-12-17T10:59:47.000Z</time>
      </trkpt>
      <trkpt lat="47.29488" lon="-2.39532">
        <ele>-17.39999961853</ele>
        <time>2020-12-17T10:59:48.000Z</time>
      </trkpt>
      <trkpt lat="47.29482" lon="-2.39531">
        <ele>-17.39999961853</ele>
        <time>2020-12-17T10:59:49.000Z</time>
      </trkpt>
      <trkpt lat="47.29425" lon="-2.39519">
        <ele>-17.39999961853</ele>
        <time>2020-12-17T10:59:57.000Z</time>
      </trkpt>
      <trkpt lat="47.29373" lon="-2.39508">
        <ele>-17.39999961853</ele>
        <time>2020-12-17T11:00:05.000Z</time>
      </trkpt>
      <trkpt lat="47.29315" lon="-2.39496">
        <ele>-17.39999961853</ele>
        <time>2020-12-17T11:00:14.000Z</time>
      </trkpt>
      <trkpt lat="47.2927" lon="-2.39488">
        <ele>-17.39999961853</ele>
        <time>2020-12-17T11:00:21.000Z</time>
      </trkpt>
      <trkpt lat="47.29219" lon="-2.3948">
        <ele>-17.39999961853</ele>
        <time>2020-12-17T11:00:29.000Z</time>
      </trkpt>
      <trkpt lat="47.29175" lon="-2.39471">
        <ele>-17.39999961853</ele>
        <time>2020-12-17T11:00:36.000Z</time>
      </trkpt>
      <trkpt lat="47.29144" lon="-2.39466">
        <ele>-17.39999961853</ele>
        <time>2020-12-17T11:00:42.000Z</time>
      </trkpt>
      <trkpt lat="47.29136" lon="-2.3946">
        <ele>-17.799999237061</ele>
        <time>2020-12-17T11:00:45.000Z</time>
      </trkpt>
      <trkpt lat="47.29136" lon="-2.39455">
        <ele>-18.200000762939</ele>
        <time>2020-12-17T11:00:46.000Z</time>
      </trkpt>
      <trkpt lat="47.29137" lon="-2.3945">
        <ele>-18.799999237061</ele>
        <time>2020-12-17T11:00:47.000Z</time>
      </trkpt>
      <trkpt lat="47.29138" lon="-2.39445">
        <ele>-19.200000762939</ele>
        <time>2020-12-17T11:00:48.000Z</time>
      </trkpt>
      <trkpt lat="47.29138" lon="-2.39439">
        <ele>-19.60000038147</ele>
        <time>2020-12-17T11:00:49.000Z</time>
      </trkpt>
      <trkpt lat="47.29138" lon="-2.39434">
        <ele>-19.60000038147</ele>
        <time>2020-12-17T11:00:50.000Z</time>
      </trkpt>
      <trkpt lat="47.29136" lon="-2.39399">
        <ele>-19.60000038147</ele>
        <time>2020-12-17T11:00:57.000Z</time>
      </trkpt>
      <trkpt lat="47.29134" lon="-2.39389">
        <ele>-19.60000038147</ele>
        <time>2020-12-17T11:00:59.000Z</time>
      </trkpt>
      <trkpt lat="47.29134" lon="-2.3938">
        <ele>-19.60000038147</ele>
        <time>2020-12-17T11:01:01.000Z</time>
      </trkpt>
      <trkpt lat="47.29126" lon="-2.39369">
        <ele>-19.60000038147</ele>
        <time>2020-12-17T11:01:05.000Z</time>
      </trkpt>
      <trkpt lat="47.29113" lon="-2.39374">
        <ele>-19.60000038147</ele>
        <time>2020-12-17T11:01:09.000Z</time>
      </trkpt>
      <trkpt lat="47.29095" lon="-2.3938">
        <ele>-19.200000762939</ele>
        <time>2020-12-17T11:01:16.000Z</time>
      </trkpt>
      <trkpt lat="47.29092" lon="-2.39378">
        <ele>-18.799999237061</ele>
        <time>2020-12-17T11:01:17.000Z</time>
      </trkpt>
      <trkpt lat="47.29089" lon="-2.39376">
        <ele>-18.39999961853</ele>
        <time>2020-12-17T11:01:18.000Z</time>
      </trkpt>
      <trkpt lat="47.29087" lon="-2.39373">
        <ele>-18</ele>
        <time>2020-12-17T11:01:19.000Z</time>
      </trkpt>
      <trkpt lat="47.29085" lon="-2.39369">
        <ele>-17.39999961853</ele>
        <time>2020-12-17T11:01:20.000Z</time>
      </trkpt>
      <trkpt lat="47.29074" lon="-2.3936">
        <ele>-17.39999961853</ele>
        <time>2020-12-17T11:01:23.000Z</time>
      </trkpt>
      <trkpt lat="47.29069" lon="-2.39358">
        <ele>-17.39999961853</ele>
        <time>2020-12-17T11:01:24.000Z</time>
      </trkpt>
      <trkpt lat="47.29038" lon="-2.39343">
        <ele>-17.39999961853</ele>
        <time>2020-12-17T11:01:30.000Z</time>
      </trkpt>
      <trkpt lat="47.2899" lon="-2.39321">
        <ele>-17.39999961853</ele>
        <time>2020-12-17T11:01:39.000Z</time>
      </trkpt>
      <trkpt lat="47.2896" lon="-2.39318">
        <ele>-17.39999961853</ele>
        <time>2020-12-17T11:01:45.000Z</time>
      </trkpt>
      <trkpt lat="47.28948" lon="-2.39318">
        <ele>-17.39999961853</ele>
        <time>2020-12-17T11:01:48.000Z</time>
      </trkpt>
      <trkpt lat="47.28943" lon="-2.39308">
        <ele>-17.39999961853</ele>
        <time>2020-12-17T11:01:50.000Z</time>
      </trkpt>
      <trkpt lat="47.28939" lon="-2.39294">
        <ele>-17.39999961853</ele>
        <time>2020-12-17T11:01:52.000Z</time>
      </trkpt>
      <trkpt lat="47.28934" lon="-2.39271">
        <ele>-17.39999961853</ele>
        <time>2020-12-17T11:01:55.000Z</time>
      </trkpt>
      <trkpt lat="47.28933" lon="-2.39255">
        <ele>-17.39999961853</ele>
        <time>2020-12-17T11:01:57.000Z</time>
      </trkpt>
      <trkpt lat="47.28932" lon="-2.39226">
        <ele>-17.39999961853</ele>
        <time>2020-12-17T11:02:01.000Z</time>
      </trkpt>
      <trkpt lat="47.28932" lon="-2.39179">
        <ele>-17.39999961853</ele>
        <time>2020-12-17T11:02:08.000Z</time>
      </trkpt>
      <trkpt lat="47.28934" lon="-2.39156">
        <ele>-17.39999961853</ele>
        <time>2020-12-17T11:02:11.000Z</time>
      </trkpt>
      <trkpt lat="47.28938" lon="-2.39133">
        <ele>-17.39999961853</ele>
        <time>2020-12-17T11:02:14.000Z</time>
      </trkpt>
      <trkpt lat="47.28944" lon="-2.39074">
        <ele>-17.39999961853</ele>
        <time>2020-12-17T11:02:21.000Z</time>
      </trkpt>
      <trkpt lat="47.28952" lon="-2.39003">
        <ele>-17.39999961853</ele>
        <time>2020-12-17T11:02:29.000Z</time>
      </trkpt>
      <trkpt lat="47.28957" lon="-2.38928">
        <ele>-17.39999961853</ele>
        <time>2020-12-17T11:02:37.000Z</time>
      </trkpt>
      <trkpt lat="47.28961" lon="-2.38862">
        <ele>-17.39999961853</ele>
        <time>2020-12-17T11:02:44.000Z</time>
      </trkpt>
      <trkpt lat="47.28963" lon="-2.38807">
        <ele>-17.39999961853</ele>
        <time>2020-12-17T11:02:50.000Z</time>
      </trkpt>
      <trkpt lat="47.28962" lon="-2.38721">
        <ele>-17.39999961853</ele>
        <time>2020-12-17T11:02:59.000Z</time>
      </trkpt>
      <trkpt lat="47.28961" lon="-2.3864">
        <ele>-17.39999961853</ele>
        <time>2020-12-17T11:03:07.000Z</time>
      </trkpt>
      <trkpt lat="47.28961" lon="-2.3863">
        <ele>-17.39999961853</ele>
        <time>2020-12-17T11:03:08.000Z</time>
      </trkpt>
      <trkpt lat="47.28956" lon="-2.38551">
        <ele>-17.39999961853</ele>
        <time>2020-12-17T11:03:16.000Z</time>
      </trkpt>
      <trkpt lat="47.28946" lon="-2.38465">
        <ele>-17.39999961853</ele>
        <time>2020-12-17T11:03:25.000Z</time>
      </trkpt>
      <trkpt lat="47.28945" lon="-2.38455">
        <ele>-17.39999961853</ele>
        <time>2020-12-17T11:03:26.000Z</time>
      </trkpt>
      <trkpt lat="47.28941" lon="-2.38389">
        <ele>-17.39999961853</ele>
        <time>2020-12-17T11:03:33.000Z</time>
      </trkpt>
      <trkpt lat="47.28937" lon="-2.38312">
        <ele>-17.39999961853</ele>
        <time>2020-12-17T11:03:41.000Z</time>
      </trkpt>
      <trkpt lat="47.28939" lon="-2.38264">
        <ele>-17.39999961853</ele>
        <time>2020-12-17T11:03:46.000Z</time>
      </trkpt>
      <trkpt lat="47.2894" lon="-2.38236">
        <ele>-17.39999961853</ele>
        <time>2020-12-17T11:03:49.000Z</time>
      </trkpt>
      <trkpt lat="47.28932" lon="-2.38221">
        <ele>-17.39999961853</ele>
        <time>2020-12-17T11:03:51.000Z</time>
      </trkpt>
      <trkpt lat="47.28915" lon="-2.38207">
        <ele>-17.39999961853</ele>
        <time>2020-12-17T11:03:54.000Z</time>
      </trkpt>
      <trkpt lat="47.28906" lon="-2.38197">
        <ele>-17.39999961853</ele>
        <time>2020-12-17T11:03:56.000Z</time>
      </trkpt>
      <trkpt lat="47.28902" lon="-2.38181">
        <ele>-17.39999961853</ele>
        <time>2020-12-17T11:03:58.000Z</time>
      </trkpt>
      <trkpt lat="47.28903" lon="-2.38162">
        <ele>-17.39999961853</ele>
        <time>2020-12-17T11:04:00.000Z</time>
      </trkpt>
      <trkpt lat="47.28904" lon="-2.38152">
        <ele>-17.39999961853</ele>
        <time>2020-12-17T11:04:01.000Z</time>
      </trkpt>
      <trkpt lat="47.28909" lon="-2.38084">
        <ele>-17.39999961853</ele>
        <time>2020-12-17T11:04:08.000Z</time>
      </trkpt>
      <trkpt lat="47.28913" lon="-2.38021">
        <ele>-17.39999961853</ele>
        <time>2020-12-17T11:04:14.000Z</time>
      </trkpt>
      <trkpt lat="47.28918" lon="-2.37934">
        <ele>-17.39999961853</ele>
        <time>2020-12-17T11:04:22.000Z</time>
      </trkpt>
      <trkpt lat="47.28922" lon="-2.3788">
        <ele>-17.39999961853</ele>
        <time>2020-12-17T11:04:28.000Z</time>
      </trkpt>
      <trkpt lat="47.28928" lon="-2.37819">
        <ele>-17.39999961853</ele>
        <time>2020-12-17T11:04:35.000Z</time>
      </trkpt>
      <trkpt lat="47.28932" lon="-2.37767">
        <ele>-17.39999961853</ele>
        <time>2020-12-17T11:04:41.000Z</time>
      </trkpt>
      <trkpt lat="47.28935" lon="-2.377">
        <ele>-17.39999961853</ele>
        <time>2020-12-17T11:04:49.000Z</time>
      </trkpt>
      <trkpt lat="47.28937" lon="-2.37653">
        <ele>-17.39999961853</ele>
        <time>2020-12-17T11:04:56.000Z</time>
      </trkpt>
      <trkpt lat="47.28935" lon="-2.3765">
        <ele>-17.39999961853</ele>
        <time>2020-12-17T11:04:57.000Z</time>
      </trkpt>
      <trkpt lat="47.28929" lon="-2.37646">
        <ele>-17.39999961853</ele>
        <time>2020-12-17T11:04:59.000Z</time>
      </trkpt>
      <trkpt lat="47.28917" lon="-2.37648">
        <ele>-17.39999961853</ele>
        <time>2020-12-17T11:05:02.000Z</time>
      </trkpt>
      <trkpt lat="47.28913" lon="-2.37649">
        <ele>-17.39999961853</ele>
        <time>2020-12-17T11:05:03.000Z</time>
      </trkpt>
      <trkpt lat="47.28884" lon="-2.37654">
        <ele>-17.39999961853</ele>
        <time>2020-12-17T11:05:11.000Z</time>
      </trkpt>
      <trkpt lat="47.28864" lon="-2.37658">
        <ele>-17.39999961853</ele>
        <time>2020-12-17T11:05:18.000Z</time>
      </trkpt>
      <trkpt lat="47.28861" lon="-2.37653">
        <ele>-17.39999961853</ele>
        <time>2020-12-17T11:05:20.000Z</time>
      </trkpt>
      <trkpt lat="47.2886" lon="-2.37645">
        <ele>-17.39999961853</ele>
        <time>2020-12-17T11:05:22.000Z</time>
      </trkpt>
      <trkpt lat="47.28857" lon="-2.37639">
        <ele>-17.39999961853</ele>
        <time>2020-12-17T11:05:26.000Z</time>
      </trkpt>
      <trkpt lat="47.28856" lon="-2.37639">
        <ele>-17.39999961853</ele>
        <time>2020-12-17T11:05:27.000Z</time>
      </trkpt>
      <trkpt lat="47.28856" lon="-2.37631">
        <ele>-17.39999961853</ele>
        <time>2020-12-17T11:05:46.000Z</time>
      </trkpt>
      <trkpt lat="47.28858" lon="-2.37625">
        <ele>-17.39999961853</ele>
        <time>2020-12-17T11:05:48.000Z</time>
      </trkpt>
      <trkpt lat="47.2886" lon="-2.3761">
        <ele>-17.39999961853</ele>
        <time>2020-12-17T11:05:54.000Z</time>
      </trkpt>
      <trkpt lat="47.28861" lon="-2.37608">
        <ele>-17.39999961853</ele>
        <time>2020-12-17T11:05:57.000Z</time>
      </trkpt>
      <trkpt lat="47.2886" lon="-2.37604">
        <ele>-17.39999961853</ele>
        <time>2020-12-17T11:06:00.000Z</time>
      </trkpt>
      <trkpt lat="47.2886" lon="-2.37601">
        <ele>-17.39999961853</ele>
        <time>2020-12-17T11:06:01.000Z</time>
      </trkpt>
      <trkpt lat="47.28864" lon="-2.37583">
        <ele>-17.39999961853</ele>
        <time>2020-12-17T11:06:05.000Z</time>
      </trkpt>
      <trkpt lat="47.28872" lon="-2.3756">
        <ele>-17.39999961853</ele>
        <time>2020-12-17T11:06:11.000Z</time>
      </trkpt>
      <trkpt lat="47.28883" lon="-2.37536">
        <ele>-17.39999961853</ele>
        <time>2020-12-17T11:06:17.000Z</time>
      </trkpt>
      <trkpt lat="47.28883" lon="-2.37515">
        <ele>-17.39999961853</ele>
        <time>2020-12-17T11:06:22.000Z</time>
      </trkpt>
      <trkpt lat="47.28878" lon="-2.37475">
        <ele>-17.39999961853</ele>
        <time>2020-12-17T11:06:30.000Z</time>
      </trkpt>
      <trkpt lat="47.28871" lon="-2.37436">
        <ele>-17.39999961853</ele>
        <time>2020-12-17T11:06:37.000Z</time>
      </trkpt>
      <trkpt lat="47.28867" lon="-2.37407">
        <ele>-17.39999961853</ele>
        <time>2020-12-17T11:06:43.000Z</time>
      </trkpt>
      <trkpt lat="47.28862" lon="-2.37375">
        <ele>-17</ele>
        <time>2020-12-17T11:06:50.000Z</time>
      </trkpt>
      <trkpt lat="47.28862" lon="-2.37369">
        <ele>-16.60000038147</ele>
        <time>2020-12-17T11:06:51.000Z</time>
      </trkpt>
      <trkpt lat="47.28861" lon="-2.37363">
        <ele>-16.200000762939</ele>
        <time>2020-12-17T11:06:52.000Z</time>
      </trkpt>
      <trkpt lat="47.2886" lon="-2.37357">
        <ele>-15.800000190735</ele>
        <time>2020-12-17T11:06:53.000Z</time>
      </trkpt>
      <trkpt lat="47.28859" lon="-2.37351">
        <ele>-15.39999961853</ele>
        <time>2020-12-17T11:06:54.000Z</time>
      </trkpt>
      <trkpt lat="47.28858" lon="-2.3734">
        <ele>-15.39999961853</ele>
        <time>2020-12-17T11:06:56.000Z</time>
      </trkpt>
      <trkpt lat="47.28856" lon="-2.3731">
        <ele>-15.39999961853</ele>
        <time>2020-12-17T11:07:02.000Z</time>
      </trkpt>
      <trkpt lat="47.28855" lon="-2.37262">
        <ele>-15.39999961853</ele>
        <time>2020-12-17T11:07:11.000Z</time>
      </trkpt>
      <trkpt lat="47.28855" lon="-2.37256">
        <ele>-15.39999961853</ele>
        <time>2020-12-17T11:07:12.000Z</time>
      </trkpt>
      <trkpt lat="47.28846" lon="-2.3723">
        <ele>-15.39999961853</ele>
        <time>2020-12-17T11:07:17.000Z</time>
      </trkpt>
      <trkpt lat="47.28841" lon="-2.37206">
        <ele>-15.39999961853</ele>
        <time>2020-12-17T11:07:22.000Z</time>
      </trkpt>
      <trkpt lat="47.28835" lon="-2.3717">
        <ele>-15.39999961853</ele>
        <time>2020-12-17T11:07:30.000Z</time>
      </trkpt>
      <trkpt lat="47.28828" lon="-2.37139">
        <ele>-15.39999961853</ele>
        <time>2020-12-17T11:07:35.000Z</time>
      </trkpt>
      <trkpt lat="47.28829" lon="-2.37112">
        <ele>-15.39999961853</ele>
        <time>2020-12-17T11:07:39.000Z</time>
      </trkpt>
      <trkpt lat="47.2883" lon="-2.371">
        <ele>-15.39999961853</ele>
        <time>2020-12-17T11:07:41.000Z</time>
      </trkpt>
      <trkpt lat="47.28827" lon="-2.37064">
        <ele>-15.39999961853</ele>
        <time>2020-12-17T11:07:47.000Z</time>
      </trkpt>
      <trkpt lat="47.28826" lon="-2.37058">
        <ele>-15.39999961853</ele>
        <time>2020-12-17T11:07:48.000Z</time>
      </trkpt>
      <trkpt lat="47.28821" lon="-2.37043">
        <ele>-15.39999961853</ele>
        <time>2020-12-17T11:07:51.000Z</time>
      </trkpt>
      <trkpt lat="47.28817" lon="-2.37031">
        <ele>-15.39999961853</ele>
        <time>2020-12-17T11:07:53.000Z</time>
      </trkpt>
      <trkpt lat="47.28806" lon="-2.36996">
        <ele>-15</ele>
        <time>2020-12-17T11:07:58.000Z</time>
      </trkpt>
      <trkpt lat="47.28804" lon="-2.36989">
        <ele>-14.60000038147</ele>
        <time>2020-12-17T11:07:59.000Z</time>
      </trkpt>
      <trkpt lat="47.28801" lon="-2.36983">
        <ele>-14.199999809265</ele>
        <time>2020-12-17T11:08:00.000Z</time>
      </trkpt>
      <trkpt lat="47.28799" lon="-2.36976">
        <ele>-13.39999961853</ele>
        <time>2020-12-17T11:08:01.000Z</time>
      </trkpt>
      <trkpt lat="47.28789" lon="-2.36941">
        <ele>-13.39999961853</ele>
        <time>2020-12-17T11:08:07.000Z</time>
      </trkpt>
      <trkpt lat="47.28786" lon="-2.36917">
        <ele>-13.39999961853</ele>
        <time>2020-12-17T11:08:13.000Z</time>
      </trkpt>
      <trkpt lat="47.28785" lon="-2.36913">
        <ele>-13.39999961853</ele>
        <time>2020-12-17T11:08:16.000Z</time>
      </trkpt>
      <trkpt lat="47.28782" lon="-2.36913">
        <ele>-13.39999961853</ele>
        <time>2020-12-17T11:10:07.000Z</time>
      </trkpt>
      <trkpt lat="47.28776" lon="-2.36913">
        <ele>-13.39999961853</ele>
        <time>2020-12-17T11:10:12.000Z</time>
      </trkpt>
      <trkpt lat="47.2877" lon="-2.36911">
        <ele>-13.39999961853</ele>
        <time>2020-12-17T11:10:16.000Z</time>
      </trkpt>
      <trkpt lat="47.28767" lon="-2.36911">
        <ele>-13</ele>
        <time>2020-12-17T11:10:18.000Z</time>
      </trkpt>
      <trkpt lat="47.28764" lon="-2.36911">
        <ele>-12.60000038147</ele>
        <time>2020-12-17T11:10:19.000Z</time>
      </trkpt>
      <trkpt lat="47.28762" lon="-2.36911">
        <ele>-12.199999809265</ele>
        <time>2020-12-17T11:10:20.000Z</time>
      </trkpt>
      <trkpt lat="47.28759" lon="-2.36911">
        <ele>-11.60000038147</ele>
        <time>2020-12-17T11:10:21.000Z</time>
      </trkpt>
      <trkpt lat="47.28757" lon="-2.36911">
        <ele>-11.199999809265</ele>
        <time>2020-12-17T11:10:22.000Z</time>
      </trkpt>
      <trkpt lat="47.28755" lon="-2.36912">
        <ele>-11.199999809265</ele>
        <time>2020-12-17T11:10:23.000Z</time>
      </trkpt>
      <trkpt lat="47.2875" lon="-2.36911">
        <ele>-10.800000190735</ele>
        <time>2020-12-17T11:10:26.000Z</time>
      </trkpt>
      <trkpt lat="47.28748" lon="-2.3691">
        <ele>-10.39999961853</ele>
        <time>2020-12-17T11:10:27.000Z</time>
      </trkpt>
      <trkpt lat="47.28747" lon="-2.36909">
        <ele>-10</ele>
        <time>2020-12-17T11:10:28.000Z</time>
      </trkpt>
      <trkpt lat="47.28745" lon="-2.36907">
        <ele>-9.6000003814697</ele>
        <time>2020-12-17T11:10:29.000Z</time>
      </trkpt>
      <trkpt lat="47.28744" lon="-2.36905">
        <ele>-9.1999998092651</ele>
        <time>2020-12-17T11:10:30.000Z</time>
      </trkpt>
      <trkpt lat="47.28741" lon="-2.36901">
        <ele>-8.6000003814697</ele>
        <time>2020-12-17T11:10:32.000Z</time>
      </trkpt>
      <trkpt lat="47.2874" lon="-2.36899">
        <ele>-8.1999998092651</ele>
        <time>2020-12-17T11:10:33.000Z</time>
      </trkpt>
      <trkpt lat="47.28738" lon="-2.36898">
        <ele>-7.8000001907349</ele>
        <time>2020-12-17T11:10:34.000Z</time>
      </trkpt>
      <trkpt lat="47.28737" lon="-2.36896">
        <ele>-7.4000000953674</ele>
        <time>2020-12-17T11:10:35.000Z</time>
      </trkpt>
      <trkpt lat="47.28734" lon="-2.36893">
        <ele>-7</ele>
        <time>2020-12-17T11:10:36.000Z</time>
      </trkpt>
      <trkpt lat="47.28726" lon="-2.3688">
        <ele>-6.5999999046326</ele>
        <time>2020-12-17T11:10:39.000Z</time>
      </trkpt>
      <trkpt lat="47.28723" lon="-2.36876">
        <ele>-6.1999998092651</ele>
        <time>2020-12-17T11:10:40.000Z</time>
      </trkpt>
      <trkpt lat="47.28721" lon="-2.36873">
        <ele>-5.8000001907349</ele>
        <time>2020-12-17T11:10:41.000Z</time>
      </trkpt>
      <trkpt lat="47.2872" lon="-2.36869">
        <ele>-5.4000000953674</ele>
        <time>2020-12-17T11:10:42.000Z</time>
      </trkpt>
      <trkpt lat="47.28719" lon="-2.36866">
        <ele>-5</ele>
        <time>2020-12-17T11:10:43.000Z</time>
      </trkpt>
      <trkpt lat="47.28712" lon="-2.36847">
        <ele>-4.5999999046326</ele>
        <time>2020-12-17T11:10:49.000Z</time>
      </trkpt>
      <trkpt lat="47.2871" lon="-2.3684">
        <ele>-4</ele>
        <time>2020-12-17T11:10:50.000Z</time>
      </trkpt>
      <trkpt lat="47.28708" lon="-2.36835">
        <ele>-3.5999999046326</ele>
        <time>2020-12-17T11:10:51.000Z</time>
      </trkpt>
      <trkpt lat="47.28707" lon="-2.36831">
        <ele>-3.2000000476837</ele>
        <time>2020-12-17T11:10:52.000Z</time>
      </trkpt>
      <trkpt lat="47.28705" lon="-2.36827">
        <ele>-2.7999999523163</ele>
        <time>2020-12-17T11:10:53.000Z</time>
      </trkpt>
      <trkpt lat="47.28699" lon="-2.36817">
        <ele>-2.7999999523163</ele>
        <time>2020-12-17T11:10:56.000Z</time>
      </trkpt>
      <trkpt lat="47.28694" lon="-2.36807">
        <ele>-2.4000000953674</ele>
        <time>2020-12-17T11:11:00.000Z</time>
      </trkpt>
      <trkpt lat="47.28693" lon="-2.36805">
        <ele>-2</ele>
        <time>2020-12-17T11:11:01.000Z</time>
      </trkpt>
      <trkpt lat="47.28691" lon="-2.36803">
        <ele>-1.6000000238419</ele>
        <time>2020-12-17T11:11:02.000Z</time>
      </trkpt>
      <trkpt lat="47.28688" lon="-2.36801">
        <ele>-1.2000000476837</ele>
        <time>2020-12-17T11:11:03.000Z</time>
      </trkpt>
      <trkpt lat="47.28686" lon="-2.368">
        <ele>-0.80000001192093</ele>
        <time>2020-12-17T11:11:04.000Z</time>
      </trkpt>
      <trkpt lat="47.28671" lon="-2.36789">
        <ele>-0.80000001192093</ele>
        <time>2020-12-17T11:11:09.000Z</time>
      </trkpt>
      <trkpt lat="47.28663" lon="-2.36791">
        <ele>-0.80000001192093</ele>
        <time>2020-12-17T11:11:11.000Z</time>
      </trkpt>
      <trkpt lat="47.28659" lon="-2.36795">
        <ele>-0.80000001192093</ele>
        <time>2020-12-17T11:11:12.000Z</time>
      </trkpt>
      <trkpt lat="47.28637" lon="-2.3682">
        <ele>-0.80000001192093</ele>
        <time>2020-12-17T11:11:17.000Z</time>
      </trkpt>
      <trkpt lat="47.28616" lon="-2.36842">
        <ele>-0.80000001192093</ele>
        <time>2020-12-17T11:11:21.000Z</time>
      </trkpt>
      <trkpt lat="47.2861" lon="-2.36845">
        <ele>-0.80000001192093</ele>
        <time>2020-12-17T11:11:22.000Z</time>
      </trkpt>
      <trkpt lat="47.28604" lon="-2.36845">
        <ele>-1.2000000476837</ele>
        <time>2020-12-17T11:11:23.000Z</time>
      </trkpt>
      <trkpt lat="47.28599" lon="-2.36843">
        <ele>-1.6000000238419</ele>
        <time>2020-12-17T11:11:24.000Z</time>
      </trkpt>
      <trkpt lat="47.28595" lon="-2.36839">
        <ele>-2</ele>
        <time>2020-12-17T11:11:25.000Z</time>
      </trkpt>
      <trkpt lat="47.28591" lon="-2.36833">
        <ele>-2.4000000953674</ele>
        <time>2020-12-17T11:11:26.000Z</time>
      </trkpt>
      <trkpt lat="47.28588" lon="-2.36827">
        <ele>-2.7999999523163</ele>
        <time>2020-12-17T11:11:27.000Z</time>
      </trkpt>
      <trkpt lat="47.28583" lon="-2.36816">
        <ele>-2.7999999523163</ele>
        <time>2020-12-17T11:11:29.000Z</time>
      </trkpt>
      <trkpt lat="47.28566" lon="-2.3678">
        <ele>-2.7999999523163</ele>
        <time>2020-12-17T11:11:36.000Z</time>
      </trkpt>
      <trkpt lat="47.28547" lon="-2.36748">
        <ele>-2.7999999523163</ele>
        <time>2020-12-17T11:11:43.000Z</time>
      </trkpt>
      <trkpt lat="47.2853" lon="-2.36717">
        <ele>-2.4000000953674</ele>
        <time>2020-12-17T11:11:50.000Z</time>
      </trkpt>
      <trkpt lat="47.28528" lon="-2.36713">
        <ele>-2</ele>
        <time>2020-12-17T11:11:51.000Z</time>
      </trkpt>
      <trkpt lat="47.28526" lon="-2.3671">
        <ele>-1.6000000238419</ele>
        <time>2020-12-17T11:11:52.000Z</time>
      </trkpt>
      <trkpt lat="47.28525" lon="-2.36707">
        <ele>-1.2000000476837</ele>
        <time>2020-12-17T11:11:53.000Z</time>
      </trkpt>
      <trkpt lat="47.28523" lon="-2.36704">
        <ele>-0.80000001192093</ele>
        <time>2020-12-17T11:11:54.000Z</time>
      </trkpt>
      <trkpt lat="47.28521" lon="-2.36699">
        <ele>-0.80000001192093</ele>
        <time>2020-12-17T11:11:56.000Z</time>
      </trkpt>
      <trkpt lat="47.2852" lon="-2.36697">
        <ele>-0.40000000596046</ele>
        <time>2020-12-17T11:11:57.000Z</time>
      </trkpt>
      <trkpt lat="47.28519" lon="-2.36694">
        <ele>24.3</ele>
        <time>2020-12-17T11:11:58.000Z</time>
      </trkpt>
      <trkpt lat="47.28518" lon="-2.36693">
        <ele>0.40000000596046</ele>
        <time>2020-12-17T11:11:59.000Z</time>
      </trkpt>
      <trkpt lat="47.28517" lon="-2.36691">
        <ele>0.80000001192093</ele>
        <time>2020-12-17T11:12:00.000Z</time>
      </trkpt>
      <trkpt lat="47.28516" lon="-2.36689">
        <ele>1.3999999761581</ele>
        <time>2020-12-17T11:12:01.000Z</time>
      </trkpt>
      <trkpt lat="47.28514" lon="-2.36687">
        <ele>1.3999999761581</ele>
        <time>2020-12-17T11:12:03.000Z</time>
      </trkpt>
      <trkpt lat="47.28514" lon="-2.36687">
        <ele>1.3999999761581</ele>
        <time>2020-12-17T11:12:05.000Z</time>
      </trkpt>
      <trkpt lat="47.2851" lon="-2.36684">
        <ele>1.3999999761581</ele>
        <time>2020-12-17T11:12:17.000Z</time>
      </trkpt>
      <trkpt lat="47.28506" lon="-2.36679">
        <ele>1.3999999761581</ele>
        <time>2020-12-17T11:12:19.000Z</time>
      </trkpt>
      <trkpt lat="47.28499" lon="-2.36659">
        <ele>1.3999999761581</ele>
        <time>2020-12-17T11:12:23.000Z</time>
      </trkpt>
      <trkpt lat="47.28491" lon="-2.3663">
        <ele>1.3999999761581</ele>
        <time>2020-12-17T11:12:28.000Z</time>
      </trkpt>
      <trkpt lat="47.28489" lon="-2.36625">
        <ele>1.3999999761581</ele>
        <time>2020-12-17T11:12:29.000Z</time>
      </trkpt>
      <trkpt lat="47.28477" lon="-2.36583">
        <ele>1.3999999761581</ele>
        <time>2020-12-17T11:12:36.000Z</time>
      </trkpt>
      <trkpt lat="47.28477" lon="-2.36571">
        <ele>1.3999999761581</ele>
        <time>2020-12-17T11:12:38.000Z</time>
      </trkpt>
      <trkpt lat="47.28479" lon="-2.36559">
        <ele>1.3999999761581</ele>
        <time>2020-12-17T11:12:40.000Z</time>
      </trkpt>
      <trkpt lat="47.28487" lon="-2.36546">
        <ele>1.7999999523163</ele>
        <time>2020-12-17T11:12:43.000Z</time>
      </trkpt>
      <trkpt lat="47.2849" lon="-2.36542">
        <ele>2.2000000476837</ele>
        <time>2020-12-17T11:12:44.000Z</time>
      </trkpt>
      <trkpt lat="47.28493" lon="-2.36539">
        <ele>2.5999999046326</ele>
        <time>2020-12-17T11:12:45.000Z</time>
      </trkpt>
      <trkpt lat="47.28496" lon="-2.36535">
        <ele>3</ele>
        <time>2020-12-17T11:12:46.000Z</time>
      </trkpt>
      <trkpt lat="47.28499" lon="-2.36531">
        <ele>3.4000000953674</ele>
        <time>2020-12-17T11:12:47.000Z</time>
      </trkpt>
      <trkpt lat="47.28506" lon="-2.36524">
        <ele>3.4000000953674</ele>
        <time>2020-12-17T11:12:49.000Z</time>
      </trkpt>
      <trkpt lat="47.28509" lon="-2.36519">
        <ele>3.4000000953674</ele>
        <time>2020-12-17T11:12:50.000Z</time>
      </trkpt>
      <trkpt lat="47.28522" lon="-2.36501">
        <ele>3.7999999523163</ele>
        <time>2020-12-17T11:12:55.000Z</time>
      </trkpt>
      <trkpt lat="47.28522" lon="-2.36498">
        <ele>4.1999998092651</ele>
        <time>2020-12-17T11:12:56.000Z</time>
      </trkpt>
      <trkpt lat="47.28523" lon="-2.36494">
        <ele>4.5999999046326</ele>
        <time>2020-12-17T11:12:57.000Z</time>
      </trkpt>
      <trkpt lat="47.28523" lon="-2.3649">
        <ele>5.4000000953674</ele>
        <time>2020-12-17T11:12:58.000Z</time>
      </trkpt>
      <trkpt lat="47.2852" lon="-2.36476">
        <ele>5.4000000953674</ele>
        <time>2020-12-17T11:13:01.000Z</time>
      </trkpt>
      <trkpt lat="47.2851" lon="-2.36452">
        <ele>5.4000000953674</ele>
        <time>2020-12-17T11:13:06.000Z</time>
      </trkpt>
      <trkpt lat="47.28497" lon="-2.36442">
        <ele>5.4000000953674</ele>
        <time>2020-12-17T11:13:10.000Z</time>
      </trkpt>
      <trkpt lat="47.28483" lon="-2.36429">
        <ele>5.8000001907349</ele>
        <time>2020-12-17T11:13:15.000Z</time>
      </trkpt>
      <trkpt lat="47.28481" lon="-2.36426">
        <ele>6.1999998092651</ele>
        <time>2020-12-17T11:13:16.000Z</time>
      </trkpt>
      <trkpt lat="47.28479" lon="-2.36424">
        <ele>6.5999999046326</ele>
        <time>2020-12-17T11:13:17.000Z</time>
      </trkpt>
      <trkpt lat="47.28478" lon="-2.36421">
        <ele>7</ele>
        <time>2020-12-17T11:13:18.000Z</time>
      </trkpt>
      <trkpt lat="47.28476" lon="-2.36418">
        <ele>7.5999999046326</ele>
        <time>2020-12-17T11:13:19.000Z</time>
      </trkpt>
      <trkpt lat="47.2847" lon="-2.36407">
        <ele>7.5999999046326</ele>
        <time>2020-12-17T11:13:22.000Z</time>
      </trkpt>
      <trkpt lat="47.28451" lon="-2.36386">
        <ele>7.5999999046326</ele>
        <time>2020-12-17T11:13:27.000Z</time>
      </trkpt>
      <trkpt lat="47.28431" lon="-2.36373">
        <ele>7.5999999046326</ele>
        <time>2020-12-17T11:13:31.000Z</time>
      </trkpt>
      <trkpt lat="47.28427" lon="-2.36367">
        <ele>7.5999999046326</ele>
        <time>2020-12-17T11:13:32.000Z</time>
      </trkpt>
      <trkpt lat="47.28414" lon="-2.36346">
        <ele>7.1999998092651</ele>
        <time>2020-12-17T11:13:36.000Z</time>
      </trkpt>
      <trkpt lat="47.2841" lon="-2.36342">
        <ele>6.8000001907349</ele>
        <time>2020-12-17T11:13:37.000Z</time>
      </trkpt>
      <trkpt lat="47.28406" lon="-2.36338">
        <ele>6.4000000953674</ele>
        <time>2020-12-17T11:13:38.000Z</time>
      </trkpt>
      <trkpt lat="47.28403" lon="-2.36335">
        <ele>6</ele>
        <time>2020-12-17T11:13:39.000Z</time>
      </trkpt>
      <trkpt lat="47.284" lon="-2.36332">
        <ele>5.5999999046326</ele>
        <time>2020-12-17T11:13:40.000Z</time>
      </trkpt>
      <trkpt lat="47.28388" lon="-2.36324">
        <ele>5.5999999046326</ele>
        <time>2020-12-17T11:13:43.000Z</time>
      </trkpt>
      <trkpt lat="47.28379" lon="-2.36318">
        <ele>5.5999999046326</ele>
        <time>2020-12-17T11:13:46.000Z</time>
      </trkpt>
      <trkpt lat="47.28376" lon="-2.36314">
        <ele>5</ele>
        <time>2020-12-17T11:13:47.000Z</time>
      </trkpt>
      <trkpt lat="47.28374" lon="-2.3631">
        <ele>4.1999998092651</ele>
        <time>2020-12-17T11:13:48.000Z</time>
      </trkpt>
      <trkpt lat="47.28371" lon="-2.36302">
        <ele>3.7999999523163</ele>
        <time>2020-12-17T11:13:49.000Z</time>
      </trkpt>
      <trkpt lat="47.2837" lon="-2.36296">
        <ele>3.4000000953674</ele>
        <time>2020-12-17T11:13:50.000Z</time>
      </trkpt>
      <trkpt lat="47.2837" lon="-2.3629">
        <ele>3.4000000953674</ele>
        <time>2020-12-17T11:13:51.000Z</time>
      </trkpt>
      <trkpt lat="47.28363" lon="-2.36266">
        <ele>3.4000000953674</ele>
        <time>2020-12-17T11:13:56.000Z</time>
      </trkpt>
      <trkpt lat="47.28344" lon="-2.36264">
        <ele>3.4000000953674</ele>
        <time>2020-12-17T11:14:00.000Z</time>
      </trkpt>
      <trkpt lat="47.28338" lon="-2.36262">
        <ele>3</ele>
        <time>2020-12-17T11:14:01.000Z</time>
      </trkpt>
      <trkpt lat="47.28333" lon="-2.36261">
        <ele>2.5999999046326</ele>
        <time>2020-12-17T11:14:02.000Z</time>
      </trkpt>
      <trkpt lat="47.28327" lon="-2.36259">
        <ele>2.2000000476837</ele>
        <time>2020-12-17T11:14:03.000Z</time>
      </trkpt>
      <trkpt lat="47.2832" lon="-2.36256">
        <ele>1.7999999523163</ele>
        <time>2020-12-17T11:14:04.000Z</time>
      </trkpt>
      <trkpt lat="47.28315" lon="-2.36255">
        <ele>1.3999999761581</ele>
        <time>2020-12-17T11:14:05.000Z</time>
      </trkpt>
      <trkpt lat="47.28311" lon="-2.36254">
        <ele>1.3999999761581</ele>
        <time>2020-12-17T11:14:06.000Z</time>
      </trkpt>
      <trkpt lat="47.28288" lon="-2.36243">
        <ele>1.3999999761581</ele>
        <time>2020-12-17T11:14:10.000Z</time>
      </trkpt>
      <trkpt lat="47.2828" lon="-2.36236">
        <ele>1.3999999761581</ele>
        <time>2020-12-17T11:14:11.000Z</time>
      </trkpt>
      <trkpt lat="47.28264" lon="-2.36206">
        <ele>1.3999999761581</ele>
        <time>2020-12-17T11:14:15.000Z</time>
      </trkpt>
      <trkpt lat="47.28261" lon="-2.36199">
        <ele>1</ele>
        <time>2020-12-17T11:14:16.000Z</time>
      </trkpt>
      <trkpt lat="47.28258" lon="-2.36192">
        <ele>0.60000002384186</ele>
        <time>2020-12-17T11:14:17.000Z</time>
      </trkpt>
      <trkpt lat="47.28256" lon="-2.36186">
        <ele>0.20000000298023</ele>
        <time>2020-12-17T11:14:18.000Z</time>
      </trkpt>
      <trkpt lat="47.28254" lon="-2.3618">
        <ele>-0.20000000298023</ele>
        <time>2020-12-17T11:14:19.000Z</time>
      </trkpt>
      <trkpt lat="47.28252" lon="-2.36174">
        <ele>-0.60000002384186</ele>
        <time>2020-12-17T11:14:20.000Z</time>
      </trkpt>
      <trkpt lat="47.28239" lon="-2.36142">
        <ele>-0.60000002384186</ele>
        <time>2020-12-17T11:14:26.000Z</time>
      </trkpt>
      <trkpt lat="47.28234" lon="-2.36131">
        <ele>-0.60000002384186</ele>
        <time>2020-12-17T11:14:30.000Z</time>
      </trkpt>
      <trkpt lat="47.28233" lon="-2.36129">
        <ele>-0.20000000298023</ele>
        <time>2020-12-17T11:14:31.000Z</time>
      </trkpt>
      <trkpt lat="47.28232" lon="-2.36126">
        <ele>0.20000000298023</ele>
        <time>2020-12-17T11:14:32.000Z</time>
      </trkpt>
      <trkpt lat="47.2823" lon="-2.36123">
        <ele>0.60000002384186</ele>
        <time>2020-12-17T11:14:33.000Z</time>
      </trkpt>
      <trkpt lat="47.28229" lon="-2.3612">
        <ele>1</ele>
        <time>2020-12-17T11:14:34.000Z</time>
      </trkpt>
      <trkpt lat="47.28227" lon="-2.36116">
        <ele>1.3999999761581</ele>
        <time>2020-12-17T11:14:35.000Z</time>
      </trkpt>
      <trkpt lat="47.28225" lon="-2.36112">
        <ele>1.3999999761581</ele>
        <time>2020-12-17T11:14:36.000Z</time>
      </trkpt>
      <trkpt lat="47.28219" lon="-2.36094">
        <ele>1.3999999761581</ele>
        <time>2020-12-17T11:14:39.000Z</time>
      </trkpt>
      <trkpt lat="47.28216" lon="-2.36088">
        <ele>1.3999999761581</ele>
        <time>2020-12-17T11:14:40.000Z</time>
      </trkpt>
      <trkpt lat="47.2821" lon="-2.36069">
        <ele>1.3999999761581</ele>
        <time>2020-12-17T11:14:43.000Z</time>
      </trkpt>
      <trkpt lat="47.28208" lon="-2.36064">
        <ele>1</ele>
        <time>2020-12-17T11:14:44.000Z</time>
      </trkpt>
      <trkpt lat="47.28206" lon="-2.36059">
        <ele>0.60000002384186</ele>
        <time>2020-12-17T11:14:45.000Z</time>
      </trkpt>
      <trkpt lat="47.28204" lon="-2.36055">
        <ele>0.20000000298023</ele>
        <time>2020-12-17T11:14:46.000Z</time>
      </trkpt>
      <trkpt lat="47.28202" lon="-2.36051">
        <ele>-0.20000000298023</ele>
        <time>2020-12-17T11:14:47.000Z</time>
      </trkpt>
      <trkpt lat="47.282" lon="-2.36047">
        <ele>-0.80000001192093</ele>
        <time>2020-12-17T11:14:48.000Z</time>
      </trkpt>
      <trkpt lat="47.28195" lon="-2.36034">
        <ele>-0.80000001192093</ele>
        <time>2020-12-17T11:14:51.000Z</time>
      </trkpt>
      <trkpt lat="47.28187" lon="-2.36008">
        <ele>-0.80000001192093</ele>
        <time>2020-12-17T11:14:56.000Z</time>
      </trkpt>
      <trkpt lat="47.28178" lon="-2.35982">
        <ele>-0.80000001192093</ele>
        <time>2020-12-17T11:15:02.000Z</time>
      </trkpt>
      <trkpt lat="47.28169" lon="-2.35959">
        <ele>-0.80000001192093</ele>
        <time>2020-12-17T11:15:08.000Z</time>
      </trkpt>
      <trkpt lat="47.28164" lon="-2.35949">
        <ele>-0.20000000298023</ele>
        <time>2020-12-17T11:15:11.000Z</time>
      </trkpt>
      <trkpt lat="47.28164" lon="-2.35947">
        <ele>0.20000000298023</ele>
        <time>2020-12-17T11:15:12.000Z</time>
      </trkpt>
      <trkpt lat="47.28163" lon="-2.35944">
        <ele>0.60000002384186</ele>
        <time>2020-12-17T11:15:13.000Z</time>
      </trkpt>
      <trkpt lat="47.28162" lon="-2.35942">
        <ele>1</ele>
        <time>2020-12-17T11:15:14.000Z</time>
      </trkpt>
      <trkpt lat="47.28161" lon="-2.3594">
        <ele>1.3999999761581</ele>
        <time>2020-12-17T11:15:15.000Z</time>
      </trkpt>
      <trkpt lat="47.28152" lon="-2.35921">
        <ele>1.3999999761581</ele>
        <time>2020-12-17T11:15:20.000Z</time>
      </trkpt>
      <trkpt lat="47.28149" lon="-2.35918">
        <ele>1.7999999523163</ele>
        <time>2020-12-17T11:15:21.000Z</time>
      </trkpt>
      <trkpt lat="47.28145" lon="-2.35914">
        <ele>2.4000000953674</ele>
        <time>2020-12-17T11:15:22.000Z</time>
      </trkpt>
      <trkpt lat="47.28142" lon="-2.3591">
        <ele>2.7999999523163</ele>
        <time>2020-12-17T11:15:23.000Z</time>
      </trkpt>
      <trkpt lat="47.2814" lon="-2.35907">
        <ele>3.2000000476837</ele>
        <time>2020-12-17T11:15:24.000Z</time>
      </trkpt>
      <trkpt lat="47.28137" lon="-2.35904">
        <ele>3.5999999046326</ele>
        <time>2020-12-17T11:15:25.000Z</time>
      </trkpt>
      <trkpt lat="47.28133" lon="-2.35896">
        <ele>3.5999999046326</ele>
        <time>2020-12-17T11:15:27.000Z</time>
      </trkpt>
      <trkpt lat="47.2812" lon="-2.35874">
        <ele>3.5999999046326</ele>
        <time>2020-12-17T11:15:32.000Z</time>
      </trkpt>
      <trkpt lat="47.28106" lon="-2.35849">
        <ele>3.5999999046326</ele>
        <time>2020-12-17T11:15:39.000Z</time>
      </trkpt>
      <trkpt lat="47.28093" lon="-2.35822">
        <ele>3.5999999046326</ele>
        <time>2020-12-17T11:15:46.000Z</time>
      </trkpt>
      <trkpt lat="47.28089" lon="-2.35811">
        <ele>3.5999999046326</ele>
        <time>2020-12-17T11:15:49.000Z</time>
      </trkpt>
      <trkpt lat="47.28089" lon="-2.35806">
        <ele>3.5999999046326</ele>
        <time>2020-12-17T11:15:50.000Z</time>
      </trkpt>
      <trkpt lat="47.28091" lon="-2.35779">
        <ele>3.5999999046326</ele>
        <time>2020-12-17T11:15:56.000Z</time>
      </trkpt>
      <trkpt lat="47.28092" lon="-2.35771">
        <ele>3.5999999046326</ele>
        <time>2020-12-17T11:15:58.000Z</time>
      </trkpt>
      <trkpt lat="47.28093" lon="-2.35757">
        <ele>3.5999999046326</ele>
        <time>2020-12-17T11:16:01.000Z</time>
      </trkpt>
      <trkpt lat="47.28094" lon="-2.35738">
        <ele>4</ele>
        <time>2020-12-17T11:16:05.000Z</time>
      </trkpt>
      <trkpt lat="47.28094" lon="-2.35734">
        <ele>4.4000000953674</ele>
        <time>2020-12-17T11:16:06.000Z</time>
      </trkpt>
      <trkpt lat="47.28094" lon="-2.3573">
        <ele>4.8000001907349</ele>
        <time>2020-12-17T11:16:07.000Z</time>
      </trkpt>
      <trkpt lat="47.28094" lon="-2.35726">
        <ele>5.4000000953674</ele>
        <time>2020-12-17T11:16:08.000Z</time>
      </trkpt>
      <trkpt lat="47.28095" lon="-2.35722">
        <ele>5.8000001907349</ele>
        <time>2020-12-17T11:16:09.000Z</time>
      </trkpt>
      <trkpt lat="47.28096" lon="-2.35708">
        <ele>5.8000001907349</ele>
        <time>2020-12-17T11:16:13.000Z</time>
      </trkpt>
      <trkpt lat="47.28092" lon="-2.35681">
        <ele>5.8000001907349</ele>
        <time>2020-12-17T11:16:18.000Z</time>
      </trkpt>
      <trkpt lat="47.28084" lon="-2.35643">
        <ele>5.8000001907349</ele>
        <time>2020-12-17T11:16:23.000Z</time>
      </trkpt>
      <trkpt lat="47.28082" lon="-2.35637">
        <ele>5.1999998092651</ele>
        <time>2020-12-17T11:16:24.000Z</time>
      </trkpt>
      <trkpt lat="47.2808" lon="-2.3563">
        <ele>4.8000001907349</ele>
        <time>2020-12-17T11:16:25.000Z</time>
      </trkpt>
      <trkpt lat="47.28079" lon="-2.35624">
        <ele>4.1999998092651</ele>
        <time>2020-12-17T11:16:26.000Z</time>
      </trkpt>
      <trkpt lat="47.28079" lon="-2.35619">
        <ele>3.7999999523163</ele>
        <time>2020-12-17T11:16:27.000Z</time>
      </trkpt>
      <trkpt lat="47.28079" lon="-2.35616">
        <ele>3.2000000476837</ele>
        <time>2020-12-17T11:16:28.000Z</time>
      </trkpt>
      <trkpt lat="47.2808" lon="-2.35614">
        <ele>2.7999999523163</ele>
        <time>2020-12-17T11:16:29.000Z</time>
      </trkpt>
      <trkpt lat="47.28082" lon="-2.35614">
        <ele>2.2000000476837</ele>
        <time>2020-12-17T11:16:30.000Z</time>
      </trkpt>
      <trkpt lat="47.28083" lon="-2.35614">
        <ele>1.6000000238419</ele>
        <time>2020-12-17T11:16:31.000Z</time>
      </trkpt>
      <trkpt lat="47.28084" lon="-2.35615">
        <ele>1.2000000476837</ele>
        <time>2020-12-17T11:16:32.000Z</time>
      </trkpt>
      <trkpt lat="47.28092" lon="-2.35623">
        <ele>1.2000000476837</ele>
        <time>2020-12-17T11:16:39.000Z</time>
      </trkpt>
      <trkpt lat="47.28092" lon="-2.35623">
        <ele>1.2000000476837</ele>
        <time>2020-12-17T11:16:40.000Z</time>
      </trkpt>
      <trkpt lat="47.2809" lon="-2.35623">
        <ele>1.2000000476837</ele>
        <time>2020-12-17T11:28:24.000Z</time>
      </trkpt>
      <trkpt lat="47.28088" lon="-2.35619">
        <ele>1.2000000476837</ele>
        <time>2020-12-17T11:28:26.000Z</time>
      </trkpt>
      <trkpt lat="47.28072" lon="-2.35607">
        <ele>1.2000000476837</ele>
        <time>2020-12-17T11:28:32.000Z</time>
      </trkpt>
      <trkpt lat="47.28059" lon="-2.35603">
        <ele>1.2000000476837</ele>
        <time>2020-12-17T11:28:37.000Z</time>
      </trkpt>
      <trkpt lat="47.28045" lon="-2.35597">
        <ele>1.2000000476837</ele>
        <time>2020-12-17T11:28:41.000Z</time>
      </trkpt>
      <trkpt lat="47.2804" lon="-2.35593">
        <ele>1.2000000476837</ele>
        <time>2020-12-17T11:28:43.000Z</time>
      </trkpt>
      <trkpt lat="47.28037" lon="-2.35583">
        <ele>1.2000000476837</ele>
        <time>2020-12-17T11:28:45.000Z</time>
      </trkpt>
      <trkpt lat="47.28026" lon="-2.35555">
        <ele>1.2000000476837</ele>
        <time>2020-12-17T11:28:51.000Z</time>
      </trkpt>
      <trkpt lat="47.28007" lon="-2.35562">
        <ele>1.2000000476837</ele>
        <time>2020-12-17T11:28:55.000Z</time>
      </trkpt>
      <trkpt lat="47.27978" lon="-2.35573">
        <ele>1.2000000476837</ele>
        <time>2020-12-17T11:29:02.000Z</time>
      </trkpt>
      <trkpt lat="47.27959" lon="-2.35577">
        <ele>0.80000001192093</ele>
        <time>2020-12-17T11:29:06.000Z</time>
      </trkpt>
      <trkpt lat="47.27954" lon="-2.35578">
        <ele>0.40000000596046</ele>
        <time>2020-12-17T11:29:07.000Z</time>
      </trkpt>
      <trkpt lat="47.27949" lon="-2.35579">
        <ele>19.1</ele>
        <time>2020-12-17T11:29:08.000Z</time>
      </trkpt>
      <trkpt lat="47.27943" lon="-2.3558">
        <ele>-0.60000002384186</ele>
        <time>2020-12-17T11:29:09.000Z</time>
      </trkpt>
      <trkpt lat="47.27938" lon="-2.35582">
        <ele>-1</ele>
        <time>2020-12-17T11:29:10.000Z</time>
      </trkpt>
      <trkpt lat="47.27921" lon="-2.35587">
        <ele>-1</ele>
        <time>2020-12-17T11:29:13.000Z</time>
      </trkpt>
      <trkpt lat="47.27878" lon="-2.35594">
        <ele>-1</ele>
        <time>2020-12-17T11:29:20.000Z</time>
      </trkpt>
      <trkpt lat="47.27846" lon="-2.35603">
        <ele>-1.7999999523163</ele>
        <time>2020-12-17T11:29:25.000Z</time>
      </trkpt>
      <trkpt lat="47.2784" lon="-2.35605">
        <ele>-2.2000000476837</ele>
        <time>2020-12-17T11:29:26.000Z</time>
      </trkpt>
      <trkpt lat="47.27834" lon="-2.35607">
        <ele>-2.5999999046326</ele>
        <time>2020-12-17T11:29:27.000Z</time>
      </trkpt>
      <trkpt lat="47.27827" lon="-2.35609">
        <ele>-3</ele>
        <time>2020-12-17T11:29:28.000Z</time>
      </trkpt>
      <trkpt lat="47.2782" lon="-2.35611">
        <ele>-3</ele>
        <time>2020-12-17T11:29:29.000Z</time>
      </trkpt>
      <trkpt lat="47.27784" lon="-2.35625">
        <ele>-3.4000000953674</ele>
        <time>2020-12-17T11:29:35.000Z</time>
      </trkpt>
      <trkpt lat="47.27778" lon="-2.3563">
        <ele>-3.7999999523163</ele>
        <time>2020-12-17T11:29:36.000Z</time>
      </trkpt>
      <trkpt lat="47.27773" lon="-2.35634">
        <ele>-4.1999998092651</ele>
        <time>2020-12-17T11:29:37.000Z</time>
      </trkpt>
      <trkpt lat="47.27767" lon="-2.35639">
        <ele>-4.5999999046326</ele>
        <time>2020-12-17T11:29:38.000Z</time>
      </trkpt>
      <trkpt lat="47.27762" lon="-2.35645">
        <ele>-5</ele>
        <time>2020-12-17T11:29:39.000Z</time>
      </trkpt>
      <trkpt lat="47.27753" lon="-2.35656">
        <ele>-5</ele>
        <time>2020-12-17T11:29:41.000Z</time>
      </trkpt>
      <trkpt lat="47.2773" lon="-2.35693">
        <ele>-5.4000000953674</ele>
        <time>2020-12-17T11:29:47.000Z</time>
      </trkpt>
      <trkpt lat="47.27726" lon="-2.357">
        <ele>-5.8000001907349</ele>
        <time>2020-12-17T11:29:48.000Z</time>
      </trkpt>
      <trkpt lat="47.27722" lon="-2.35706">
        <ele>-6.4000000953674</ele>
        <time>2020-12-17T11:29:49.000Z</time>
      </trkpt>
      <trkpt lat="47.27717" lon="-2.35712">
        <ele>-7.1999998092651</ele>
        <time>2020-12-17T11:29:50.000Z</time>
      </trkpt>
      <trkpt lat="47.27703" lon="-2.35726">
        <ele>-7.1999998092651</ele>
        <time>2020-12-17T11:29:53.000Z</time>
      </trkpt>
      <trkpt lat="47.27687" lon="-2.35737">
        <ele>-7.5999999046326</ele>
        <time>2020-12-17T11:29:56.000Z</time>
      </trkpt>
      <trkpt lat="47.27682" lon="-2.35742">
        <ele>-8</ele>
        <time>2020-12-17T11:29:57.000Z</time>
      </trkpt>
      <trkpt lat="47.27678" lon="-2.35746">
        <ele>-8.3999996185303</ele>
        <time>2020-12-17T11:29:58.000Z</time>
      </trkpt>
      <trkpt lat="47.27674" lon="-2.35746">
        <ele>-8.8000001907349</ele>
        <time>2020-12-17T11:29:59.000Z</time>
      </trkpt>
      <trkpt lat="47.27669" lon="-2.35744">
        <ele>-9.1999998092651</ele>
        <time>2020-12-17T11:30:00.000Z</time>
      </trkpt>
      <trkpt lat="47.27665" lon="-2.35739">
        <ele>-9.1999998092651</ele>
        <time>2020-12-17T11:30:01.000Z</time>
      </trkpt>
      <trkpt lat="47.27647" lon="-2.35722">
        <ele>-9.1999998092651</ele>
        <time>2020-12-17T11:30:05.000Z</time>
      </trkpt>
      <trkpt lat="47.27628" lon="-2.35716">
        <ele>-9.1999998092651</ele>
        <time>2020-12-17T11:30:08.000Z</time>
      </trkpt>
      <trkpt lat="47.27614" lon="-2.35712">
        <ele>-9.1999998092651</ele>
        <time>2020-12-17T11:30:10.000Z</time>
      </trkpt>
      <trkpt lat="47.27566" lon="-2.35699">
        <ele>-9.1999998092651</ele>
        <time>2020-12-17T11:30:17.000Z</time>
      </trkpt>
      <trkpt lat="47.27559" lon="-2.35698">
        <ele>-9.6000003814697</ele>
        <time>2020-12-17T11:30:18.000Z</time>
      </trkpt>
      <trkpt lat="47.27552" lon="-2.35696">
        <ele>-10</ele>
        <time>2020-12-17T11:30:19.000Z</time>
      </trkpt>
      <trkpt lat="47.27546" lon="-2.35695">
        <ele>-10.39999961853</ele>
        <time>2020-12-17T11:30:20.000Z</time>
      </trkpt>
      <trkpt lat="47.27539" lon="-2.35694">
        <ele>-10.800000190735</ele>
        <time>2020-12-17T11:30:21.000Z</time>
      </trkpt>
      <trkpt lat="47.27532" lon="-2.35692">
        <ele>-11.199999809265</ele>
        <time>2020-12-17T11:30:22.000Z</time>
      </trkpt>
      <trkpt lat="47.27525" lon="-2.35691">
        <ele>-11.199999809265</ele>
        <time>2020-12-17T11:30:23.000Z</time>
      </trkpt>
      <trkpt lat="47.27472" lon="-2.35679">
        <ele>-11.199999809265</ele>
        <time>2020-12-17T11:30:31.000Z</time>
      </trkpt>
      <trkpt lat="47.27453" lon="-2.35675">
        <ele>-11.60000038147</ele>
        <time>2020-12-17T11:30:34.000Z</time>
      </trkpt>
      <trkpt lat="47.27447" lon="-2.35673">
        <ele>-12</ele>
        <time>2020-12-17T11:30:35.000Z</time>
      </trkpt>
      <trkpt lat="47.27442" lon="-2.35672">
        <ele>-12.39999961853</ele>
        <time>2020-12-17T11:30:36.000Z</time>
      </trkpt>
      <trkpt lat="47.27436" lon="-2.35671">
        <ele>-13</ele>
        <time>2020-12-17T11:30:37.000Z</time>
      </trkpt>
      <trkpt lat="47.27431" lon="-2.3567">
        <ele>-13.39999961853</ele>
        <time>2020-12-17T11:30:38.000Z</time>
      </trkpt>
      <trkpt lat="47.27413" lon="-2.35667">
        <ele>-13.39999961853</ele>
        <time>2020-12-17T11:30:41.000Z</time>
      </trkpt>
      <trkpt lat="47.27402" lon="-2.3567">
        <ele>-13.39999961853</ele>
        <time>2020-12-17T11:30:43.000Z</time>
      </trkpt>
      <trkpt lat="47.27386" lon="-2.3568">
        <ele>-13.39999961853</ele>
        <time>2020-12-17T11:30:46.000Z</time>
      </trkpt>
      <trkpt lat="47.27375" lon="-2.35689">
        <ele>-13.39999961853</ele>
        <time>2020-12-17T11:30:48.000Z</time>
      </trkpt>
      <trkpt lat="47.27339" lon="-2.35717">
        <ele>-13.39999961853</ele>
        <time>2020-12-17T11:30:55.000Z</time>
      </trkpt>
      <trkpt lat="47.27327" lon="-2.35731">
        <ele>-13.39999961853</ele>
        <time>2020-12-17T11:30:58.000Z</time>
      </trkpt>
      <trkpt lat="47.27322" lon="-2.3574">
        <ele>-13.39999961853</ele>
        <time>2020-12-17T11:31:00.000Z</time>
      </trkpt>
      <trkpt lat="47.27314" lon="-2.35743">
        <ele>-13.39999961853</ele>
        <time>2020-12-17T11:31:02.000Z</time>
      </trkpt>
      <trkpt lat="47.27311" lon="-2.3574">
        <ele>-13.39999961853</ele>
        <time>2020-12-17T11:31:03.000Z</time>
      </trkpt>
      <trkpt lat="47.27303" lon="-2.35721">
        <ele>-13.39999961853</ele>
        <time>2020-12-17T11:31:06.000Z</time>
      </trkpt>
      <trkpt lat="47.27301" lon="-2.35714">
        <ele>-13.39999961853</ele>
        <time>2020-12-17T11:31:07.000Z</time>
      </trkpt>
      <trkpt lat="47.27295" lon="-2.35701">
        <ele>-13.39999961853</ele>
        <time>2020-12-17T11:31:09.000Z</time>
      </trkpt>
      <trkpt lat="47.27286" lon="-2.35684">
        <ele>-13.39999961853</ele>
        <time>2020-12-17T11:31:12.000Z</time>
      </trkpt>
      <trkpt lat="47.27264" lon="-2.35634">
        <ele>-13.39999961853</ele>
        <time>2020-12-17T11:31:20.000Z</time>
      </trkpt>
      <trkpt lat="47.27242" lon="-2.35581">
        <ele>-13.39999961853</ele>
        <time>2020-12-17T11:31:28.000Z</time>
      </trkpt>
      <trkpt lat="47.27218" lon="-2.35532">
        <ele>-13.39999961853</ele>
        <time>2020-12-17T11:31:36.000Z</time>
      </trkpt>
      <trkpt lat="47.27191" lon="-2.35475">
        <ele>-13.39999961853</ele>
        <time>2020-12-17T11:31:45.000Z</time>
      </trkpt>
      <trkpt lat="47.27158" lon="-2.35409">
        <ele>-13.39999961853</ele>
        <time>2020-12-17T11:31:55.000Z</time>
      </trkpt>
      <trkpt lat="47.2713" lon="-2.35359">
        <ele>-13.39999961853</ele>
        <time>2020-12-17T11:32:03.000Z</time>
      </trkpt>
      <trkpt lat="47.27096" lon="-2.35305">
        <ele>-13.39999961853</ele>
        <time>2020-12-17T11:32:12.000Z</time>
      </trkpt>
      <trkpt lat="47.27059" lon="-2.35246">
        <ele>-13.39999961853</ele>
        <time>2020-12-17T11:32:22.000Z</time>
      </trkpt>
      <trkpt lat="47.27021" lon="-2.35184">
        <ele>-13.39999961853</ele>
        <time>2020-12-17T11:32:32.000Z</time>
      </trkpt>
      <trkpt lat="47.26991" lon="-2.35137">
        <ele>-13.39999961853</ele>
        <time>2020-12-17T11:32:40.000Z</time>
      </trkpt>
      <trkpt lat="47.2696" lon="-2.35089">
        <ele>-13.39999961853</ele>
        <time>2020-12-17T11:32:48.000Z</time>
      </trkpt>
      <trkpt lat="47.26925" lon="-2.35039">
        <ele>-13.39999961853</ele>
        <time>2020-12-17T11:32:57.000Z</time>
      </trkpt>
      <trkpt lat="47.26888" lon="-2.34982">
        <ele>-13.39999961853</ele>
        <time>2020-12-17T11:33:07.000Z</time>
      </trkpt>
      <trkpt lat="47.26856" lon="-2.34931">
        <ele>-13.39999961853</ele>
        <time>2020-12-17T11:33:16.000Z</time>
      </trkpt>
      <trkpt lat="47.26828" lon="-2.3489">
        <ele>-13.39999961853</ele>
        <time>2020-12-17T11:33:24.000Z</time>
      </trkpt>
      <trkpt lat="47.26808" lon="-2.34859">
        <ele>-13.39999961853</ele>
        <time>2020-12-17T11:33:31.000Z</time>
      </trkpt>
      <trkpt lat="47.26777" lon="-2.34817">
        <ele>-13.39999961853</ele>
        <time>2020-12-17T11:33:40.000Z</time>
      </trkpt>
      <trkpt lat="47.2677" lon="-2.34808">
        <ele>-13.39999961853</ele>
        <time>2020-12-17T11:33:42.000Z</time>
      </trkpt>
      <trkpt lat="47.26754" lon="-2.34789">
        <ele>-13.39999961853</ele>
        <time>2020-12-17T11:33:46.000Z</time>
      </trkpt>
      <trkpt lat="47.26724" lon="-2.34754">
        <ele>-13.39999961853</ele>
        <time>2020-12-17T11:33:53.000Z</time>
      </trkpt>
      <trkpt lat="47.26687" lon="-2.34711">
        <ele>-13.39999961853</ele>
        <time>2020-12-17T11:34:02.000Z</time>
      </trkpt>
      <trkpt lat="47.26657" lon="-2.34673">
        <ele>-13.39999961853</ele>
        <time>2020-12-17T11:34:10.000Z</time>
      </trkpt>
      <trkpt lat="47.26629" lon="-2.3464">
        <ele>-13.39999961853</ele>
        <time>2020-12-17T11:34:17.000Z</time>
      </trkpt>
      <trkpt lat="47.26591" lon="-2.34595">
        <ele>-13.39999961853</ele>
        <time>2020-12-17T11:34:26.000Z</time>
      </trkpt>
      <trkpt lat="47.26555" lon="-2.34556">
        <ele>-13.39999961853</ele>
        <time>2020-12-17T11:34:34.000Z</time>
      </trkpt>
      <trkpt lat="47.26512" lon="-2.34518">
        <ele>-13.39999961853</ele>
        <time>2020-12-17T11:34:43.000Z</time>
      </trkpt>
      <trkpt lat="47.26467" lon="-2.34485">
        <ele>-13.39999961853</ele>
        <time>2020-12-17T11:34:52.000Z</time>
      </trkpt>
      <trkpt lat="47.26431" lon="-2.34459">
        <ele>-13.39999961853</ele>
        <time>2020-12-17T11:34:59.000Z</time>
      </trkpt>
      <trkpt lat="47.26387" lon="-2.34425">
        <ele>-13.39999961853</ele>
        <time>2020-12-17T11:35:08.000Z</time>
      </trkpt>
      <trkpt lat="47.26355" lon="-2.34396">
        <ele>-13.39999961853</ele>
        <time>2020-12-17T11:35:15.000Z</time>
      </trkpt>
      <trkpt lat="47.26337" lon="-2.3438">
        <ele>-13.39999961853</ele>
        <time>2020-12-17T11:35:19.000Z</time>
      </trkpt>
      <trkpt lat="47.26327" lon="-2.3438">
        <ele>-13.39999961853</ele>
        <time>2020-12-17T11:35:21.000Z</time>
      </trkpt>
      <trkpt lat="47.26315" lon="-2.34367">
        <ele>-13.39999961853</ele>
        <time>2020-12-17T11:35:24.000Z</time>
      </trkpt>
      <trkpt lat="47.263" lon="-2.34343">
        <ele>-13.39999961853</ele>
        <time>2020-12-17T11:35:28.000Z</time>
      </trkpt>
      <trkpt lat="47.26295" lon="-2.34338">
        <ele>-13.39999961853</ele>
        <time>2020-12-17T11:35:29.000Z</time>
      </trkpt>
      <trkpt lat="47.26267" lon="-2.34306">
        <ele>-13.39999961853</ele>
        <time>2020-12-17T11:35:35.000Z</time>
      </trkpt>
      <trkpt lat="47.26224" lon="-2.3426">
        <ele>-13.39999961853</ele>
        <time>2020-12-17T11:35:44.000Z</time>
      </trkpt>
      <trkpt lat="47.26186" lon="-2.3422">
        <ele>-13.39999961853</ele>
        <time>2020-12-17T11:35:52.000Z</time>
      </trkpt>
      <trkpt lat="47.26143" lon="-2.34183">
        <ele>-13.39999961853</ele>
        <time>2020-12-17T11:36:01.000Z</time>
      </trkpt>
      <trkpt lat="47.26128" lon="-2.34174">
        <ele>-13.39999961853</ele>
        <time>2020-12-17T11:36:04.000Z</time>
      </trkpt>
      <trkpt lat="47.26108" lon="-2.34157">
        <ele>-13.39999961853</ele>
        <time>2020-12-17T11:36:08.000Z</time>
      </trkpt>
      <trkpt lat="47.26097" lon="-2.34152">
        <ele>-13.39999961853</ele>
        <time>2020-12-17T11:36:10.000Z</time>
      </trkpt>
      <trkpt lat="47.26074" lon="-2.3414">
        <ele>-13.39999961853</ele>
        <time>2020-12-17T11:36:14.000Z</time>
      </trkpt>
      <trkpt lat="47.26021" lon="-2.34113">
        <ele>-13.39999961853</ele>
        <time>2020-12-17T11:36:23.000Z</time>
      </trkpt>
      <trkpt lat="47.25971" lon="-2.34089">
        <ele>-13.39999961853</ele>
        <time>2020-12-17T11:36:32.000Z</time>
      </trkpt>
      <trkpt lat="47.25955" lon="-2.34083">
        <ele>-13.800000190735</ele>
        <time>2020-12-17T11:36:35.000Z</time>
      </trkpt>
      <trkpt lat="47.2595" lon="-2.3408">
        <ele>-14.199999809265</ele>
        <time>2020-12-17T11:36:36.000Z</time>
      </trkpt>
      <trkpt lat="47.25944" lon="-2.34078">
        <ele>-14.60000038147</ele>
        <time>2020-12-17T11:36:37.000Z</time>
      </trkpt>
      <trkpt lat="47.25939" lon="-2.34075">
        <ele>-15</ele>
        <time>2020-12-17T11:36:38.000Z</time>
      </trkpt>
      <trkpt lat="47.25933" lon="-2.34073">
        <ele>-15.39999961853</ele>
        <time>2020-12-17T11:36:39.000Z</time>
      </trkpt>
      <trkpt lat="47.25915" lon="-2.34069">
        <ele>-15.39999961853</ele>
        <time>2020-12-17T11:36:42.000Z</time>
      </trkpt>
      <trkpt lat="47.2591" lon="-2.34066">
        <ele>-15.39999961853</ele>
        <time>2020-12-17T11:36:43.000Z</time>
      </trkpt>
      <trkpt lat="47.25901" lon="-2.34055">
        <ele>-15.39999961853</ele>
        <time>2020-12-17T11:36:45.000Z</time>
      </trkpt>
      <trkpt lat="47.25899" lon="-2.34031">
        <ele>-15.39999961853</ele>
        <time>2020-12-17T11:36:48.000Z</time>
      </trkpt>
      <trkpt lat="47.25904" lon="-2.34006">
        <ele>-15.39999961853</ele>
        <time>2020-12-17T11:36:51.000Z</time>
      </trkpt>
      <trkpt lat="47.25906" lon="-2.33998">
        <ele>-15.39999961853</ele>
        <time>2020-12-17T11:36:52.000Z</time>
      </trkpt>
      <trkpt lat="47.25923" lon="-2.33949">
        <ele>-15.39999961853</ele>
        <time>2020-12-17T11:36:58.000Z</time>
      </trkpt>
      <trkpt lat="47.25944" lon="-2.33909">
        <ele>-15.39999961853</ele>
        <time>2020-12-17T11:37:04.000Z</time>
      </trkpt>
      <trkpt lat="47.25958" lon="-2.33862">
        <ele>-15.39999961853</ele>
        <time>2020-12-17T11:37:10.000Z</time>
      </trkpt>
      <trkpt lat="47.25982" lon="-2.33796">
        <ele>-15.39999961853</ele>
        <time>2020-12-17T11:37:18.000Z</time>
      </trkpt>
      <trkpt lat="47.25997" lon="-2.33756">
        <ele>-15.39999961853</ele>
        <time>2020-12-17T11:37:23.000Z</time>
      </trkpt>
      <trkpt lat="47.26017" lon="-2.33698">
        <ele>-15.39999961853</ele>
        <time>2020-12-17T11:37:30.000Z</time>
      </trkpt>
      <trkpt lat="47.26024" lon="-2.3367">
        <ele>-15.800000190735</ele>
        <time>2020-12-17T11:37:34.000Z</time>
      </trkpt>
      <trkpt lat="47.26027" lon="-2.33667">
        <ele>-16.200000762939</ele>
        <time>2020-12-17T11:37:35.000Z</time>
      </trkpt>
      <trkpt lat="47.26032" lon="-2.33667">
        <ele>-16.60000038147</ele>
        <time>2020-12-17T11:37:36.000Z</time>
      </trkpt>
      <trkpt lat="47.26036" lon="-2.33668">
        <ele>-17</ele>
        <time>2020-12-17T11:37:37.000Z</time>
      </trkpt>
      <trkpt lat="47.2604" lon="-2.33669">
        <ele>-17.39999961853</ele>
        <time>2020-12-17T11:37:38.000Z</time>
      </trkpt>
      <trkpt lat="47.26044" lon="-2.33669">
        <ele>-17.39999961853</ele>
        <time>2020-12-17T11:37:39.000Z</time>
      </trkpt>
      <trkpt lat="47.26054" lon="-2.33665">
        <ele>-17.39999961853</ele>
        <time>2020-12-17T11:37:42.000Z</time>
      </trkpt>
      <trkpt lat="47.26056" lon="-2.3366">
        <ele>-17.39999961853</ele>
        <time>2020-12-17T11:37:43.000Z</time>
      </trkpt>
      <trkpt lat="47.26059" lon="-2.33647">
        <ele>-17.39999961853</ele>
        <time>2020-12-17T11:37:45.000Z</time>
      </trkpt>
      <trkpt lat="47.26073" lon="-2.33604">
        <ele>-17.39999961853</ele>
        <time>2020-12-17T11:37:51.000Z</time>
      </trkpt>
      <trkpt lat="47.26091" lon="-2.33553">
        <ele>-17.39999961853</ele>
        <time>2020-12-17T11:37:58.000Z</time>
      </trkpt>
      <trkpt lat="47.26115" lon="-2.33488">
        <ele>-17.39999961853</ele>
        <time>2020-12-17T11:38:07.000Z</time>
      </trkpt>
      <trkpt lat="47.26122" lon="-2.33466">
        <ele>-17.39999961853</ele>
        <time>2020-12-17T11:38:10.000Z</time>
      </trkpt>
      <trkpt lat="47.26127" lon="-2.33457">
        <ele>-17.39999961853</ele>
        <time>2020-12-17T11:38:12.000Z</time>
      </trkpt>
      <trkpt lat="47.26132" lon="-2.33444">
        <ele>-17.39999961853</ele>
        <time>2020-12-17T11:38:16.000Z</time>
      </trkpt>
      <trkpt lat="47.26136" lon="-2.33419">
        <ele>-17.39999961853</ele>
        <time>2020-12-17T11:38:21.000Z</time>
      </trkpt>
      <trkpt lat="47.26133" lon="-2.33417">
        <ele>-17.39999961853</ele>
        <time>2020-12-17T11:38:22.000Z</time>
      </trkpt>
      <trkpt lat="47.26126" lon="-2.33414">
        <ele>-17.39999961853</ele>
        <time>2020-12-17T11:38:24.000Z</time>
      </trkpt>
      <trkpt lat="47.26119" lon="-2.3341">
        <ele>-17.39999961853</ele>
        <time>2020-12-17T11:38:26.000Z</time>
      </trkpt>
      <trkpt lat="47.2611" lon="-2.33401">
        <ele>-17.39999961853</ele>
        <time>2020-12-17T11:38:28.000Z</time>
      </trkpt>
      <trkpt lat="47.26102" lon="-2.3339">
        <ele>-17.39999961853</ele>
        <time>2020-12-17T11:38:30.000Z</time>
      </trkpt>
      <trkpt lat="47.26086" lon="-2.33367">
        <ele>-17.39999961853</ele>
        <time>2020-12-17T11:38:34.000Z</time>
      </trkpt>
      <trkpt lat="47.26067" lon="-2.3333">
        <ele>-17</ele>
        <time>2020-12-17T11:38:39.000Z</time>
      </trkpt>
      <trkpt lat="47.26064" lon="-2.33322">
        <ele>-16.60000038147</ele>
        <time>2020-12-17T11:38:40.000Z</time>
      </trkpt>
      <trkpt lat="47.2606" lon="-2.33313">
        <ele>-16.200000762939</ele>
        <time>2020-12-17T11:38:41.000Z</time>
      </trkpt>
      <trkpt lat="47.26057" lon="-2.33305">
        <ele>-15.800000190735</ele>
        <time>2020-12-17T11:38:42.000Z</time>
      </trkpt>
      <trkpt lat="47.26054" lon="-2.33296">
        <ele>-15.39999961853</ele>
        <time>2020-12-17T11:38:43.000Z</time>
      </trkpt>
      <trkpt lat="47.26043" lon="-2.33261">
        <ele>-15.39999961853</ele>
        <time>2020-12-17T11:38:47.000Z</time>
      </trkpt>
      <trkpt lat="47.26024" lon="-2.33204">
        <ele>-15.39999961853</ele>
        <time>2020-12-17T11:38:54.000Z</time>
      </trkpt>
      <trkpt lat="47.26001" lon="-2.33136">
        <ele>-15.39999961853</ele>
        <time>2020-12-17T11:39:03.000Z</time>
      </trkpt>
      <trkpt lat="47.25981" lon="-2.33075">
        <ele>-15.39999961853</ele>
        <time>2020-12-17T11:39:11.000Z</time>
      </trkpt>
      <trkpt lat="47.25966" lon="-2.33031">
        <ele>-15.39999961853</ele>
        <time>2020-12-17T11:39:17.000Z</time>
      </trkpt>
      <trkpt lat="47.25953" lon="-2.32985">
        <ele>-15.39999961853</ele>
        <time>2020-12-17T11:39:23.000Z</time>
      </trkpt>
      <trkpt lat="47.25931" lon="-2.32922">
        <ele>-15.39999961853</ele>
        <time>2020-12-17T11:39:31.000Z</time>
      </trkpt>
      <trkpt lat="47.25907" lon="-2.32861">
        <ele>-15.39999961853</ele>
        <time>2020-12-17T11:39:39.000Z</time>
      </trkpt>
      <trkpt lat="47.25886" lon="-2.32798">
        <ele>-15.39999961853</ele>
        <time>2020-12-17T11:39:47.000Z</time>
      </trkpt>
      <trkpt lat="47.25866" lon="-2.32737">
        <ele>-15.39999961853</ele>
        <time>2020-12-17T11:39:55.000Z</time>
      </trkpt>
      <trkpt lat="47.25851" lon="-2.32683">
        <ele>-15.39999961853</ele>
        <time>2020-12-17T11:40:02.000Z</time>
      </trkpt>
      <trkpt lat="47.2583" lon="-2.32604">
        <ele>-15.39999961853</ele>
        <time>2020-12-17T11:40:12.000Z</time>
      </trkpt>
      <trkpt lat="47.25817" lon="-2.32547">
        <ele>-15.39999961853</ele>
        <time>2020-12-17T11:40:19.000Z</time>
      </trkpt>
      <trkpt lat="47.25806" lon="-2.32506">
        <ele>-15.39999961853</ele>
        <time>2020-12-17T11:40:25.000Z</time>
      </trkpt>
      <trkpt lat="47.258" lon="-2.32475">
        <ele>-15.39999961853</ele>
        <time>2020-12-17T11:40:31.000Z</time>
      </trkpt>
      <trkpt lat="47.25806" lon="-2.32459">
        <ele>-15.39999961853</ele>
        <time>2020-12-17T11:40:35.000Z</time>
      </trkpt>
      <trkpt lat="47.25813" lon="-2.32455">
        <ele>-15.800000190735</ele>
        <time>2020-12-17T11:40:37.000Z</time>
      </trkpt>
      <trkpt lat="47.25817" lon="-2.32454">
        <ele>-16.200000762939</ele>
        <time>2020-12-17T11:40:38.000Z</time>
      </trkpt>
      <trkpt lat="47.25821" lon="-2.32457">
        <ele>-16.60000038147</ele>
        <time>2020-12-17T11:40:39.000Z</time>
      </trkpt>
      <trkpt lat="47.25826" lon="-2.3246">
        <ele>-17</ele>
        <time>2020-12-17T11:40:40.000Z</time>
      </trkpt>
      <trkpt lat="47.2583" lon="-2.32462">
        <ele>-17.39999961853</ele>
        <time>2020-12-17T11:40:41.000Z</time>
      </trkpt>
      <trkpt lat="47.25843" lon="-2.32468">
        <ele>-17.39999961853</ele>
        <time>2020-12-17T11:40:44.000Z</time>
      </trkpt>
      <trkpt lat="47.25861" lon="-2.32471">
        <ele>-17.39999961853</ele>
        <time>2020-12-17T11:40:48.000Z</time>
      </trkpt>
      <trkpt lat="47.25871" lon="-2.32469">
        <ele>-17.39999961853</ele>
        <time>2020-12-17T11:40:50.000Z</time>
      </trkpt>
      <trkpt lat="47.25893" lon="-2.32462">
        <ele>-17.39999961853</ele>
        <time>2020-12-17T11:40:55.000Z</time>
      </trkpt>
      <trkpt lat="47.25897" lon="-2.32458">
        <ele>-17.39999961853</ele>
        <time>2020-12-17T11:40:56.000Z</time>
      </trkpt>
      <trkpt lat="47.25923" lon="-2.32429">
        <ele>-17.39999961853</ele>
        <time>2020-12-17T11:41:02.000Z</time>
      </trkpt>
      <trkpt lat="47.25957" lon="-2.32383">
        <ele>-17.39999961853</ele>
        <time>2020-12-17T11:41:11.000Z</time>
      </trkpt>
      <trkpt lat="47.25985" lon="-2.32347">
        <ele>-17.39999961853</ele>
        <time>2020-12-17T11:41:18.000Z</time>
      </trkpt>
      <trkpt lat="47.26016" lon="-2.32308">
        <ele>-17.39999961853</ele>
        <time>2020-12-17T11:41:26.000Z</time>
      </trkpt>
      <trkpt lat="47.26053" lon="-2.32265">
        <ele>-17.39999961853</ele>
        <time>2020-12-17T11:41:35.000Z</time>
      </trkpt>
      <trkpt lat="47.26075" lon="-2.32239">
        <ele>-17.39999961853</ele>
        <time>2020-12-17T11:41:41.000Z</time>
      </trkpt>
      <trkpt lat="47.26079" lon="-2.32234">
        <ele>-17.39999961853</ele>
        <time>2020-12-17T11:41:42.000Z</time>
      </trkpt>
      <trkpt lat="47.26102" lon="-2.32196">
        <ele>-17.39999961853</ele>
        <time>2020-12-17T11:41:49.000Z</time>
      </trkpt>
      <trkpt lat="47.26121" lon="-2.3215">
        <ele>-17.39999961853</ele>
        <time>2020-12-17T11:41:56.000Z</time>
      </trkpt>
      <trkpt lat="47.26135" lon="-2.32102">
        <ele>-17.39999961853</ele>
        <time>2020-12-17T11:42:03.000Z</time>
      </trkpt>
      <trkpt lat="47.26152" lon="-2.3205">
        <ele>-17.39999961853</ele>
        <time>2020-12-17T11:42:11.000Z</time>
      </trkpt>
      <trkpt lat="47.26154" lon="-2.32043">
        <ele>-17.39999961853</ele>
        <time>2020-12-17T11:42:12.000Z</time>
      </trkpt>
      <trkpt lat="47.26165" lon="-2.32015">
        <ele>-17.39999961853</ele>
        <time>2020-12-17T11:42:17.000Z</time>
      </trkpt>
      <trkpt lat="47.26178" lon="-2.32019">
        <ele>-17.39999961853</ele>
        <time>2020-12-17T11:42:20.000Z</time>
      </trkpt>
      <trkpt lat="47.26187" lon="-2.32024">
        <ele>-17.39999961853</ele>
        <time>2020-12-17T11:42:24.000Z</time>
      </trkpt>
      <trkpt lat="47.26196" lon="-2.32022">
        <ele>-17.39999961853</ele>
        <time>2020-12-17T11:42:29.000Z</time>
      </trkpt>
      <trkpt lat="47.26196" lon="-2.32021">
        <ele>-17.39999961853</ele>
        <time>2020-12-17T11:42:30.000Z</time>
      </trkpt>
      <trkpt lat="47.26198" lon="-2.32014">
        <ele>-17.39999961853</ele>
        <time>2020-12-17T11:42:33.000Z</time>
      </trkpt>
      <trkpt lat="47.26198" lon="-2.32011">
        <ele>-17.39999961853</ele>
        <time>2020-12-17T11:42:35.000Z</time>
      </trkpt>
      <trkpt lat="47.26199" lon="-2.32008">
        <ele>-17.39999961853</ele>
        <time>2020-12-17T11:42:36.000Z</time>
      </trkpt>
      <trkpt lat="47.26203" lon="-2.32006">
        <ele>-17.39999961853</ele>
        <time>2020-12-17T11:42:38.000Z</time>
      </trkpt>
      <trkpt lat="47.26206" lon="-2.32002">
        <ele>-17.39999961853</ele>
        <time>2020-12-17T11:42:40.000Z</time>
      </trkpt>
      <trkpt lat="47.2622" lon="-2.31987">
        <ele>-17.39999961853</ele>
        <time>2020-12-17T11:42:46.000Z</time>
      </trkpt>
      <trkpt lat="47.26225" lon="-2.31983">
        <ele>-17.39999961853</ele>
        <time>2020-12-17T11:42:47.000Z</time>
      </trkpt>
      <trkpt lat="47.26234" lon="-2.3198">
        <ele>-17.39999961853</ele>
        <time>2020-12-17T11:42:50.000Z</time>
      </trkpt>
      <trkpt lat="47.26239" lon="-2.31974">
        <ele>-17.39999961853</ele>
        <time>2020-12-17T11:42:52.000Z</time>
      </trkpt>
      <trkpt lat="47.26242" lon="-2.31966">
        <ele>-17.39999961853</ele>
        <time>2020-12-17T11:42:54.000Z</time>
      </trkpt>
      <trkpt lat="47.26249" lon="-2.31948">
        <ele>-17.39999961853</ele>
        <time>2020-12-17T11:43:00.000Z</time>
      </trkpt>
      <trkpt lat="47.2626" lon="-2.31927">
        <ele>-17.39999961853</ele>
        <time>2020-12-17T11:43:06.000Z</time>
      </trkpt>
      <trkpt lat="47.26271" lon="-2.31907">
        <ele>-17.39999961853</ele>
        <time>2020-12-17T11:43:11.000Z</time>
      </trkpt>
      <trkpt lat="47.26274" lon="-2.31904">
        <ele>-17.39999961853</ele>
        <time>2020-12-17T11:43:12.000Z</time>
      </trkpt>
      <trkpt lat="47.2629" lon="-2.3189">
        <ele>-17.39999961853</ele>
        <time>2020-12-17T11:43:17.000Z</time>
      </trkpt>
      <trkpt lat="47.26292" lon="-2.31886">
        <ele>-17.39999961853</ele>
        <time>2020-12-17T11:43:18.000Z</time>
      </trkpt>
      <trkpt lat="47.26297" lon="-2.31857">
        <ele>-17.39999961853</ele>
        <time>2020-12-17T11:43:25.000Z</time>
      </trkpt>
      <trkpt lat="47.26298" lon="-2.31834">
        <ele>-17.39999961853</ele>
        <time>2020-12-17T11:43:31.000Z</time>
      </trkpt>
      <trkpt lat="47.26299" lon="-2.31806">
        <ele>-17.39999961853</ele>
        <time>2020-12-17T11:43:36.000Z</time>
      </trkpt>
      <trkpt lat="47.26299" lon="-2.31761">
        <ele>-17.39999961853</ele>
        <time>2020-12-17T11:43:43.000Z</time>
      </trkpt>
      <trkpt lat="47.26297" lon="-2.31724">
        <ele>-17.39999961853</ele>
        <time>2020-12-17T11:43:49.000Z</time>
      </trkpt>
      <trkpt lat="47.26299" lon="-2.31719">
        <ele>-17.39999961853</ele>
        <time>2020-12-17T11:43:50.000Z</time>
      </trkpt>
      <trkpt lat="47.26305" lon="-2.31712">
        <ele>-17.39999961853</ele>
        <time>2020-12-17T11:43:52.000Z</time>
      </trkpt>
      <trkpt lat="47.2631" lon="-2.31708">
        <ele>-17.39999961853</ele>
        <time>2020-12-17T11:43:54.000Z</time>
      </trkpt>
      <trkpt lat="47.26323" lon="-2.31702">
        <ele>-17</ele>
        <time>2020-12-17T11:43:58.000Z</time>
      </trkpt>
      <trkpt lat="47.26326" lon="-2.317">
        <ele>-16.60000038147</ele>
        <time>2020-12-17T11:43:59.000Z</time>
      </trkpt>
      <trkpt lat="47.26328" lon="-2.31697">
        <ele>-16.200000762939</ele>
        <time>2020-12-17T11:44:00.000Z</time>
      </trkpt>
      <trkpt lat="47.2633" lon="-2.31694">
        <ele>-15.800000190735</ele>
        <time>2020-12-17T11:44:01.000Z</time>
      </trkpt>
      <trkpt lat="47.26331" lon="-2.31691">
        <ele>-15.199999809265</ele>
        <time>2020-12-17T11:44:02.000Z</time>
      </trkpt>
      <trkpt lat="47.26335" lon="-2.31689">
        <ele>-15.199999809265</ele>
        <time>2020-12-17T11:44:03.000Z</time>
      </trkpt>
      <trkpt lat="47.2635" lon="-2.3168">
        <ele>-15.199999809265</ele>
        <time>2020-12-17T11:44:09.000Z</time>
      </trkpt>
      <trkpt lat="47.26355" lon="-2.31677">
        <ele>-14.800000190735</ele>
        <time>2020-12-17T11:44:11.000Z</time>
      </trkpt>
      <trkpt lat="47.26358" lon="-2.31676">
        <ele>-14.39999961853</ele>
        <time>2020-12-17T11:44:12.000Z</time>
      </trkpt>
      <trkpt lat="47.26362" lon="-2.31675">
        <ele>-14</ele>
        <time>2020-12-17T11:44:13.000Z</time>
      </trkpt>
      <trkpt lat="47.26365" lon="-2.31674">
        <ele>-13.60000038147</ele>
        <time>2020-12-17T11:44:14.000Z</time>
      </trkpt>
      <trkpt lat="47.26368" lon="-2.31672">
        <ele>-13.199999809265</ele>
        <time>2020-12-17T11:44:15.000Z</time>
      </trkpt>
      <trkpt lat="47.26389" lon="-2.31662">
        <ele>-13.199999809265</ele>
        <time>2020-12-17T11:44:22.000Z</time>
      </trkpt>
      <trkpt lat="47.26406" lon="-2.31654">
        <ele>-13.199999809265</ele>
        <time>2020-12-17T11:44:28.000Z</time>
      </trkpt>
      <trkpt lat="47.26412" lon="-2.31645">
        <ele>-13.199999809265</ele>
        <time>2020-12-17T11:44:31.000Z</time>
      </trkpt>
      <trkpt lat="47.26412" lon="-2.31641">
        <ele>-13.199999809265</ele>
        <time>2020-12-17T11:44:32.000Z</time>
      </trkpt>
      <trkpt lat="47.26411" lon="-2.3161">
        <ele>-13.199999809265</ele>
        <time>2020-12-17T11:44:39.000Z</time>
      </trkpt>
      <trkpt lat="47.26411" lon="-2.31606">
        <ele>-12.800000190735</ele>
        <time>2020-12-17T11:44:40.000Z</time>
      </trkpt>
      <trkpt lat="47.26411" lon="-2.31602">
        <ele>-12.39999961853</ele>
        <time>2020-12-17T11:44:41.000Z</time>
      </trkpt>
      <trkpt lat="47.26411" lon="-2.31597">
        <ele>-12</ele>
        <time>2020-12-17T11:44:42.000Z</time>
      </trkpt>
      <trkpt lat="47.26411" lon="-2.31593">
        <ele>-11.60000038147</ele>
        <time>2020-12-17T11:44:43.000Z</time>
      </trkpt>
      <trkpt lat="47.26411" lon="-2.31589">
        <ele>-11.199999809265</ele>
        <time>2020-12-17T11:44:44.000Z</time>
      </trkpt>
      <trkpt lat="47.26411" lon="-2.31582">
        <ele>-11.199999809265</ele>
        <time>2020-12-17T11:44:46.000Z</time>
      </trkpt>
      <trkpt lat="47.26412" lon="-2.31554">
        <ele>-11.199999809265</ele>
        <time>2020-12-17T11:44:53.000Z</time>
      </trkpt>
      <trkpt lat="47.26417" lon="-2.31551">
        <ele>-11.199999809265</ele>
        <time>2020-12-17T11:44:57.000Z</time>
      </trkpt>
      <trkpt lat="47.26417" lon="-2.31552">
        <ele>-11.199999809265</ele>
        <time>2020-12-17T11:44:58.000Z</time>
      </trkpt>
    </trkseg>
  </trk>
</gpx>